<?xml version="1.0" encoding="UTF-8" standalone="no" ?>
<gpx xmlns="http://www.topografix.com/GPX/1/1" xmlns:xsi="http://www.w3.org/2001/XMLSchema-instance" xsi:schemaLocation="http://www.topografix.com/GPX/1/1 http://www.topografix.com/GPX/1/1/gpx.xsd" version="1.1" creator="VisuGPX - https://www.visugpx.com">
  <metadata>
    <name>Petit tour de VTT au départ de Plombières</name>
    <desc><![CDATA[Une belle balade avant la pluie :-)]]></desc>
  </metadata>
  <trk>
    <name><![CDATA[Plombières-lès-Dijon Cyclisme]]></name>
    <trkseg>
      <trkpt lat="47.34121" lon="4.96801">
        <ele>250</ele>
        <time>2015-09-12T06:29:51.000Z</time>
      </trkpt>
      <trkpt lat="47.34127" lon="4.96797">
        <ele>250.19999694824</ele>
        <time>2015-09-12T06:29:59.000Z</time>
      </trkpt>
      <trkpt lat="47.34129" lon="4.96795">
        <ele>250.19999694824</ele>
        <time>2015-09-12T06:30:00.000Z</time>
      </trkpt>
      <trkpt lat="47.34133" lon="4.96784">
        <ele>250.19999694824</ele>
        <time>2015-09-12T06:30:05.000Z</time>
      </trkpt>
      <trkpt lat="47.34138" lon="4.96765">
        <ele>250.60000610352</ele>
        <time>2015-09-12T06:30:11.000Z</time>
      </trkpt>
      <trkpt lat="47.34145" lon="4.96734">
        <ele>251.19999694824</ele>
        <time>2015-09-12T06:30:19.000Z</time>
      </trkpt>
      <trkpt lat="47.34152" lon="4.967">
        <ele>251.60000610352</ele>
        <time>2015-09-12T06:30:27.000Z</time>
      </trkpt>
      <trkpt lat="47.34155" lon="4.96686">
        <ele>252.19999694824</ele>
        <time>2015-09-12T06:30:30.000Z</time>
      </trkpt>
      <trkpt lat="47.34162" lon="4.96653">
        <ele>252.39999389648</ele>
        <time>2015-09-12T06:30:37.000Z</time>
      </trkpt>
      <trkpt lat="47.34174" lon="4.96605">
        <ele>252.60000610352</ele>
        <time>2015-09-12T06:30:47.000Z</time>
      </trkpt>
      <trkpt lat="47.34185" lon="4.96589">
        <ele>252.80000305176</ele>
        <time>2015-09-12T06:30:52.000Z</time>
      </trkpt>
      <trkpt lat="47.34198" lon="4.96595">
        <ele>253.60000610352</ele>
        <time>2015-09-12T06:30:57.000Z</time>
      </trkpt>
      <trkpt lat="47.34201" lon="4.96596">
        <ele>253.80000305176</ele>
        <time>2015-09-12T06:30:58.000Z</time>
      </trkpt>
      <trkpt lat="47.34204" lon="4.96597">
        <ele>254</ele>
        <time>2015-09-12T06:30:59.000Z</time>
      </trkpt>
      <trkpt lat="47.34216" lon="4.96604">
        <ele>254.80000305176</ele>
        <time>2015-09-12T06:31:04.000Z</time>
      </trkpt>
      <trkpt lat="47.34228" lon="4.96611">
        <ele>255.80000305176</ele>
        <time>2015-09-12T06:31:09.000Z</time>
      </trkpt>
      <trkpt lat="47.34231" lon="4.96612">
        <ele>256</ele>
        <time>2015-09-12T06:31:10.000Z</time>
      </trkpt>
      <trkpt lat="47.34243" lon="4.96613">
        <ele>256.20001220703</ele>
        <time>2015-09-12T06:31:15.000Z</time>
      </trkpt>
      <trkpt lat="47.34262" lon="4.96613">
        <ele>256.20001220703</ele>
        <time>2015-09-12T06:31:22.000Z</time>
      </trkpt>
      <trkpt lat="47.34275" lon="4.96618">
        <ele>256.79998779297</ele>
        <time>2015-09-12T06:31:26.000Z</time>
      </trkpt>
      <trkpt lat="47.34278" lon="4.9662">
        <ele>257</ele>
        <time>2015-09-12T06:31:27.000Z</time>
      </trkpt>
      <trkpt lat="47.34291" lon="4.96626">
        <ele>257.60000610352</ele>
        <time>2015-09-12T06:31:32.000Z</time>
      </trkpt>
      <trkpt lat="47.34297" lon="4.96627">
        <ele>258</ele>
        <time>2015-09-12T06:31:34.000Z</time>
      </trkpt>
      <trkpt lat="47.34309" lon="4.96625">
        <ele>258.39999389648</ele>
        <time>2015-09-12T06:31:38.000Z</time>
      </trkpt>
      <trkpt lat="47.34317" lon="4.9662">
        <ele>258.39999389648</ele>
        <time>2015-09-12T06:31:41.000Z</time>
      </trkpt>
      <trkpt lat="47.34322" lon="4.96615">
        <ele>259</ele>
        <time>2015-09-12T06:31:43.000Z</time>
      </trkpt>
      <trkpt lat="47.34328" lon="4.9661">
        <ele>259.39999389648</ele>
        <time>2015-09-12T06:31:45.000Z</time>
      </trkpt>
      <trkpt lat="47.34347" lon="4.96589">
        <ele>260.20001220703</ele>
        <time>2015-09-12T06:31:52.000Z</time>
      </trkpt>
      <trkpt lat="47.34366" lon="4.96573">
        <ele>261.20001220703</ele>
        <time>2015-09-12T06:31:59.000Z</time>
      </trkpt>
      <trkpt lat="47.34371" lon="4.96567">
        <ele>261.20001220703</ele>
        <time>2015-09-12T06:32:01.000Z</time>
      </trkpt>
      <trkpt lat="47.34396" lon="4.9654">
        <ele>262.20001220703</ele>
        <time>2015-09-12T06:32:11.000Z</time>
      </trkpt>
      <trkpt lat="47.34399" lon="4.96538">
        <ele>262.20001220703</ele>
        <time>2015-09-12T06:32:12.000Z</time>
      </trkpt>
      <trkpt lat="47.3442" lon="4.96518">
        <ele>263</ele>
        <time>2015-09-12T06:32:20.000Z</time>
      </trkpt>
      <trkpt lat="47.34426" lon="4.96513">
        <ele>263.39999389648</ele>
        <time>2015-09-12T06:32:22.000Z</time>
      </trkpt>
      <trkpt lat="47.34429" lon="4.9651">
        <ele>263.60000610352</ele>
        <time>2015-09-12T06:32:23.000Z</time>
      </trkpt>
      <trkpt lat="47.34455" lon="4.96489">
        <ele>264.39999389648</ele>
        <time>2015-09-12T06:32:32.000Z</time>
      </trkpt>
      <trkpt lat="47.34485" lon="4.96473">
        <ele>265.39999389648</ele>
        <time>2015-09-12T06:32:42.000Z</time>
      </trkpt>
      <trkpt lat="47.34488" lon="4.96471">
        <ele>265.60000610352</ele>
        <time>2015-09-12T06:32:43.000Z</time>
      </trkpt>
      <trkpt lat="47.34509" lon="4.96461">
        <ele>266.39999389648</ele>
        <time>2015-09-12T06:32:50.000Z</time>
      </trkpt>
      <trkpt lat="47.34515" lon="4.96459">
        <ele>266.60000610352</ele>
        <time>2015-09-12T06:32:52.000Z</time>
      </trkpt>
      <trkpt lat="47.34538" lon="4.96455">
        <ele>267.60000610352</ele>
        <time>2015-09-12T06:32:59.000Z</time>
      </trkpt>
      <trkpt lat="47.34541" lon="4.96454">
        <ele>267.60000610352</ele>
        <time>2015-09-12T06:33:00.000Z</time>
      </trkpt>
      <trkpt lat="47.34547" lon="4.96454">
        <ele>267.79998779297</ele>
        <time>2015-09-12T06:33:02.000Z</time>
      </trkpt>
      <trkpt lat="47.34577" lon="4.96453">
        <ele>268.60000610352</ele>
        <time>2015-09-12T06:33:11.000Z</time>
      </trkpt>
      <trkpt lat="47.34583" lon="4.96453">
        <ele>269</ele>
        <time>2015-09-12T06:33:13.000Z</time>
      </trkpt>
      <trkpt lat="47.34601" lon="4.96453">
        <ele>269.79998779297</ele>
        <time>2015-09-12T06:33:19.000Z</time>
      </trkpt>
      <trkpt lat="47.3461" lon="4.96448">
        <ele>270.20001220703</ele>
        <time>2015-09-12T06:33:22.000Z</time>
      </trkpt>
      <trkpt lat="47.34621" lon="4.96426">
        <ele>271</ele>
        <time>2015-09-12T06:33:28.000Z</time>
      </trkpt>
      <trkpt lat="47.34632" lon="4.96407">
        <ele>272</ele>
        <time>2015-09-12T06:33:34.000Z</time>
      </trkpt>
      <trkpt lat="47.34635" lon="4.96405">
        <ele>272.20001220703</ele>
        <time>2015-09-12T06:33:35.000Z</time>
      </trkpt>
      <trkpt lat="47.34653" lon="4.96392">
        <ele>273.20001220703</ele>
        <time>2015-09-12T06:33:42.000Z</time>
      </trkpt>
      <trkpt lat="47.3466" lon="4.96386">
        <ele>273.60000610352</ele>
        <time>2015-09-12T06:33:45.000Z</time>
      </trkpt>
      <trkpt lat="47.3467" lon="4.96376">
        <ele>274.20001220703</ele>
        <time>2015-09-12T06:33:50.000Z</time>
      </trkpt>
      <trkpt lat="47.34677" lon="4.96366">
        <ele>274.60000610352</ele>
        <time>2015-09-12T06:33:54.000Z</time>
      </trkpt>
      <trkpt lat="47.34687" lon="4.96355">
        <ele>275.20001220703</ele>
        <time>2015-09-12T06:33:59.000Z</time>
      </trkpt>
      <trkpt lat="47.34696" lon="4.96343">
        <ele>276</ele>
        <time>2015-09-12T06:34:04.000Z</time>
      </trkpt>
      <trkpt lat="47.34699" lon="4.96338">
        <ele>276.20001220703</ele>
        <time>2015-09-12T06:34:06.000Z</time>
      </trkpt>
      <trkpt lat="47.34714" lon="4.96319">
        <ele>277.20001220703</ele>
        <time>2015-09-12T06:34:14.000Z</time>
      </trkpt>
      <trkpt lat="47.34716" lon="4.96317">
        <ele>277.39999389648</ele>
        <time>2015-09-12T06:34:15.000Z</time>
      </trkpt>
      <trkpt lat="47.3473" lon="4.96302">
        <ele>278.39999389648</ele>
        <time>2015-09-12T06:34:22.000Z</time>
      </trkpt>
      <trkpt lat="47.34737" lon="4.96293">
        <ele>279.39999389648</ele>
        <time>2015-09-12T06:34:26.000Z</time>
      </trkpt>
      <trkpt lat="47.34739" lon="4.96291">
        <ele>279.60000610352</ele>
        <time>2015-09-12T06:34:27.000Z</time>
      </trkpt>
      <trkpt lat="47.3475" lon="4.9628">
        <ele>280</ele>
        <time>2015-09-12T06:34:32.000Z</time>
      </trkpt>
      <trkpt lat="47.34756" lon="4.96274">
        <ele>280.20001220703</ele>
        <time>2015-09-12T06:34:35.000Z</time>
      </trkpt>
      <trkpt lat="47.34761" lon="4.96269">
        <ele>280.60000610352</ele>
        <time>2015-09-12T06:34:38.000Z</time>
      </trkpt>
      <trkpt lat="47.34769" lon="4.9626">
        <ele>281.39999389648</ele>
        <time>2015-09-12T06:34:43.000Z</time>
      </trkpt>
      <trkpt lat="47.3477" lon="4.96258">
        <ele>281.60000610352</ele>
        <time>2015-09-12T06:34:44.000Z</time>
      </trkpt>
      <trkpt lat="47.34783" lon="4.96245">
        <ele>282.60000610352</ele>
        <time>2015-09-12T06:34:51.000Z</time>
      </trkpt>
      <trkpt lat="47.34789" lon="4.96236">
        <ele>283.20001220703</ele>
        <time>2015-09-12T06:34:55.000Z</time>
      </trkpt>
      <trkpt lat="47.34793" lon="4.96232">
        <ele>283.79998779297</ele>
        <time>2015-09-12T06:34:57.000Z</time>
      </trkpt>
      <trkpt lat="47.34807" lon="4.96218">
        <ele>284.60000610352</ele>
        <time>2015-09-12T06:35:05.000Z</time>
      </trkpt>
      <trkpt lat="47.34809" lon="4.96217">
        <ele>284.79998779297</ele>
        <time>2015-09-12T06:35:06.000Z</time>
      </trkpt>
      <trkpt lat="47.34824" lon="4.96211">
        <ele>286.20001220703</ele>
        <time>2015-09-12T06:35:13.000Z</time>
      </trkpt>
      <trkpt lat="47.34841" lon="4.96204">
        <ele>287.20001220703</ele>
        <time>2015-09-12T06:35:21.000Z</time>
      </trkpt>
      <trkpt lat="47.34846" lon="4.96201">
        <ele>287.39999389648</ele>
        <time>2015-09-12T06:35:23.000Z</time>
      </trkpt>
      <trkpt lat="47.34854" lon="4.96194">
        <ele>288</ele>
        <time>2015-09-12T06:35:27.000Z</time>
      </trkpt>
      <trkpt lat="47.3486" lon="4.96188">
        <ele>288.39999389648</ele>
        <time>2015-09-12T06:35:30.000Z</time>
      </trkpt>
      <trkpt lat="47.34868" lon="4.96182">
        <ele>289.20001220703</ele>
        <time>2015-09-12T06:35:34.000Z</time>
      </trkpt>
      <trkpt lat="47.34873" lon="4.96177">
        <ele>289.79998779297</ele>
        <time>2015-09-12T06:35:37.000Z</time>
      </trkpt>
      <trkpt lat="47.34879" lon="4.96174">
        <ele>290.20001220703</ele>
        <time>2015-09-12T06:35:40.000Z</time>
      </trkpt>
      <trkpt lat="47.3489" lon="4.96168">
        <ele>291.39999389648</ele>
        <time>2015-09-12T06:35:45.000Z</time>
      </trkpt>
      <trkpt lat="47.34892" lon="4.96167">
        <ele>291.39999389648</ele>
        <time>2015-09-12T06:35:46.000Z</time>
      </trkpt>
      <trkpt lat="47.34907" lon="4.96164">
        <ele>292.39999389648</ele>
        <time>2015-09-12T06:35:53.000Z</time>
      </trkpt>
      <trkpt lat="47.34909" lon="4.96163">
        <ele>292.60000610352</ele>
        <time>2015-09-12T06:35:54.000Z</time>
      </trkpt>
      <trkpt lat="47.3492" lon="4.96159">
        <ele>293.20001220703</ele>
        <time>2015-09-12T06:36:00.000Z</time>
      </trkpt>
      <trkpt lat="47.34935" lon="4.96156">
        <ele>294</ele>
        <time>2015-09-12T06:36:07.000Z</time>
      </trkpt>
      <trkpt lat="47.34945" lon="4.96155">
        <ele>294.39999389648</ele>
        <time>2015-09-12T06:36:11.000Z</time>
      </trkpt>
      <trkpt lat="47.34953" lon="4.96151">
        <ele>294.79998779297</ele>
        <time>2015-09-12T06:36:14.000Z</time>
      </trkpt>
      <trkpt lat="47.34956" lon="4.96145">
        <ele>295</ele>
        <time>2015-09-12T06:36:16.000Z</time>
      </trkpt>
      <trkpt lat="47.34957" lon="4.96136">
        <ele>295.39999389648</ele>
        <time>2015-09-12T06:36:18.000Z</time>
      </trkpt>
      <trkpt lat="47.34956" lon="4.96132">
        <ele>295.39999389648</ele>
        <time>2015-09-12T06:36:19.000Z</time>
      </trkpt>
      <trkpt lat="47.34947" lon="4.96113">
        <ele>296.39999389648</ele>
        <time>2015-09-12T06:36:26.000Z</time>
      </trkpt>
      <trkpt lat="47.34941" lon="4.96112">
        <ele>297.60000610352</ele>
        <time>2015-09-12T06:36:30.000Z</time>
      </trkpt>
      <trkpt lat="47.34936" lon="4.96111">
        <ele>298</ele>
        <time>2015-09-12T06:36:33.000Z</time>
      </trkpt>
      <trkpt lat="47.34927" lon="4.96112">
        <ele>298.39999389648</ele>
        <time>2015-09-12T06:36:38.000Z</time>
      </trkpt>
      <trkpt lat="47.34925" lon="4.96111">
        <ele>298.60000610352</ele>
        <time>2015-09-12T06:36:39.000Z</time>
      </trkpt>
      <trkpt lat="47.34914" lon="4.9611">
        <ele>299.79998779297</ele>
        <time>2015-09-12T06:36:46.000Z</time>
      </trkpt>
      <trkpt lat="47.34912" lon="4.96109">
        <ele>299.79998779297</ele>
        <time>2015-09-12T06:36:47.000Z</time>
      </trkpt>
      <trkpt lat="47.349" lon="4.96108">
        <ele>300.60000610352</ele>
        <time>2015-09-12T06:36:54.000Z</time>
      </trkpt>
      <trkpt lat="47.34898" lon="4.96108">
        <ele>300.79998779297</ele>
        <time>2015-09-12T06:36:55.000Z</time>
      </trkpt>
      <trkpt lat="47.34889" lon="4.96108">
        <ele>302</ele>
        <time>2015-09-12T06:37:00.000Z</time>
      </trkpt>
      <trkpt lat="47.34885" lon="4.96109">
        <ele>302.39999389648</ele>
        <time>2015-09-12T06:37:02.000Z</time>
      </trkpt>
      <trkpt lat="47.34882" lon="4.9611">
        <ele>302.79998779297</ele>
        <time>2015-09-12T06:37:04.000Z</time>
      </trkpt>
      <trkpt lat="47.34878" lon="4.96111">
        <ele>303.20001220703</ele>
        <time>2015-09-12T06:37:06.000Z</time>
      </trkpt>
      <trkpt lat="47.34871" lon="4.96113">
        <ele>303.79998779297</ele>
        <time>2015-09-12T06:37:10.000Z</time>
      </trkpt>
      <trkpt lat="47.34863" lon="4.96116">
        <ele>304.39999389648</ele>
        <time>2015-09-12T06:37:15.000Z</time>
      </trkpt>
      <trkpt lat="47.34853" lon="4.9612">
        <ele>305.60000610352</ele>
        <time>2015-09-12T06:37:21.000Z</time>
      </trkpt>
      <trkpt lat="47.34851" lon="4.96121">
        <ele>305.60000610352</ele>
        <time>2015-09-12T06:37:22.000Z</time>
      </trkpt>
      <trkpt lat="47.3485" lon="4.96122">
        <ele>306</ele>
        <time>2015-09-12T06:37:27.000Z</time>
      </trkpt>
      <trkpt lat="47.34845" lon="4.96125">
        <ele>306.39999389648</ele>
        <time>2015-09-12T06:37:32.000Z</time>
      </trkpt>
      <trkpt lat="47.34841" lon="4.96127">
        <ele>306.60000610352</ele>
        <time>2015-09-12T06:37:34.000Z</time>
      </trkpt>
      <trkpt lat="47.34834" lon="4.96129">
        <ele>307.20001220703</ele>
        <time>2015-09-12T06:37:38.000Z</time>
      </trkpt>
      <trkpt lat="47.34828" lon="4.9613">
        <ele>307.79998779297</ele>
        <time>2015-09-12T06:37:41.000Z</time>
      </trkpt>
      <trkpt lat="47.34817" lon="4.96136">
        <ele>308.79998779297</ele>
        <time>2015-09-12T06:37:48.000Z</time>
      </trkpt>
      <trkpt lat="47.34814" lon="4.96137">
        <ele>309.39999389648</ele>
        <time>2015-09-12T06:37:50.000Z</time>
      </trkpt>
      <trkpt lat="47.34809" lon="4.96139">
        <ele>309.79998779297</ele>
        <time>2015-09-12T06:37:53.000Z</time>
      </trkpt>
      <trkpt lat="47.348" lon="4.96144">
        <ele>311</ele>
        <time>2015-09-12T06:37:58.000Z</time>
      </trkpt>
      <trkpt lat="47.34792" lon="4.96147">
        <ele>311.20001220703</ele>
        <time>2015-09-12T06:38:02.000Z</time>
      </trkpt>
      <trkpt lat="47.34788" lon="4.96149">
        <ele>311.79998779297</ele>
        <time>2015-09-12T06:38:04.000Z</time>
      </trkpt>
      <trkpt lat="47.34781" lon="4.96153">
        <ele>313</ele>
        <time>2015-09-12T06:38:09.000Z</time>
      </trkpt>
      <trkpt lat="47.34774" lon="4.96155">
        <ele>314</ele>
        <time>2015-09-12T06:38:13.000Z</time>
      </trkpt>
      <trkpt lat="47.34773" lon="4.96157">
        <ele>314</ele>
        <time>2015-09-12T06:38:14.000Z</time>
      </trkpt>
      <trkpt lat="47.34764" lon="4.9616">
        <ele>315</ele>
        <time>2015-09-12T06:38:21.000Z</time>
      </trkpt>
      <trkpt lat="47.34754" lon="4.96163">
        <ele>316</ele>
        <time>2015-09-12T06:38:28.000Z</time>
      </trkpt>
      <trkpt lat="47.34752" lon="4.96163">
        <ele>316.39999389648</ele>
        <time>2015-09-12T06:38:29.000Z</time>
      </trkpt>
      <trkpt lat="47.34746" lon="4.96165">
        <ele>317.20001220703</ele>
        <time>2015-09-12T06:38:33.000Z</time>
      </trkpt>
      <trkpt lat="47.34741" lon="4.96167">
        <ele>317.60000610352</ele>
        <time>2015-09-12T06:38:37.000Z</time>
      </trkpt>
      <trkpt lat="47.34736" lon="4.96168">
        <ele>318.20001220703</ele>
        <time>2015-09-12T06:38:40.000Z</time>
      </trkpt>
      <trkpt lat="47.34723" lon="4.96172">
        <ele>319.39999389648</ele>
        <time>2015-09-12T06:38:48.000Z</time>
      </trkpt>
      <trkpt lat="47.34719" lon="4.96172">
        <ele>319.60000610352</ele>
        <time>2015-09-12T06:38:50.000Z</time>
      </trkpt>
      <trkpt lat="47.3471" lon="4.96174">
        <ele>320.20001220703</ele>
        <time>2015-09-12T06:38:56.000Z</time>
      </trkpt>
      <trkpt lat="47.34705" lon="4.96175">
        <ele>320.79998779297</ele>
        <time>2015-09-12T06:38:59.000Z</time>
      </trkpt>
      <trkpt lat="47.347" lon="4.96177">
        <ele>321.20001220703</ele>
        <time>2015-09-12T06:39:02.000Z</time>
      </trkpt>
      <trkpt lat="47.34691" lon="4.96178">
        <ele>322</ele>
        <time>2015-09-12T06:39:08.000Z</time>
      </trkpt>
      <trkpt lat="47.34688" lon="4.96179">
        <ele>322.20001220703</ele>
        <time>2015-09-12T06:39:10.000Z</time>
      </trkpt>
      <trkpt lat="47.34677" lon="4.9618">
        <ele>323</ele>
        <time>2015-09-12T06:39:17.000Z</time>
      </trkpt>
      <trkpt lat="47.34674" lon="4.9618">
        <ele>323.39999389648</ele>
        <time>2015-09-12T06:39:19.000Z</time>
      </trkpt>
      <trkpt lat="47.34664" lon="4.96182">
        <ele>324.39999389648</ele>
        <time>2015-09-12T06:39:26.000Z</time>
      </trkpt>
      <trkpt lat="47.34662" lon="4.96182">
        <ele>324.60000610352</ele>
        <time>2015-09-12T06:39:28.000Z</time>
      </trkpt>
      <trkpt lat="47.34649" lon="4.96185">
        <ele>325.39999389648</ele>
        <time>2015-09-12T06:39:36.000Z</time>
      </trkpt>
      <trkpt lat="47.34646" lon="4.96186">
        <ele>325.60000610352</ele>
        <time>2015-09-12T06:39:38.000Z</time>
      </trkpt>
      <trkpt lat="47.34637" lon="4.96188">
        <ele>326.79998779297</ele>
        <time>2015-09-12T06:39:43.000Z</time>
      </trkpt>
      <trkpt lat="47.3463" lon="4.9619">
        <ele>327.20001220703</ele>
        <time>2015-09-12T06:39:47.000Z</time>
      </trkpt>
      <trkpt lat="47.34619" lon="4.96193">
        <ele>327.60000610352</ele>
        <time>2015-09-12T06:39:53.000Z</time>
      </trkpt>
      <trkpt lat="47.34613" lon="4.96194">
        <ele>327.79998779297</ele>
        <time>2015-09-12T06:39:56.000Z</time>
      </trkpt>
      <trkpt lat="47.34598" lon="4.96194">
        <ele>328.79998779297</ele>
        <time>2015-09-12T06:40:04.000Z</time>
      </trkpt>
      <trkpt lat="47.3459" lon="4.96192">
        <ele>329.60000610352</ele>
        <time>2015-09-12T06:40:08.000Z</time>
      </trkpt>
      <trkpt lat="47.34584" lon="4.96191">
        <ele>329.79998779297</ele>
        <time>2015-09-12T06:40:11.000Z</time>
      </trkpt>
      <trkpt lat="47.34568" lon="4.96183">
        <ele>330.20001220703</ele>
        <time>2015-09-12T06:40:19.000Z</time>
      </trkpt>
      <trkpt lat="47.3456" lon="4.96177">
        <ele>330.79998779297</ele>
        <time>2015-09-12T06:40:24.000Z</time>
      </trkpt>
      <trkpt lat="47.34556" lon="4.96174">
        <ele>331.39999389648</ele>
        <time>2015-09-12T06:40:26.000Z</time>
      </trkpt>
      <trkpt lat="47.3454" lon="4.96164">
        <ele>331.60000610352</ele>
        <time>2015-09-12T06:40:34.000Z</time>
      </trkpt>
      <trkpt lat="47.34532" lon="4.9616">
        <ele>332</ele>
        <time>2015-09-12T06:40:38.000Z</time>
      </trkpt>
      <trkpt lat="47.3452" lon="4.96151">
        <ele>332.60000610352</ele>
        <time>2015-09-12T06:40:45.000Z</time>
      </trkpt>
      <trkpt lat="47.34513" lon="4.96145">
        <ele>333</ele>
        <time>2015-09-12T06:40:49.000Z</time>
      </trkpt>
      <trkpt lat="47.34508" lon="4.96141">
        <ele>333.20001220703</ele>
        <time>2015-09-12T06:40:52.000Z</time>
      </trkpt>
      <trkpt lat="47.34506" lon="4.96138">
        <ele>333.39999389648</ele>
        <time>2015-09-12T06:40:53.000Z</time>
      </trkpt>
      <trkpt lat="47.34507" lon="4.96135">
        <ele>333.79998779297</ele>
        <time>2015-09-12T06:40:54.000Z</time>
      </trkpt>
      <trkpt lat="47.34509" lon="4.96131">
        <ele>334</ele>
        <time>2015-09-12T06:40:56.000Z</time>
      </trkpt>
      <trkpt lat="47.34516" lon="4.9613">
        <ele>334.39999389648</ele>
        <time>2015-09-12T06:40:59.000Z</time>
      </trkpt>
      <trkpt lat="47.3452" lon="4.96132">
        <ele>334.79998779297</ele>
        <time>2015-09-12T06:41:01.000Z</time>
      </trkpt>
      <trkpt lat="47.34524" lon="4.96134">
        <ele>335</ele>
        <time>2015-09-12T06:41:03.000Z</time>
      </trkpt>
      <trkpt lat="47.34537" lon="4.96136">
        <ele>336</ele>
        <time>2015-09-12T06:41:09.000Z</time>
      </trkpt>
      <trkpt lat="47.34539" lon="4.96137">
        <ele>336</ele>
        <time>2015-09-12T06:41:10.000Z</time>
      </trkpt>
      <trkpt lat="47.34553" lon="4.96137">
        <ele>337.20001220703</ele>
        <time>2015-09-12T06:41:17.000Z</time>
      </trkpt>
      <trkpt lat="47.34574" lon="4.96137">
        <ele>338.20001220703</ele>
        <time>2015-09-12T06:41:26.000Z</time>
      </trkpt>
      <trkpt lat="47.34576" lon="4.96137">
        <ele>338.20001220703</ele>
        <time>2015-09-12T06:41:27.000Z</time>
      </trkpt>
      <trkpt lat="47.34589" lon="4.96137">
        <ele>339.39999389648</ele>
        <time>2015-09-12T06:41:33.000Z</time>
      </trkpt>
      <trkpt lat="47.34593" lon="4.96137">
        <ele>339.79998779297</ele>
        <time>2015-09-12T06:41:35.000Z</time>
      </trkpt>
      <trkpt lat="47.34601" lon="4.96136">
        <ele>340.39999389648</ele>
        <time>2015-09-12T06:41:39.000Z</time>
      </trkpt>
      <trkpt lat="47.34609" lon="4.96135">
        <ele>341.39999389648</ele>
        <time>2015-09-12T06:41:43.000Z</time>
      </trkpt>
      <trkpt lat="47.34612" lon="4.96134">
        <ele>341.60000610352</ele>
        <time>2015-09-12T06:41:45.000Z</time>
      </trkpt>
      <trkpt lat="47.34622" lon="4.9613">
        <ele>342.60000610352</ele>
        <time>2015-09-12T06:41:50.000Z</time>
      </trkpt>
      <trkpt lat="47.34628" lon="4.96126">
        <ele>343.20001220703</ele>
        <time>2015-09-12T06:41:54.000Z</time>
      </trkpt>
      <trkpt lat="47.34634" lon="4.96122">
        <ele>343.79998779297</ele>
        <time>2015-09-12T06:41:58.000Z</time>
      </trkpt>
      <trkpt lat="47.3464" lon="4.96116">
        <ele>344.79998779297</ele>
        <time>2015-09-12T06:42:03.000Z</time>
      </trkpt>
      <trkpt lat="47.34647" lon="4.96109">
        <ele>345.60000610352</ele>
        <time>2015-09-12T06:42:09.000Z</time>
      </trkpt>
      <trkpt lat="47.34654" lon="4.96104">
        <ele>346.79998779297</ele>
        <time>2015-09-12T06:42:14.000Z</time>
      </trkpt>
      <trkpt lat="47.34661" lon="4.96098">
        <ele>348</ele>
        <time>2015-09-12T06:42:20.000Z</time>
      </trkpt>
      <trkpt lat="47.34665" lon="4.96095">
        <ele>348.39999389648</ele>
        <time>2015-09-12T06:42:23.000Z</time>
      </trkpt>
      <trkpt lat="47.3467" lon="4.96092">
        <ele>349.20001220703</ele>
        <time>2015-09-12T06:42:27.000Z</time>
      </trkpt>
      <trkpt lat="47.34674" lon="4.9609">
        <ele>349.79998779297</ele>
        <time>2015-09-12T06:42:30.000Z</time>
      </trkpt>
      <trkpt lat="47.34679" lon="4.96087">
        <ele>350.20001220703</ele>
        <time>2015-09-12T06:42:33.000Z</time>
      </trkpt>
      <trkpt lat="47.34686" lon="4.96084">
        <ele>350.79998779297</ele>
        <time>2015-09-12T06:42:38.000Z</time>
      </trkpt>
      <trkpt lat="47.34689" lon="4.96082">
        <ele>351</ele>
        <time>2015-09-12T06:42:40.000Z</time>
      </trkpt>
      <trkpt lat="47.34698" lon="4.96077">
        <ele>352.20001220703</ele>
        <time>2015-09-12T06:42:47.000Z</time>
      </trkpt>
      <trkpt lat="47.34701" lon="4.96075">
        <ele>352.60000610352</ele>
        <time>2015-09-12T06:42:49.000Z</time>
      </trkpt>
      <trkpt lat="47.34707" lon="4.96069">
        <ele>353.20001220703</ele>
        <time>2015-09-12T06:42:54.000Z</time>
      </trkpt>
      <trkpt lat="47.34712" lon="4.96065">
        <ele>353.60000610352</ele>
        <time>2015-09-12T06:42:58.000Z</time>
      </trkpt>
      <trkpt lat="47.34716" lon="4.96062">
        <ele>354.20001220703</ele>
        <time>2015-09-12T06:43:01.000Z</time>
      </trkpt>
      <trkpt lat="47.34721" lon="4.96056">
        <ele>355.20001220703</ele>
        <time>2015-09-12T06:43:06.000Z</time>
      </trkpt>
      <trkpt lat="47.34724" lon="4.96054">
        <ele>355.20001220703</ele>
        <time>2015-09-12T06:43:08.000Z</time>
      </trkpt>
      <trkpt lat="47.34729" lon="4.96047">
        <ele>355.79998779297</ele>
        <time>2015-09-12T06:43:13.000Z</time>
      </trkpt>
      <trkpt lat="47.34734" lon="4.96042">
        <ele>356.60000610352</ele>
        <time>2015-09-12T06:43:17.000Z</time>
      </trkpt>
      <trkpt lat="47.3474" lon="4.96032">
        <ele>357</ele>
        <time>2015-09-12T06:43:24.000Z</time>
      </trkpt>
      <trkpt lat="47.34743" lon="4.96028">
        <ele>357.60000610352</ele>
        <time>2015-09-12T06:43:26.000Z</time>
      </trkpt>
      <trkpt lat="47.34752" lon="4.96016">
        <ele>358.60000610352</ele>
        <time>2015-09-12T06:43:34.000Z</time>
      </trkpt>
      <trkpt lat="47.34759" lon="4.96009">
        <ele>359.60000610352</ele>
        <time>2015-09-12T06:43:40.000Z</time>
      </trkpt>
      <trkpt lat="47.34763" lon="4.96006">
        <ele>360.39999389648</ele>
        <time>2015-09-12T06:43:43.000Z</time>
      </trkpt>
      <trkpt lat="47.34766" lon="4.96003">
        <ele>360.60000610352</ele>
        <time>2015-09-12T06:43:46.000Z</time>
      </trkpt>
      <trkpt lat="47.34772" lon="4.95998">
        <ele>361.60000610352</ele>
        <time>2015-09-12T06:43:51.000Z</time>
      </trkpt>
      <trkpt lat="47.34773" lon="4.95997">
        <ele>361.79998779297</ele>
        <time>2015-09-12T06:43:52.000Z</time>
      </trkpt>
      <trkpt lat="47.34781" lon="4.95989">
        <ele>363</ele>
        <time>2015-09-12T06:43:58.000Z</time>
      </trkpt>
      <trkpt lat="47.34783" lon="4.95987">
        <ele>363.20001220703</ele>
        <time>2015-09-12T06:44:00.000Z</time>
      </trkpt>
      <trkpt lat="47.34791" lon="4.9598">
        <ele>364.20001220703</ele>
        <time>2015-09-12T06:44:06.000Z</time>
      </trkpt>
      <trkpt lat="47.34796" lon="4.95974">
        <ele>364.79998779297</ele>
        <time>2015-09-12T06:44:10.000Z</time>
      </trkpt>
      <trkpt lat="47.348" lon="4.9597">
        <ele>365.39999389648</ele>
        <time>2015-09-12T06:44:13.000Z</time>
      </trkpt>
      <trkpt lat="47.34806" lon="4.95963">
        <ele>366.20001220703</ele>
        <time>2015-09-12T06:44:18.000Z</time>
      </trkpt>
      <trkpt lat="47.34808" lon="4.9596">
        <ele>366.39999389648</ele>
        <time>2015-09-12T06:44:20.000Z</time>
      </trkpt>
      <trkpt lat="47.34815" lon="4.95951">
        <ele>367.60000610352</ele>
        <time>2015-09-12T06:44:26.000Z</time>
      </trkpt>
      <trkpt lat="47.34816" lon="4.95949">
        <ele>367.79998779297</ele>
        <time>2015-09-12T06:44:27.000Z</time>
      </trkpt>
      <trkpt lat="47.34823" lon="4.95943">
        <ele>368.79998779297</ele>
        <time>2015-09-12T06:44:32.000Z</time>
      </trkpt>
      <trkpt lat="47.34826" lon="4.95941">
        <ele>369.20001220703</ele>
        <time>2015-09-12T06:44:34.000Z</time>
      </trkpt>
      <trkpt lat="47.34831" lon="4.95938">
        <ele>369.79998779297</ele>
        <time>2015-09-12T06:44:37.000Z</time>
      </trkpt>
      <trkpt lat="47.34839" lon="4.95936">
        <ele>370.60000610352</ele>
        <time>2015-09-12T06:44:42.000Z</time>
      </trkpt>
      <trkpt lat="47.34841" lon="4.95935">
        <ele>370.79998779297</ele>
        <time>2015-09-12T06:44:43.000Z</time>
      </trkpt>
      <trkpt lat="47.34849" lon="4.9593">
        <ele>371.79998779297</ele>
        <time>2015-09-12T06:44:49.000Z</time>
      </trkpt>
      <trkpt lat="47.34852" lon="4.95928">
        <ele>372.20001220703</ele>
        <time>2015-09-12T06:44:51.000Z</time>
      </trkpt>
      <trkpt lat="47.34863" lon="4.95918">
        <ele>372.79998779297</ele>
        <time>2015-09-12T06:44:58.000Z</time>
      </trkpt>
      <trkpt lat="47.34867" lon="4.95912">
        <ele>373.20001220703</ele>
        <time>2015-09-12T06:45:01.000Z</time>
      </trkpt>
      <trkpt lat="47.34873" lon="4.95906">
        <ele>374</ele>
        <time>2015-09-12T06:45:06.000Z</time>
      </trkpt>
      <trkpt lat="47.34874" lon="4.95905">
        <ele>374</ele>
        <time>2015-09-12T06:45:07.000Z</time>
      </trkpt>
      <trkpt lat="47.34881" lon="4.9589">
        <ele>375</ele>
        <time>2015-09-12T06:45:14.000Z</time>
      </trkpt>
      <trkpt lat="47.34882" lon="4.95888">
        <ele>375.20001220703</ele>
        <time>2015-09-12T06:45:15.000Z</time>
      </trkpt>
      <trkpt lat="47.34889" lon="4.95866">
        <ele>376</ele>
        <time>2015-09-12T06:45:25.000Z</time>
      </trkpt>
      <trkpt lat="47.3489" lon="4.95864">
        <ele>376.39999389648</ele>
        <time>2015-09-12T06:45:26.000Z</time>
      </trkpt>
      <trkpt lat="47.34895" lon="4.95847">
        <ele>377</ele>
        <time>2015-09-12T06:45:35.000Z</time>
      </trkpt>
      <trkpt lat="47.34897" lon="4.95836">
        <ele>378.20001220703</ele>
        <time>2015-09-12T06:45:40.000Z</time>
      </trkpt>
      <trkpt lat="47.34902" lon="4.95823">
        <ele>378.60000610352</ele>
        <time>2015-09-12T06:45:46.000Z</time>
      </trkpt>
      <trkpt lat="47.34903" lon="4.95819">
        <ele>379.20001220703</ele>
        <time>2015-09-12T06:45:48.000Z</time>
      </trkpt>
      <trkpt lat="47.3491" lon="4.95802">
        <ele>379.79998779297</ele>
        <time>2015-09-12T06:45:56.000Z</time>
      </trkpt>
      <trkpt lat="47.34913" lon="4.95796">
        <ele>380.39999389648</ele>
        <time>2015-09-12T06:45:59.000Z</time>
      </trkpt>
      <trkpt lat="47.34917" lon="4.95787">
        <ele>380.60000610352</ele>
        <time>2015-09-12T06:46:04.000Z</time>
      </trkpt>
      <trkpt lat="47.34923" lon="4.9578">
        <ele>381</ele>
        <time>2015-09-12T06:46:09.000Z</time>
      </trkpt>
      <trkpt lat="47.34929" lon="4.95771">
        <ele>381.60000610352</ele>
        <time>2015-09-12T06:46:14.000Z</time>
      </trkpt>
      <trkpt lat="47.34933" lon="4.95766">
        <ele>381.79998779297</ele>
        <time>2015-09-12T06:46:18.000Z</time>
      </trkpt>
      <trkpt lat="47.34939" lon="4.95754">
        <ele>382</ele>
        <time>2015-09-12T06:46:24.000Z</time>
      </trkpt>
      <trkpt lat="47.34944" lon="4.95747">
        <ele>382.39999389648</ele>
        <time>2015-09-12T06:46:28.000Z</time>
      </trkpt>
      <trkpt lat="47.34949" lon="4.95738">
        <ele>383</ele>
        <time>2015-09-12T06:46:33.000Z</time>
      </trkpt>
      <trkpt lat="47.34955" lon="4.95727">
        <ele>383.79998779297</ele>
        <time>2015-09-12T06:46:39.000Z</time>
      </trkpt>
      <trkpt lat="47.34959" lon="4.95718">
        <ele>384</ele>
        <time>2015-09-12T06:46:43.000Z</time>
      </trkpt>
      <trkpt lat="47.34966" lon="4.95699">
        <ele>384.39999389648</ele>
        <time>2015-09-12T06:46:51.000Z</time>
      </trkpt>
      <trkpt lat="47.34969" lon="4.95692">
        <ele>384.60000610352</ele>
        <time>2015-09-12T06:46:56.000Z</time>
      </trkpt>
      <trkpt lat="47.34969" lon="4.95692">
        <ele>384.79998779297</ele>
        <time>2015-09-12T06:46:59.000Z</time>
      </trkpt>
      <trkpt lat="47.34969" lon="4.95692">
        <ele>384.60000610352</ele>
        <time>2015-09-12T06:47:01.000Z</time>
      </trkpt>
      <trkpt lat="47.34969" lon="4.95692">
        <ele>385</ele>
        <time>2015-09-12T06:47:40.000Z</time>
      </trkpt>
      <trkpt lat="47.34971" lon="4.9569">
        <ele>384.79998779297</ele>
        <time>2015-09-12T06:47:44.000Z</time>
      </trkpt>
      <trkpt lat="47.34977" lon="4.95677">
        <ele>384.60000610352</ele>
        <time>2015-09-12T06:47:50.000Z</time>
      </trkpt>
      <trkpt lat="47.34987" lon="4.95651">
        <ele>385</ele>
        <time>2015-09-12T06:47:59.000Z</time>
      </trkpt>
      <trkpt lat="47.34996" lon="4.95626">
        <ele>385</ele>
        <time>2015-09-12T06:48:07.000Z</time>
      </trkpt>
      <trkpt lat="47.35006" lon="4.956">
        <ele>385.20001220703</ele>
        <time>2015-09-12T06:48:15.000Z</time>
      </trkpt>
      <trkpt lat="47.35015" lon="4.95574">
        <ele>385.39999389648</ele>
        <time>2015-09-12T06:48:23.000Z</time>
      </trkpt>
      <trkpt lat="47.35025" lon="4.95546">
        <ele>385.39999389648</ele>
        <time>2015-09-12T06:48:31.000Z</time>
      </trkpt>
      <trkpt lat="47.35029" lon="4.95535">
        <ele>385.60000610352</ele>
        <time>2015-09-12T06:48:34.000Z</time>
      </trkpt>
      <trkpt lat="47.35036" lon="4.95519">
        <ele>385.60000610352</ele>
        <time>2015-09-12T06:48:39.000Z</time>
      </trkpt>
      <trkpt lat="47.35048" lon="4.95487">
        <ele>386</ele>
        <time>2015-09-12T06:48:49.000Z</time>
      </trkpt>
      <trkpt lat="47.35044" lon="4.9547">
        <ele>386</ele>
        <time>2015-09-12T06:48:55.000Z</time>
      </trkpt>
      <trkpt lat="47.35043" lon="4.95449">
        <ele>385.60000610352</ele>
        <time>2015-09-12T06:49:01.000Z</time>
      </trkpt>
      <trkpt lat="47.35047" lon="4.95423">
        <ele>386</ele>
        <time>2015-09-12T06:49:08.000Z</time>
      </trkpt>
      <trkpt lat="47.35049" lon="4.95386">
        <ele>386.20001220703</ele>
        <time>2015-09-12T06:49:17.000Z</time>
      </trkpt>
      <trkpt lat="47.35053" lon="4.95361">
        <ele>386.79998779297</ele>
        <time>2015-09-12T06:49:23.000Z</time>
      </trkpt>
      <trkpt lat="47.35054" lon="4.95354">
        <ele>386.60000610352</ele>
        <time>2015-09-12T06:49:25.000Z</time>
      </trkpt>
      <trkpt lat="47.35062" lon="4.95325">
        <ele>387</ele>
        <time>2015-09-12T06:49:33.000Z</time>
      </trkpt>
      <trkpt lat="47.35075" lon="4.95291">
        <ele>386.79998779297</ele>
        <time>2015-09-12T06:49:42.000Z</time>
      </trkpt>
      <trkpt lat="47.35089" lon="4.95249">
        <ele>386.79998779297</ele>
        <time>2015-09-12T06:49:52.000Z</time>
      </trkpt>
      <trkpt lat="47.35105" lon="4.95205">
        <ele>386.79998779297</ele>
        <time>2015-09-12T06:50:02.000Z</time>
      </trkpt>
      <trkpt lat="47.35121" lon="4.9516">
        <ele>386.60000610352</ele>
        <time>2015-09-12T06:50:12.000Z</time>
      </trkpt>
      <trkpt lat="47.3513" lon="4.95128">
        <ele>386.60000610352</ele>
        <time>2015-09-12T06:50:20.000Z</time>
      </trkpt>
      <trkpt lat="47.35133" lon="4.95114">
        <ele>385.20001220703</ele>
        <time>2015-09-12T06:50:23.000Z</time>
      </trkpt>
      <trkpt lat="47.35135" lon="4.95098">
        <ele>384.20001220703</ele>
        <time>2015-09-12T06:50:26.000Z</time>
      </trkpt>
      <trkpt lat="47.35136" lon="4.95073">
        <ele>383.79998779297</ele>
        <time>2015-09-12T06:50:30.000Z</time>
      </trkpt>
      <trkpt lat="47.35137" lon="4.95056">
        <ele>383.20001220703</ele>
        <time>2015-09-12T06:50:33.000Z</time>
      </trkpt>
      <trkpt lat="47.35139" lon="4.95045">
        <ele>382.60000610352</ele>
        <time>2015-09-12T06:50:35.000Z</time>
      </trkpt>
      <trkpt lat="47.35142" lon="4.95025">
        <ele>380.79998779297</ele>
        <time>2015-09-12T06:50:38.000Z</time>
      </trkpt>
      <trkpt lat="47.35144" lon="4.95011">
        <ele>381.39999389648</ele>
        <time>2015-09-12T06:50:40.000Z</time>
      </trkpt>
      <trkpt lat="47.35146" lon="4.94987">
        <ele>379.60000610352</ele>
        <time>2015-09-12T06:50:43.000Z</time>
      </trkpt>
      <trkpt lat="47.35145" lon="4.94973">
        <ele>378.79998779297</ele>
        <time>2015-09-12T06:50:45.000Z</time>
      </trkpt>
      <trkpt lat="47.35145" lon="4.94966">
        <ele>377.79998779297</ele>
        <time>2015-09-12T06:50:46.000Z</time>
      </trkpt>
      <trkpt lat="47.35143" lon="4.94946">
        <ele>375.79998779297</ele>
        <time>2015-09-12T06:50:49.000Z</time>
      </trkpt>
      <trkpt lat="47.35142" lon="4.94934">
        <ele>375</ele>
        <time>2015-09-12T06:50:51.000Z</time>
      </trkpt>
      <trkpt lat="47.35141" lon="4.94927">
        <ele>373.79998779297</ele>
        <time>2015-09-12T06:50:52.000Z</time>
      </trkpt>
      <trkpt lat="47.35141" lon="4.94913">
        <ele>372</ele>
        <time>2015-09-12T06:50:54.000Z</time>
      </trkpt>
      <trkpt lat="47.35143" lon="4.94899">
        <ele>371.20001220703</ele>
        <time>2015-09-12T06:50:56.000Z</time>
      </trkpt>
      <trkpt lat="47.35145" lon="4.94893">
        <ele>370.60000610352</ele>
        <time>2015-09-12T06:50:57.000Z</time>
      </trkpt>
      <trkpt lat="47.35147" lon="4.94887">
        <ele>369.39999389648</ele>
        <time>2015-09-12T06:50:58.000Z</time>
      </trkpt>
      <trkpt lat="47.35149" lon="4.94881">
        <ele>368.39999389648</ele>
        <time>2015-09-12T06:50:59.000Z</time>
      </trkpt>
      <trkpt lat="47.35152" lon="4.94874">
        <ele>367.79998779297</ele>
        <time>2015-09-12T06:51:00.000Z</time>
      </trkpt>
      <trkpt lat="47.35154" lon="4.94867">
        <ele>367.79998779297</ele>
        <time>2015-09-12T06:51:01.000Z</time>
      </trkpt>
      <trkpt lat="47.35157" lon="4.94855">
        <ele>366</ele>
        <time>2015-09-12T06:51:03.000Z</time>
      </trkpt>
      <trkpt lat="47.35158" lon="4.9485">
        <ele>365</ele>
        <time>2015-09-12T06:51:04.000Z</time>
      </trkpt>
      <trkpt lat="47.35159" lon="4.94846">
        <ele>364.39999389648</ele>
        <time>2015-09-12T06:51:05.000Z</time>
      </trkpt>
      <trkpt lat="47.3516" lon="4.94841">
        <ele>363.79998779297</ele>
        <time>2015-09-12T06:51:07.000Z</time>
      </trkpt>
      <trkpt lat="47.3516" lon="4.94837">
        <ele>363</ele>
        <time>2015-09-12T06:51:09.000Z</time>
      </trkpt>
      <trkpt lat="47.35161" lon="4.94836">
        <ele>362.39999389648</ele>
        <time>2015-09-12T06:51:10.000Z</time>
      </trkpt>
      <trkpt lat="47.3516" lon="4.94835">
        <ele>362.39999389648</ele>
        <time>2015-09-12T06:51:11.000Z</time>
      </trkpt>
      <trkpt lat="47.3516" lon="4.94827">
        <ele>361</ele>
        <time>2015-09-12T06:51:15.000Z</time>
      </trkpt>
      <trkpt lat="47.35159" lon="4.94812">
        <ele>360.20001220703</ele>
        <time>2015-09-12T06:51:19.000Z</time>
      </trkpt>
      <trkpt lat="47.35159" lon="4.94805">
        <ele>359.60000610352</ele>
        <time>2015-09-12T06:51:20.000Z</time>
      </trkpt>
      <trkpt lat="47.35158" lon="4.9479">
        <ele>358.39999389648</ele>
        <time>2015-09-12T06:51:22.000Z</time>
      </trkpt>
      <trkpt lat="47.35157" lon="4.94782">
        <ele>357.79998779297</ele>
        <time>2015-09-12T06:51:23.000Z</time>
      </trkpt>
      <trkpt lat="47.35155" lon="4.94773">
        <ele>357</ele>
        <time>2015-09-12T06:51:24.000Z</time>
      </trkpt>
      <trkpt lat="47.35153" lon="4.94756">
        <ele>355.20001220703</ele>
        <time>2015-09-12T06:51:26.000Z</time>
      </trkpt>
      <trkpt lat="47.35151" lon="4.9474">
        <ele>354.39999389648</ele>
        <time>2015-09-12T06:51:28.000Z</time>
      </trkpt>
      <trkpt lat="47.3515" lon="4.94732">
        <ele>353.39999389648</ele>
        <time>2015-09-12T06:51:29.000Z</time>
      </trkpt>
      <trkpt lat="47.35147" lon="4.94714">
        <ele>352</ele>
        <time>2015-09-12T06:51:31.000Z</time>
      </trkpt>
      <trkpt lat="47.35144" lon="4.94696">
        <ele>351.20001220703</ele>
        <time>2015-09-12T06:51:33.000Z</time>
      </trkpt>
      <trkpt lat="47.35143" lon="4.94685">
        <ele>351</ele>
        <time>2015-09-12T06:51:34.000Z</time>
      </trkpt>
      <trkpt lat="47.3514" lon="4.94665">
        <ele>350</ele>
        <time>2015-09-12T06:51:36.000Z</time>
      </trkpt>
      <trkpt lat="47.35137" lon="4.94646">
        <ele>349</ele>
        <time>2015-09-12T06:51:38.000Z</time>
      </trkpt>
      <trkpt lat="47.35135" lon="4.94637">
        <ele>348.60000610352</ele>
        <time>2015-09-12T06:51:39.000Z</time>
      </trkpt>
      <trkpt lat="47.35133" lon="4.94628">
        <ele>347.60000610352</ele>
        <time>2015-09-12T06:51:40.000Z</time>
      </trkpt>
      <trkpt lat="47.35129" lon="4.9461">
        <ele>345.79998779297</ele>
        <time>2015-09-12T06:51:42.000Z</time>
      </trkpt>
      <trkpt lat="47.35127" lon="4.94603">
        <ele>345</ele>
        <time>2015-09-12T06:51:43.000Z</time>
      </trkpt>
      <trkpt lat="47.35124" lon="4.94596">
        <ele>344.20001220703</ele>
        <time>2015-09-12T06:51:44.000Z</time>
      </trkpt>
      <trkpt lat="47.35119" lon="4.94584">
        <ele>342.39999389648</ele>
        <time>2015-09-12T06:51:46.000Z</time>
      </trkpt>
      <trkpt lat="47.35115" lon="4.94573">
        <ele>341.39999389648</ele>
        <time>2015-09-12T06:51:48.000Z</time>
      </trkpt>
      <trkpt lat="47.35113" lon="4.94568">
        <ele>341</ele>
        <time>2015-09-12T06:51:49.000Z</time>
      </trkpt>
      <trkpt lat="47.35108" lon="4.94546">
        <ele>340.39999389648</ele>
        <time>2015-09-12T06:51:53.000Z</time>
      </trkpt>
      <trkpt lat="47.35105" lon="4.94533">
        <ele>339.60000610352</ele>
        <time>2015-09-12T06:51:55.000Z</time>
      </trkpt>
      <trkpt lat="47.35102" lon="4.94526">
        <ele>339.20001220703</ele>
        <time>2015-09-12T06:51:56.000Z</time>
      </trkpt>
      <trkpt lat="47.35097" lon="4.94512">
        <ele>337.60000610352</ele>
        <time>2015-09-12T06:51:58.000Z</time>
      </trkpt>
      <trkpt lat="47.35087" lon="4.94489">
        <ele>337.20001220703</ele>
        <time>2015-09-12T06:52:01.000Z</time>
      </trkpt>
      <trkpt lat="47.35083" lon="4.94481">
        <ele>336.39999389648</ele>
        <time>2015-09-12T06:52:02.000Z</time>
      </trkpt>
      <trkpt lat="47.35067" lon="4.94448">
        <ele>334.60000610352</ele>
        <time>2015-09-12T06:52:06.000Z</time>
      </trkpt>
      <trkpt lat="47.35063" lon="4.94441">
        <ele>334.20001220703</ele>
        <time>2015-09-12T06:52:07.000Z</time>
      </trkpt>
      <trkpt lat="47.35054" lon="4.94425">
        <ele>333.39999389648</ele>
        <time>2015-09-12T06:52:10.000Z</time>
      </trkpt>
      <trkpt lat="47.35052" lon="4.94423">
        <ele>333.39999389648</ele>
        <time>2015-09-12T06:52:11.000Z</time>
      </trkpt>
      <trkpt lat="47.35041" lon="4.94409">
        <ele>333.20001220703</ele>
        <time>2015-09-12T06:52:15.000Z</time>
      </trkpt>
      <trkpt lat="47.35033" lon="4.94398">
        <ele>332.39999389648</ele>
        <time>2015-09-12T06:52:17.000Z</time>
      </trkpt>
      <trkpt lat="47.35021" lon="4.94379">
        <ele>330.79998779297</ele>
        <time>2015-09-12T06:52:20.000Z</time>
      </trkpt>
      <trkpt lat="47.35018" lon="4.94372">
        <ele>330.60000610352</ele>
        <time>2015-09-12T06:52:21.000Z</time>
      </trkpt>
      <trkpt lat="47.35007" lon="4.94344">
        <ele>330.79998779297</ele>
        <time>2015-09-12T06:52:26.000Z</time>
      </trkpt>
      <trkpt lat="47.34997" lon="4.94321">
        <ele>330</ele>
        <time>2015-09-12T06:52:31.000Z</time>
      </trkpt>
      <trkpt lat="47.34995" lon="4.94317">
        <ele>329.79998779297</ele>
        <time>2015-09-12T06:52:32.000Z</time>
      </trkpt>
      <trkpt lat="47.34991" lon="4.9431">
        <ele>330</ele>
        <time>2015-09-12T06:52:35.000Z</time>
      </trkpt>
      <trkpt lat="47.34986" lon="4.9429">
        <ele>330</ele>
        <time>2015-09-12T06:52:40.000Z</time>
      </trkpt>
      <trkpt lat="47.34977" lon="4.94255">
        <ele>329.79998779297</ele>
        <time>2015-09-12T06:52:47.000Z</time>
      </trkpt>
      <trkpt lat="47.34972" lon="4.94226">
        <ele>330.20001220703</ele>
        <time>2015-09-12T06:52:52.000Z</time>
      </trkpt>
      <trkpt lat="47.34961" lon="4.94184">
        <ele>329.20001220703</ele>
        <time>2015-09-12T06:52:59.000Z</time>
      </trkpt>
      <trkpt lat="47.34958" lon="4.94178">
        <ele>329.39999389648</ele>
        <time>2015-09-12T06:53:00.000Z</time>
      </trkpt>
      <trkpt lat="47.34948" lon="4.94158">
        <ele>329.39999389648</ele>
        <time>2015-09-12T06:53:04.000Z</time>
      </trkpt>
      <trkpt lat="47.34935" lon="4.94137">
        <ele>330</ele>
        <time>2015-09-12T06:53:09.000Z</time>
      </trkpt>
      <trkpt lat="47.34928" lon="4.94128">
        <ele>329.60000610352</ele>
        <time>2015-09-12T06:53:11.000Z</time>
      </trkpt>
      <trkpt lat="47.34921" lon="4.94119">
        <ele>329.79998779297</ele>
        <time>2015-09-12T06:53:13.000Z</time>
      </trkpt>
      <trkpt lat="47.34914" lon="4.94109">
        <ele>329.39999389648</ele>
        <time>2015-09-12T06:53:15.000Z</time>
      </trkpt>
      <trkpt lat="47.34902" lon="4.94092">
        <ele>329.39999389648</ele>
        <time>2015-09-12T06:53:19.000Z</time>
      </trkpt>
      <trkpt lat="47.34892" lon="4.94081">
        <ele>330.39999389648</ele>
        <time>2015-09-12T06:53:23.000Z</time>
      </trkpt>
      <trkpt lat="47.34887" lon="4.94076">
        <ele>330.79998779297</ele>
        <time>2015-09-12T06:53:25.000Z</time>
      </trkpt>
      <trkpt lat="47.34881" lon="4.94068">
        <ele>332</ele>
        <time>2015-09-12T06:53:28.000Z</time>
      </trkpt>
      <trkpt lat="47.34869" lon="4.94051">
        <ele>332.60000610352</ele>
        <time>2015-09-12T06:53:34.000Z</time>
      </trkpt>
      <trkpt lat="47.34867" lon="4.94049">
        <ele>333</ele>
        <time>2015-09-12T06:53:35.000Z</time>
      </trkpt>
      <trkpt lat="47.3486" lon="4.94041">
        <ele>333.20001220703</ele>
        <time>2015-09-12T06:53:38.000Z</time>
      </trkpt>
      <trkpt lat="47.34848" lon="4.94021">
        <ele>333.39999389648</ele>
        <time>2015-09-12T06:53:44.000Z</time>
      </trkpt>
      <trkpt lat="47.34845" lon="4.93991">
        <ele>333</ele>
        <time>2015-09-12T06:53:50.000Z</time>
      </trkpt>
      <trkpt lat="47.34855" lon="4.9397">
        <ele>333.20001220703</ele>
        <time>2015-09-12T06:53:55.000Z</time>
      </trkpt>
      <trkpt lat="47.34866" lon="4.93958">
        <ele>331.79998779297</ele>
        <time>2015-09-12T06:53:59.000Z</time>
      </trkpt>
      <trkpt lat="47.34871" lon="4.93953">
        <ele>331.20001220703</ele>
        <time>2015-09-12T06:54:01.000Z</time>
      </trkpt>
      <trkpt lat="47.34873" lon="4.9395">
        <ele>330.60000610352</ele>
        <time>2015-09-12T06:54:02.000Z</time>
      </trkpt>
      <trkpt lat="47.34877" lon="4.93946">
        <ele>330.39999389648</ele>
        <time>2015-09-12T06:54:04.000Z</time>
      </trkpt>
      <trkpt lat="47.34882" lon="4.93945">
        <ele>330</ele>
        <time>2015-09-12T06:54:06.000Z</time>
      </trkpt>
      <trkpt lat="47.34883" lon="4.93944">
        <ele>329.79998779297</ele>
        <time>2015-09-12T06:54:07.000Z</time>
      </trkpt>
      <trkpt lat="47.34884" lon="4.93943">
        <ele>329.60000610352</ele>
        <time>2015-09-12T06:54:08.000Z</time>
      </trkpt>
      <trkpt lat="47.34886" lon="4.93938">
        <ele>329.20001220703</ele>
        <time>2015-09-12T06:54:10.000Z</time>
      </trkpt>
      <trkpt lat="47.3489" lon="4.93933">
        <ele>328.60000610352</ele>
        <time>2015-09-12T06:54:13.000Z</time>
      </trkpt>
      <trkpt lat="47.34893" lon="4.93928">
        <ele>328.20001220703</ele>
        <time>2015-09-12T06:54:16.000Z</time>
      </trkpt>
      <trkpt lat="47.34898" lon="4.93918">
        <ele>327.39999389648</ele>
        <time>2015-09-12T06:54:21.000Z</time>
      </trkpt>
      <trkpt lat="47.34898" lon="4.93915">
        <ele>327.20001220703</ele>
        <time>2015-09-12T06:54:22.000Z</time>
      </trkpt>
      <trkpt lat="47.34901" lon="4.93905">
        <ele>326.20001220703</ele>
        <time>2015-09-12T06:54:26.000Z</time>
      </trkpt>
      <trkpt lat="47.34902" lon="4.93896">
        <ele>325.60000610352</ele>
        <time>2015-09-12T06:54:28.000Z</time>
      </trkpt>
      <trkpt lat="47.34902" lon="4.93884">
        <ele>324.60000610352</ele>
        <time>2015-09-12T06:54:30.000Z</time>
      </trkpt>
      <trkpt lat="47.34902" lon="4.93871">
        <ele>322.79998779297</ele>
        <time>2015-09-12T06:54:32.000Z</time>
      </trkpt>
      <trkpt lat="47.34902" lon="4.93864">
        <ele>321.79998779297</ele>
        <time>2015-09-12T06:54:33.000Z</time>
      </trkpt>
      <trkpt lat="47.34901" lon="4.93857">
        <ele>321.20001220703</ele>
        <time>2015-09-12T06:54:34.000Z</time>
      </trkpt>
      <trkpt lat="47.34899" lon="4.93842">
        <ele>320.20001220703</ele>
        <time>2015-09-12T06:54:37.000Z</time>
      </trkpt>
      <trkpt lat="47.34898" lon="4.93838">
        <ele>318.60000610352</ele>
        <time>2015-09-12T06:54:38.000Z</time>
      </trkpt>
      <trkpt lat="47.34895" lon="4.93828">
        <ele>317</ele>
        <time>2015-09-12T06:54:41.000Z</time>
      </trkpt>
      <trkpt lat="47.34895" lon="4.93826">
        <ele>316.20001220703</ele>
        <time>2015-09-12T06:54:42.000Z</time>
      </trkpt>
      <trkpt lat="47.34895" lon="4.93824">
        <ele>315.79998779297</ele>
        <time>2015-09-12T06:54:43.000Z</time>
      </trkpt>
      <trkpt lat="47.349" lon="4.9382">
        <ele>315.20001220703</ele>
        <time>2015-09-12T06:54:46.000Z</time>
      </trkpt>
      <trkpt lat="47.34904" lon="4.93818">
        <ele>315.20001220703</ele>
        <time>2015-09-12T06:54:49.000Z</time>
      </trkpt>
      <trkpt lat="47.34907" lon="4.93816">
        <ele>315.20001220703</ele>
        <time>2015-09-12T06:54:51.000Z</time>
      </trkpt>
      <trkpt lat="47.34912" lon="4.93809">
        <ele>315</ele>
        <time>2015-09-12T06:54:56.000Z</time>
      </trkpt>
      <trkpt lat="47.34913" lon="4.93808">
        <ele>314.60000610352</ele>
        <time>2015-09-12T06:54:57.000Z</time>
      </trkpt>
      <trkpt lat="47.34915" lon="4.938">
        <ele>314.39999389648</ele>
        <time>2015-09-12T06:55:01.000Z</time>
      </trkpt>
      <trkpt lat="47.34915" lon="4.93797">
        <ele>314.20001220703</ele>
        <time>2015-09-12T06:55:02.000Z</time>
      </trkpt>
      <trkpt lat="47.34914" lon="4.93792">
        <ele>313.60000610352</ele>
        <time>2015-09-12T06:55:04.000Z</time>
      </trkpt>
      <trkpt lat="47.34913" lon="4.93789">
        <ele>313</ele>
        <time>2015-09-12T06:55:05.000Z</time>
      </trkpt>
      <trkpt lat="47.34911" lon="4.93778">
        <ele>312.20001220703</ele>
        <time>2015-09-12T06:55:07.000Z</time>
      </trkpt>
      <trkpt lat="47.34911" lon="4.93772">
        <ele>311.20001220703</ele>
        <time>2015-09-12T06:55:08.000Z</time>
      </trkpt>
      <trkpt lat="47.34911" lon="4.93766">
        <ele>310.60000610352</ele>
        <time>2015-09-12T06:55:09.000Z</time>
      </trkpt>
      <trkpt lat="47.34911" lon="4.9376">
        <ele>309.79998779297</ele>
        <time>2015-09-12T06:55:10.000Z</time>
      </trkpt>
      <trkpt lat="47.3491" lon="4.9375">
        <ele>308.39999389648</ele>
        <time>2015-09-12T06:55:12.000Z</time>
      </trkpt>
      <trkpt lat="47.34908" lon="4.93736">
        <ele>307.39999389648</ele>
        <time>2015-09-12T06:55:15.000Z</time>
      </trkpt>
      <trkpt lat="47.34907" lon="4.93731">
        <ele>306.79998779297</ele>
        <time>2015-09-12T06:55:16.000Z</time>
      </trkpt>
      <trkpt lat="47.34905" lon="4.93722">
        <ele>306.20001220703</ele>
        <time>2015-09-12T06:55:18.000Z</time>
      </trkpt>
      <trkpt lat="47.34903" lon="4.9372">
        <ele>306</ele>
        <time>2015-09-12T06:55:19.000Z</time>
      </trkpt>
      <trkpt lat="47.349" lon="4.93718">
        <ele>305.60000610352</ele>
        <time>2015-09-12T06:55:20.000Z</time>
      </trkpt>
      <trkpt lat="47.34893" lon="4.93717">
        <ele>304.60000610352</ele>
        <time>2015-09-12T06:55:23.000Z</time>
      </trkpt>
      <trkpt lat="47.34891" lon="4.93716">
        <ele>303.79998779297</ele>
        <time>2015-09-12T06:55:24.000Z</time>
      </trkpt>
      <trkpt lat="47.34889" lon="4.93715">
        <ele>302.79998779297</ele>
        <time>2015-09-12T06:55:25.000Z</time>
      </trkpt>
      <trkpt lat="47.34888" lon="4.93712">
        <ele>301.60000610352</ele>
        <time>2015-09-12T06:55:27.000Z</time>
      </trkpt>
      <trkpt lat="47.34888" lon="4.93711">
        <ele>301.20001220703</ele>
        <time>2015-09-12T06:55:28.000Z</time>
      </trkpt>
      <trkpt lat="47.34888" lon="4.93707">
        <ele>301.20001220703</ele>
        <time>2015-09-12T06:55:35.000Z</time>
      </trkpt>
      <trkpt lat="47.34888" lon="4.937">
        <ele>300.60000610352</ele>
        <time>2015-09-12T06:55:38.000Z</time>
      </trkpt>
      <trkpt lat="47.34887" lon="4.93698">
        <ele>300.20001220703</ele>
        <time>2015-09-12T06:55:39.000Z</time>
      </trkpt>
      <trkpt lat="47.34885" lon="4.93696">
        <ele>300</ele>
        <time>2015-09-12T06:55:40.000Z</time>
      </trkpt>
      <trkpt lat="47.34883" lon="4.93695">
        <ele>299.60000610352</ele>
        <time>2015-09-12T06:55:41.000Z</time>
      </trkpt>
      <trkpt lat="47.34879" lon="4.93698">
        <ele>298.39999389648</ele>
        <time>2015-09-12T06:55:44.000Z</time>
      </trkpt>
      <trkpt lat="47.34874" lon="4.93702">
        <ele>297.20001220703</ele>
        <time>2015-09-12T06:55:47.000Z</time>
      </trkpt>
      <trkpt lat="47.34872" lon="4.93702">
        <ele>296.60000610352</ele>
        <time>2015-09-12T06:55:48.000Z</time>
      </trkpt>
      <trkpt lat="47.34869" lon="4.93703">
        <ele>296</ele>
        <time>2015-09-12T06:55:49.000Z</time>
      </trkpt>
      <trkpt lat="47.34858" lon="4.93706">
        <ele>294.60000610352</ele>
        <time>2015-09-12T06:55:53.000Z</time>
      </trkpt>
      <trkpt lat="47.34854" lon="4.93707">
        <ele>293.20001220703</ele>
        <time>2015-09-12T06:55:54.000Z</time>
      </trkpt>
      <trkpt lat="47.34847" lon="4.93708">
        <ele>292</ele>
        <time>2015-09-12T06:55:56.000Z</time>
      </trkpt>
      <trkpt lat="47.34842" lon="4.93709">
        <ele>290</ele>
        <time>2015-09-12T06:55:58.000Z</time>
      </trkpt>
      <trkpt lat="47.34831" lon="4.93711">
        <ele>288.60000610352</ele>
        <time>2015-09-12T06:56:03.000Z</time>
      </trkpt>
      <trkpt lat="47.34824" lon="4.93717">
        <ele>287.79998779297</ele>
        <time>2015-09-12T06:56:08.000Z</time>
      </trkpt>
      <trkpt lat="47.34822" lon="4.93716">
        <ele>287.39999389648</ele>
        <time>2015-09-12T06:56:10.000Z</time>
      </trkpt>
      <trkpt lat="47.34817" lon="4.93714">
        <ele>286.39999389648</ele>
        <time>2015-09-12T06:56:13.000Z</time>
      </trkpt>
      <trkpt lat="47.34815" lon="4.93715">
        <ele>286.20001220703</ele>
        <time>2015-09-12T06:56:14.000Z</time>
      </trkpt>
      <trkpt lat="47.34812" lon="4.93715">
        <ele>286</ele>
        <time>2015-09-12T06:56:15.000Z</time>
      </trkpt>
      <trkpt lat="47.34806" lon="4.93717">
        <ele>284.79998779297</ele>
        <time>2015-09-12T06:56:17.000Z</time>
      </trkpt>
      <trkpt lat="47.34799" lon="4.93717">
        <ele>284.60000610352</ele>
        <time>2015-09-12T06:56:20.000Z</time>
      </trkpt>
      <trkpt lat="47.34796" lon="4.93715">
        <ele>284.20001220703</ele>
        <time>2015-09-12T06:56:22.000Z</time>
      </trkpt>
      <trkpt lat="47.34796" lon="4.93715">
        <ele>283.79998779297</ele>
        <time>2015-09-12T06:56:24.000Z</time>
      </trkpt>
      <trkpt lat="47.34796" lon="4.93715">
        <ele>283.79998779297</ele>
        <time>2015-09-12T06:56:25.000Z</time>
      </trkpt>
      <trkpt lat="47.34796" lon="4.93714">
        <ele>284</ele>
        <time>2015-09-12T06:56:38.000Z</time>
      </trkpt>
      <trkpt lat="47.34796" lon="4.93714">
        <ele>284</ele>
        <time>2015-09-12T06:56:50.000Z</time>
      </trkpt>
      <trkpt lat="47.34796" lon="4.93714">
        <ele>284.60000610352</ele>
        <time>2015-09-12T06:57:00.000Z</time>
      </trkpt>
      <trkpt lat="47.34796" lon="4.93714">
        <ele>284.20001220703</ele>
        <time>2015-09-12T06:57:11.000Z</time>
      </trkpt>
      <trkpt lat="47.34795" lon="4.93714">
        <ele>284.20001220703</ele>
        <time>2015-09-12T06:57:19.000Z</time>
      </trkpt>
      <trkpt lat="47.34795" lon="4.93714">
        <ele>284.20001220703</ele>
        <time>2015-09-12T06:57:30.000Z</time>
      </trkpt>
      <trkpt lat="47.34795" lon="4.93714">
        <ele>284.60000610352</ele>
        <time>2015-09-12T06:57:40.000Z</time>
      </trkpt>
      <trkpt lat="47.34795" lon="4.93714">
        <ele>284.39999389648</ele>
        <time>2015-09-12T06:57:50.000Z</time>
      </trkpt>
      <trkpt lat="47.34795" lon="4.93714">
        <ele>284.60000610352</ele>
        <time>2015-09-12T06:58:00.000Z</time>
      </trkpt>
      <trkpt lat="47.34795" lon="4.93714">
        <ele>284.39999389648</ele>
        <time>2015-09-12T06:58:03.000Z</time>
      </trkpt>
      <trkpt lat="47.34795" lon="4.93714">
        <ele>284.20001220703</ele>
        <time>2015-09-12T06:58:04.000Z</time>
      </trkpt>
      <trkpt lat="47.34795" lon="4.93713">
        <ele>284.39999389648</ele>
        <time>2015-09-12T06:58:10.000Z</time>
      </trkpt>
      <trkpt lat="47.34794" lon="4.93713">
        <ele>283.79998779297</ele>
        <time>2015-09-12T06:58:18.000Z</time>
      </trkpt>
      <trkpt lat="47.34793" lon="4.93714">
        <ele>283.79998779297</ele>
        <time>2015-09-12T06:58:19.000Z</time>
      </trkpt>
      <trkpt lat="47.34784" lon="4.93721">
        <ele>284</ele>
        <time>2015-09-12T06:58:23.000Z</time>
      </trkpt>
      <trkpt lat="47.34782" lon="4.93723">
        <ele>283.60000610352</ele>
        <time>2015-09-12T06:58:24.000Z</time>
      </trkpt>
      <trkpt lat="47.34772" lon="4.9373">
        <ele>283.39999389648</ele>
        <time>2015-09-12T06:58:28.000Z</time>
      </trkpt>
      <trkpt lat="47.34764" lon="4.93734">
        <ele>283</ele>
        <time>2015-09-12T06:58:30.000Z</time>
      </trkpt>
      <trkpt lat="47.34753" lon="4.93737">
        <ele>282.79998779297</ele>
        <time>2015-09-12T06:58:33.000Z</time>
      </trkpt>
      <trkpt lat="47.34727" lon="4.93748">
        <ele>282.60000610352</ele>
        <time>2015-09-12T06:58:38.000Z</time>
      </trkpt>
      <trkpt lat="47.34721" lon="4.93749">
        <ele>282.60000610352</ele>
        <time>2015-09-12T06:58:39.000Z</time>
      </trkpt>
      <trkpt lat="47.34696" lon="4.93756">
        <ele>282.20001220703</ele>
        <time>2015-09-12T06:58:43.000Z</time>
      </trkpt>
      <trkpt lat="47.3469" lon="4.93758">
        <ele>282.20001220703</ele>
        <time>2015-09-12T06:58:44.000Z</time>
      </trkpt>
      <trkpt lat="47.3467" lon="4.93763">
        <ele>281.79998779297</ele>
        <time>2015-09-12T06:58:47.000Z</time>
      </trkpt>
      <trkpt lat="47.3465" lon="4.93767">
        <ele>281.20001220703</ele>
        <time>2015-09-12T06:58:50.000Z</time>
      </trkpt>
      <trkpt lat="47.34637" lon="4.9377">
        <ele>280</ele>
        <time>2015-09-12T06:58:52.000Z</time>
      </trkpt>
      <trkpt lat="47.34631" lon="4.93771">
        <ele>280.39999389648</ele>
        <time>2015-09-12T06:58:53.000Z</time>
      </trkpt>
      <trkpt lat="47.346" lon="4.93776">
        <ele>280.20001220703</ele>
        <time>2015-09-12T06:58:58.000Z</time>
      </trkpt>
      <trkpt lat="47.34571" lon="4.9378">
        <ele>279</ele>
        <time>2015-09-12T06:59:02.000Z</time>
      </trkpt>
      <trkpt lat="47.3455" lon="4.93782">
        <ele>279</ele>
        <time>2015-09-12T06:59:05.000Z</time>
      </trkpt>
      <trkpt lat="47.34535" lon="4.93783">
        <ele>277.20001220703</ele>
        <time>2015-09-12T06:59:07.000Z</time>
      </trkpt>
      <trkpt lat="47.34528" lon="4.93783">
        <ele>276.39999389648</ele>
        <time>2015-09-12T06:59:08.000Z</time>
      </trkpt>
      <trkpt lat="47.34515" lon="4.93783">
        <ele>276.20001220703</ele>
        <time>2015-09-12T06:59:10.000Z</time>
      </trkpt>
      <trkpt lat="47.34504" lon="4.93785">
        <ele>276</ele>
        <time>2015-09-12T06:59:12.000Z</time>
      </trkpt>
      <trkpt lat="47.3449" lon="4.93789">
        <ele>274.79998779297</ele>
        <time>2015-09-12T06:59:15.000Z</time>
      </trkpt>
      <trkpt lat="47.34474" lon="4.93808">
        <ele>273.79998779297</ele>
        <time>2015-09-12T06:59:19.000Z</time>
      </trkpt>
      <trkpt lat="47.34471" lon="4.93813">
        <ele>273.60000610352</ele>
        <time>2015-09-12T06:59:20.000Z</time>
      </trkpt>
      <trkpt lat="47.34468" lon="4.93819">
        <ele>273.60000610352</ele>
        <time>2015-09-12T06:59:21.000Z</time>
      </trkpt>
      <trkpt lat="47.34463" lon="4.93829">
        <ele>273.39999389648</ele>
        <time>2015-09-12T06:59:23.000Z</time>
      </trkpt>
      <trkpt lat="47.34454" lon="4.93847">
        <ele>272.79998779297</ele>
        <time>2015-09-12T06:59:27.000Z</time>
      </trkpt>
      <trkpt lat="47.34451" lon="4.93853">
        <ele>272.79998779297</ele>
        <time>2015-09-12T06:59:28.000Z</time>
      </trkpt>
      <trkpt lat="47.34447" lon="4.93865">
        <ele>272.60000610352</ele>
        <time>2015-09-12T06:59:30.000Z</time>
      </trkpt>
      <trkpt lat="47.34441" lon="4.93885">
        <ele>272.39999389648</ele>
        <time>2015-09-12T06:59:33.000Z</time>
      </trkpt>
      <trkpt lat="47.34439" lon="4.939">
        <ele>272.20001220703</ele>
        <time>2015-09-12T06:59:35.000Z</time>
      </trkpt>
      <trkpt lat="47.34436" lon="4.93917">
        <ele>272.20001220703</ele>
        <time>2015-09-12T06:59:37.000Z</time>
      </trkpt>
      <trkpt lat="47.34434" lon="4.93943">
        <ele>271.79998779297</ele>
        <time>2015-09-12T06:59:40.000Z</time>
      </trkpt>
      <trkpt lat="47.34434" lon="4.93959">
        <ele>272</ele>
        <time>2015-09-12T06:59:42.000Z</time>
      </trkpt>
      <trkpt lat="47.34434" lon="4.93984">
        <ele>271.60000610352</ele>
        <time>2015-09-12T06:59:45.000Z</time>
      </trkpt>
      <trkpt lat="47.34433" lon="4.93993">
        <ele>271.20001220703</ele>
        <time>2015-09-12T06:59:46.000Z</time>
      </trkpt>
      <trkpt lat="47.34433" lon="4.94001">
        <ele>271.20001220703</ele>
        <time>2015-09-12T06:59:47.000Z</time>
      </trkpt>
      <trkpt lat="47.34431" lon="4.94024">
        <ele>271.39999389648</ele>
        <time>2015-09-12T06:59:51.000Z</time>
      </trkpt>
      <trkpt lat="47.34422" lon="4.94043">
        <ele>271</ele>
        <time>2015-09-12T06:59:57.000Z</time>
      </trkpt>
      <trkpt lat="47.34412" lon="4.94059">
        <ele>270.20001220703</ele>
        <time>2015-09-12T07:00:02.000Z</time>
      </trkpt>
      <trkpt lat="47.34401" lon="4.94083">
        <ele>271.20001220703</ele>
        <time>2015-09-12T07:00:09.000Z</time>
      </trkpt>
      <trkpt lat="47.34381" lon="4.94107">
        <ele>272.20001220703</ele>
        <time>2015-09-12T07:00:16.000Z</time>
      </trkpt>
      <trkpt lat="47.34355" lon="4.94126">
        <ele>271</ele>
        <time>2015-09-12T07:00:23.000Z</time>
      </trkpt>
      <trkpt lat="47.34334" lon="4.94136">
        <ele>270</ele>
        <time>2015-09-12T07:00:29.000Z</time>
      </trkpt>
      <trkpt lat="47.34315" lon="4.94138">
        <ele>269.60000610352</ele>
        <time>2015-09-12T07:00:34.000Z</time>
      </trkpt>
      <trkpt lat="47.3431" lon="4.94139">
        <ele>269.39999389648</ele>
        <time>2015-09-12T07:00:35.000Z</time>
      </trkpt>
      <trkpt lat="47.34305" lon="4.94141">
        <ele>268.79998779297</ele>
        <time>2015-09-12T07:00:36.000Z</time>
      </trkpt>
      <trkpt lat="47.34283" lon="4.94151">
        <ele>267</ele>
        <time>2015-09-12T07:00:40.000Z</time>
      </trkpt>
      <trkpt lat="47.34277" lon="4.94154">
        <ele>266.20001220703</ele>
        <time>2015-09-12T07:00:41.000Z</time>
      </trkpt>
      <trkpt lat="47.34271" lon="4.94157">
        <ele>265.39999389648</ele>
        <time>2015-09-12T07:00:42.000Z</time>
      </trkpt>
      <trkpt lat="47.34227" lon="4.94184">
        <ele>264.79998779297</ele>
        <time>2015-09-12T07:00:49.000Z</time>
      </trkpt>
      <trkpt lat="47.34215" lon="4.94192">
        <ele>264.39999389648</ele>
        <time>2015-09-12T07:00:51.000Z</time>
      </trkpt>
      <trkpt lat="47.34203" lon="4.94199">
        <ele>264</ele>
        <time>2015-09-12T07:00:53.000Z</time>
      </trkpt>
      <trkpt lat="47.3419" lon="4.94202">
        <ele>263.39999389648</ele>
        <time>2015-09-12T07:00:55.000Z</time>
      </trkpt>
      <trkpt lat="47.34179" lon="4.94202">
        <ele>263.60000610352</ele>
        <time>2015-09-12T07:00:57.000Z</time>
      </trkpt>
      <trkpt lat="47.34167" lon="4.94199">
        <ele>263.20001220703</ele>
        <time>2015-09-12T07:00:59.000Z</time>
      </trkpt>
      <trkpt lat="47.34151" lon="4.94186">
        <ele>264.39999389648</ele>
        <time>2015-09-12T07:01:03.000Z</time>
      </trkpt>
      <trkpt lat="47.34148" lon="4.94183">
        <ele>265.20001220703</ele>
        <time>2015-09-12T07:01:04.000Z</time>
      </trkpt>
      <trkpt lat="47.34145" lon="4.9418">
        <ele>265.60000610352</ele>
        <time>2015-09-12T07:01:05.000Z</time>
      </trkpt>
      <trkpt lat="47.34132" lon="4.94169">
        <ele>266</ele>
        <time>2015-09-12T07:01:09.000Z</time>
      </trkpt>
      <trkpt lat="47.34104" lon="4.94143">
        <ele>265.60000610352</ele>
        <time>2015-09-12T07:01:16.000Z</time>
      </trkpt>
      <trkpt lat="47.34071" lon="4.94115">
        <ele>264.60000610352</ele>
        <time>2015-09-12T07:01:23.000Z</time>
      </trkpt>
      <trkpt lat="47.34065" lon="4.9411">
        <ele>264.20001220703</ele>
        <time>2015-09-12T07:01:24.000Z</time>
      </trkpt>
      <trkpt lat="47.34053" lon="4.94102">
        <ele>263.39999389648</ele>
        <time>2015-09-12T07:01:26.000Z</time>
      </trkpt>
      <trkpt lat="47.3404" lon="4.94096">
        <ele>263</ele>
        <time>2015-09-12T07:01:28.000Z</time>
      </trkpt>
      <trkpt lat="47.34033" lon="4.94094">
        <ele>262.60000610352</ele>
        <time>2015-09-12T07:01:29.000Z</time>
      </trkpt>
      <trkpt lat="47.34006" lon="4.94083">
        <ele>261.39999389648</ele>
        <time>2015-09-12T07:01:33.000Z</time>
      </trkpt>
      <trkpt lat="47.34" lon="4.9408">
        <ele>261.20001220703</ele>
        <time>2015-09-12T07:01:34.000Z</time>
      </trkpt>
      <trkpt lat="47.33983" lon="4.94074">
        <ele>261.79998779297</ele>
        <time>2015-09-12T07:01:37.000Z</time>
      </trkpt>
      <trkpt lat="47.33978" lon="4.94074">
        <ele>261.39999389648</ele>
        <time>2015-09-12T07:01:38.000Z</time>
      </trkpt>
      <trkpt lat="47.33965" lon="4.94081">
        <ele>261</ele>
        <time>2015-09-12T07:01:42.000Z</time>
      </trkpt>
      <trkpt lat="47.3396" lon="4.94077">
        <ele>260.60000610352</ele>
        <time>2015-09-12T07:01:45.000Z</time>
      </trkpt>
      <trkpt lat="47.33959" lon="4.94074">
        <ele>260.39999389648</ele>
        <time>2015-09-12T07:01:46.000Z</time>
      </trkpt>
      <trkpt lat="47.3395" lon="4.94064">
        <ele>260.79998779297</ele>
        <time>2015-09-12T07:01:50.000Z</time>
      </trkpt>
      <trkpt lat="47.33933" lon="4.94053">
        <ele>260.79998779297</ele>
        <time>2015-09-12T07:01:56.000Z</time>
      </trkpt>
      <trkpt lat="47.33929" lon="4.94047">
        <ele>261.60000610352</ele>
        <time>2015-09-12T07:01:58.000Z</time>
      </trkpt>
      <trkpt lat="47.33925" lon="4.94038">
        <ele>262.39999389648</ele>
        <time>2015-09-12T07:02:01.000Z</time>
      </trkpt>
      <trkpt lat="47.33925" lon="4.94035">
        <ele>262.79998779297</ele>
        <time>2015-09-12T07:02:02.000Z</time>
      </trkpt>
      <trkpt lat="47.33925" lon="4.94032">
        <ele>263</ele>
        <time>2015-09-12T07:02:03.000Z</time>
      </trkpt>
      <trkpt lat="47.33927" lon="4.94024">
        <ele>262.79998779297</ele>
        <time>2015-09-12T07:02:06.000Z</time>
      </trkpt>
      <trkpt lat="47.33932" lon="4.93997">
        <ele>262</ele>
        <time>2015-09-12T07:02:13.000Z</time>
      </trkpt>
      <trkpt lat="47.33937" lon="4.93957">
        <ele>262</ele>
        <time>2015-09-12T07:02:21.000Z</time>
      </trkpt>
      <trkpt lat="47.33945" lon="4.93916">
        <ele>262</ele>
        <time>2015-09-12T07:02:29.000Z</time>
      </trkpt>
      <trkpt lat="47.33952" lon="4.93874">
        <ele>262.60000610352</ele>
        <time>2015-09-12T07:02:37.000Z</time>
      </trkpt>
      <trkpt lat="47.33961" lon="4.93836">
        <ele>263</ele>
        <time>2015-09-12T07:02:44.000Z</time>
      </trkpt>
      <trkpt lat="47.33964" lon="4.93824">
        <ele>262.60000610352</ele>
        <time>2015-09-12T07:02:46.000Z</time>
      </trkpt>
      <trkpt lat="47.33969" lon="4.93799">
        <ele>263.39999389648</ele>
        <time>2015-09-12T07:02:50.000Z</time>
      </trkpt>
      <trkpt lat="47.33972" lon="4.93788">
        <ele>263.79998779297</ele>
        <time>2015-09-12T07:02:52.000Z</time>
      </trkpt>
      <trkpt lat="47.33976" lon="4.93771">
        <ele>263.79998779297</ele>
        <time>2015-09-12T07:02:55.000Z</time>
      </trkpt>
      <trkpt lat="47.33981" lon="4.93742">
        <ele>264.20001220703</ele>
        <time>2015-09-12T07:03:00.000Z</time>
      </trkpt>
      <trkpt lat="47.33985" lon="4.9372">
        <ele>264.60000610352</ele>
        <time>2015-09-12T07:03:04.000Z</time>
      </trkpt>
      <trkpt lat="47.3399" lon="4.93698">
        <ele>264.60000610352</ele>
        <time>2015-09-12T07:03:08.000Z</time>
      </trkpt>
      <trkpt lat="47.33991" lon="4.93693">
        <ele>265</ele>
        <time>2015-09-12T07:03:09.000Z</time>
      </trkpt>
      <trkpt lat="47.33997" lon="4.93661">
        <ele>265.39999389648</ele>
        <time>2015-09-12T07:03:14.000Z</time>
      </trkpt>
      <trkpt lat="47.33999" lon="4.93654">
        <ele>265.60000610352</ele>
        <time>2015-09-12T07:03:15.000Z</time>
      </trkpt>
      <trkpt lat="47.34002" lon="4.93634">
        <ele>265.79998779297</ele>
        <time>2015-09-12T07:03:18.000Z</time>
      </trkpt>
      <trkpt lat="47.34005" lon="4.93608">
        <ele>266</ele>
        <time>2015-09-12T07:03:22.000Z</time>
      </trkpt>
      <trkpt lat="47.34005" lon="4.93603">
        <ele>266.20001220703</ele>
        <time>2015-09-12T07:03:23.000Z</time>
      </trkpt>
      <trkpt lat="47.34008" lon="4.93576">
        <ele>267</ele>
        <time>2015-09-12T07:03:27.000Z</time>
      </trkpt>
      <trkpt lat="47.34009" lon="4.93564">
        <ele>267.39999389648</ele>
        <time>2015-09-12T07:03:29.000Z</time>
      </trkpt>
      <trkpt lat="47.34009" lon="4.93551">
        <ele>267.39999389648</ele>
        <time>2015-09-12T07:03:31.000Z</time>
      </trkpt>
      <trkpt lat="47.34008" lon="4.93524">
        <ele>267.60000610352</ele>
        <time>2015-09-12T07:03:36.000Z</time>
      </trkpt>
      <trkpt lat="47.34009" lon="4.935">
        <ele>268.20001220703</ele>
        <time>2015-09-12T07:03:40.000Z</time>
      </trkpt>
      <trkpt lat="47.34008" lon="4.93478">
        <ele>268.39999389648</ele>
        <time>2015-09-12T07:03:44.000Z</time>
      </trkpt>
      <trkpt lat="47.34008" lon="4.93472">
        <ele>268.39999389648</ele>
        <time>2015-09-12T07:03:45.000Z</time>
      </trkpt>
      <trkpt lat="47.34008" lon="4.93445">
        <ele>269.20001220703</ele>
        <time>2015-09-12T07:03:49.000Z</time>
      </trkpt>
      <trkpt lat="47.34005" lon="4.93414">
        <ele>268.79998779297</ele>
        <time>2015-09-12T07:03:54.000Z</time>
      </trkpt>
      <trkpt lat="47.34003" lon="4.93394">
        <ele>269</ele>
        <time>2015-09-12T07:03:58.000Z</time>
      </trkpt>
      <trkpt lat="47.34001" lon="4.93381">
        <ele>269.60000610352</ele>
        <time>2015-09-12T07:04:01.000Z</time>
      </trkpt>
      <trkpt lat="47.34001" lon="4.9337">
        <ele>270</ele>
        <time>2015-09-12T07:04:03.000Z</time>
      </trkpt>
      <trkpt lat="47.34" lon="4.93331">
        <ele>270.39999389648</ele>
        <time>2015-09-12T07:04:10.000Z</time>
      </trkpt>
      <trkpt lat="47.33998" lon="4.9331">
        <ele>271</ele>
        <time>2015-09-12T07:04:14.000Z</time>
      </trkpt>
      <trkpt lat="47.33998" lon="4.93303">
        <ele>271</ele>
        <time>2015-09-12T07:04:15.000Z</time>
      </trkpt>
      <trkpt lat="47.34001" lon="4.93273">
        <ele>271.20001220703</ele>
        <time>2015-09-12T07:04:19.000Z</time>
      </trkpt>
      <trkpt lat="47.34" lon="4.93246">
        <ele>271.39999389648</ele>
        <time>2015-09-12T07:04:23.000Z</time>
      </trkpt>
      <trkpt lat="47.33999" lon="4.93217">
        <ele>271.60000610352</ele>
        <time>2015-09-12T07:04:28.000Z</time>
      </trkpt>
      <trkpt lat="47.33999" lon="4.93196">
        <ele>272</ele>
        <time>2015-09-12T07:04:32.000Z</time>
      </trkpt>
      <trkpt lat="47.33997" lon="4.9317">
        <ele>272.20001220703</ele>
        <time>2015-09-12T07:04:37.000Z</time>
      </trkpt>
      <trkpt lat="47.33995" lon="4.93144">
        <ele>272.39999389648</ele>
        <time>2015-09-12T07:04:42.000Z</time>
      </trkpt>
      <trkpt lat="47.33994" lon="4.93129">
        <ele>272.79998779297</ele>
        <time>2015-09-12T07:04:45.000Z</time>
      </trkpt>
      <trkpt lat="47.33995" lon="4.93116">
        <ele>273.20001220703</ele>
        <time>2015-09-12T07:04:47.000Z</time>
      </trkpt>
      <trkpt lat="47.33996" lon="4.9309">
        <ele>273.60000610352</ele>
        <time>2015-09-12T07:04:52.000Z</time>
      </trkpt>
      <trkpt lat="47.34001" lon="4.93058">
        <ele>273.60000610352</ele>
        <time>2015-09-12T07:04:58.000Z</time>
      </trkpt>
      <trkpt lat="47.34003" lon="4.93048">
        <ele>274.20001220703</ele>
        <time>2015-09-12T07:05:00.000Z</time>
      </trkpt>
      <trkpt lat="47.34005" lon="4.93032">
        <ele>274.79998779297</ele>
        <time>2015-09-12T07:05:03.000Z</time>
      </trkpt>
      <trkpt lat="47.34011" lon="4.93003">
        <ele>274.79998779297</ele>
        <time>2015-09-12T07:05:08.000Z</time>
      </trkpt>
      <trkpt lat="47.34013" lon="4.92984">
        <ele>275.39999389648</ele>
        <time>2015-09-12T07:05:11.000Z</time>
      </trkpt>
      <trkpt lat="47.34015" lon="4.92974">
        <ele>275.60000610352</ele>
        <time>2015-09-12T07:05:13.000Z</time>
      </trkpt>
      <trkpt lat="47.3402" lon="4.92947">
        <ele>275.79998779297</ele>
        <time>2015-09-12T07:05:18.000Z</time>
      </trkpt>
      <trkpt lat="47.34027" lon="4.92917">
        <ele>276</ele>
        <time>2015-09-12T07:05:23.000Z</time>
      </trkpt>
      <trkpt lat="47.34033" lon="4.92896">
        <ele>276.60000610352</ele>
        <time>2015-09-12T07:05:27.000Z</time>
      </trkpt>
      <trkpt lat="47.34033" lon="4.92892">
        <ele>276.39999389648</ele>
        <time>2015-09-12T07:05:28.000Z</time>
      </trkpt>
      <trkpt lat="47.34038" lon="4.92873">
        <ele>277</ele>
        <time>2015-09-12T07:05:32.000Z</time>
      </trkpt>
      <trkpt lat="47.34045" lon="4.9285">
        <ele>277</ele>
        <time>2015-09-12T07:05:36.000Z</time>
      </trkpt>
      <trkpt lat="47.34057" lon="4.92825">
        <ele>277.79998779297</ele>
        <time>2015-09-12T07:05:41.000Z</time>
      </trkpt>
      <trkpt lat="47.3406" lon="4.9282">
        <ele>277.79998779297</ele>
        <time>2015-09-12T07:05:42.000Z</time>
      </trkpt>
      <trkpt lat="47.34073" lon="4.92796">
        <ele>277.79998779297</ele>
        <time>2015-09-12T07:05:47.000Z</time>
      </trkpt>
      <trkpt lat="47.3409" lon="4.92767">
        <ele>278.39999389648</ele>
        <time>2015-09-12T07:05:53.000Z</time>
      </trkpt>
      <trkpt lat="47.34094" lon="4.92757">
        <ele>278.79998779297</ele>
        <time>2015-09-12T07:05:55.000Z</time>
      </trkpt>
      <trkpt lat="47.34101" lon="4.92743">
        <ele>279</ele>
        <time>2015-09-12T07:05:58.000Z</time>
      </trkpt>
      <trkpt lat="47.34112" lon="4.92718">
        <ele>279.60000610352</ele>
        <time>2015-09-12T07:06:03.000Z</time>
      </trkpt>
      <trkpt lat="47.34128" lon="4.92686">
        <ele>280.39999389648</ele>
        <time>2015-09-12T07:06:09.000Z</time>
      </trkpt>
      <trkpt lat="47.34147" lon="4.9266">
        <ele>280.79998779297</ele>
        <time>2015-09-12T07:06:16.000Z</time>
      </trkpt>
      <trkpt lat="47.34154" lon="4.92654">
        <ele>281.39999389648</ele>
        <time>2015-09-12T07:06:18.000Z</time>
      </trkpt>
      <trkpt lat="47.34172" lon="4.92639">
        <ele>281.60000610352</ele>
        <time>2015-09-12T07:06:23.000Z</time>
      </trkpt>
      <trkpt lat="47.34197" lon="4.9262">
        <ele>281.60000610352</ele>
        <time>2015-09-12T07:06:30.000Z</time>
      </trkpt>
      <trkpt lat="47.34218" lon="4.92606">
        <ele>282.39999389648</ele>
        <time>2015-09-12T07:06:36.000Z</time>
      </trkpt>
      <trkpt lat="47.34221" lon="4.92603">
        <ele>282.79998779297</ele>
        <time>2015-09-12T07:06:37.000Z</time>
      </trkpt>
      <trkpt lat="47.34246" lon="4.92586">
        <ele>283.20001220703</ele>
        <time>2015-09-12T07:06:44.000Z</time>
      </trkpt>
      <trkpt lat="47.34265" lon="4.92566">
        <ele>284</ele>
        <time>2015-09-12T07:06:50.000Z</time>
      </trkpt>
      <trkpt lat="47.34287" lon="4.92543">
        <ele>284.79998779297</ele>
        <time>2015-09-12T07:06:57.000Z</time>
      </trkpt>
      <trkpt lat="47.34294" lon="4.92537">
        <ele>285.39999389648</ele>
        <time>2015-09-12T07:06:59.000Z</time>
      </trkpt>
      <trkpt lat="47.343" lon="4.92531">
        <ele>285.60000610352</ele>
        <time>2015-09-12T07:07:01.000Z</time>
      </trkpt>
      <trkpt lat="47.34312" lon="4.92521">
        <ele>286.60000610352</ele>
        <time>2015-09-12T07:07:05.000Z</time>
      </trkpt>
      <trkpt lat="47.34315" lon="4.92519">
        <ele>287</ele>
        <time>2015-09-12T07:07:06.000Z</time>
      </trkpt>
      <trkpt lat="47.34325" lon="4.9251">
        <ele>287.20001220703</ele>
        <time>2015-09-12T07:07:10.000Z</time>
      </trkpt>
      <trkpt lat="47.3433" lon="4.92504">
        <ele>288</ele>
        <time>2015-09-12T07:07:12.000Z</time>
      </trkpt>
      <trkpt lat="47.34343" lon="4.92485">
        <ele>288.60000610352</ele>
        <time>2015-09-12T07:07:17.000Z</time>
      </trkpt>
      <trkpt lat="47.3436" lon="4.92464">
        <ele>289.20001220703</ele>
        <time>2015-09-12T07:07:24.000Z</time>
      </trkpt>
      <trkpt lat="47.34362" lon="4.92461">
        <ele>289.39999389648</ele>
        <time>2015-09-12T07:07:25.000Z</time>
      </trkpt>
      <trkpt lat="47.3437" lon="4.92441">
        <ele>290.20001220703</ele>
        <time>2015-09-12T07:07:29.000Z</time>
      </trkpt>
      <trkpt lat="47.34385" lon="4.92416">
        <ele>290.20001220703</ele>
        <time>2015-09-12T07:07:34.000Z</time>
      </trkpt>
      <trkpt lat="47.34408" lon="4.92391">
        <ele>290.79998779297</ele>
        <time>2015-09-12T07:07:41.000Z</time>
      </trkpt>
      <trkpt lat="47.34432" lon="4.92366">
        <ele>292</ele>
        <time>2015-09-12T07:07:48.000Z</time>
      </trkpt>
      <trkpt lat="47.34458" lon="4.9234">
        <ele>291.79998779297</ele>
        <time>2015-09-12T07:07:56.000Z</time>
      </trkpt>
      <trkpt lat="47.34488" lon="4.92313">
        <ele>292.39999389648</ele>
        <time>2015-09-12T07:08:05.000Z</time>
      </trkpt>
      <trkpt lat="47.34501" lon="4.92302">
        <ele>293.20001220703</ele>
        <time>2015-09-12T07:08:09.000Z</time>
      </trkpt>
      <trkpt lat="47.34515" lon="4.92292">
        <ele>293.39999389648</ele>
        <time>2015-09-12T07:08:13.000Z</time>
      </trkpt>
      <trkpt lat="47.34525" lon="4.92285">
        <ele>294.20001220703</ele>
        <time>2015-09-12T07:08:16.000Z</time>
      </trkpt>
      <trkpt lat="47.34539" lon="4.92276">
        <ele>294.60000610352</ele>
        <time>2015-09-12T07:08:20.000Z</time>
      </trkpt>
      <trkpt lat="47.34555" lon="4.92264">
        <ele>295.20001220703</ele>
        <time>2015-09-12T07:08:25.000Z</time>
      </trkpt>
      <trkpt lat="47.34562" lon="4.92258">
        <ele>295.60000610352</ele>
        <time>2015-09-12T07:08:28.000Z</time>
      </trkpt>
      <trkpt lat="47.34567" lon="4.92254">
        <ele>296.60000610352</ele>
        <time>2015-09-12T07:08:30.000Z</time>
      </trkpt>
      <trkpt lat="47.34583" lon="4.9224">
        <ele>298</ele>
        <time>2015-09-12T07:08:36.000Z</time>
      </trkpt>
      <trkpt lat="47.34584" lon="4.9224">
        <ele>298.39999389648</ele>
        <time>2015-09-12T07:08:37.000Z</time>
      </trkpt>
      <trkpt lat="47.34586" lon="4.92242">
        <ele>298.79998779297</ele>
        <time>2015-09-12T07:08:39.000Z</time>
      </trkpt>
      <trkpt lat="47.34586" lon="4.92243">
        <ele>298.79998779297</ele>
        <time>2015-09-12T07:08:40.000Z</time>
      </trkpt>
      <trkpt lat="47.34586" lon="4.92244">
        <ele>298.79998779297</ele>
        <time>2015-09-12T07:08:41.000Z</time>
      </trkpt>
      <trkpt lat="47.34588" lon="4.92254">
        <ele>298.60000610352</ele>
        <time>2015-09-12T07:08:52.000Z</time>
      </trkpt>
      <trkpt lat="47.34589" lon="4.92255">
        <ele>298.60000610352</ele>
        <time>2015-09-12T07:08:53.000Z</time>
      </trkpt>
      <trkpt lat="47.34589" lon="4.92256">
        <ele>298.79998779297</ele>
        <time>2015-09-12T07:08:55.000Z</time>
      </trkpt>
      <trkpt lat="47.3459" lon="4.92259">
        <ele>298.60000610352</ele>
        <time>2015-09-12T07:08:57.000Z</time>
      </trkpt>
      <trkpt lat="47.34593" lon="4.92262">
        <ele>299</ele>
        <time>2015-09-12T07:09:03.000Z</time>
      </trkpt>
      <trkpt lat="47.34592" lon="4.92264">
        <ele>299</ele>
        <time>2015-09-12T07:09:04.000Z</time>
      </trkpt>
      <trkpt lat="47.34594" lon="4.92267">
        <ele>298.60000610352</ele>
        <time>2015-09-12T07:09:07.000Z</time>
      </trkpt>
      <trkpt lat="47.34593" lon="4.92265">
        <ele>298.60000610352</ele>
        <time>2015-09-12T07:09:09.000Z</time>
      </trkpt>
      <trkpt lat="47.34592" lon="4.92263">
        <ele>298.60000610352</ele>
        <time>2015-09-12T07:09:11.000Z</time>
      </trkpt>
      <trkpt lat="47.34589" lon="4.92257">
        <ele>298.60000610352</ele>
        <time>2015-09-12T07:09:19.000Z</time>
      </trkpt>
      <trkpt lat="47.34589" lon="4.92258">
        <ele>298.60000610352</ele>
        <time>2015-09-12T07:09:20.000Z</time>
      </trkpt>
      <trkpt lat="47.34591" lon="4.92263">
        <ele>298.60000610352</ele>
        <time>2015-09-12T07:09:22.000Z</time>
      </trkpt>
      <trkpt lat="47.34594" lon="4.92268">
        <ele>298.79998779297</ele>
        <time>2015-09-12T07:09:24.000Z</time>
      </trkpt>
      <trkpt lat="47.34605" lon="4.92278">
        <ele>299.39999389648</ele>
        <time>2015-09-12T07:09:29.000Z</time>
      </trkpt>
      <trkpt lat="47.34622" lon="4.92277">
        <ele>298.79998779297</ele>
        <time>2015-09-12T07:09:35.000Z</time>
      </trkpt>
      <trkpt lat="47.34649" lon="4.92266">
        <ele>299.20001220703</ele>
        <time>2015-09-12T07:09:44.000Z</time>
      </trkpt>
      <trkpt lat="47.34659" lon="4.92262">
        <ele>299.60000610352</ele>
        <time>2015-09-12T07:09:47.000Z</time>
      </trkpt>
      <trkpt lat="47.34665" lon="4.92259">
        <ele>299.79998779297</ele>
        <time>2015-09-12T07:09:49.000Z</time>
      </trkpt>
      <trkpt lat="47.34681" lon="4.92254">
        <ele>301</ele>
        <time>2015-09-12T07:09:54.000Z</time>
      </trkpt>
      <trkpt lat="47.34693" lon="4.92252">
        <ele>301</ele>
        <time>2015-09-12T07:09:58.000Z</time>
      </trkpt>
      <trkpt lat="47.34718" lon="4.9225">
        <ele>301.79998779297</ele>
        <time>2015-09-12T07:10:06.000Z</time>
      </trkpt>
      <trkpt lat="47.34721" lon="4.92251">
        <ele>302</ele>
        <time>2015-09-12T07:10:07.000Z</time>
      </trkpt>
      <trkpt lat="47.34743" lon="4.92251">
        <ele>302.20001220703</ele>
        <time>2015-09-12T07:10:14.000Z</time>
      </trkpt>
      <trkpt lat="47.34771" lon="4.92246">
        <ele>302.39999389648</ele>
        <time>2015-09-12T07:10:22.000Z</time>
      </trkpt>
      <trkpt lat="47.34793" lon="4.92237">
        <ele>302.60000610352</ele>
        <time>2015-09-12T07:10:29.000Z</time>
      </trkpt>
      <trkpt lat="47.34797" lon="4.92236">
        <ele>302.79998779297</ele>
        <time>2015-09-12T07:10:30.000Z</time>
      </trkpt>
      <trkpt lat="47.34819" lon="4.92223">
        <ele>303.20001220703</ele>
        <time>2015-09-12T07:10:37.000Z</time>
      </trkpt>
      <trkpt lat="47.3485" lon="4.92198">
        <ele>303.39999389648</ele>
        <time>2015-09-12T07:10:47.000Z</time>
      </trkpt>
      <trkpt lat="47.34859" lon="4.92191">
        <ele>303.79998779297</ele>
        <time>2015-09-12T07:10:50.000Z</time>
      </trkpt>
      <trkpt lat="47.3488" lon="4.92172">
        <ele>304</ele>
        <time>2015-09-12T07:10:57.000Z</time>
      </trkpt>
      <trkpt lat="47.34885" lon="4.92166">
        <ele>304.79998779297</ele>
        <time>2015-09-12T07:10:59.000Z</time>
      </trkpt>
      <trkpt lat="47.34904" lon="4.92145">
        <ele>304.79998779297</ele>
        <time>2015-09-12T07:11:06.000Z</time>
      </trkpt>
      <trkpt lat="47.34918" lon="4.92131">
        <ele>305.79998779297</ele>
        <time>2015-09-12T07:11:11.000Z</time>
      </trkpt>
      <trkpt lat="47.3493" lon="4.9212">
        <ele>305.79998779297</ele>
        <time>2015-09-12T07:11:16.000Z</time>
      </trkpt>
      <trkpt lat="47.34947" lon="4.92101">
        <ele>306.60000610352</ele>
        <time>2015-09-12T07:11:24.000Z</time>
      </trkpt>
      <trkpt lat="47.34955" lon="4.92091">
        <ele>306.79998779297</ele>
        <time>2015-09-12T07:11:28.000Z</time>
      </trkpt>
      <trkpt lat="47.34966" lon="4.9208">
        <ele>307.39999389648</ele>
        <time>2015-09-12T07:11:33.000Z</time>
      </trkpt>
      <trkpt lat="47.34984" lon="4.92062">
        <ele>307.79998779297</ele>
        <time>2015-09-12T07:11:41.000Z</time>
      </trkpt>
      <trkpt lat="47.3499" lon="4.92054">
        <ele>308</ele>
        <time>2015-09-12T07:11:44.000Z</time>
      </trkpt>
      <trkpt lat="47.35005" lon="4.92035">
        <ele>308.79998779297</ele>
        <time>2015-09-12T07:11:51.000Z</time>
      </trkpt>
      <trkpt lat="47.35008" lon="4.92033">
        <ele>309</ele>
        <time>2015-09-12T07:11:52.000Z</time>
      </trkpt>
      <trkpt lat="47.35024" lon="4.92017">
        <ele>309.79998779297</ele>
        <time>2015-09-12T07:11:59.000Z</time>
      </trkpt>
      <trkpt lat="47.35026" lon="4.92015">
        <ele>310</ele>
        <time>2015-09-12T07:12:00.000Z</time>
      </trkpt>
      <trkpt lat="47.35039" lon="4.92005">
        <ele>310.79998779297</ele>
        <time>2015-09-12T07:12:05.000Z</time>
      </trkpt>
      <trkpt lat="47.35044" lon="4.92001">
        <ele>311</ele>
        <time>2015-09-12T07:12:07.000Z</time>
      </trkpt>
      <trkpt lat="47.35061" lon="4.91986">
        <ele>311.79998779297</ele>
        <time>2015-09-12T07:12:14.000Z</time>
      </trkpt>
      <trkpt lat="47.35063" lon="4.91984">
        <ele>312.39999389648</ele>
        <time>2015-09-12T07:12:15.000Z</time>
      </trkpt>
      <trkpt lat="47.35068" lon="4.9198">
        <ele>313</ele>
        <time>2015-09-12T07:12:17.000Z</time>
      </trkpt>
      <trkpt lat="47.35079" lon="4.9197">
        <ele>312.79998779297</ele>
        <time>2015-09-12T07:12:22.000Z</time>
      </trkpt>
      <trkpt lat="47.35094" lon="4.91955">
        <ele>313.20001220703</ele>
        <time>2015-09-12T07:12:28.000Z</time>
      </trkpt>
      <trkpt lat="47.35103" lon="4.91944">
        <ele>314</ele>
        <time>2015-09-12T07:12:32.000Z</time>
      </trkpt>
      <trkpt lat="47.3511" lon="4.91933">
        <ele>314.20001220703</ele>
        <time>2015-09-12T07:12:36.000Z</time>
      </trkpt>
      <trkpt lat="47.35121" lon="4.9192">
        <ele>314.60000610352</ele>
        <time>2015-09-12T07:12:42.000Z</time>
      </trkpt>
      <trkpt lat="47.35125" lon="4.91916">
        <ele>315.39999389648</ele>
        <time>2015-09-12T07:12:44.000Z</time>
      </trkpt>
      <trkpt lat="47.35134" lon="4.91905">
        <ele>316.60000610352</ele>
        <time>2015-09-12T07:12:49.000Z</time>
      </trkpt>
      <trkpt lat="47.35139" lon="4.919">
        <ele>316.60000610352</ele>
        <time>2015-09-12T07:12:51.000Z</time>
      </trkpt>
      <trkpt lat="47.35152" lon="4.91886">
        <ele>317</ele>
        <time>2015-09-12T07:12:57.000Z</time>
      </trkpt>
      <trkpt lat="47.35157" lon="4.9188">
        <ele>317.79998779297</ele>
        <time>2015-09-12T07:12:59.000Z</time>
      </trkpt>
      <trkpt lat="47.35169" lon="4.91866">
        <ele>317.39999389648</ele>
        <time>2015-09-12T07:13:04.000Z</time>
      </trkpt>
      <trkpt lat="47.35183" lon="4.91844">
        <ele>318</ele>
        <time>2015-09-12T07:13:11.000Z</time>
      </trkpt>
      <trkpt lat="47.35184" lon="4.9183">
        <ele>319</ele>
        <time>2015-09-12T07:13:15.000Z</time>
      </trkpt>
      <trkpt lat="47.35181" lon="4.91814">
        <ele>318.60000610352</ele>
        <time>2015-09-12T07:13:20.000Z</time>
      </trkpt>
      <trkpt lat="47.35182" lon="4.9181">
        <ele>318.60000610352</ele>
        <time>2015-09-12T07:13:26.000Z</time>
      </trkpt>
      <trkpt lat="47.35181" lon="4.9181">
        <ele>318.79998779297</ele>
        <time>2015-09-12T07:13:27.000Z</time>
      </trkpt>
      <trkpt lat="47.3518" lon="4.91815">
        <ele>319.39999389648</ele>
        <time>2015-09-12T07:13:31.000Z</time>
      </trkpt>
      <trkpt lat="47.35181" lon="4.91818">
        <ele>319.39999389648</ele>
        <time>2015-09-12T07:13:32.000Z</time>
      </trkpt>
      <trkpt lat="47.35185" lon="4.91822">
        <ele>319</ele>
        <time>2015-09-12T07:13:35.000Z</time>
      </trkpt>
      <trkpt lat="47.35189" lon="4.91811">
        <ele>319.39999389648</ele>
        <time>2015-09-12T07:13:38.000Z</time>
      </trkpt>
      <trkpt lat="47.35195" lon="4.91799">
        <ele>319</ele>
        <time>2015-09-12T07:13:42.000Z</time>
      </trkpt>
      <trkpt lat="47.35206" lon="4.91782">
        <ele>318.79998779297</ele>
        <time>2015-09-12T07:13:48.000Z</time>
      </trkpt>
      <trkpt lat="47.35213" lon="4.91767">
        <ele>320.20001220703</ele>
        <time>2015-09-12T07:13:52.000Z</time>
      </trkpt>
      <trkpt lat="47.35217" lon="4.9176">
        <ele>320.20001220703</ele>
        <time>2015-09-12T07:13:54.000Z</time>
      </trkpt>
      <trkpt lat="47.35226" lon="4.9174">
        <ele>320.79998779297</ele>
        <time>2015-09-12T07:14:00.000Z</time>
      </trkpt>
      <trkpt lat="47.35237" lon="4.91721">
        <ele>321.20001220703</ele>
        <time>2015-09-12T07:14:06.000Z</time>
      </trkpt>
      <trkpt lat="47.35239" lon="4.91717">
        <ele>321.39999389648</ele>
        <time>2015-09-12T07:14:07.000Z</time>
      </trkpt>
      <trkpt lat="47.35249" lon="4.917">
        <ele>322.39999389648</ele>
        <time>2015-09-12T07:14:13.000Z</time>
      </trkpt>
      <trkpt lat="47.35263" lon="4.91687">
        <ele>323.39999389648</ele>
        <time>2015-09-12T07:14:19.000Z</time>
      </trkpt>
      <trkpt lat="47.35265" lon="4.91686">
        <ele>323.60000610352</ele>
        <time>2015-09-12T07:14:20.000Z</time>
      </trkpt>
      <trkpt lat="47.35276" lon="4.91681">
        <ele>324.20001220703</ele>
        <time>2015-09-12T07:14:25.000Z</time>
      </trkpt>
      <trkpt lat="47.3528" lon="4.91679">
        <ele>325</ele>
        <time>2015-09-12T07:14:27.000Z</time>
      </trkpt>
      <trkpt lat="47.35286" lon="4.91676">
        <ele>325.60000610352</ele>
        <time>2015-09-12T07:14:30.000Z</time>
      </trkpt>
      <trkpt lat="47.353" lon="4.91673">
        <ele>326.20001220703</ele>
        <time>2015-09-12T07:14:36.000Z</time>
      </trkpt>
      <trkpt lat="47.35303" lon="4.91672">
        <ele>326.39999389648</ele>
        <time>2015-09-12T07:14:37.000Z</time>
      </trkpt>
      <trkpt lat="47.35312" lon="4.91669">
        <ele>326.39999389648</ele>
        <time>2015-09-12T07:14:41.000Z</time>
      </trkpt>
      <trkpt lat="47.35329" lon="4.91664">
        <ele>326.39999389648</ele>
        <time>2015-09-12T07:14:47.000Z</time>
      </trkpt>
      <trkpt lat="47.35339" lon="4.91661">
        <ele>327</ele>
        <time>2015-09-12T07:14:51.000Z</time>
      </trkpt>
      <trkpt lat="47.35349" lon="4.91659">
        <ele>327</ele>
        <time>2015-09-12T07:14:56.000Z</time>
      </trkpt>
      <trkpt lat="47.35354" lon="4.91658">
        <ele>327.39999389648</ele>
        <time>2015-09-12T07:14:58.000Z</time>
      </trkpt>
      <trkpt lat="47.35361" lon="4.91657">
        <ele>328</ele>
        <time>2015-09-12T07:15:01.000Z</time>
      </trkpt>
      <trkpt lat="47.3537" lon="4.91655">
        <ele>328.39999389648</ele>
        <time>2015-09-12T07:15:04.000Z</time>
      </trkpt>
      <trkpt lat="47.35378" lon="4.91654">
        <ele>328.20001220703</ele>
        <time>2015-09-12T07:15:07.000Z</time>
      </trkpt>
      <trkpt lat="47.35395" lon="4.91656">
        <ele>328.79998779297</ele>
        <time>2015-09-12T07:15:13.000Z</time>
      </trkpt>
      <trkpt lat="47.35403" lon="4.91657">
        <ele>329.39999389648</ele>
        <time>2015-09-12T07:15:16.000Z</time>
      </trkpt>
      <trkpt lat="47.35414" lon="4.91659">
        <ele>329.39999389648</ele>
        <time>2015-09-12T07:15:19.000Z</time>
      </trkpt>
      <trkpt lat="47.35426" lon="4.91663">
        <ele>330.60000610352</ele>
        <time>2015-09-12T07:15:23.000Z</time>
      </trkpt>
      <trkpt lat="47.35429" lon="4.91664">
        <ele>330.79998779297</ele>
        <time>2015-09-12T07:15:24.000Z</time>
      </trkpt>
      <trkpt lat="47.35446" lon="4.91668">
        <ele>331</ele>
        <time>2015-09-12T07:15:30.000Z</time>
      </trkpt>
      <trkpt lat="47.35457" lon="4.91675">
        <ele>331.39999389648</ele>
        <time>2015-09-12T07:15:35.000Z</time>
      </trkpt>
      <trkpt lat="47.35464" lon="4.91677">
        <ele>331.60000610352</ele>
        <time>2015-09-12T07:15:38.000Z</time>
      </trkpt>
      <trkpt lat="47.3547" lon="4.91678">
        <ele>332.20001220703</ele>
        <time>2015-09-12T07:15:41.000Z</time>
      </trkpt>
      <trkpt lat="47.35475" lon="4.91677">
        <ele>332.39999389648</ele>
        <time>2015-09-12T07:15:43.000Z</time>
      </trkpt>
      <trkpt lat="47.35487" lon="4.91677">
        <ele>333.60000610352</ele>
        <time>2015-09-12T07:15:48.000Z</time>
      </trkpt>
      <trkpt lat="47.355" lon="4.91674">
        <ele>334.60000610352</ele>
        <time>2015-09-12T07:15:54.000Z</time>
      </trkpt>
      <trkpt lat="47.35507" lon="4.91672">
        <ele>334.79998779297</ele>
        <time>2015-09-12T07:15:57.000Z</time>
      </trkpt>
      <trkpt lat="47.3551" lon="4.91669">
        <ele>335</ele>
        <time>2015-09-12T07:15:59.000Z</time>
      </trkpt>
      <trkpt lat="47.35516" lon="4.91664">
        <ele>335.60000610352</ele>
        <time>2015-09-12T07:16:02.000Z</time>
      </trkpt>
      <trkpt lat="47.3552" lon="4.91658">
        <ele>336</ele>
        <time>2015-09-12T07:16:05.000Z</time>
      </trkpt>
      <trkpt lat="47.35529" lon="4.91648">
        <ele>336.39999389648</ele>
        <time>2015-09-12T07:16:10.000Z</time>
      </trkpt>
      <trkpt lat="47.35531" lon="4.91645">
        <ele>336.60000610352</ele>
        <time>2015-09-12T07:16:11.000Z</time>
      </trkpt>
      <trkpt lat="47.35543" lon="4.91632">
        <ele>337</ele>
        <time>2015-09-12T07:16:17.000Z</time>
      </trkpt>
      <trkpt lat="47.35547" lon="4.91628">
        <ele>337.39999389648</ele>
        <time>2015-09-12T07:16:19.000Z</time>
      </trkpt>
      <trkpt lat="47.35553" lon="4.91622">
        <ele>337.60000610352</ele>
        <time>2015-09-12T07:16:22.000Z</time>
      </trkpt>
      <trkpt lat="47.35565" lon="4.91609">
        <ele>338.60000610352</ele>
        <time>2015-09-12T07:16:28.000Z</time>
      </trkpt>
      <trkpt lat="47.35566" lon="4.91606">
        <ele>338.79998779297</ele>
        <time>2015-09-12T07:16:29.000Z</time>
      </trkpt>
      <trkpt lat="47.3557" lon="4.91599">
        <ele>339.60000610352</ele>
        <time>2015-09-12T07:16:32.000Z</time>
      </trkpt>
      <trkpt lat="47.35573" lon="4.91595">
        <ele>339.79998779297</ele>
        <time>2015-09-12T07:16:34.000Z</time>
      </trkpt>
      <trkpt lat="47.35582" lon="4.91584">
        <ele>340.79998779297</ele>
        <time>2015-09-12T07:16:39.000Z</time>
      </trkpt>
      <trkpt lat="47.3559" lon="4.91565">
        <ele>341.20001220703</ele>
        <time>2015-09-12T07:16:45.000Z</time>
      </trkpt>
      <trkpt lat="47.35595" lon="4.91553">
        <ele>342</ele>
        <time>2015-09-12T07:16:49.000Z</time>
      </trkpt>
      <trkpt lat="47.35598" lon="4.91545">
        <ele>342</ele>
        <time>2015-09-12T07:16:52.000Z</time>
      </trkpt>
      <trkpt lat="47.35603" lon="4.91528">
        <ele>343</ele>
        <time>2015-09-12T07:16:58.000Z</time>
      </trkpt>
      <trkpt lat="47.35604" lon="4.91526">
        <ele>343.20001220703</ele>
        <time>2015-09-12T07:16:59.000Z</time>
      </trkpt>
      <trkpt lat="47.35604" lon="4.91523">
        <ele>343.39999389648</ele>
        <time>2015-09-12T07:17:00.000Z</time>
      </trkpt>
      <trkpt lat="47.35606" lon="4.91511">
        <ele>343.79998779297</ele>
        <time>2015-09-12T07:17:03.000Z</time>
      </trkpt>
      <trkpt lat="47.35609" lon="4.91498">
        <ele>344.60000610352</ele>
        <time>2015-09-12T07:17:08.000Z</time>
      </trkpt>
      <trkpt lat="47.35609" lon="4.91496">
        <ele>344.79998779297</ele>
        <time>2015-09-12T07:17:09.000Z</time>
      </trkpt>
      <trkpt lat="47.35614" lon="4.91481">
        <ele>345.60000610352</ele>
        <time>2015-09-12T07:17:14.000Z</time>
      </trkpt>
      <trkpt lat="47.35615" lon="4.91475">
        <ele>345.79998779297</ele>
        <time>2015-09-12T07:17:16.000Z</time>
      </trkpt>
      <trkpt lat="47.35617" lon="4.9146">
        <ele>346</ele>
        <time>2015-09-12T07:17:20.000Z</time>
      </trkpt>
      <trkpt lat="47.35617" lon="4.91449">
        <ele>347.20001220703</ele>
        <time>2015-09-12T07:17:23.000Z</time>
      </trkpt>
      <trkpt lat="47.35618" lon="4.9144">
        <ele>347.60000610352</ele>
        <time>2015-09-12T07:17:26.000Z</time>
      </trkpt>
      <trkpt lat="47.35619" lon="4.91437">
        <ele>347.79998779297</ele>
        <time>2015-09-12T07:17:27.000Z</time>
      </trkpt>
      <trkpt lat="47.35624" lon="4.91424">
        <ele>347.79998779297</ele>
        <time>2015-09-12T07:17:31.000Z</time>
      </trkpt>
      <trkpt lat="47.3563" lon="4.91406">
        <ele>348.39999389648</ele>
        <time>2015-09-12T07:17:36.000Z</time>
      </trkpt>
      <trkpt lat="47.35631" lon="4.91403">
        <ele>348.39999389648</ele>
        <time>2015-09-12T07:17:37.000Z</time>
      </trkpt>
      <trkpt lat="47.35636" lon="4.91388">
        <ele>349.20001220703</ele>
        <time>2015-09-12T07:17:41.000Z</time>
      </trkpt>
      <trkpt lat="47.3564" lon="4.91377">
        <ele>349.60000610352</ele>
        <time>2015-09-12T07:17:45.000Z</time>
      </trkpt>
      <trkpt lat="47.35642" lon="4.91371">
        <ele>350</ele>
        <time>2015-09-12T07:17:47.000Z</time>
      </trkpt>
      <trkpt lat="47.35648" lon="4.9136">
        <ele>350.60000610352</ele>
        <time>2015-09-12T07:17:51.000Z</time>
      </trkpt>
      <trkpt lat="47.3565" lon="4.91357">
        <ele>350.79998779297</ele>
        <time>2015-09-12T07:17:52.000Z</time>
      </trkpt>
      <trkpt lat="47.35656" lon="4.91345">
        <ele>351.39999389648</ele>
        <time>2015-09-12T07:17:56.000Z</time>
      </trkpt>
      <trkpt lat="47.3566" lon="4.91338">
        <ele>351.60000610352</ele>
        <time>2015-09-12T07:17:58.000Z</time>
      </trkpt>
      <trkpt lat="47.35665" lon="4.91325">
        <ele>351.79998779297</ele>
        <time>2015-09-12T07:18:02.000Z</time>
      </trkpt>
      <trkpt lat="47.35667" lon="4.91318">
        <ele>352.20001220703</ele>
        <time>2015-09-12T07:18:04.000Z</time>
      </trkpt>
      <trkpt lat="47.35672" lon="4.91307">
        <ele>352.79998779297</ele>
        <time>2015-09-12T07:18:08.000Z</time>
      </trkpt>
      <trkpt lat="47.35677" lon="4.91295">
        <ele>353.20001220703</ele>
        <time>2015-09-12T07:18:12.000Z</time>
      </trkpt>
      <trkpt lat="47.3568" lon="4.91287">
        <ele>353.79998779297</ele>
        <time>2015-09-12T07:18:15.000Z</time>
      </trkpt>
      <trkpt lat="47.35687" lon="4.91275">
        <ele>354.60000610352</ele>
        <time>2015-09-12T07:18:20.000Z</time>
      </trkpt>
      <trkpt lat="47.35688" lon="4.91272">
        <ele>354.79998779297</ele>
        <time>2015-09-12T07:18:21.000Z</time>
      </trkpt>
      <trkpt lat="47.3569" lon="4.91267">
        <ele>355.39999389648</ele>
        <time>2015-09-12T07:18:24.000Z</time>
      </trkpt>
      <trkpt lat="47.35691" lon="4.91265">
        <ele>355.79998779297</ele>
        <time>2015-09-12T07:18:25.000Z</time>
      </trkpt>
      <trkpt lat="47.35699" lon="4.91248">
        <ele>356.79998779297</ele>
        <time>2015-09-12T07:18:32.000Z</time>
      </trkpt>
      <trkpt lat="47.357" lon="4.91246">
        <ele>357</ele>
        <time>2015-09-12T07:18:33.000Z</time>
      </trkpt>
      <trkpt lat="47.35704" lon="4.91235">
        <ele>357.39999389648</ele>
        <time>2015-09-12T07:18:37.000Z</time>
      </trkpt>
      <trkpt lat="47.35711" lon="4.91223">
        <ele>358</ele>
        <time>2015-09-12T07:18:42.000Z</time>
      </trkpt>
      <trkpt lat="47.35713" lon="4.91215">
        <ele>358.20001220703</ele>
        <time>2015-09-12T07:18:44.000Z</time>
      </trkpt>
      <trkpt lat="47.35721" lon="4.91203">
        <ele>358.20001220703</ele>
        <time>2015-09-12T07:18:48.000Z</time>
      </trkpt>
      <trkpt lat="47.3573" lon="4.91188">
        <ele>358.79998779297</ele>
        <time>2015-09-12T07:18:54.000Z</time>
      </trkpt>
      <trkpt lat="47.35737" lon="4.91178">
        <ele>359.39999389648</ele>
        <time>2015-09-12T07:18:59.000Z</time>
      </trkpt>
      <trkpt lat="47.35739" lon="4.91174">
        <ele>359.79998779297</ele>
        <time>2015-09-12T07:19:01.000Z</time>
      </trkpt>
      <trkpt lat="47.35743" lon="4.91165">
        <ele>360.39999389648</ele>
        <time>2015-09-12T07:19:05.000Z</time>
      </trkpt>
      <trkpt lat="47.35745" lon="4.9116">
        <ele>361</ele>
        <time>2015-09-12T07:19:07.000Z</time>
      </trkpt>
      <trkpt lat="47.35748" lon="4.91154">
        <ele>361.60000610352</ele>
        <time>2015-09-12T07:19:10.000Z</time>
      </trkpt>
      <trkpt lat="47.35752" lon="4.91146">
        <ele>361.79998779297</ele>
        <time>2015-09-12T07:19:15.000Z</time>
      </trkpt>
      <trkpt lat="47.35753" lon="4.91145">
        <ele>361.79998779297</ele>
        <time>2015-09-12T07:19:16.000Z</time>
      </trkpt>
      <trkpt lat="47.35756" lon="4.91138">
        <ele>362.20001220703</ele>
        <time>2015-09-12T07:19:21.000Z</time>
      </trkpt>
      <trkpt lat="47.35756" lon="4.91135">
        <ele>362.60000610352</ele>
        <time>2015-09-12T07:19:23.000Z</time>
      </trkpt>
      <trkpt lat="47.3576" lon="4.9113">
        <ele>363.20001220703</ele>
        <time>2015-09-12T07:19:28.000Z</time>
      </trkpt>
      <trkpt lat="47.3577" lon="4.91119">
        <ele>363.39999389648</ele>
        <time>2015-09-12T07:19:35.000Z</time>
      </trkpt>
      <trkpt lat="47.35777" lon="4.91109">
        <ele>364.20001220703</ele>
        <time>2015-09-12T07:19:40.000Z</time>
      </trkpt>
      <trkpt lat="47.35778" lon="4.91107">
        <ele>364.20001220703</ele>
        <time>2015-09-12T07:19:41.000Z</time>
      </trkpt>
      <trkpt lat="47.35785" lon="4.91097">
        <ele>364.60000610352</ele>
        <time>2015-09-12T07:19:47.000Z</time>
      </trkpt>
      <trkpt lat="47.35786" lon="4.91096">
        <ele>364.60000610352</ele>
        <time>2015-09-12T07:19:48.000Z</time>
      </trkpt>
      <trkpt lat="47.35789" lon="4.91089">
        <ele>365.20001220703</ele>
        <time>2015-09-12T07:19:52.000Z</time>
      </trkpt>
      <trkpt lat="47.3579" lon="4.91089">
        <ele>365.20001220703</ele>
        <time>2015-09-12T07:19:53.000Z</time>
      </trkpt>
      <trkpt lat="47.35797" lon="4.91084">
        <ele>366</ele>
        <time>2015-09-12T07:19:57.000Z</time>
      </trkpt>
      <trkpt lat="47.35804" lon="4.91074">
        <ele>366</ele>
        <time>2015-09-12T07:20:02.000Z</time>
      </trkpt>
      <trkpt lat="47.35808" lon="4.91071">
        <ele>366.79998779297</ele>
        <time>2015-09-12T07:20:05.000Z</time>
      </trkpt>
      <trkpt lat="47.35811" lon="4.91067">
        <ele>366.79998779297</ele>
        <time>2015-09-12T07:20:08.000Z</time>
      </trkpt>
      <trkpt lat="47.35816" lon="4.91063">
        <ele>368</ele>
        <time>2015-09-12T07:20:12.000Z</time>
      </trkpt>
      <trkpt lat="47.35817" lon="4.91062">
        <ele>368</ele>
        <time>2015-09-12T07:20:13.000Z</time>
      </trkpt>
      <trkpt lat="47.35823" lon="4.91058">
        <ele>368</ele>
        <time>2015-09-12T07:20:16.000Z</time>
      </trkpt>
      <trkpt lat="47.35831" lon="4.91051">
        <ele>368.79998779297</ele>
        <time>2015-09-12T07:20:20.000Z</time>
      </trkpt>
      <trkpt lat="47.35834" lon="4.91047">
        <ele>369.20001220703</ele>
        <time>2015-09-12T07:20:22.000Z</time>
      </trkpt>
      <trkpt lat="47.35838" lon="4.91041">
        <ele>370.20001220703</ele>
        <time>2015-09-12T07:20:25.000Z</time>
      </trkpt>
      <trkpt lat="47.35842" lon="4.91039">
        <ele>370.60000610352</ele>
        <time>2015-09-12T07:20:27.000Z</time>
      </trkpt>
      <trkpt lat="47.35846" lon="4.91038">
        <ele>371</ele>
        <time>2015-09-12T07:20:30.000Z</time>
      </trkpt>
      <trkpt lat="47.35848" lon="4.91037">
        <ele>371.39999389648</ele>
        <time>2015-09-12T07:20:32.000Z</time>
      </trkpt>
      <trkpt lat="47.3585" lon="4.91037">
        <ele>372</ele>
        <time>2015-09-12T07:20:33.000Z</time>
      </trkpt>
      <trkpt lat="47.35857" lon="4.91034">
        <ele>372.20001220703</ele>
        <time>2015-09-12T07:20:38.000Z</time>
      </trkpt>
      <trkpt lat="47.35864" lon="4.91027">
        <ele>372.79998779297</ele>
        <time>2015-09-12T07:20:43.000Z</time>
      </trkpt>
      <trkpt lat="47.35866" lon="4.91026">
        <ele>373</ele>
        <time>2015-09-12T07:20:44.000Z</time>
      </trkpt>
      <trkpt lat="47.35874" lon="4.91023">
        <ele>374</ele>
        <time>2015-09-12T07:20:49.000Z</time>
      </trkpt>
      <trkpt lat="47.35883" lon="4.9102">
        <ele>374.60000610352</ele>
        <time>2015-09-12T07:20:55.000Z</time>
      </trkpt>
      <trkpt lat="47.35888" lon="4.91019">
        <ele>375</ele>
        <time>2015-09-12T07:20:58.000Z</time>
      </trkpt>
      <trkpt lat="47.35891" lon="4.91017">
        <ele>375</ele>
        <time>2015-09-12T07:21:00.000Z</time>
      </trkpt>
      <trkpt lat="47.35896" lon="4.91017">
        <ele>375.79998779297</ele>
        <time>2015-09-12T07:21:03.000Z</time>
      </trkpt>
      <trkpt lat="47.35901" lon="4.91014">
        <ele>376</ele>
        <time>2015-09-12T07:21:06.000Z</time>
      </trkpt>
      <trkpt lat="47.3591" lon="4.91009">
        <ele>376.79998779297</ele>
        <time>2015-09-12T07:21:11.000Z</time>
      </trkpt>
      <trkpt lat="47.35911" lon="4.91007">
        <ele>377.20001220703</ele>
        <time>2015-09-12T07:21:12.000Z</time>
      </trkpt>
      <trkpt lat="47.3592" lon="4.90998">
        <ele>377.60000610352</ele>
        <time>2015-09-12T07:21:17.000Z</time>
      </trkpt>
      <trkpt lat="47.35927" lon="4.90993">
        <ele>378.39999389648</ele>
        <time>2015-09-12T07:21:22.000Z</time>
      </trkpt>
      <trkpt lat="47.35929" lon="4.90993">
        <ele>378.60000610352</ele>
        <time>2015-09-12T07:21:23.000Z</time>
      </trkpt>
      <trkpt lat="47.35939" lon="4.90985">
        <ele>378.79998779297</ele>
        <time>2015-09-12T07:21:28.000Z</time>
      </trkpt>
      <trkpt lat="47.35951" lon="4.90979">
        <ele>379.39999389648</ele>
        <time>2015-09-12T07:21:33.000Z</time>
      </trkpt>
      <trkpt lat="47.35963" lon="4.90971">
        <ele>379.39999389648</ele>
        <time>2015-09-12T07:21:38.000Z</time>
      </trkpt>
      <trkpt lat="47.35974" lon="4.90962">
        <ele>379.79998779297</ele>
        <time>2015-09-12T07:21:42.000Z</time>
      </trkpt>
      <trkpt lat="47.35987" lon="4.90952">
        <ele>380.20001220703</ele>
        <time>2015-09-12T07:21:47.000Z</time>
      </trkpt>
      <trkpt lat="47.36002" lon="4.90937">
        <ele>381.20001220703</ele>
        <time>2015-09-12T07:21:53.000Z</time>
      </trkpt>
      <trkpt lat="47.36004" lon="4.90935">
        <ele>381.39999389648</ele>
        <time>2015-09-12T07:21:54.000Z</time>
      </trkpt>
      <trkpt lat="47.36017" lon="4.90926">
        <ele>382</ele>
        <time>2015-09-12T07:22:01.000Z</time>
      </trkpt>
      <trkpt lat="47.36018" lon="4.90925">
        <ele>382.60000610352</ele>
        <time>2015-09-12T07:22:02.000Z</time>
      </trkpt>
      <trkpt lat="47.36026" lon="4.90921">
        <ele>383</ele>
        <time>2015-09-12T07:22:07.000Z</time>
      </trkpt>
      <trkpt lat="47.36033" lon="4.90918">
        <ele>383.79998779297</ele>
        <time>2015-09-12T07:22:11.000Z</time>
      </trkpt>
      <trkpt lat="47.36037" lon="4.90915">
        <ele>384.20001220703</ele>
        <time>2015-09-12T07:22:13.000Z</time>
      </trkpt>
      <trkpt lat="47.3605" lon="4.90911">
        <ele>384.20001220703</ele>
        <time>2015-09-12T07:22:20.000Z</time>
      </trkpt>
      <trkpt lat="47.36052" lon="4.90911">
        <ele>384.39999389648</ele>
        <time>2015-09-12T07:22:21.000Z</time>
      </trkpt>
      <trkpt lat="47.36059" lon="4.90908">
        <ele>385</ele>
        <time>2015-09-12T07:22:25.000Z</time>
      </trkpt>
      <trkpt lat="47.36063" lon="4.90906">
        <ele>385.39999389648</ele>
        <time>2015-09-12T07:22:27.000Z</time>
      </trkpt>
      <trkpt lat="47.36068" lon="4.90903">
        <ele>386.20001220703</ele>
        <time>2015-09-12T07:22:30.000Z</time>
      </trkpt>
      <trkpt lat="47.36071" lon="4.90901">
        <ele>386.20001220703</ele>
        <time>2015-09-12T07:22:32.000Z</time>
      </trkpt>
      <trkpt lat="47.36078" lon="4.90897">
        <ele>387.39999389648</ele>
        <time>2015-09-12T07:22:36.000Z</time>
      </trkpt>
      <trkpt lat="47.36082" lon="4.90895">
        <ele>387.39999389648</ele>
        <time>2015-09-12T07:22:39.000Z</time>
      </trkpt>
      <trkpt lat="47.36084" lon="4.90896">
        <ele>387.39999389648</ele>
        <time>2015-09-12T07:22:40.000Z</time>
      </trkpt>
      <trkpt lat="47.3609" lon="4.90893">
        <ele>388</ele>
        <time>2015-09-12T07:22:43.000Z</time>
      </trkpt>
      <trkpt lat="47.36092" lon="4.90893">
        <ele>388</ele>
        <time>2015-09-12T07:22:44.000Z</time>
      </trkpt>
      <trkpt lat="47.36095" lon="4.90891">
        <ele>388.20001220703</ele>
        <time>2015-09-12T07:22:46.000Z</time>
      </trkpt>
      <trkpt lat="47.36099" lon="4.9089">
        <ele>388.60000610352</ele>
        <time>2015-09-12T07:22:48.000Z</time>
      </trkpt>
      <trkpt lat="47.36104" lon="4.90888">
        <ele>389.39999389648</ele>
        <time>2015-09-12T07:22:51.000Z</time>
      </trkpt>
      <trkpt lat="47.36113" lon="4.90886">
        <ele>389.60000610352</ele>
        <time>2015-09-12T07:22:55.000Z</time>
      </trkpt>
      <trkpt lat="47.36123" lon="4.90886">
        <ele>390.60000610352</ele>
        <time>2015-09-12T07:23:00.000Z</time>
      </trkpt>
      <trkpt lat="47.36125" lon="4.90885">
        <ele>390.60000610352</ele>
        <time>2015-09-12T07:23:01.000Z</time>
      </trkpt>
      <trkpt lat="47.36134" lon="4.90884">
        <ele>391</ele>
        <time>2015-09-12T07:23:06.000Z</time>
      </trkpt>
      <trkpt lat="47.36138" lon="4.90882">
        <ele>391.60000610352</ele>
        <time>2015-09-12T07:23:09.000Z</time>
      </trkpt>
      <trkpt lat="47.3614" lon="4.90881">
        <ele>391.79998779297</ele>
        <time>2015-09-12T07:23:10.000Z</time>
      </trkpt>
      <trkpt lat="47.36144" lon="4.9088">
        <ele>391.79998779297</ele>
        <time>2015-09-12T07:23:12.000Z</time>
      </trkpt>
      <trkpt lat="47.36151" lon="4.90876">
        <ele>393</ele>
        <time>2015-09-12T07:23:16.000Z</time>
      </trkpt>
      <trkpt lat="47.36153" lon="4.90874">
        <ele>392.79998779297</ele>
        <time>2015-09-12T07:23:17.000Z</time>
      </trkpt>
      <trkpt lat="47.3616" lon="4.90869">
        <ele>393.79998779297</ele>
        <time>2015-09-12T07:23:21.000Z</time>
      </trkpt>
      <trkpt lat="47.36163" lon="4.90865">
        <ele>394</ele>
        <time>2015-09-12T07:23:23.000Z</time>
      </trkpt>
      <trkpt lat="47.36169" lon="4.90859">
        <ele>394.39999389648</ele>
        <time>2015-09-12T07:23:28.000Z</time>
      </trkpt>
      <trkpt lat="47.36171" lon="4.90857">
        <ele>395</ele>
        <time>2015-09-12T07:23:29.000Z</time>
      </trkpt>
      <trkpt lat="47.36179" lon="4.9085">
        <ele>395.60000610352</ele>
        <time>2015-09-12T07:23:35.000Z</time>
      </trkpt>
      <trkpt lat="47.36182" lon="4.90848">
        <ele>396</ele>
        <time>2015-09-12T07:23:37.000Z</time>
      </trkpt>
      <trkpt lat="47.36187" lon="4.90845">
        <ele>396.20001220703</ele>
        <time>2015-09-12T07:23:41.000Z</time>
      </trkpt>
      <trkpt lat="47.36188" lon="4.90843">
        <ele>396.20001220703</ele>
        <time>2015-09-12T07:23:42.000Z</time>
      </trkpt>
      <trkpt lat="47.36192" lon="4.90838">
        <ele>396.79998779297</ele>
        <time>2015-09-12T07:23:45.000Z</time>
      </trkpt>
      <trkpt lat="47.36194" lon="4.90837">
        <ele>397</ele>
        <time>2015-09-12T07:23:46.000Z</time>
      </trkpt>
      <trkpt lat="47.36195" lon="4.90835">
        <ele>397</ele>
        <time>2015-09-12T07:23:47.000Z</time>
      </trkpt>
      <trkpt lat="47.36202" lon="4.9083">
        <ele>397.60000610352</ele>
        <time>2015-09-12T07:23:51.000Z</time>
      </trkpt>
      <trkpt lat="47.36204" lon="4.90828">
        <ele>398</ele>
        <time>2015-09-12T07:23:52.000Z</time>
      </trkpt>
      <trkpt lat="47.36209" lon="4.90823">
        <ele>398</ele>
        <time>2015-09-12T07:23:56.000Z</time>
      </trkpt>
      <trkpt lat="47.36216" lon="4.90817">
        <ele>398.79998779297</ele>
        <time>2015-09-12T07:24:01.000Z</time>
      </trkpt>
      <trkpt lat="47.3622" lon="4.90815">
        <ele>399.39999389648</ele>
        <time>2015-09-12T07:24:04.000Z</time>
      </trkpt>
      <trkpt lat="47.36223" lon="4.90814">
        <ele>399.79998779297</ele>
        <time>2015-09-12T07:24:06.000Z</time>
      </trkpt>
      <trkpt lat="47.36226" lon="4.90812">
        <ele>399.79998779297</ele>
        <time>2015-09-12T07:24:08.000Z</time>
      </trkpt>
      <trkpt lat="47.3623" lon="4.90809">
        <ele>400.20001220703</ele>
        <time>2015-09-12T07:24:11.000Z</time>
      </trkpt>
      <trkpt lat="47.3624" lon="4.90806">
        <ele>400.60000610352</ele>
        <time>2015-09-12T07:24:17.000Z</time>
      </trkpt>
      <trkpt lat="47.36242" lon="4.90805">
        <ele>400.60000610352</ele>
        <time>2015-09-12T07:24:18.000Z</time>
      </trkpt>
      <trkpt lat="47.36243" lon="4.90805">
        <ele>400.79998779297</ele>
        <time>2015-09-12T07:24:19.000Z</time>
      </trkpt>
      <trkpt lat="47.36248" lon="4.90803">
        <ele>401.20001220703</ele>
        <time>2015-09-12T07:24:22.000Z</time>
      </trkpt>
      <trkpt lat="47.36257" lon="4.908">
        <ele>401.79998779297</ele>
        <time>2015-09-12T07:24:26.000Z</time>
      </trkpt>
      <trkpt lat="47.36262" lon="4.90799">
        <ele>402.20001220703</ele>
        <time>2015-09-12T07:24:29.000Z</time>
      </trkpt>
      <trkpt lat="47.36264" lon="4.90798">
        <ele>402.20001220703</ele>
        <time>2015-09-12T07:24:30.000Z</time>
      </trkpt>
      <trkpt lat="47.36268" lon="4.90797">
        <ele>402.60000610352</ele>
        <time>2015-09-12T07:24:32.000Z</time>
      </trkpt>
      <trkpt lat="47.3627" lon="4.90796">
        <ele>402.79998779297</ele>
        <time>2015-09-12T07:24:33.000Z</time>
      </trkpt>
      <trkpt lat="47.36274" lon="4.90795">
        <ele>403.60000610352</ele>
        <time>2015-09-12T07:24:35.000Z</time>
      </trkpt>
      <trkpt lat="47.36282" lon="4.90793">
        <ele>403.79998779297</ele>
        <time>2015-09-12T07:24:41.000Z</time>
      </trkpt>
      <trkpt lat="47.36292" lon="4.90793">
        <ele>404.20001220703</ele>
        <time>2015-09-12T07:24:47.000Z</time>
      </trkpt>
      <trkpt lat="47.36295" lon="4.90793">
        <ele>404.39999389648</ele>
        <time>2015-09-12T07:24:49.000Z</time>
      </trkpt>
      <trkpt lat="47.363" lon="4.90792">
        <ele>404.79998779297</ele>
        <time>2015-09-12T07:24:52.000Z</time>
      </trkpt>
      <trkpt lat="47.36308" lon="4.90793">
        <ele>404.79998779297</ele>
        <time>2015-09-12T07:24:58.000Z</time>
      </trkpt>
      <trkpt lat="47.3631" lon="4.90793">
        <ele>404.79998779297</ele>
        <time>2015-09-12T07:25:01.000Z</time>
      </trkpt>
      <trkpt lat="47.36314" lon="4.90794">
        <ele>405</ele>
        <time>2015-09-12T07:25:04.000Z</time>
      </trkpt>
      <trkpt lat="47.36317" lon="4.90794">
        <ele>405.20001220703</ele>
        <time>2015-09-12T07:25:09.000Z</time>
      </trkpt>
      <trkpt lat="47.36319" lon="4.90795">
        <ele>404.79998779297</ele>
        <time>2015-09-12T07:25:11.000Z</time>
      </trkpt>
      <trkpt lat="47.36327" lon="4.90798">
        <ele>405.39999389648</ele>
        <time>2015-09-12T07:25:19.000Z</time>
      </trkpt>
      <trkpt lat="47.36334" lon="4.90803">
        <ele>405.39999389648</ele>
        <time>2015-09-12T07:25:29.000Z</time>
      </trkpt>
      <trkpt lat="47.36336" lon="4.90803">
        <ele>405.79998779297</ele>
        <time>2015-09-12T07:25:31.000Z</time>
      </trkpt>
      <trkpt lat="47.36342" lon="4.90807">
        <ele>406.20001220703</ele>
        <time>2015-09-12T07:25:39.000Z</time>
      </trkpt>
      <trkpt lat="47.36351" lon="4.9081">
        <ele>406.39999389648</ele>
        <time>2015-09-12T07:25:50.000Z</time>
      </trkpt>
      <trkpt lat="47.36352" lon="4.9081">
        <ele>406.39999389648</ele>
        <time>2015-09-12T07:25:51.000Z</time>
      </trkpt>
      <trkpt lat="47.3636" lon="4.90811">
        <ele>406.79998779297</ele>
        <time>2015-09-12T07:26:00.000Z</time>
      </trkpt>
      <trkpt lat="47.36364" lon="4.90811">
        <ele>407</ele>
        <time>2015-09-12T07:26:04.000Z</time>
      </trkpt>
      <trkpt lat="47.36369" lon="4.90811">
        <ele>407</ele>
        <time>2015-09-12T07:26:09.000Z</time>
      </trkpt>
      <trkpt lat="47.3637" lon="4.90812">
        <ele>407</ele>
        <time>2015-09-12T07:26:10.000Z</time>
      </trkpt>
      <trkpt lat="47.36378" lon="4.90814">
        <ele>407.60000610352</ele>
        <time>2015-09-12T07:26:20.000Z</time>
      </trkpt>
      <trkpt lat="47.3638" lon="4.90815">
        <ele>408</ele>
        <time>2015-09-12T07:26:23.000Z</time>
      </trkpt>
      <trkpt lat="47.36384" lon="4.90817">
        <ele>408.39999389648</ele>
        <time>2015-09-12T07:26:30.000Z</time>
      </trkpt>
      <trkpt lat="47.3639" lon="4.90819">
        <ele>408.60000610352</ele>
        <time>2015-09-12T07:26:35.000Z</time>
      </trkpt>
      <trkpt lat="47.36395" lon="4.90822">
        <ele>408.79998779297</ele>
        <time>2015-09-12T07:26:39.000Z</time>
      </trkpt>
      <trkpt lat="47.36407" lon="4.90825">
        <ele>409.20001220703</ele>
        <time>2015-09-12T07:26:45.000Z</time>
      </trkpt>
      <trkpt lat="47.36417" lon="4.90825">
        <ele>409.39999389648</ele>
        <time>2015-09-12T07:26:49.000Z</time>
      </trkpt>
      <trkpt lat="47.36421" lon="4.90826">
        <ele>409.79998779297</ele>
        <time>2015-09-12T07:26:51.000Z</time>
      </trkpt>
      <trkpt lat="47.36433" lon="4.90829">
        <ele>410.39999389648</ele>
        <time>2015-09-12T07:26:57.000Z</time>
      </trkpt>
      <trkpt lat="47.36437" lon="4.90831">
        <ele>410.60000610352</ele>
        <time>2015-09-12T07:26:59.000Z</time>
      </trkpt>
      <trkpt lat="47.36444" lon="4.90834">
        <ele>411.39999389648</ele>
        <time>2015-09-12T07:27:03.000Z</time>
      </trkpt>
      <trkpt lat="47.36447" lon="4.90835">
        <ele>411.60000610352</ele>
        <time>2015-09-12T07:27:04.000Z</time>
      </trkpt>
      <trkpt lat="47.36461" lon="4.90838">
        <ele>412</ele>
        <time>2015-09-12T07:27:10.000Z</time>
      </trkpt>
      <trkpt lat="47.36467" lon="4.90843">
        <ele>412.20001220703</ele>
        <time>2015-09-12T07:27:13.000Z</time>
      </trkpt>
      <trkpt lat="47.36473" lon="4.90846">
        <ele>412.39999389648</ele>
        <time>2015-09-12T07:27:16.000Z</time>
      </trkpt>
      <trkpt lat="47.36485" lon="4.90854">
        <ele>413.39999389648</ele>
        <time>2015-09-12T07:27:22.000Z</time>
      </trkpt>
      <trkpt lat="47.36498" lon="4.90861">
        <ele>413.79998779297</ele>
        <time>2015-09-12T07:27:29.000Z</time>
      </trkpt>
      <trkpt lat="47.36506" lon="4.90865">
        <ele>414.20001220703</ele>
        <time>2015-09-12T07:27:33.000Z</time>
      </trkpt>
      <trkpt lat="47.36508" lon="4.90866">
        <ele>414.39999389648</ele>
        <time>2015-09-12T07:27:34.000Z</time>
      </trkpt>
      <trkpt lat="47.36519" lon="4.90871">
        <ele>415</ele>
        <time>2015-09-12T07:27:39.000Z</time>
      </trkpt>
      <trkpt lat="47.36521" lon="4.90872">
        <ele>415.39999389648</ele>
        <time>2015-09-12T07:27:40.000Z</time>
      </trkpt>
      <trkpt lat="47.36528" lon="4.90877">
        <ele>416.20001220703</ele>
        <time>2015-09-12T07:27:44.000Z</time>
      </trkpt>
      <trkpt lat="47.3653" lon="4.90879">
        <ele>416.60000610352</ele>
        <time>2015-09-12T07:27:45.000Z</time>
      </trkpt>
      <trkpt lat="47.36539" lon="4.90888">
        <ele>417.60000610352</ele>
        <time>2015-09-12T07:27:51.000Z</time>
      </trkpt>
      <trkpt lat="47.36544" lon="4.90895">
        <ele>418.39999389648</ele>
        <time>2015-09-12T07:27:56.000Z</time>
      </trkpt>
      <trkpt lat="47.36545" lon="4.90896">
        <ele>418.39999389648</ele>
        <time>2015-09-12T07:27:57.000Z</time>
      </trkpt>
      <trkpt lat="47.36557" lon="4.90902">
        <ele>419.20001220703</ele>
        <time>2015-09-12T07:28:05.000Z</time>
      </trkpt>
      <trkpt lat="47.36558" lon="4.90904">
        <ele>419.20001220703</ele>
        <time>2015-09-12T07:28:07.000Z</time>
      </trkpt>
      <trkpt lat="47.36566" lon="4.90909">
        <ele>419.60000610352</ele>
        <time>2015-09-12T07:28:12.000Z</time>
      </trkpt>
      <trkpt lat="47.36567" lon="4.90911">
        <ele>419.60000610352</ele>
        <time>2015-09-12T07:28:13.000Z</time>
      </trkpt>
      <trkpt lat="47.36571" lon="4.90914">
        <ele>420.20001220703</ele>
        <time>2015-09-12T07:28:16.000Z</time>
      </trkpt>
      <trkpt lat="47.36572" lon="4.90915">
        <ele>420.39999389648</ele>
        <time>2015-09-12T07:28:17.000Z</time>
      </trkpt>
      <trkpt lat="47.36584" lon="4.90922">
        <ele>420.79998779297</ele>
        <time>2015-09-12T07:28:24.000Z</time>
      </trkpt>
      <trkpt lat="47.36587" lon="4.90925">
        <ele>421.20001220703</ele>
        <time>2015-09-12T07:28:26.000Z</time>
      </trkpt>
      <trkpt lat="47.36594" lon="4.90933">
        <ele>421.79998779297</ele>
        <time>2015-09-12T07:28:31.000Z</time>
      </trkpt>
      <trkpt lat="47.36598" lon="4.90936">
        <ele>422.39999389648</ele>
        <time>2015-09-12T07:28:33.000Z</time>
      </trkpt>
      <trkpt lat="47.3661" lon="4.90947">
        <ele>422.39999389648</ele>
        <time>2015-09-12T07:28:39.000Z</time>
      </trkpt>
      <trkpt lat="47.36618" lon="4.90954">
        <ele>423.20001220703</ele>
        <time>2015-09-12T07:28:43.000Z</time>
      </trkpt>
      <trkpt lat="47.36622" lon="4.90958">
        <ele>423.20001220703</ele>
        <time>2015-09-12T07:28:45.000Z</time>
      </trkpt>
      <trkpt lat="47.3663" lon="4.90968">
        <ele>423.20001220703</ele>
        <time>2015-09-12T07:28:50.000Z</time>
      </trkpt>
      <trkpt lat="47.36632" lon="4.9097">
        <ele>423.20001220703</ele>
        <time>2015-09-12T07:28:51.000Z</time>
      </trkpt>
      <trkpt lat="47.36637" lon="4.90975">
        <ele>423.60000610352</ele>
        <time>2015-09-12T07:28:54.000Z</time>
      </trkpt>
      <trkpt lat="47.3664" lon="4.90978">
        <ele>424</ele>
        <time>2015-09-12T07:28:56.000Z</time>
      </trkpt>
      <trkpt lat="47.36645" lon="4.90982">
        <ele>425</ele>
        <time>2015-09-12T07:28:59.000Z</time>
      </trkpt>
      <trkpt lat="47.36647" lon="4.90983">
        <ele>425.39999389648</ele>
        <time>2015-09-12T07:29:00.000Z</time>
      </trkpt>
      <trkpt lat="47.3665" lon="4.90985">
        <ele>426</ele>
        <time>2015-09-12T07:29:02.000Z</time>
      </trkpt>
      <trkpt lat="47.36655" lon="4.90984">
        <ele>427</ele>
        <time>2015-09-12T07:29:05.000Z</time>
      </trkpt>
      <trkpt lat="47.36656" lon="4.90984">
        <ele>427.60000610352</ele>
        <time>2015-09-12T07:29:06.000Z</time>
      </trkpt>
      <trkpt lat="47.36663" lon="4.90981">
        <ele>428.20001220703</ele>
        <time>2015-09-12T07:29:11.000Z</time>
      </trkpt>
      <trkpt lat="47.36666" lon="4.9098">
        <ele>428.39999389648</ele>
        <time>2015-09-12T07:29:13.000Z</time>
      </trkpt>
      <trkpt lat="47.36674" lon="4.90976">
        <ele>429.39999389648</ele>
        <time>2015-09-12T07:29:18.000Z</time>
      </trkpt>
      <trkpt lat="47.36675" lon="4.90975">
        <ele>429.60000610352</ele>
        <time>2015-09-12T07:29:19.000Z</time>
      </trkpt>
      <trkpt lat="47.36684" lon="4.90969">
        <ele>430.20001220703</ele>
        <time>2015-09-12T07:29:24.000Z</time>
      </trkpt>
      <trkpt lat="47.36689" lon="4.90965">
        <ele>430.60000610352</ele>
        <time>2015-09-12T07:29:27.000Z</time>
      </trkpt>
      <trkpt lat="47.36695" lon="4.90961">
        <ele>431.39999389648</ele>
        <time>2015-09-12T07:29:31.000Z</time>
      </trkpt>
      <trkpt lat="47.36698" lon="4.9096">
        <ele>431.39999389648</ele>
        <time>2015-09-12T07:29:33.000Z</time>
      </trkpt>
      <trkpt lat="47.36706" lon="4.90957">
        <ele>431.79998779297</ele>
        <time>2015-09-12T07:29:39.000Z</time>
      </trkpt>
      <trkpt lat="47.36712" lon="4.90955">
        <ele>431.60000610352</ele>
        <time>2015-09-12T07:29:48.000Z</time>
      </trkpt>
      <trkpt lat="47.36714" lon="4.90954">
        <ele>431.60000610352</ele>
        <time>2015-09-12T07:29:58.000Z</time>
      </trkpt>
      <trkpt lat="47.36714" lon="4.90954">
        <ele>431.79998779297</ele>
        <time>2015-09-12T07:30:06.000Z</time>
      </trkpt>
      <trkpt lat="47.36715" lon="4.90953">
        <ele>431.60000610352</ele>
        <time>2015-09-12T07:30:17.000Z</time>
      </trkpt>
      <trkpt lat="47.36716" lon="4.90954">
        <ele>431.79998779297</ele>
        <time>2015-09-12T07:30:28.000Z</time>
      </trkpt>
      <trkpt lat="47.36716" lon="4.90952">
        <ele>431.79998779297</ele>
        <time>2015-09-12T07:30:40.000Z</time>
      </trkpt>
      <trkpt lat="47.36716" lon="4.90952">
        <ele>431.79998779297</ele>
        <time>2015-09-12T07:30:46.000Z</time>
      </trkpt>
      <trkpt lat="47.36716" lon="4.90951">
        <ele>431.60000610352</ele>
        <time>2015-09-12T07:30:53.000Z</time>
      </trkpt>
      <trkpt lat="47.36716" lon="4.90951">
        <ele>431.79998779297</ele>
        <time>2015-09-12T07:31:04.000Z</time>
      </trkpt>
      <trkpt lat="47.36715" lon="4.90949">
        <ele>431.79998779297</ele>
        <time>2015-09-12T07:31:13.000Z</time>
      </trkpt>
      <trkpt lat="47.36723" lon="4.9095">
        <ele>431.60000610352</ele>
        <time>2015-09-12T07:31:21.000Z</time>
      </trkpt>
      <trkpt lat="47.36735" lon="4.90952">
        <ele>430.79998779297</ele>
        <time>2015-09-12T07:31:25.000Z</time>
      </trkpt>
      <trkpt lat="47.36746" lon="4.90962">
        <ele>430.79998779297</ele>
        <time>2015-09-12T07:31:30.000Z</time>
      </trkpt>
      <trkpt lat="47.36755" lon="4.90963">
        <ele>431.39999389648</ele>
        <time>2015-09-12T07:31:35.000Z</time>
      </trkpt>
      <trkpt lat="47.36762" lon="4.90965">
        <ele>432.60000610352</ele>
        <time>2015-09-12T07:31:40.000Z</time>
      </trkpt>
      <trkpt lat="47.36766" lon="4.90965">
        <ele>433.20001220703</ele>
        <time>2015-09-12T07:31:43.000Z</time>
      </trkpt>
      <trkpt lat="47.36769" lon="4.90966">
        <ele>433.60000610352</ele>
        <time>2015-09-12T07:31:45.000Z</time>
      </trkpt>
      <trkpt lat="47.36777" lon="4.90966">
        <ele>434.60000610352</ele>
        <time>2015-09-12T07:31:50.000Z</time>
      </trkpt>
      <trkpt lat="47.36778" lon="4.90966">
        <ele>435</ele>
        <time>2015-09-12T07:31:51.000Z</time>
      </trkpt>
      <trkpt lat="47.3678" lon="4.90966">
        <ele>435.20001220703</ele>
        <time>2015-09-12T07:31:52.000Z</time>
      </trkpt>
      <trkpt lat="47.36786" lon="4.90965">
        <ele>435.79998779297</ele>
        <time>2015-09-12T07:31:56.000Z</time>
      </trkpt>
      <trkpt lat="47.36789" lon="4.90965">
        <ele>436.20001220703</ele>
        <time>2015-09-12T07:31:58.000Z</time>
      </trkpt>
      <trkpt lat="47.36794" lon="4.90965">
        <ele>436.79998779297</ele>
        <time>2015-09-12T07:32:02.000Z</time>
      </trkpt>
      <trkpt lat="47.36797" lon="4.90965">
        <ele>437.20001220703</ele>
        <time>2015-09-12T07:32:04.000Z</time>
      </trkpt>
      <trkpt lat="47.36805" lon="4.90965">
        <ele>437.79998779297</ele>
        <time>2015-09-12T07:32:10.000Z</time>
      </trkpt>
      <trkpt lat="47.36806" lon="4.90965">
        <ele>438</ele>
        <time>2015-09-12T07:32:11.000Z</time>
      </trkpt>
      <trkpt lat="47.36811" lon="4.90965">
        <ele>438.79998779297</ele>
        <time>2015-09-12T07:32:15.000Z</time>
      </trkpt>
      <trkpt lat="47.36815" lon="4.90965">
        <ele>439</ele>
        <time>2015-09-12T07:32:17.000Z</time>
      </trkpt>
      <trkpt lat="47.36826" lon="4.90964">
        <ele>439.20001220703</ele>
        <time>2015-09-12T07:32:23.000Z</time>
      </trkpt>
      <trkpt lat="47.36828" lon="4.90964">
        <ele>439.39999389648</ele>
        <time>2015-09-12T07:32:24.000Z</time>
      </trkpt>
      <trkpt lat="47.36841" lon="4.90964">
        <ele>440</ele>
        <time>2015-09-12T07:32:31.000Z</time>
      </trkpt>
      <trkpt lat="47.3685" lon="4.90963">
        <ele>440.39999389648</ele>
        <time>2015-09-12T07:32:35.000Z</time>
      </trkpt>
      <trkpt lat="47.36861" lon="4.90962">
        <ele>441.20001220703</ele>
        <time>2015-09-12T07:32:41.000Z</time>
      </trkpt>
      <trkpt lat="47.36863" lon="4.90962">
        <ele>441.20001220703</ele>
        <time>2015-09-12T07:32:42.000Z</time>
      </trkpt>
      <trkpt lat="47.36871" lon="4.90961">
        <ele>441.39999389648</ele>
        <time>2015-09-12T07:32:46.000Z</time>
      </trkpt>
      <trkpt lat="47.36882" lon="4.90959">
        <ele>441.79998779297</ele>
        <time>2015-09-12T07:32:52.000Z</time>
      </trkpt>
      <trkpt lat="47.36887" lon="4.90959">
        <ele>442.20001220703</ele>
        <time>2015-09-12T07:32:55.000Z</time>
      </trkpt>
      <trkpt lat="47.36893" lon="4.90958">
        <ele>442.60000610352</ele>
        <time>2015-09-12T07:32:58.000Z</time>
      </trkpt>
      <trkpt lat="47.36895" lon="4.90958">
        <ele>442.60000610352</ele>
        <time>2015-09-12T07:32:59.000Z</time>
      </trkpt>
      <trkpt lat="47.36905" lon="4.90955">
        <ele>443.20001220703</ele>
        <time>2015-09-12T07:33:04.000Z</time>
      </trkpt>
      <trkpt lat="47.36907" lon="4.90954">
        <ele>443.60000610352</ele>
        <time>2015-09-12T07:33:05.000Z</time>
      </trkpt>
      <trkpt lat="47.36913" lon="4.9095">
        <ele>444.39999389648</ele>
        <time>2015-09-12T07:33:08.000Z</time>
      </trkpt>
      <trkpt lat="47.36918" lon="4.90947">
        <ele>445.20001220703</ele>
        <time>2015-09-12T07:33:11.000Z</time>
      </trkpt>
      <trkpt lat="47.3692" lon="4.90946">
        <ele>445.20001220703</ele>
        <time>2015-09-12T07:33:12.000Z</time>
      </trkpt>
      <trkpt lat="47.3693" lon="4.90938">
        <ele>446</ele>
        <time>2015-09-12T07:33:18.000Z</time>
      </trkpt>
      <trkpt lat="47.36932" lon="4.90936">
        <ele>446.20001220703</ele>
        <time>2015-09-12T07:33:19.000Z</time>
      </trkpt>
      <trkpt lat="47.36942" lon="4.90929">
        <ele>446.79998779297</ele>
        <time>2015-09-12T07:33:25.000Z</time>
      </trkpt>
      <trkpt lat="47.36945" lon="4.90927">
        <ele>447</ele>
        <time>2015-09-12T07:33:27.000Z</time>
      </trkpt>
      <trkpt lat="47.36953" lon="4.90923">
        <ele>447.60000610352</ele>
        <time>2015-09-12T07:33:32.000Z</time>
      </trkpt>
      <trkpt lat="47.36957" lon="4.90919">
        <ele>448.20001220703</ele>
        <time>2015-09-12T07:33:35.000Z</time>
      </trkpt>
      <trkpt lat="47.36959" lon="4.90918">
        <ele>448.39999389648</ele>
        <time>2015-09-12T07:33:37.000Z</time>
      </trkpt>
      <trkpt lat="47.3696" lon="4.90917">
        <ele>448.39999389648</ele>
        <time>2015-09-12T07:33:38.000Z</time>
      </trkpt>
      <trkpt lat="47.36968" lon="4.90913">
        <ele>449.20001220703</ele>
        <time>2015-09-12T07:33:43.000Z</time>
      </trkpt>
      <trkpt lat="47.36973" lon="4.9091">
        <ele>449.60000610352</ele>
        <time>2015-09-12T07:33:46.000Z</time>
      </trkpt>
      <trkpt lat="47.3698" lon="4.90909">
        <ele>450.39999389648</ele>
        <time>2015-09-12T07:33:50.000Z</time>
      </trkpt>
      <trkpt lat="47.36984" lon="4.90908">
        <ele>450.60000610352</ele>
        <time>2015-09-12T07:33:52.000Z</time>
      </trkpt>
      <trkpt lat="47.36986" lon="4.90907">
        <ele>450.60000610352</ele>
        <time>2015-09-12T07:33:53.000Z</time>
      </trkpt>
      <trkpt lat="47.36994" lon="4.90901">
        <ele>450.60000610352</ele>
        <time>2015-09-12T07:33:58.000Z</time>
      </trkpt>
      <trkpt lat="47.37003" lon="4.90896">
        <ele>451</ele>
        <time>2015-09-12T07:34:03.000Z</time>
      </trkpt>
      <trkpt lat="47.37021" lon="4.9088">
        <ele>451</ele>
        <time>2015-09-12T07:34:12.000Z</time>
      </trkpt>
      <trkpt lat="47.37024" lon="4.90876">
        <ele>451.20001220703</ele>
        <time>2015-09-12T07:34:14.000Z</time>
      </trkpt>
      <trkpt lat="47.37029" lon="4.90865">
        <ele>451.39999389648</ele>
        <time>2015-09-12T07:34:18.000Z</time>
      </trkpt>
      <trkpt lat="47.37037" lon="4.90848">
        <ele>452.20001220703</ele>
        <time>2015-09-12T07:34:24.000Z</time>
      </trkpt>
      <trkpt lat="47.37038" lon="4.90845">
        <ele>452.79998779297</ele>
        <time>2015-09-12T07:34:25.000Z</time>
      </trkpt>
      <trkpt lat="47.37047" lon="4.90823">
        <ele>454</ele>
        <time>2015-09-12T07:34:33.000Z</time>
      </trkpt>
      <trkpt lat="47.37049" lon="4.9082">
        <ele>454</ele>
        <time>2015-09-12T07:34:34.000Z</time>
      </trkpt>
      <trkpt lat="47.37056" lon="4.90805">
        <ele>455.20001220703</ele>
        <time>2015-09-12T07:34:40.000Z</time>
      </trkpt>
      <trkpt lat="47.37058" lon="4.908">
        <ele>455.79998779297</ele>
        <time>2015-09-12T07:34:42.000Z</time>
      </trkpt>
      <trkpt lat="47.37064" lon="4.90788">
        <ele>456.39999389648</ele>
        <time>2015-09-12T07:34:47.000Z</time>
      </trkpt>
      <trkpt lat="47.3707" lon="4.90776">
        <ele>457</ele>
        <time>2015-09-12T07:34:52.000Z</time>
      </trkpt>
      <trkpt lat="47.37074" lon="4.90766">
        <ele>457.39999389648</ele>
        <time>2015-09-12T07:34:56.000Z</time>
      </trkpt>
      <trkpt lat="47.37079" lon="4.90755">
        <ele>458.20001220703</ele>
        <time>2015-09-12T07:35:01.000Z</time>
      </trkpt>
      <trkpt lat="47.37081" lon="4.9075">
        <ele>458.39999389648</ele>
        <time>2015-09-12T07:35:03.000Z</time>
      </trkpt>
      <trkpt lat="47.37086" lon="4.90738">
        <ele>458.79998779297</ele>
        <time>2015-09-12T07:35:08.000Z</time>
      </trkpt>
      <trkpt lat="47.37092" lon="4.90724">
        <ele>459.39999389648</ele>
        <time>2015-09-12T07:35:14.000Z</time>
      </trkpt>
      <trkpt lat="47.37096" lon="4.90718">
        <ele>459.79998779297</ele>
        <time>2015-09-12T07:35:17.000Z</time>
      </trkpt>
      <trkpt lat="47.37099" lon="4.90712">
        <ele>460.79998779297</ele>
        <time>2015-09-12T07:35:20.000Z</time>
      </trkpt>
      <trkpt lat="47.37108" lon="4.907">
        <ele>462</ele>
        <time>2015-09-12T07:35:27.000Z</time>
      </trkpt>
      <trkpt lat="47.37116" lon="4.90693">
        <ele>462.79998779297</ele>
        <time>2015-09-12T07:35:35.000Z</time>
      </trkpt>
      <trkpt lat="47.37118" lon="4.9069">
        <ele>463</ele>
        <time>2015-09-12T07:35:37.000Z</time>
      </trkpt>
      <trkpt lat="47.37121" lon="4.90683">
        <ele>463.60000610352</ele>
        <time>2015-09-12T07:35:41.000Z</time>
      </trkpt>
      <trkpt lat="47.37129" lon="4.90669">
        <ele>464.20001220703</ele>
        <time>2015-09-12T07:35:48.000Z</time>
      </trkpt>
      <trkpt lat="47.3713" lon="4.90668">
        <ele>464.20001220703</ele>
        <time>2015-09-12T07:35:49.000Z</time>
      </trkpt>
      <trkpt lat="47.37138" lon="4.90655">
        <ele>465.20001220703</ele>
        <time>2015-09-12T07:35:56.000Z</time>
      </trkpt>
      <trkpt lat="47.37142" lon="4.90649">
        <ele>465.60000610352</ele>
        <time>2015-09-12T07:35:59.000Z</time>
      </trkpt>
      <trkpt lat="47.37151" lon="4.90644">
        <ele>466.39999389648</ele>
        <time>2015-09-12T07:36:04.000Z</time>
      </trkpt>
      <trkpt lat="47.37152" lon="4.90643">
        <ele>466.39999389648</ele>
        <time>2015-09-12T07:36:05.000Z</time>
      </trkpt>
      <trkpt lat="47.37165" lon="4.90631">
        <ele>467.79998779297</ele>
        <time>2015-09-12T07:36:13.000Z</time>
      </trkpt>
      <trkpt lat="47.37168" lon="4.90628">
        <ele>468</ele>
        <time>2015-09-12T07:36:15.000Z</time>
      </trkpt>
      <trkpt lat="47.37181" lon="4.90621">
        <ele>468.79998779297</ele>
        <time>2015-09-12T07:36:22.000Z</time>
      </trkpt>
      <trkpt lat="47.37185" lon="4.90618">
        <ele>468.79998779297</ele>
        <time>2015-09-12T07:36:24.000Z</time>
      </trkpt>
      <trkpt lat="47.37204" lon="4.90607">
        <ele>469.20001220703</ele>
        <time>2015-09-12T07:36:34.000Z</time>
      </trkpt>
      <trkpt lat="47.37215" lon="4.90601">
        <ele>469.79998779297</ele>
        <time>2015-09-12T07:36:39.000Z</time>
      </trkpt>
      <trkpt lat="47.37226" lon="4.90595">
        <ele>469.79998779297</ele>
        <time>2015-09-12T07:36:44.000Z</time>
      </trkpt>
      <trkpt lat="47.3724" lon="4.90588">
        <ele>470.20001220703</ele>
        <time>2015-09-12T07:36:51.000Z</time>
      </trkpt>
      <trkpt lat="47.37254" lon="4.90581">
        <ele>471</ele>
        <time>2015-09-12T07:36:58.000Z</time>
      </trkpt>
      <trkpt lat="47.37265" lon="4.90575">
        <ele>471</ele>
        <time>2015-09-12T07:37:03.000Z</time>
      </trkpt>
      <trkpt lat="47.37279" lon="4.90567">
        <ele>471.79998779297</ele>
        <time>2015-09-12T07:37:10.000Z</time>
      </trkpt>
      <trkpt lat="47.37281" lon="4.90565">
        <ele>472</ele>
        <time>2015-09-12T07:37:11.000Z</time>
      </trkpt>
      <trkpt lat="47.37296" lon="4.90553">
        <ele>472.60000610352</ele>
        <time>2015-09-12T07:37:18.000Z</time>
      </trkpt>
      <trkpt lat="47.37302" lon="4.90547">
        <ele>473</ele>
        <time>2015-09-12T07:37:21.000Z</time>
      </trkpt>
      <trkpt lat="47.37315" lon="4.90536">
        <ele>473.20001220703</ele>
        <time>2015-09-12T07:37:27.000Z</time>
      </trkpt>
      <trkpt lat="47.37332" lon="4.90519">
        <ele>474</ele>
        <time>2015-09-12T07:37:35.000Z</time>
      </trkpt>
      <trkpt lat="47.37336" lon="4.90515">
        <ele>474.20001220703</ele>
        <time>2015-09-12T07:37:37.000Z</time>
      </trkpt>
      <trkpt lat="47.37356" lon="4.90494">
        <ele>474.39999389648</ele>
        <time>2015-09-12T07:37:47.000Z</time>
      </trkpt>
      <trkpt lat="47.37366" lon="4.90487">
        <ele>475</ele>
        <time>2015-09-12T07:37:51.000Z</time>
      </trkpt>
      <trkpt lat="47.37378" lon="4.90483">
        <ele>476</ele>
        <time>2015-09-12T07:37:56.000Z</time>
      </trkpt>
      <trkpt lat="47.37396" lon="4.90484">
        <ele>476.79998779297</ele>
        <time>2015-09-12T07:38:04.000Z</time>
      </trkpt>
      <trkpt lat="47.37403" lon="4.90487">
        <ele>477.20001220703</ele>
        <time>2015-09-12T07:38:07.000Z</time>
      </trkpt>
      <trkpt lat="47.37411" lon="4.90492">
        <ele>477.79998779297</ele>
        <time>2015-09-12T07:38:11.000Z</time>
      </trkpt>
      <trkpt lat="47.37413" lon="4.90494">
        <ele>478.20001220703</ele>
        <time>2015-09-12T07:38:12.000Z</time>
      </trkpt>
      <trkpt lat="47.37415" lon="4.90496">
        <ele>478.39999389648</ele>
        <time>2015-09-12T07:38:13.000Z</time>
      </trkpt>
      <trkpt lat="47.37427" lon="4.90506">
        <ele>479.20001220703</ele>
        <time>2015-09-12T07:38:19.000Z</time>
      </trkpt>
      <trkpt lat="47.37438" lon="4.90517">
        <ele>479.39999389648</ele>
        <time>2015-09-12T07:38:25.000Z</time>
      </trkpt>
      <trkpt lat="47.37444" lon="4.90519">
        <ele>480</ele>
        <time>2015-09-12T07:38:28.000Z</time>
      </trkpt>
      <trkpt lat="47.37457" lon="4.90514">
        <ele>480.39999389648</ele>
        <time>2015-09-12T07:38:34.000Z</time>
      </trkpt>
      <trkpt lat="47.37467" lon="4.90504">
        <ele>480.39999389648</ele>
        <time>2015-09-12T07:38:40.000Z</time>
      </trkpt>
      <trkpt lat="47.3748" lon="4.9048">
        <ele>480.60000610352</ele>
        <time>2015-09-12T07:38:48.000Z</time>
      </trkpt>
      <trkpt lat="47.37489" lon="4.90469">
        <ele>480.79998779297</ele>
        <time>2015-09-12T07:38:53.000Z</time>
      </trkpt>
      <trkpt lat="47.37494" lon="4.90447">
        <ele>480.60000610352</ele>
        <time>2015-09-12T07:38:58.000Z</time>
      </trkpt>
      <trkpt lat="47.37501" lon="4.90412">
        <ele>481.20001220703</ele>
        <time>2015-09-12T07:39:05.000Z</time>
      </trkpt>
      <trkpt lat="47.37507" lon="4.90382">
        <ele>481.39999389648</ele>
        <time>2015-09-12T07:39:11.000Z</time>
      </trkpt>
      <trkpt lat="47.37509" lon="4.90372">
        <ele>481.79998779297</ele>
        <time>2015-09-12T07:39:13.000Z</time>
      </trkpt>
      <trkpt lat="47.37513" lon="4.90346">
        <ele>482.60000610352</ele>
        <time>2015-09-12T07:39:18.000Z</time>
      </trkpt>
      <trkpt lat="47.37516" lon="4.90327">
        <ele>483.39999389648</ele>
        <time>2015-09-12T07:39:22.000Z</time>
      </trkpt>
      <trkpt lat="47.37517" lon="4.90313">
        <ele>483.60000610352</ele>
        <time>2015-09-12T07:39:25.000Z</time>
      </trkpt>
      <trkpt lat="47.37521" lon="4.90285">
        <ele>484.39999389648</ele>
        <time>2015-09-12T07:39:31.000Z</time>
      </trkpt>
      <trkpt lat="47.37522" lon="4.90276">
        <ele>485</ele>
        <time>2015-09-12T07:39:33.000Z</time>
      </trkpt>
      <trkpt lat="47.37523" lon="4.90262">
        <ele>485.60000610352</ele>
        <time>2015-09-12T07:39:36.000Z</time>
      </trkpt>
      <trkpt lat="47.37526" lon="4.90234">
        <ele>486.79998779297</ele>
        <time>2015-09-12T07:39:42.000Z</time>
      </trkpt>
      <trkpt lat="47.37527" lon="4.90224">
        <ele>487.20001220703</ele>
        <time>2015-09-12T07:39:44.000Z</time>
      </trkpt>
      <trkpt lat="47.37527" lon="4.90206">
        <ele>488</ele>
        <time>2015-09-12T07:39:48.000Z</time>
      </trkpt>
      <trkpt lat="47.37527" lon="4.90184">
        <ele>489</ele>
        <time>2015-09-12T07:39:53.000Z</time>
      </trkpt>
      <trkpt lat="47.37527" lon="4.90179">
        <ele>489.39999389648</ele>
        <time>2015-09-12T07:39:54.000Z</time>
      </trkpt>
      <trkpt lat="47.37527" lon="4.90154">
        <ele>490</ele>
        <time>2015-09-12T07:40:00.000Z</time>
      </trkpt>
      <trkpt lat="47.37527" lon="4.90142">
        <ele>490.39999389648</ele>
        <time>2015-09-12T07:40:03.000Z</time>
      </trkpt>
      <trkpt lat="47.37527" lon="4.90134">
        <ele>491</ele>
        <time>2015-09-12T07:40:05.000Z</time>
      </trkpt>
      <trkpt lat="47.37531" lon="4.90117">
        <ele>491.79998779297</ele>
        <time>2015-09-12T07:40:10.000Z</time>
      </trkpt>
      <trkpt lat="47.37531" lon="4.90114">
        <ele>492.20001220703</ele>
        <time>2015-09-12T07:40:11.000Z</time>
      </trkpt>
      <trkpt lat="47.37538" lon="4.901">
        <ele>493.20001220703</ele>
        <time>2015-09-12T07:40:17.000Z</time>
      </trkpt>
      <trkpt lat="47.37539" lon="4.90097">
        <ele>493.39999389648</ele>
        <time>2015-09-12T07:40:18.000Z</time>
      </trkpt>
      <trkpt lat="47.37546" lon="4.90083">
        <ele>494.20001220703</ele>
        <time>2015-09-12T07:40:25.000Z</time>
      </trkpt>
      <trkpt lat="47.37547" lon="4.90082">
        <ele>494.39999389648</ele>
        <time>2015-09-12T07:40:26.000Z</time>
      </trkpt>
      <trkpt lat="47.37551" lon="4.90069">
        <ele>495</ele>
        <time>2015-09-12T07:40:32.000Z</time>
      </trkpt>
      <trkpt lat="47.37555" lon="4.90048">
        <ele>495.39999389648</ele>
        <time>2015-09-12T07:40:38.000Z</time>
      </trkpt>
      <trkpt lat="47.37557" lon="4.9002">
        <ele>495.79998779297</ele>
        <time>2015-09-12T07:40:45.000Z</time>
      </trkpt>
      <trkpt lat="47.37559" lon="4.89992">
        <ele>496.20001220703</ele>
        <time>2015-09-12T07:40:52.000Z</time>
      </trkpt>
      <trkpt lat="47.37561" lon="4.89964">
        <ele>496.39999389648</ele>
        <time>2015-09-12T07:40:58.000Z</time>
      </trkpt>
      <trkpt lat="47.37561" lon="4.8996">
        <ele>496.60000610352</ele>
        <time>2015-09-12T07:40:59.000Z</time>
      </trkpt>
      <trkpt lat="47.37562" lon="4.89955">
        <ele>496.39999389648</ele>
        <time>2015-09-12T07:41:00.000Z</time>
      </trkpt>
      <trkpt lat="47.37567" lon="4.89928">
        <ele>496.79998779297</ele>
        <time>2015-09-12T07:41:06.000Z</time>
      </trkpt>
      <trkpt lat="47.37577" lon="4.89911">
        <ele>496.60000610352</ele>
        <time>2015-09-12T07:41:11.000Z</time>
      </trkpt>
      <trkpt lat="47.37585" lon="4.89891">
        <ele>496.39999389648</ele>
        <time>2015-09-12T07:41:17.000Z</time>
      </trkpt>
      <trkpt lat="47.37589" lon="4.89872">
        <ele>495.60000610352</ele>
        <time>2015-09-12T07:41:24.000Z</time>
      </trkpt>
      <trkpt lat="47.3759" lon="4.89862">
        <ele>495</ele>
        <time>2015-09-12T07:41:26.000Z</time>
      </trkpt>
      <trkpt lat="47.37595" lon="4.89843">
        <ele>494</ele>
        <time>2015-09-12T07:41:29.000Z</time>
      </trkpt>
      <trkpt lat="47.37599" lon="4.89825">
        <ele>493.39999389648</ele>
        <time>2015-09-12T07:41:31.000Z</time>
      </trkpt>
      <trkpt lat="47.37607" lon="4.89812">
        <ele>492</ele>
        <time>2015-09-12T07:41:33.000Z</time>
      </trkpt>
      <trkpt lat="47.37616" lon="4.89804">
        <ele>490.39999389648</ele>
        <time>2015-09-12T07:41:35.000Z</time>
      </trkpt>
      <trkpt lat="47.37618" lon="4.89798">
        <ele>489.79998779297</ele>
        <time>2015-09-12T07:41:36.000Z</time>
      </trkpt>
      <trkpt lat="47.37618" lon="4.89792">
        <ele>489.20001220703</ele>
        <time>2015-09-12T07:41:37.000Z</time>
      </trkpt>
      <trkpt lat="47.37616" lon="4.89784">
        <ele>488.20001220703</ele>
        <time>2015-09-12T07:41:39.000Z</time>
      </trkpt>
      <trkpt lat="47.37614" lon="4.89779">
        <ele>487.60000610352</ele>
        <time>2015-09-12T07:41:40.000Z</time>
      </trkpt>
      <trkpt lat="47.37611" lon="4.89775">
        <ele>487.20001220703</ele>
        <time>2015-09-12T07:41:41.000Z</time>
      </trkpt>
      <trkpt lat="47.37604" lon="4.89763">
        <ele>485.79998779297</ele>
        <time>2015-09-12T07:41:43.000Z</time>
      </trkpt>
      <trkpt lat="47.37595" lon="4.89749">
        <ele>484.39999389648</ele>
        <time>2015-09-12T07:41:45.000Z</time>
      </trkpt>
      <trkpt lat="47.37591" lon="4.8974">
        <ele>483.20001220703</ele>
        <time>2015-09-12T07:41:46.000Z</time>
      </trkpt>
      <trkpt lat="47.37586" lon="4.89731">
        <ele>482.39999389648</ele>
        <time>2015-09-12T07:41:47.000Z</time>
      </trkpt>
      <trkpt lat="47.37583" lon="4.89723">
        <ele>481.60000610352</ele>
        <time>2015-09-12T07:41:48.000Z</time>
      </trkpt>
      <trkpt lat="47.37581" lon="4.89716">
        <ele>480.60000610352</ele>
        <time>2015-09-12T07:41:49.000Z</time>
      </trkpt>
      <trkpt lat="47.3758" lon="4.89709">
        <ele>479.39999389648</ele>
        <time>2015-09-12T07:41:50.000Z</time>
      </trkpt>
      <trkpt lat="47.3758" lon="4.89705">
        <ele>478.39999389648</ele>
        <time>2015-09-12T07:41:51.000Z</time>
      </trkpt>
      <trkpt lat="47.3758" lon="4.89701">
        <ele>477.79998779297</ele>
        <time>2015-09-12T07:41:52.000Z</time>
      </trkpt>
      <trkpt lat="47.3758" lon="4.89699">
        <ele>477.20001220703</ele>
        <time>2015-09-12T07:41:53.000Z</time>
      </trkpt>
      <trkpt lat="47.3758" lon="4.89696">
        <ele>476.79998779297</ele>
        <time>2015-09-12T07:41:54.000Z</time>
      </trkpt>
      <trkpt lat="47.3758" lon="4.89689">
        <ele>476</ele>
        <time>2015-09-12T07:41:56.000Z</time>
      </trkpt>
      <trkpt lat="47.37583" lon="4.89681">
        <ele>475.20001220703</ele>
        <time>2015-09-12T07:41:58.000Z</time>
      </trkpt>
      <trkpt lat="47.37591" lon="4.89659">
        <ele>474.79998779297</ele>
        <time>2015-09-12T07:42:02.000Z</time>
      </trkpt>
      <trkpt lat="47.37593" lon="4.89653">
        <ele>474.60000610352</ele>
        <time>2015-09-12T07:42:03.000Z</time>
      </trkpt>
      <trkpt lat="47.37598" lon="4.89632">
        <ele>474.39999389648</ele>
        <time>2015-09-12T07:42:06.000Z</time>
      </trkpt>
      <trkpt lat="47.37601" lon="4.89613">
        <ele>474.39999389648</ele>
        <time>2015-09-12T07:42:09.000Z</time>
      </trkpt>
      <trkpt lat="47.37605" lon="4.89566">
        <ele>475</ele>
        <time>2015-09-12T07:42:16.000Z</time>
      </trkpt>
      <trkpt lat="47.37607" lon="4.89548">
        <ele>475.79998779297</ele>
        <time>2015-09-12T07:42:19.000Z</time>
      </trkpt>
      <trkpt lat="47.37607" lon="4.89542">
        <ele>475.79998779297</ele>
        <time>2015-09-12T07:42:20.000Z</time>
      </trkpt>
      <trkpt lat="47.37608" lon="4.8953">
        <ele>476.20001220703</ele>
        <time>2015-09-12T07:42:22.000Z</time>
      </trkpt>
      <trkpt lat="47.37609" lon="4.89503">
        <ele>476.60000610352</ele>
        <time>2015-09-12T07:42:27.000Z</time>
      </trkpt>
      <trkpt lat="47.37609" lon="4.89498">
        <ele>476.79998779297</ele>
        <time>2015-09-12T07:42:28.000Z</time>
      </trkpt>
      <trkpt lat="47.37612" lon="4.89472">
        <ele>477.79998779297</ele>
        <time>2015-09-12T07:42:33.000Z</time>
      </trkpt>
      <trkpt lat="47.37615" lon="4.89447">
        <ele>478.20001220703</ele>
        <time>2015-09-12T07:42:38.000Z</time>
      </trkpt>
      <trkpt lat="47.37616" lon="4.89437">
        <ele>478.79998779297</ele>
        <time>2015-09-12T07:42:40.000Z</time>
      </trkpt>
      <trkpt lat="47.3762" lon="4.89413">
        <ele>479.79998779297</ele>
        <time>2015-09-12T07:42:45.000Z</time>
      </trkpt>
      <trkpt lat="47.37627" lon="4.89365">
        <ele>481</ele>
        <time>2015-09-12T07:42:54.000Z</time>
      </trkpt>
      <trkpt lat="47.37629" lon="4.89355">
        <ele>481.20001220703</ele>
        <time>2015-09-12T07:42:56.000Z</time>
      </trkpt>
      <trkpt lat="47.37639" lon="4.89302">
        <ele>482</ele>
        <time>2015-09-12T07:43:06.000Z</time>
      </trkpt>
      <trkpt lat="47.3764" lon="4.89297">
        <ele>482</ele>
        <time>2015-09-12T07:43:07.000Z</time>
      </trkpt>
      <trkpt lat="47.37643" lon="4.89277">
        <ele>483.20001220703</ele>
        <time>2015-09-12T07:43:11.000Z</time>
      </trkpt>
      <trkpt lat="47.37647" lon="4.89257">
        <ele>483.60000610352</ele>
        <time>2015-09-12T07:43:15.000Z</time>
      </trkpt>
      <trkpt lat="47.37652" lon="4.89243">
        <ele>484</ele>
        <time>2015-09-12T07:43:18.000Z</time>
      </trkpt>
      <trkpt lat="47.37658" lon="4.8922">
        <ele>485</ele>
        <time>2015-09-12T07:43:23.000Z</time>
      </trkpt>
      <trkpt lat="47.3766" lon="4.8921">
        <ele>485.20001220703</ele>
        <time>2015-09-12T07:43:25.000Z</time>
      </trkpt>
      <trkpt lat="47.37671" lon="4.89177">
        <ele>486.20001220703</ele>
        <time>2015-09-12T07:43:32.000Z</time>
      </trkpt>
      <trkpt lat="47.37672" lon="4.89172">
        <ele>486.20001220703</ele>
        <time>2015-09-12T07:43:33.000Z</time>
      </trkpt>
      <trkpt lat="47.37685" lon="4.89133">
        <ele>487.39999389648</ele>
        <time>2015-09-12T07:43:41.000Z</time>
      </trkpt>
      <trkpt lat="47.37687" lon="4.89128">
        <ele>487.39999389648</ele>
        <time>2015-09-12T07:43:42.000Z</time>
      </trkpt>
      <trkpt lat="47.37691" lon="4.89102">
        <ele>488.39999389648</ele>
        <time>2015-09-12T07:43:47.000Z</time>
      </trkpt>
      <trkpt lat="47.37692" lon="4.89092">
        <ele>488.60000610352</ele>
        <time>2015-09-12T07:43:49.000Z</time>
      </trkpt>
      <trkpt lat="47.37693" lon="4.8905">
        <ele>488.79998779297</ele>
        <time>2015-09-12T07:43:57.000Z</time>
      </trkpt>
      <trkpt lat="47.37696" lon="4.89028">
        <ele>489.20001220703</ele>
        <time>2015-09-12T07:44:01.000Z</time>
      </trkpt>
      <trkpt lat="47.37701" lon="4.89008">
        <ele>490</ele>
        <time>2015-09-12T07:44:05.000Z</time>
      </trkpt>
      <trkpt lat="47.37704" lon="4.88998">
        <ele>490.39999389648</ele>
        <time>2015-09-12T07:44:07.000Z</time>
      </trkpt>
      <trkpt lat="47.37715" lon="4.88964">
        <ele>491.20001220703</ele>
        <time>2015-09-12T07:44:14.000Z</time>
      </trkpt>
      <trkpt lat="47.37719" lon="4.8895">
        <ele>491.60000610352</ele>
        <time>2015-09-12T07:44:17.000Z</time>
      </trkpt>
      <trkpt lat="47.37734" lon="4.88918">
        <ele>492.39999389648</ele>
        <time>2015-09-12T07:44:24.000Z</time>
      </trkpt>
      <trkpt lat="47.37754" lon="4.88883">
        <ele>493.39999389648</ele>
        <time>2015-09-12T07:44:33.000Z</time>
      </trkpt>
      <trkpt lat="47.37774" lon="4.88852">
        <ele>494.39999389648</ele>
        <time>2015-09-12T07:44:42.000Z</time>
      </trkpt>
      <trkpt lat="47.37776" lon="4.88849">
        <ele>494.60000610352</ele>
        <time>2015-09-12T07:44:43.000Z</time>
      </trkpt>
      <trkpt lat="47.37787" lon="4.88833">
        <ele>495.79998779297</ele>
        <time>2015-09-12T07:44:49.000Z</time>
      </trkpt>
      <trkpt lat="47.37791" lon="4.88828">
        <ele>496.20001220703</ele>
        <time>2015-09-12T07:44:51.000Z</time>
      </trkpt>
      <trkpt lat="47.37796" lon="4.88819">
        <ele>496.79998779297</ele>
        <time>2015-09-12T07:44:54.000Z</time>
      </trkpt>
      <trkpt lat="47.37801" lon="4.88812">
        <ele>497.79998779297</ele>
        <time>2015-09-12T07:44:57.000Z</time>
      </trkpt>
      <trkpt lat="47.37809" lon="4.88798">
        <ele>498.79998779297</ele>
        <time>2015-09-12T07:45:02.000Z</time>
      </trkpt>
      <trkpt lat="47.3781" lon="4.88796">
        <ele>499</ele>
        <time>2015-09-12T07:45:03.000Z</time>
      </trkpt>
      <trkpt lat="47.37815" lon="4.88788">
        <ele>499.79998779297</ele>
        <time>2015-09-12T07:45:06.000Z</time>
      </trkpt>
      <trkpt lat="47.37823" lon="4.8878">
        <ele>500.79998779297</ele>
        <time>2015-09-12T07:45:10.000Z</time>
      </trkpt>
      <trkpt lat="47.37826" lon="4.88776">
        <ele>501</ele>
        <time>2015-09-12T07:45:12.000Z</time>
      </trkpt>
      <trkpt lat="47.37834" lon="4.8877">
        <ele>502</ele>
        <time>2015-09-12T07:45:16.000Z</time>
      </trkpt>
      <trkpt lat="47.37843" lon="4.88764">
        <ele>503.20001220703</ele>
        <time>2015-09-12T07:45:21.000Z</time>
      </trkpt>
      <trkpt lat="47.37854" lon="4.88758">
        <ele>504.20001220703</ele>
        <time>2015-09-12T07:45:26.000Z</time>
      </trkpt>
      <trkpt lat="47.37861" lon="4.88753">
        <ele>505</ele>
        <time>2015-09-12T07:45:30.000Z</time>
      </trkpt>
      <trkpt lat="47.37863" lon="4.88752">
        <ele>505.20001220703</ele>
        <time>2015-09-12T07:45:31.000Z</time>
      </trkpt>
      <trkpt lat="47.37872" lon="4.88744">
        <ele>506.39999389648</ele>
        <time>2015-09-12T07:45:36.000Z</time>
      </trkpt>
      <trkpt lat="47.37879" lon="4.88737">
        <ele>507.60000610352</ele>
        <time>2015-09-12T07:45:40.000Z</time>
      </trkpt>
      <trkpt lat="47.37891" lon="4.88723">
        <ele>508.60000610352</ele>
        <time>2015-09-12T07:45:47.000Z</time>
      </trkpt>
      <trkpt lat="47.37898" lon="4.88716">
        <ele>509</ele>
        <time>2015-09-12T07:45:51.000Z</time>
      </trkpt>
      <trkpt lat="47.37907" lon="4.88715">
        <ele>509.79998779297</ele>
        <time>2015-09-12T07:45:55.000Z</time>
      </trkpt>
      <trkpt lat="47.37911" lon="4.88717">
        <ele>510</ele>
        <time>2015-09-12T07:45:57.000Z</time>
      </trkpt>
      <trkpt lat="47.37918" lon="4.88722">
        <ele>510.39999389648</ele>
        <time>2015-09-12T07:46:03.000Z</time>
      </trkpt>
      <trkpt lat="47.37924" lon="4.88727">
        <ele>510.79998779297</ele>
        <time>2015-09-12T07:46:08.000Z</time>
      </trkpt>
      <trkpt lat="47.37926" lon="4.88729">
        <ele>510.20001220703</ele>
        <time>2015-09-12T07:46:11.000Z</time>
      </trkpt>
      <trkpt lat="47.3793" lon="4.88731">
        <ele>510.60000610352</ele>
        <time>2015-09-12T07:46:17.000Z</time>
      </trkpt>
      <trkpt lat="47.37939" lon="4.88737">
        <ele>511</ele>
        <time>2015-09-12T07:46:25.000Z</time>
      </trkpt>
      <trkpt lat="47.37951" lon="4.88746">
        <ele>510.20001220703</ele>
        <time>2015-09-12T07:46:34.000Z</time>
      </trkpt>
      <trkpt lat="47.37966" lon="4.88756">
        <ele>511.39999389648</ele>
        <time>2015-09-12T07:46:41.000Z</time>
      </trkpt>
      <trkpt lat="47.37975" lon="4.88763">
        <ele>512.20001220703</ele>
        <time>2015-09-12T07:46:44.000Z</time>
      </trkpt>
      <trkpt lat="47.37988" lon="4.88772">
        <ele>512.40002441406</ele>
        <time>2015-09-12T07:46:49.000Z</time>
      </trkpt>
      <trkpt lat="47.3801" lon="4.88786">
        <ele>512.40002441406</ele>
        <time>2015-09-12T07:46:57.000Z</time>
      </trkpt>
      <trkpt lat="47.38023" lon="4.88794">
        <ele>513</ele>
        <time>2015-09-12T07:47:02.000Z</time>
      </trkpt>
      <trkpt lat="47.38037" lon="4.88804">
        <ele>513.59997558594</ele>
        <time>2015-09-12T07:47:07.000Z</time>
      </trkpt>
      <trkpt lat="47.38046" lon="4.88809">
        <ele>514</ele>
        <time>2015-09-12T07:47:10.000Z</time>
      </trkpt>
      <trkpt lat="47.38062" lon="4.88821">
        <ele>514.20001220703</ele>
        <time>2015-09-12T07:47:16.000Z</time>
      </trkpt>
      <trkpt lat="47.38074" lon="4.88828">
        <ele>515</ele>
        <time>2015-09-12T07:47:20.000Z</time>
      </trkpt>
      <trkpt lat="47.38086" lon="4.88836">
        <ele>515.20001220703</ele>
        <time>2015-09-12T07:47:24.000Z</time>
      </trkpt>
      <trkpt lat="47.38112" lon="4.88854">
        <ele>515.20001220703</ele>
        <time>2015-09-12T07:47:33.000Z</time>
      </trkpt>
      <trkpt lat="47.38137" lon="4.8887">
        <ele>515.59997558594</ele>
        <time>2015-09-12T07:47:41.000Z</time>
      </trkpt>
      <trkpt lat="47.38184" lon="4.889">
        <ele>515.59997558594</ele>
        <time>2015-09-12T07:47:54.000Z</time>
      </trkpt>
      <trkpt lat="47.38212" lon="4.88919">
        <ele>516</ele>
        <time>2015-09-12T07:48:02.000Z</time>
      </trkpt>
      <trkpt lat="47.38215" lon="4.88921">
        <ele>516.20001220703</ele>
        <time>2015-09-12T07:48:03.000Z</time>
      </trkpt>
      <trkpt lat="47.3825" lon="4.88944">
        <ele>516.40002441406</ele>
        <time>2015-09-12T07:48:12.000Z</time>
      </trkpt>
      <trkpt lat="47.38282" lon="4.88964">
        <ele>516.20001220703</ele>
        <time>2015-09-12T07:48:20.000Z</time>
      </trkpt>
      <trkpt lat="47.38325" lon="4.88994">
        <ele>516</ele>
        <time>2015-09-12T07:48:30.000Z</time>
      </trkpt>
      <trkpt lat="47.38373" lon="4.89025">
        <ele>515.59997558594</ele>
        <time>2015-09-12T07:48:40.000Z</time>
      </trkpt>
      <trkpt lat="47.38425" lon="4.89063">
        <ele>514.79998779297</ele>
        <time>2015-09-12T07:48:50.000Z</time>
      </trkpt>
      <trkpt lat="47.3843" lon="4.89066">
        <ele>514.79998779297</ele>
        <time>2015-09-12T07:48:51.000Z</time>
      </trkpt>
      <trkpt lat="47.38441" lon="4.89072">
        <ele>514.79998779297</ele>
        <time>2015-09-12T07:48:53.000Z</time>
      </trkpt>
      <trkpt lat="47.38446" lon="4.89072">
        <ele>514.79998779297</ele>
        <time>2015-09-12T07:48:54.000Z</time>
      </trkpt>
      <trkpt lat="47.38451" lon="4.8907">
        <ele>514.79998779297</ele>
        <time>2015-09-12T07:48:55.000Z</time>
      </trkpt>
      <trkpt lat="47.3846" lon="4.89052">
        <ele>515</ele>
        <time>2015-09-12T07:48:58.000Z</time>
      </trkpt>
      <trkpt lat="47.38463" lon="4.89038">
        <ele>514.79998779297</ele>
        <time>2015-09-12T07:49:00.000Z</time>
      </trkpt>
      <trkpt lat="47.38472" lon="4.89002">
        <ele>515</ele>
        <time>2015-09-12T07:49:05.000Z</time>
      </trkpt>
      <trkpt lat="47.38486" lon="4.88947">
        <ele>514.79998779297</ele>
        <time>2015-09-12T07:49:13.000Z</time>
      </trkpt>
      <trkpt lat="47.38496" lon="4.8891">
        <ele>515.79998779297</ele>
        <time>2015-09-12T07:49:19.000Z</time>
      </trkpt>
      <trkpt lat="47.38505" lon="4.88879">
        <ele>516.59997558594</ele>
        <time>2015-09-12T07:49:24.000Z</time>
      </trkpt>
      <trkpt lat="47.38506" lon="4.88873">
        <ele>516.79998779297</ele>
        <time>2015-09-12T07:49:25.000Z</time>
      </trkpt>
      <trkpt lat="47.38518" lon="4.88826">
        <ele>517.20001220703</ele>
        <time>2015-09-12T07:49:33.000Z</time>
      </trkpt>
      <trkpt lat="47.38527" lon="4.88797">
        <ele>518.20001220703</ele>
        <time>2015-09-12T07:49:38.000Z</time>
      </trkpt>
      <trkpt lat="47.38534" lon="4.88791">
        <ele>518.59997558594</ele>
        <time>2015-09-12T07:49:40.000Z</time>
      </trkpt>
      <trkpt lat="47.38551" lon="4.88793">
        <ele>517.79998779297</ele>
        <time>2015-09-12T07:49:44.000Z</time>
      </trkpt>
      <trkpt lat="47.38592" lon="4.88805">
        <ele>518.40002441406</ele>
        <time>2015-09-12T07:49:53.000Z</time>
      </trkpt>
      <trkpt lat="47.38636" lon="4.88818">
        <ele>518.40002441406</ele>
        <time>2015-09-12T07:50:02.000Z</time>
      </trkpt>
      <trkpt lat="47.38679" lon="4.88831">
        <ele>518</ele>
        <time>2015-09-12T07:50:10.000Z</time>
      </trkpt>
      <trkpt lat="47.38725" lon="4.88844">
        <ele>517.40002441406</ele>
        <time>2015-09-12T07:50:18.000Z</time>
      </trkpt>
      <trkpt lat="47.38778" lon="4.8886">
        <ele>518</ele>
        <time>2015-09-12T07:50:27.000Z</time>
      </trkpt>
      <trkpt lat="47.38784" lon="4.88862">
        <ele>518.20001220703</ele>
        <time>2015-09-12T07:50:28.000Z</time>
      </trkpt>
      <trkpt lat="47.38813" lon="4.8887">
        <ele>519.40002441406</ele>
        <time>2015-09-12T07:50:33.000Z</time>
      </trkpt>
      <trkpt lat="47.38846" lon="4.88879">
        <ele>519.59997558594</ele>
        <time>2015-09-12T07:50:39.000Z</time>
      </trkpt>
      <trkpt lat="47.38899" lon="4.88896">
        <ele>520.59997558594</ele>
        <time>2015-09-12T07:50:49.000Z</time>
      </trkpt>
      <trkpt lat="47.3895" lon="4.8891">
        <ele>521.79998779297</ele>
        <time>2015-09-12T07:50:59.000Z</time>
      </trkpt>
      <trkpt lat="47.38993" lon="4.88922">
        <ele>521.79998779297</ele>
        <time>2015-09-12T07:51:08.000Z</time>
      </trkpt>
      <trkpt lat="47.39037" lon="4.88934">
        <ele>522</ele>
        <time>2015-09-12T07:51:17.000Z</time>
      </trkpt>
      <trkpt lat="47.39053" lon="4.8894">
        <ele>522.79998779297</ele>
        <time>2015-09-12T07:51:20.000Z</time>
      </trkpt>
      <trkpt lat="47.3908" lon="4.88947">
        <ele>523</ele>
        <time>2015-09-12T07:51:25.000Z</time>
      </trkpt>
      <trkpt lat="47.39138" lon="4.88964">
        <ele>523.40002441406</ele>
        <time>2015-09-12T07:51:35.000Z</time>
      </trkpt>
      <trkpt lat="47.3915" lon="4.88968">
        <ele>523.40002441406</ele>
        <time>2015-09-12T07:51:37.000Z</time>
      </trkpt>
      <trkpt lat="47.39192" lon="4.88979">
        <ele>523.79998779297</ele>
        <time>2015-09-12T07:51:44.000Z</time>
      </trkpt>
      <trkpt lat="47.39198" lon="4.88981">
        <ele>523.79998779297</ele>
        <time>2015-09-12T07:51:45.000Z</time>
      </trkpt>
      <trkpt lat="47.39252" lon="4.88998">
        <ele>523</ele>
        <time>2015-09-12T07:51:54.000Z</time>
      </trkpt>
      <trkpt lat="47.39265" lon="4.89003">
        <ele>522.59997558594</ele>
        <time>2015-09-12T07:51:56.000Z</time>
      </trkpt>
      <trkpt lat="47.39276" lon="4.89005">
        <ele>521.59997558594</ele>
        <time>2015-09-12T07:51:58.000Z</time>
      </trkpt>
      <trkpt lat="47.39285" lon="4.89006">
        <ele>521.79998779297</ele>
        <time>2015-09-12T07:52:00.000Z</time>
      </trkpt>
      <trkpt lat="47.3929" lon="4.89007">
        <ele>521.59997558594</ele>
        <time>2015-09-12T07:52:01.000Z</time>
      </trkpt>
      <trkpt lat="47.39309" lon="4.89009">
        <ele>521</ele>
        <time>2015-09-12T07:52:05.000Z</time>
      </trkpt>
      <trkpt lat="47.39319" lon="4.89011">
        <ele>520.40002441406</ele>
        <time>2015-09-12T07:52:07.000Z</time>
      </trkpt>
      <trkpt lat="47.39339" lon="4.89014">
        <ele>519.59997558594</ele>
        <time>2015-09-12T07:52:10.000Z</time>
      </trkpt>
      <trkpt lat="47.39346" lon="4.89015">
        <ele>519.20001220703</ele>
        <time>2015-09-12T07:52:11.000Z</time>
      </trkpt>
      <trkpt lat="47.39361" lon="4.89018">
        <ele>518.20001220703</ele>
        <time>2015-09-12T07:52:13.000Z</time>
      </trkpt>
      <trkpt lat="47.39373" lon="4.89021">
        <ele>517.59997558594</ele>
        <time>2015-09-12T07:52:15.000Z</time>
      </trkpt>
      <trkpt lat="47.39394" lon="4.89025">
        <ele>518.20001220703</ele>
        <time>2015-09-12T07:52:19.000Z</time>
      </trkpt>
      <trkpt lat="47.39401" lon="4.89028">
        <ele>519</ele>
        <time>2015-09-12T07:52:22.000Z</time>
      </trkpt>
      <trkpt lat="47.39401" lon="4.8903">
        <ele>519.20001220703</ele>
        <time>2015-09-12T07:52:23.000Z</time>
      </trkpt>
      <trkpt lat="47.39399" lon="4.8904">
        <ele>518.79998779297</ele>
        <time>2015-09-12T07:52:26.000Z</time>
      </trkpt>
      <trkpt lat="47.39399" lon="4.89055">
        <ele>518.20001220703</ele>
        <time>2015-09-12T07:52:31.000Z</time>
      </trkpt>
      <trkpt lat="47.39398" lon="4.89062">
        <ele>517.79998779297</ele>
        <time>2015-09-12T07:52:33.000Z</time>
      </trkpt>
      <trkpt lat="47.39395" lon="4.89074">
        <ele>517.40002441406</ele>
        <time>2015-09-12T07:52:36.000Z</time>
      </trkpt>
      <trkpt lat="47.39394" lon="4.89084">
        <ele>516.40002441406</ele>
        <time>2015-09-12T07:52:38.000Z</time>
      </trkpt>
      <trkpt lat="47.39392" lon="4.89095">
        <ele>515.59997558594</ele>
        <time>2015-09-12T07:52:41.000Z</time>
      </trkpt>
      <trkpt lat="47.39392" lon="4.891">
        <ele>515.20001220703</ele>
        <time>2015-09-12T07:52:42.000Z</time>
      </trkpt>
      <trkpt lat="47.39391" lon="4.89115">
        <ele>514</ele>
        <time>2015-09-12T07:52:46.000Z</time>
      </trkpt>
      <trkpt lat="47.39394" lon="4.8912">
        <ele>514</ele>
        <time>2015-09-12T07:52:51.000Z</time>
      </trkpt>
      <trkpt lat="47.39396" lon="4.89121">
        <ele>514.20001220703</ele>
        <time>2015-09-12T07:52:58.000Z</time>
      </trkpt>
      <trkpt lat="47.39398" lon="4.89122">
        <ele>514.20001220703</ele>
        <time>2015-09-12T07:53:00.000Z</time>
      </trkpt>
      <trkpt lat="47.39399" lon="4.89123">
        <ele>514</ele>
        <time>2015-09-12T07:53:05.000Z</time>
      </trkpt>
      <trkpt lat="47.39399" lon="4.8912">
        <ele>514</ele>
        <time>2015-09-12T07:53:14.000Z</time>
      </trkpt>
      <trkpt lat="47.39399" lon="4.8912">
        <ele>514</ele>
        <time>2015-09-12T07:53:22.000Z</time>
      </trkpt>
      <trkpt lat="47.39399" lon="4.8912">
        <ele>513.79998779297</ele>
        <time>2015-09-12T07:53:27.000Z</time>
      </trkpt>
      <trkpt lat="47.39398" lon="4.89117">
        <ele>514.20001220703</ele>
        <time>2015-09-12T07:53:29.000Z</time>
      </trkpt>
      <trkpt lat="47.39401" lon="4.89105">
        <ele>514.59997558594</ele>
        <time>2015-09-12T07:53:36.000Z</time>
      </trkpt>
      <trkpt lat="47.39401" lon="4.89099">
        <ele>515</ele>
        <time>2015-09-12T07:53:38.000Z</time>
      </trkpt>
      <trkpt lat="47.39403" lon="4.89091">
        <ele>515.79998779297</ele>
        <time>2015-09-12T07:53:42.000Z</time>
      </trkpt>
      <trkpt lat="47.39403" lon="4.89086">
        <ele>516</ele>
        <time>2015-09-12T07:53:44.000Z</time>
      </trkpt>
      <trkpt lat="47.39403" lon="4.89072">
        <ele>517</ele>
        <time>2015-09-12T07:53:50.000Z</time>
      </trkpt>
      <trkpt lat="47.39403" lon="4.89068">
        <ele>517.40002441406</ele>
        <time>2015-09-12T07:53:52.000Z</time>
      </trkpt>
      <trkpt lat="47.39404" lon="4.89056">
        <ele>517.79998779297</ele>
        <time>2015-09-12T07:53:57.000Z</time>
      </trkpt>
      <trkpt lat="47.39408" lon="4.89042">
        <ele>518.40002441406</ele>
        <time>2015-09-12T07:54:03.000Z</time>
      </trkpt>
      <trkpt lat="47.39409" lon="4.89038">
        <ele>518.40002441406</ele>
        <time>2015-09-12T07:54:04.000Z</time>
      </trkpt>
      <trkpt lat="47.39412" lon="4.89034">
        <ele>519.59997558594</ele>
        <time>2015-09-12T07:54:07.000Z</time>
      </trkpt>
      <trkpt lat="47.39414" lon="4.89034">
        <ele>520</ele>
        <time>2015-09-12T07:54:09.000Z</time>
      </trkpt>
      <trkpt lat="47.39415" lon="4.89031">
        <ele>520.20001220703</ele>
        <time>2015-09-12T07:54:16.000Z</time>
      </trkpt>
      <trkpt lat="47.39415" lon="4.8903">
        <ele>520</ele>
        <time>2015-09-12T07:54:27.000Z</time>
      </trkpt>
      <trkpt lat="47.39414" lon="4.8903">
        <ele>520.20001220703</ele>
        <time>2015-09-12T07:54:36.000Z</time>
      </trkpt>
      <trkpt lat="47.39417" lon="4.89032">
        <ele>520.20001220703</ele>
        <time>2015-09-12T07:54:43.000Z</time>
      </trkpt>
      <trkpt lat="47.39425" lon="4.89032">
        <ele>520.40002441406</ele>
        <time>2015-09-12T07:54:51.000Z</time>
      </trkpt>
      <trkpt lat="47.39431" lon="4.89032">
        <ele>520.59997558594</ele>
        <time>2015-09-12T07:54:55.000Z</time>
      </trkpt>
      <trkpt lat="47.39436" lon="4.89034">
        <ele>520.59997558594</ele>
        <time>2015-09-12T07:54:58.000Z</time>
      </trkpt>
      <trkpt lat="47.39449" lon="4.89035">
        <ele>521.40002441406</ele>
        <time>2015-09-12T07:55:04.000Z</time>
      </trkpt>
      <trkpt lat="47.39463" lon="4.89039">
        <ele>521.79998779297</ele>
        <time>2015-09-12T07:55:10.000Z</time>
      </trkpt>
      <trkpt lat="47.39465" lon="4.8904">
        <ele>521.79998779297</ele>
        <time>2015-09-12T07:55:11.000Z</time>
      </trkpt>
      <trkpt lat="47.39483" lon="4.89043">
        <ele>522.59997558594</ele>
        <time>2015-09-12T07:55:17.000Z</time>
      </trkpt>
      <trkpt lat="47.3949" lon="4.89044">
        <ele>523</ele>
        <time>2015-09-12T07:55:19.000Z</time>
      </trkpt>
      <trkpt lat="47.39502" lon="4.89046">
        <ele>523.20001220703</ele>
        <time>2015-09-12T07:55:22.000Z</time>
      </trkpt>
      <trkpt lat="47.39514" lon="4.89049">
        <ele>524</ele>
        <time>2015-09-12T07:55:25.000Z</time>
      </trkpt>
      <trkpt lat="47.39527" lon="4.89052">
        <ele>523.59997558594</ele>
        <time>2015-09-12T07:55:28.000Z</time>
      </trkpt>
      <trkpt lat="47.39558" lon="4.89059">
        <ele>523</ele>
        <time>2015-09-12T07:55:34.000Z</time>
      </trkpt>
      <trkpt lat="47.39563" lon="4.89061">
        <ele>522.79998779297</ele>
        <time>2015-09-12T07:55:35.000Z</time>
      </trkpt>
      <trkpt lat="47.39577" lon="4.89064">
        <ele>521.79998779297</ele>
        <time>2015-09-12T07:55:37.000Z</time>
      </trkpt>
      <trkpt lat="47.39596" lon="4.89069">
        <ele>521.20001220703</ele>
        <time>2015-09-12T07:55:40.000Z</time>
      </trkpt>
      <trkpt lat="47.39616" lon="4.89071">
        <ele>521</ele>
        <time>2015-09-12T07:55:43.000Z</time>
      </trkpt>
      <trkpt lat="47.39627" lon="4.89068">
        <ele>520.59997558594</ele>
        <time>2015-09-12T07:55:45.000Z</time>
      </trkpt>
      <trkpt lat="47.39638" lon="4.89069">
        <ele>520.79998779297</ele>
        <time>2015-09-12T07:55:48.000Z</time>
      </trkpt>
      <trkpt lat="47.39643" lon="4.8908">
        <ele>520.40002441406</ele>
        <time>2015-09-12T07:55:51.000Z</time>
      </trkpt>
      <trkpt lat="47.39643" lon="4.89084">
        <ele>520.20001220703</ele>
        <time>2015-09-12T07:55:52.000Z</time>
      </trkpt>
      <trkpt lat="47.39644" lon="4.89096">
        <ele>519.20001220703</ele>
        <time>2015-09-12T07:55:55.000Z</time>
      </trkpt>
      <trkpt lat="47.39644" lon="4.89109">
        <ele>518.20001220703</ele>
        <time>2015-09-12T07:55:58.000Z</time>
      </trkpt>
      <trkpt lat="47.39642" lon="4.89118">
        <ele>517</ele>
        <time>2015-09-12T07:56:01.000Z</time>
      </trkpt>
      <trkpt lat="47.39643" lon="4.89122">
        <ele>516.40002441406</ele>
        <time>2015-09-12T07:56:02.000Z</time>
      </trkpt>
      <trkpt lat="47.39643" lon="4.89125">
        <ele>515.59997558594</ele>
        <time>2015-09-12T07:56:03.000Z</time>
      </trkpt>
      <trkpt lat="47.39642" lon="4.89134">
        <ele>513.79998779297</ele>
        <time>2015-09-12T07:56:05.000Z</time>
      </trkpt>
      <trkpt lat="47.3964" lon="4.89138">
        <ele>513.40002441406</ele>
        <time>2015-09-12T07:56:06.000Z</time>
      </trkpt>
      <trkpt lat="47.39639" lon="4.89145">
        <ele>511.79998779297</ele>
        <time>2015-09-12T07:56:08.000Z</time>
      </trkpt>
      <trkpt lat="47.39638" lon="4.89152">
        <ele>510.39999389648</ele>
        <time>2015-09-12T07:56:10.000Z</time>
      </trkpt>
      <trkpt lat="47.39638" lon="4.89155">
        <ele>510.20001220703</ele>
        <time>2015-09-12T07:56:11.000Z</time>
      </trkpt>
      <trkpt lat="47.39636" lon="4.89161">
        <ele>508.79998779297</ele>
        <time>2015-09-12T07:56:13.000Z</time>
      </trkpt>
      <trkpt lat="47.39634" lon="4.89168">
        <ele>507.39999389648</ele>
        <time>2015-09-12T07:56:15.000Z</time>
      </trkpt>
      <trkpt lat="47.39634" lon="4.89171">
        <ele>507</ele>
        <time>2015-09-12T07:56:16.000Z</time>
      </trkpt>
      <trkpt lat="47.39632" lon="4.8918">
        <ele>505.79998779297</ele>
        <time>2015-09-12T07:56:20.000Z</time>
      </trkpt>
      <trkpt lat="47.39631" lon="4.89183">
        <ele>505.20001220703</ele>
        <time>2015-09-12T07:56:21.000Z</time>
      </trkpt>
      <trkpt lat="47.3963" lon="4.89191">
        <ele>504.79998779297</ele>
        <time>2015-09-12T07:56:23.000Z</time>
      </trkpt>
      <trkpt lat="47.39629" lon="4.89202">
        <ele>504.20001220703</ele>
        <time>2015-09-12T07:56:27.000Z</time>
      </trkpt>
      <trkpt lat="47.39625" lon="4.89216">
        <ele>504.20001220703</ele>
        <time>2015-09-12T07:56:32.000Z</time>
      </trkpt>
      <trkpt lat="47.39621" lon="4.89236">
        <ele>504.39999389648</ele>
        <time>2015-09-12T07:56:39.000Z</time>
      </trkpt>
      <trkpt lat="47.3962" lon="4.89245">
        <ele>504.39999389648</ele>
        <time>2015-09-12T07:56:45.000Z</time>
      </trkpt>
      <trkpt lat="47.39618" lon="4.89257">
        <ele>504.20001220703</ele>
        <time>2015-09-12T07:56:51.000Z</time>
      </trkpt>
      <trkpt lat="47.39618" lon="4.89272">
        <ele>503.79998779297</ele>
        <time>2015-09-12T07:56:55.000Z</time>
      </trkpt>
      <trkpt lat="47.39617" lon="4.8928">
        <ele>503.60000610352</ele>
        <time>2015-09-12T07:56:57.000Z</time>
      </trkpt>
      <trkpt lat="47.39615" lon="4.89292">
        <ele>503.39999389648</ele>
        <time>2015-09-12T07:57:00.000Z</time>
      </trkpt>
      <trkpt lat="47.39614" lon="4.89294">
        <ele>503.20001220703</ele>
        <time>2015-09-12T07:57:01.000Z</time>
      </trkpt>
      <trkpt lat="47.39616" lon="4.893">
        <ele>502.79998779297</ele>
        <time>2015-09-12T07:57:05.000Z</time>
      </trkpt>
      <trkpt lat="47.39621" lon="4.893">
        <ele>502.39999389648</ele>
        <time>2015-09-12T07:57:11.000Z</time>
      </trkpt>
      <trkpt lat="47.39629" lon="4.89305">
        <ele>502</ele>
        <time>2015-09-12T07:57:19.000Z</time>
      </trkpt>
      <trkpt lat="47.39631" lon="4.89306">
        <ele>501.60000610352</ele>
        <time>2015-09-12T07:57:20.000Z</time>
      </trkpt>
      <trkpt lat="47.39639" lon="4.89309">
        <ele>500.60000610352</ele>
        <time>2015-09-12T07:57:23.000Z</time>
      </trkpt>
      <trkpt lat="47.39643" lon="4.8931">
        <ele>500.20001220703</ele>
        <time>2015-09-12T07:57:24.000Z</time>
      </trkpt>
      <trkpt lat="47.39651" lon="4.89312">
        <ele>499</ele>
        <time>2015-09-12T07:57:26.000Z</time>
      </trkpt>
      <trkpt lat="47.39657" lon="4.89314">
        <ele>497.60000610352</ele>
        <time>2015-09-12T07:57:28.000Z</time>
      </trkpt>
      <trkpt lat="47.39665" lon="4.89315">
        <ele>496.39999389648</ele>
        <time>2015-09-12T07:57:30.000Z</time>
      </trkpt>
      <trkpt lat="47.39675" lon="4.89318">
        <ele>495</ele>
        <time>2015-09-12T07:57:33.000Z</time>
      </trkpt>
      <trkpt lat="47.39679" lon="4.89319">
        <ele>494.20001220703</ele>
        <time>2015-09-12T07:57:35.000Z</time>
      </trkpt>
      <trkpt lat="47.39681" lon="4.8932">
        <ele>493.79998779297</ele>
        <time>2015-09-12T07:57:36.000Z</time>
      </trkpt>
      <trkpt lat="47.39686" lon="4.89322">
        <ele>493.39999389648</ele>
        <time>2015-09-12T07:57:39.000Z</time>
      </trkpt>
      <trkpt lat="47.39688" lon="4.89322">
        <ele>493</ele>
        <time>2015-09-12T07:57:40.000Z</time>
      </trkpt>
      <trkpt lat="47.3969" lon="4.89322">
        <ele>492.79998779297</ele>
        <time>2015-09-12T07:57:41.000Z</time>
      </trkpt>
      <trkpt lat="47.39693" lon="4.89324">
        <ele>492.20001220703</ele>
        <time>2015-09-12T07:57:43.000Z</time>
      </trkpt>
      <trkpt lat="47.39694" lon="4.89324">
        <ele>492</ele>
        <time>2015-09-12T07:57:44.000Z</time>
      </trkpt>
      <trkpt lat="47.39695" lon="4.89324">
        <ele>492</ele>
        <time>2015-09-12T07:57:51.000Z</time>
      </trkpt>
      <trkpt lat="47.39694" lon="4.89323">
        <ele>492.20001220703</ele>
        <time>2015-09-12T07:57:53.000Z</time>
      </trkpt>
      <trkpt lat="47.39693" lon="4.89321">
        <ele>492.60000610352</ele>
        <time>2015-09-12T07:57:56.000Z</time>
      </trkpt>
      <trkpt lat="47.39686" lon="4.89321">
        <ele>493.60000610352</ele>
        <time>2015-09-12T07:58:04.000Z</time>
      </trkpt>
      <trkpt lat="47.39687" lon="4.89322">
        <ele>494</ele>
        <time>2015-09-12T07:58:05.000Z</time>
      </trkpt>
      <trkpt lat="47.39688" lon="4.89325">
        <ele>494.20001220703</ele>
        <time>2015-09-12T07:58:09.000Z</time>
      </trkpt>
      <trkpt lat="47.3969" lon="4.89338">
        <ele>493.60000610352</ele>
        <time>2015-09-12T07:58:16.000Z</time>
      </trkpt>
      <trkpt lat="47.39684" lon="4.89353">
        <ele>494</ele>
        <time>2015-09-12T07:58:24.000Z</time>
      </trkpt>
      <trkpt lat="47.39674" lon="4.89367">
        <ele>494.60000610352</ele>
        <time>2015-09-12T07:58:30.000Z</time>
      </trkpt>
      <trkpt lat="47.39663" lon="4.89385">
        <ele>494.79998779297</ele>
        <time>2015-09-12T07:58:36.000Z</time>
      </trkpt>
      <trkpt lat="47.39661" lon="4.89399">
        <ele>494</ele>
        <time>2015-09-12T07:58:40.000Z</time>
      </trkpt>
      <trkpt lat="47.39659" lon="4.8941">
        <ele>493.79998779297</ele>
        <time>2015-09-12T07:58:46.000Z</time>
      </trkpt>
      <trkpt lat="47.39651" lon="4.89424">
        <ele>493.39999389648</ele>
        <time>2015-09-12T07:58:50.000Z</time>
      </trkpt>
      <trkpt lat="47.39643" lon="4.89434">
        <ele>494</ele>
        <time>2015-09-12T07:58:54.000Z</time>
      </trkpt>
      <trkpt lat="47.39642" lon="4.89435">
        <ele>494.20001220703</ele>
        <time>2015-09-12T07:58:55.000Z</time>
      </trkpt>
      <trkpt lat="47.39635" lon="4.89443">
        <ele>494.20001220703</ele>
        <time>2015-09-12T07:58:59.000Z</time>
      </trkpt>
      <trkpt lat="47.39632" lon="4.89448">
        <ele>494.20001220703</ele>
        <time>2015-09-12T07:59:02.000Z</time>
      </trkpt>
      <trkpt lat="47.39632" lon="4.89449">
        <ele>494.20001220703</ele>
        <time>2015-09-12T07:59:03.000Z</time>
      </trkpt>
      <trkpt lat="47.3963" lon="4.89453">
        <ele>493.79998779297</ele>
        <time>2015-09-12T07:59:05.000Z</time>
      </trkpt>
      <trkpt lat="47.39627" lon="4.89464">
        <ele>492.60000610352</ele>
        <time>2015-09-12T07:59:09.000Z</time>
      </trkpt>
      <trkpt lat="47.39626" lon="4.89469">
        <ele>491.79998779297</ele>
        <time>2015-09-12T07:59:11.000Z</time>
      </trkpt>
      <trkpt lat="47.39619" lon="4.89473">
        <ele>491.79998779297</ele>
        <time>2015-09-12T07:59:15.000Z</time>
      </trkpt>
      <trkpt lat="47.39609" lon="4.89479">
        <ele>492</ele>
        <time>2015-09-12T07:59:20.000Z</time>
      </trkpt>
      <trkpt lat="47.39601" lon="4.89487">
        <ele>492.20001220703</ele>
        <time>2015-09-12T07:59:25.000Z</time>
      </trkpt>
      <trkpt lat="47.39599" lon="4.8949">
        <ele>492</ele>
        <time>2015-09-12T07:59:27.000Z</time>
      </trkpt>
      <trkpt lat="47.39593" lon="4.89496">
        <ele>491.79998779297</ele>
        <time>2015-09-12T07:59:31.000Z</time>
      </trkpt>
      <trkpt lat="47.39591" lon="4.89499">
        <ele>491.60000610352</ele>
        <time>2015-09-12T07:59:32.000Z</time>
      </trkpt>
      <trkpt lat="47.3959" lon="4.89502">
        <ele>491.39999389648</ele>
        <time>2015-09-12T07:59:33.000Z</time>
      </trkpt>
      <trkpt lat="47.39582" lon="4.89513">
        <ele>490.79998779297</ele>
        <time>2015-09-12T07:59:37.000Z</time>
      </trkpt>
      <trkpt lat="47.39579" lon="4.89518">
        <ele>490.39999389648</ele>
        <time>2015-09-12T07:59:39.000Z</time>
      </trkpt>
      <trkpt lat="47.39576" lon="4.8952">
        <ele>490.39999389648</ele>
        <time>2015-09-12T07:59:41.000Z</time>
      </trkpt>
      <trkpt lat="47.39572" lon="4.89523">
        <ele>490.39999389648</ele>
        <time>2015-09-12T07:59:43.000Z</time>
      </trkpt>
      <trkpt lat="47.39566" lon="4.89535">
        <ele>490</ele>
        <time>2015-09-12T07:59:46.000Z</time>
      </trkpt>
      <trkpt lat="47.39557" lon="4.89549">
        <ele>489.39999389648</ele>
        <time>2015-09-12T07:59:50.000Z</time>
      </trkpt>
      <trkpt lat="47.39552" lon="4.89555">
        <ele>488.79998779297</ele>
        <time>2015-09-12T07:59:52.000Z</time>
      </trkpt>
      <trkpt lat="47.39545" lon="4.89562">
        <ele>488.60000610352</ele>
        <time>2015-09-12T07:59:55.000Z</time>
      </trkpt>
      <trkpt lat="47.39531" lon="4.89574">
        <ele>488</ele>
        <time>2015-09-12T08:00:01.000Z</time>
      </trkpt>
      <trkpt lat="47.39523" lon="4.8958">
        <ele>487.79998779297</ele>
        <time>2015-09-12T08:00:05.000Z</time>
      </trkpt>
      <trkpt lat="47.3952" lon="4.89585">
        <ele>487.79998779297</ele>
        <time>2015-09-12T08:00:07.000Z</time>
      </trkpt>
      <trkpt lat="47.39516" lon="4.89594">
        <ele>486.60000610352</ele>
        <time>2015-09-12T08:00:10.000Z</time>
      </trkpt>
      <trkpt lat="47.3951" lon="4.89603">
        <ele>485.39999389648</ele>
        <time>2015-09-12T08:00:13.000Z</time>
      </trkpt>
      <trkpt lat="47.39504" lon="4.89612">
        <ele>484</ele>
        <time>2015-09-12T08:00:16.000Z</time>
      </trkpt>
      <trkpt lat="47.39498" lon="4.8962">
        <ele>483</ele>
        <time>2015-09-12T08:00:19.000Z</time>
      </trkpt>
      <trkpt lat="47.39496" lon="4.89622">
        <ele>482.60000610352</ele>
        <time>2015-09-12T08:00:20.000Z</time>
      </trkpt>
      <trkpt lat="47.39487" lon="4.89638">
        <ele>481.79998779297</ele>
        <time>2015-09-12T08:00:25.000Z</time>
      </trkpt>
      <trkpt lat="47.39486" lon="4.89642">
        <ele>481.60000610352</ele>
        <time>2015-09-12T08:00:26.000Z</time>
      </trkpt>
      <trkpt lat="47.39485" lon="4.89647">
        <ele>481</ele>
        <time>2015-09-12T08:00:28.000Z</time>
      </trkpt>
      <trkpt lat="47.39485" lon="4.8965">
        <ele>480.79998779297</ele>
        <time>2015-09-12T08:00:29.000Z</time>
      </trkpt>
      <trkpt lat="47.39486" lon="4.89651">
        <ele>480.20001220703</ele>
        <time>2015-09-12T08:00:30.000Z</time>
      </trkpt>
      <trkpt lat="47.39493" lon="4.89658">
        <ele>480</ele>
        <time>2015-09-12T08:00:33.000Z</time>
      </trkpt>
      <trkpt lat="47.39509" lon="4.89675">
        <ele>479.79998779297</ele>
        <time>2015-09-12T08:00:39.000Z</time>
      </trkpt>
      <trkpt lat="47.39523" lon="4.89681">
        <ele>479.60000610352</ele>
        <time>2015-09-12T08:00:45.000Z</time>
      </trkpt>
      <trkpt lat="47.39536" lon="4.89679">
        <ele>479.60000610352</ele>
        <time>2015-09-12T08:00:50.000Z</time>
      </trkpt>
      <trkpt lat="47.39549" lon="4.89674">
        <ele>479.20001220703</ele>
        <time>2015-09-12T08:00:55.000Z</time>
      </trkpt>
      <trkpt lat="47.39552" lon="4.89673">
        <ele>479</ele>
        <time>2015-09-12T08:00:56.000Z</time>
      </trkpt>
      <trkpt lat="47.39564" lon="4.89669">
        <ele>479.39999389648</ele>
        <time>2015-09-12T08:01:00.000Z</time>
      </trkpt>
      <trkpt lat="47.39583" lon="4.89666">
        <ele>479.79998779297</ele>
        <time>2015-09-12T08:01:07.000Z</time>
      </trkpt>
      <trkpt lat="47.39591" lon="4.89665">
        <ele>480</ele>
        <time>2015-09-12T08:01:10.000Z</time>
      </trkpt>
      <trkpt lat="47.39602" lon="4.89662">
        <ele>481</ele>
        <time>2015-09-12T08:01:14.000Z</time>
      </trkpt>
      <trkpt lat="47.39605" lon="4.89661">
        <ele>481</ele>
        <time>2015-09-12T08:01:15.000Z</time>
      </trkpt>
      <trkpt lat="47.39617" lon="4.89655">
        <ele>481</ele>
        <time>2015-09-12T08:01:19.000Z</time>
      </trkpt>
      <trkpt lat="47.39633" lon="4.89648">
        <ele>481</ele>
        <time>2015-09-12T08:01:25.000Z</time>
      </trkpt>
      <trkpt lat="47.39634" lon="4.89649">
        <ele>481.20001220703</ele>
        <time>2015-09-12T08:01:26.000Z</time>
      </trkpt>
      <trkpt lat="47.39636" lon="4.89656">
        <ele>481.60000610352</ele>
        <time>2015-09-12T08:01:29.000Z</time>
      </trkpt>
      <trkpt lat="47.39636" lon="4.89661">
        <ele>482.20001220703</ele>
        <time>2015-09-12T08:01:31.000Z</time>
      </trkpt>
      <trkpt lat="47.39633" lon="4.89669">
        <ele>483.20001220703</ele>
        <time>2015-09-12T08:01:35.000Z</time>
      </trkpt>
      <trkpt lat="47.39632" lon="4.8967">
        <ele>483.39999389648</ele>
        <time>2015-09-12T08:01:36.000Z</time>
      </trkpt>
      <trkpt lat="47.39629" lon="4.89676">
        <ele>484.20001220703</ele>
        <time>2015-09-12T08:01:39.000Z</time>
      </trkpt>
      <trkpt lat="47.39629" lon="4.89678">
        <ele>484.60000610352</ele>
        <time>2015-09-12T08:01:40.000Z</time>
      </trkpt>
      <trkpt lat="47.39629" lon="4.8968">
        <ele>485.20001220703</ele>
        <time>2015-09-12T08:01:41.000Z</time>
      </trkpt>
      <trkpt lat="47.39628" lon="4.89684">
        <ele>485.60000610352</ele>
        <time>2015-09-12T08:01:43.000Z</time>
      </trkpt>
      <trkpt lat="47.39627" lon="4.89687">
        <ele>485.79998779297</ele>
        <time>2015-09-12T08:01:45.000Z</time>
      </trkpt>
      <trkpt lat="47.39625" lon="4.8969">
        <ele>486.20001220703</ele>
        <time>2015-09-12T08:01:47.000Z</time>
      </trkpt>
      <trkpt lat="47.39622" lon="4.89698">
        <ele>487</ele>
        <time>2015-09-12T08:01:53.000Z</time>
      </trkpt>
      <trkpt lat="47.39623" lon="4.89699">
        <ele>487.20001220703</ele>
        <time>2015-09-12T08:01:54.000Z</time>
      </trkpt>
      <trkpt lat="47.39621" lon="4.89703">
        <ele>488.20001220703</ele>
        <time>2015-09-12T08:01:57.000Z</time>
      </trkpt>
      <trkpt lat="47.39617" lon="4.89709">
        <ele>488.79998779297</ele>
        <time>2015-09-12T08:02:01.000Z</time>
      </trkpt>
      <trkpt lat="47.39616" lon="4.89712">
        <ele>489.20001220703</ele>
        <time>2015-09-12T08:02:03.000Z</time>
      </trkpt>
      <trkpt lat="47.39612" lon="4.89722">
        <ele>490.20001220703</ele>
        <time>2015-09-12T08:02:09.000Z</time>
      </trkpt>
      <trkpt lat="47.39611" lon="4.89723">
        <ele>490.20001220703</ele>
        <time>2015-09-12T08:02:10.000Z</time>
      </trkpt>
      <trkpt lat="47.39609" lon="4.89735">
        <ele>491.60000610352</ele>
        <time>2015-09-12T08:02:16.000Z</time>
      </trkpt>
      <trkpt lat="47.39609" lon="4.89739">
        <ele>492.20001220703</ele>
        <time>2015-09-12T08:02:18.000Z</time>
      </trkpt>
      <trkpt lat="47.39609" lon="4.89745">
        <ele>492.60000610352</ele>
        <time>2015-09-12T08:02:21.000Z</time>
      </trkpt>
      <trkpt lat="47.39611" lon="4.89755">
        <ele>493.39999389648</ele>
        <time>2015-09-12T08:02:26.000Z</time>
      </trkpt>
      <trkpt lat="47.39612" lon="4.89761">
        <ele>493.79998779297</ele>
        <time>2015-09-12T08:02:29.000Z</time>
      </trkpt>
      <trkpt lat="47.39615" lon="4.89774">
        <ele>494.60000610352</ele>
        <time>2015-09-12T08:02:36.000Z</time>
      </trkpt>
      <trkpt lat="47.39615" lon="4.89776">
        <ele>495</ele>
        <time>2015-09-12T08:02:37.000Z</time>
      </trkpt>
      <trkpt lat="47.39617" lon="4.89783">
        <ele>496</ele>
        <time>2015-09-12T08:02:41.000Z</time>
      </trkpt>
      <trkpt lat="47.39618" lon="4.89787">
        <ele>496.60000610352</ele>
        <time>2015-09-12T08:02:44.000Z</time>
      </trkpt>
      <trkpt lat="47.39619" lon="4.89799">
        <ele>497</ele>
        <time>2015-09-12T08:02:51.000Z</time>
      </trkpt>
      <trkpt lat="47.39619" lon="4.89801">
        <ele>497.20001220703</ele>
        <time>2015-09-12T08:02:52.000Z</time>
      </trkpt>
      <trkpt lat="47.3962" lon="4.89818">
        <ele>497.60000610352</ele>
        <time>2015-09-12T08:03:01.000Z</time>
      </trkpt>
      <trkpt lat="47.39621" lon="4.89822">
        <ele>497.60000610352</ele>
        <time>2015-09-12T08:03:03.000Z</time>
      </trkpt>
      <trkpt lat="47.39624" lon="4.89822">
        <ele>498.20001220703</ele>
        <time>2015-09-12T08:03:06.000Z</time>
      </trkpt>
      <trkpt lat="47.39628" lon="4.8982">
        <ele>498.39999389648</ele>
        <time>2015-09-12T08:03:11.000Z</time>
      </trkpt>
      <trkpt lat="47.3963" lon="4.89819">
        <ele>498.60000610352</ele>
        <time>2015-09-12T08:03:13.000Z</time>
      </trkpt>
      <trkpt lat="47.39639" lon="4.89815">
        <ele>498.79998779297</ele>
        <time>2015-09-12T08:03:22.000Z</time>
      </trkpt>
      <trkpt lat="47.39644" lon="4.89814">
        <ele>499.20001220703</ele>
        <time>2015-09-12T08:03:27.000Z</time>
      </trkpt>
      <trkpt lat="47.39648" lon="4.89813">
        <ele>499.20001220703</ele>
        <time>2015-09-12T08:03:30.000Z</time>
      </trkpt>
      <trkpt lat="47.39649" lon="4.89813">
        <ele>499.20001220703</ele>
        <time>2015-09-12T08:03:31.000Z</time>
      </trkpt>
      <trkpt lat="47.39656" lon="4.89812">
        <ele>499.79998779297</ele>
        <time>2015-09-12T08:03:36.000Z</time>
      </trkpt>
      <trkpt lat="47.39663" lon="4.89812">
        <ele>500.20001220703</ele>
        <time>2015-09-12T08:03:40.000Z</time>
      </trkpt>
      <trkpt lat="47.39669" lon="4.89811">
        <ele>500.39999389648</ele>
        <time>2015-09-12T08:03:43.000Z</time>
      </trkpt>
      <trkpt lat="47.39685" lon="4.89813">
        <ele>501.20001220703</ele>
        <time>2015-09-12T08:03:52.000Z</time>
      </trkpt>
      <trkpt lat="47.39694" lon="4.89821">
        <ele>502</ele>
        <time>2015-09-12T08:03:58.000Z</time>
      </trkpt>
      <trkpt lat="47.39697" lon="4.89825">
        <ele>502.39999389648</ele>
        <time>2015-09-12T08:04:00.000Z</time>
      </trkpt>
      <trkpt lat="47.397" lon="4.89831">
        <ele>502.79998779297</ele>
        <time>2015-09-12T08:04:03.000Z</time>
      </trkpt>
      <trkpt lat="47.39703" lon="4.89834">
        <ele>503.20001220703</ele>
        <time>2015-09-12T08:04:05.000Z</time>
      </trkpt>
      <trkpt lat="47.39705" lon="4.89836">
        <ele>503.39999389648</ele>
        <time>2015-09-12T08:04:06.000Z</time>
      </trkpt>
      <trkpt lat="47.39716" lon="4.89842">
        <ele>504.39999389648</ele>
        <time>2015-09-12T08:04:12.000Z</time>
      </trkpt>
      <trkpt lat="47.3972" lon="4.89844">
        <ele>504.39999389648</ele>
        <time>2015-09-12T08:04:14.000Z</time>
      </trkpt>
      <trkpt lat="47.39738" lon="4.89854">
        <ele>504.79998779297</ele>
        <time>2015-09-12T08:04:23.000Z</time>
      </trkpt>
      <trkpt lat="47.39745" lon="4.89859">
        <ele>505.39999389648</ele>
        <time>2015-09-12T08:04:27.000Z</time>
      </trkpt>
      <trkpt lat="47.39752" lon="4.8986">
        <ele>505.79998779297</ele>
        <time>2015-09-12T08:04:30.000Z</time>
      </trkpt>
      <trkpt lat="47.39773" lon="4.89866">
        <ele>505.20001220703</ele>
        <time>2015-09-12T08:04:38.000Z</time>
      </trkpt>
      <trkpt lat="47.39792" lon="4.8987">
        <ele>505.79998779297</ele>
        <time>2015-09-12T08:04:45.000Z</time>
      </trkpt>
      <trkpt lat="47.39812" lon="4.8988">
        <ele>505.79998779297</ele>
        <time>2015-09-12T08:04:52.000Z</time>
      </trkpt>
      <trkpt lat="47.39832" lon="4.899">
        <ele>505.39999389648</ele>
        <time>2015-09-12T08:04:59.000Z</time>
      </trkpt>
      <trkpt lat="47.39853" lon="4.89916">
        <ele>505.79998779297</ele>
        <time>2015-09-12T08:05:06.000Z</time>
      </trkpt>
      <trkpt lat="47.3987" lon="4.89931">
        <ele>504.79998779297</ele>
        <time>2015-09-12T08:05:13.000Z</time>
      </trkpt>
      <trkpt lat="47.39896" lon="4.89961">
        <ele>505</ele>
        <time>2015-09-12T08:05:22.000Z</time>
      </trkpt>
      <trkpt lat="47.3991" lon="4.89976">
        <ele>504.39999389648</ele>
        <time>2015-09-12T08:05:26.000Z</time>
      </trkpt>
      <trkpt lat="47.39928" lon="4.89994">
        <ele>504</ele>
        <time>2015-09-12T08:05:31.000Z</time>
      </trkpt>
      <trkpt lat="47.39954" lon="4.9002">
        <ele>503.39999389648</ele>
        <time>2015-09-12T08:05:38.000Z</time>
      </trkpt>
      <trkpt lat="47.39958" lon="4.90024">
        <ele>503.39999389648</ele>
        <time>2015-09-12T08:05:39.000Z</time>
      </trkpt>
      <trkpt lat="47.3998" lon="4.90049">
        <ele>503.39999389648</ele>
        <time>2015-09-12T08:05:45.000Z</time>
      </trkpt>
      <trkpt lat="47.40003" lon="4.90072">
        <ele>502.39999389648</ele>
        <time>2015-09-12T08:05:51.000Z</time>
      </trkpt>
      <trkpt lat="47.40006" lon="4.90077">
        <ele>502.39999389648</ele>
        <time>2015-09-12T08:05:52.000Z</time>
      </trkpt>
      <trkpt lat="47.40009" lon="4.90082">
        <ele>502.20001220703</ele>
        <time>2015-09-12T08:05:53.000Z</time>
      </trkpt>
      <trkpt lat="47.40023" lon="4.90105">
        <ele>501</ele>
        <time>2015-09-12T08:05:58.000Z</time>
      </trkpt>
      <trkpt lat="47.40029" lon="4.90114">
        <ele>500.79998779297</ele>
        <time>2015-09-12T08:06:02.000Z</time>
      </trkpt>
      <trkpt lat="47.40045" lon="4.90124">
        <ele>501</ele>
        <time>2015-09-12T08:06:07.000Z</time>
      </trkpt>
      <trkpt lat="47.40052" lon="4.90129">
        <ele>500.60000610352</ele>
        <time>2015-09-12T08:06:09.000Z</time>
      </trkpt>
      <trkpt lat="47.40058" lon="4.90138">
        <ele>499.60000610352</ele>
        <time>2015-09-12T08:06:11.000Z</time>
      </trkpt>
      <trkpt lat="47.4006" lon="4.90144">
        <ele>499.39999389648</ele>
        <time>2015-09-12T08:06:12.000Z</time>
      </trkpt>
      <trkpt lat="47.40062" lon="4.90149">
        <ele>499.20001220703</ele>
        <time>2015-09-12T08:06:13.000Z</time>
      </trkpt>
      <trkpt lat="47.4007" lon="4.90184">
        <ele>499.60000610352</ele>
        <time>2015-09-12T08:06:19.000Z</time>
      </trkpt>
      <trkpt lat="47.40072" lon="4.9019">
        <ele>499</ele>
        <time>2015-09-12T08:06:20.000Z</time>
      </trkpt>
      <trkpt lat="47.40085" lon="4.90234">
        <ele>498.79998779297</ele>
        <time>2015-09-12T08:06:27.000Z</time>
      </trkpt>
      <trkpt lat="47.40089" lon="4.90248">
        <ele>499</ele>
        <time>2015-09-12T08:06:29.000Z</time>
      </trkpt>
      <trkpt lat="47.40098" lon="4.9027">
        <ele>498.79998779297</ele>
        <time>2015-09-12T08:06:32.000Z</time>
      </trkpt>
      <trkpt lat="47.40105" lon="4.90285">
        <ele>498.79998779297</ele>
        <time>2015-09-12T08:06:34.000Z</time>
      </trkpt>
      <trkpt lat="47.40109" lon="4.90292">
        <ele>498.20001220703</ele>
        <time>2015-09-12T08:06:35.000Z</time>
      </trkpt>
      <trkpt lat="47.40118" lon="4.90307">
        <ele>496.79998779297</ele>
        <time>2015-09-12T08:06:37.000Z</time>
      </trkpt>
      <trkpt lat="47.40122" lon="4.90314">
        <ele>496.39999389648</ele>
        <time>2015-09-12T08:06:38.000Z</time>
      </trkpt>
      <trkpt lat="47.40131" lon="4.90328">
        <ele>495.39999389648</ele>
        <time>2015-09-12T08:06:40.000Z</time>
      </trkpt>
      <trkpt lat="47.4015" lon="4.90357">
        <ele>494.39999389648</ele>
        <time>2015-09-12T08:06:44.000Z</time>
      </trkpt>
      <trkpt lat="47.40177" lon="4.90402">
        <ele>493.20001220703</ele>
        <time>2015-09-12T08:06:50.000Z</time>
      </trkpt>
      <trkpt lat="47.40187" lon="4.90416">
        <ele>493</ele>
        <time>2015-09-12T08:06:52.000Z</time>
      </trkpt>
      <trkpt lat="47.40197" lon="4.9043">
        <ele>492.39999389648</ele>
        <time>2015-09-12T08:06:54.000Z</time>
      </trkpt>
      <trkpt lat="47.40202" lon="4.90436">
        <ele>492.20001220703</ele>
        <time>2015-09-12T08:06:55.000Z</time>
      </trkpt>
      <trkpt lat="47.40218" lon="4.90451">
        <ele>492.39999389648</ele>
        <time>2015-09-12T08:06:58.000Z</time>
      </trkpt>
      <trkpt lat="47.40226" lon="4.90457">
        <ele>493</ele>
        <time>2015-09-12T08:07:00.000Z</time>
      </trkpt>
      <trkpt lat="47.4023" lon="4.90458">
        <ele>493.20001220703</ele>
        <time>2015-09-12T08:07:01.000Z</time>
      </trkpt>
      <trkpt lat="47.40234" lon="4.90458">
        <ele>493.60000610352</ele>
        <time>2015-09-12T08:07:02.000Z</time>
      </trkpt>
      <trkpt lat="47.40248" lon="4.90455">
        <ele>494</ele>
        <time>2015-09-12T08:07:07.000Z</time>
      </trkpt>
      <trkpt lat="47.40265" lon="4.90454">
        <ele>492.20001220703</ele>
        <time>2015-09-12T08:07:11.000Z</time>
      </trkpt>
      <trkpt lat="47.40293" lon="4.90455">
        <ele>492</ele>
        <time>2015-09-12T08:07:16.000Z</time>
      </trkpt>
      <trkpt lat="47.40308" lon="4.90458">
        <ele>490.79998779297</ele>
        <time>2015-09-12T08:07:19.000Z</time>
      </trkpt>
      <trkpt lat="47.40313" lon="4.90459">
        <ele>490.39999389648</ele>
        <time>2015-09-12T08:07:20.000Z</time>
      </trkpt>
      <trkpt lat="47.40317" lon="4.9046">
        <ele>490.20001220703</ele>
        <time>2015-09-12T08:07:21.000Z</time>
      </trkpt>
      <trkpt lat="47.40348" lon="4.9046">
        <ele>490</ele>
        <time>2015-09-12T08:07:27.000Z</time>
      </trkpt>
      <trkpt lat="47.40353" lon="4.90463">
        <ele>490.20001220703</ele>
        <time>2015-09-12T08:07:28.000Z</time>
      </trkpt>
      <trkpt lat="47.4037" lon="4.90476">
        <ele>490.20001220703</ele>
        <time>2015-09-12T08:07:31.000Z</time>
      </trkpt>
      <trkpt lat="47.40376" lon="4.90481">
        <ele>489.79998779297</ele>
        <time>2015-09-12T08:07:32.000Z</time>
      </trkpt>
      <trkpt lat="47.40407" lon="4.90516">
        <ele>490.79998779297</ele>
        <time>2015-09-12T08:07:39.000Z</time>
      </trkpt>
      <trkpt lat="47.40437" lon="4.90542">
        <ele>491.39999389648</ele>
        <time>2015-09-12T08:07:46.000Z</time>
      </trkpt>
      <trkpt lat="47.40453" lon="4.90555">
        <ele>491.60000610352</ele>
        <time>2015-09-12T08:07:50.000Z</time>
      </trkpt>
      <trkpt lat="47.40467" lon="4.90573">
        <ele>492</ele>
        <time>2015-09-12T08:07:54.000Z</time>
      </trkpt>
      <trkpt lat="47.40483" lon="4.90595">
        <ele>491.60000610352</ele>
        <time>2015-09-12T08:08:00.000Z</time>
      </trkpt>
      <trkpt lat="47.40497" lon="4.90613">
        <ele>491.39999389648</ele>
        <time>2015-09-12T08:08:07.000Z</time>
      </trkpt>
      <trkpt lat="47.40513" lon="4.90628">
        <ele>490.60000610352</ele>
        <time>2015-09-12T08:08:12.000Z</time>
      </trkpt>
      <trkpt lat="47.40516" lon="4.90631">
        <ele>490.20001220703</ele>
        <time>2015-09-12T08:08:13.000Z</time>
      </trkpt>
      <trkpt lat="47.40543" lon="4.90657">
        <ele>489.39999389648</ele>
        <time>2015-09-12T08:08:20.000Z</time>
      </trkpt>
      <trkpt lat="47.40573" lon="4.9069">
        <ele>488</ele>
        <time>2015-09-12T08:08:26.000Z</time>
      </trkpt>
      <trkpt lat="47.40584" lon="4.90716">
        <ele>487</ele>
        <time>2015-09-12T08:08:29.000Z</time>
      </trkpt>
      <trkpt lat="47.40586" lon="4.90725">
        <ele>487</ele>
        <time>2015-09-12T08:08:30.000Z</time>
      </trkpt>
      <trkpt lat="47.40585" lon="4.90738">
        <ele>486.60000610352</ele>
        <time>2015-09-12T08:08:32.000Z</time>
      </trkpt>
      <trkpt lat="47.40585" lon="4.90742">
        <ele>486.79998779297</ele>
        <time>2015-09-12T08:08:33.000Z</time>
      </trkpt>
      <trkpt lat="47.40583" lon="4.90749">
        <ele>486.79998779297</ele>
        <time>2015-09-12T08:08:35.000Z</time>
      </trkpt>
      <trkpt lat="47.40581" lon="4.90751">
        <ele>486.79998779297</ele>
        <time>2015-09-12T08:08:36.000Z</time>
      </trkpt>
      <trkpt lat="47.40575" lon="4.90762">
        <ele>487.39999389648</ele>
        <time>2015-09-12T08:08:40.000Z</time>
      </trkpt>
      <trkpt lat="47.40574" lon="4.90765">
        <ele>487.20001220703</ele>
        <time>2015-09-12T08:08:41.000Z</time>
      </trkpt>
      <trkpt lat="47.40575" lon="4.90771">
        <ele>487.20001220703</ele>
        <time>2015-09-12T08:08:43.000Z</time>
      </trkpt>
      <trkpt lat="47.40577" lon="4.90773">
        <ele>487.20001220703</ele>
        <time>2015-09-12T08:08:45.000Z</time>
      </trkpt>
      <trkpt lat="47.40584" lon="4.90776">
        <ele>487.20001220703</ele>
        <time>2015-09-12T08:08:52.000Z</time>
      </trkpt>
      <trkpt lat="47.40585" lon="4.90779">
        <ele>487</ele>
        <time>2015-09-12T08:08:59.000Z</time>
      </trkpt>
      <trkpt lat="47.40586" lon="4.90781">
        <ele>486.79998779297</ele>
        <time>2015-09-12T08:09:08.000Z</time>
      </trkpt>
      <trkpt lat="47.40587" lon="4.90783">
        <ele>486.79998779297</ele>
        <time>2015-09-12T08:09:15.000Z</time>
      </trkpt>
      <trkpt lat="47.40593" lon="4.90793">
        <ele>486</ele>
        <time>2015-09-12T08:09:25.000Z</time>
      </trkpt>
      <trkpt lat="47.40596" lon="4.90797">
        <ele>485.79998779297</ele>
        <time>2015-09-12T08:09:29.000Z</time>
      </trkpt>
      <trkpt lat="47.40599" lon="4.90801">
        <ele>485.60000610352</ele>
        <time>2015-09-12T08:09:32.000Z</time>
      </trkpt>
      <trkpt lat="47.40605" lon="4.90809">
        <ele>484.60000610352</ele>
        <time>2015-09-12T08:09:39.000Z</time>
      </trkpt>
      <trkpt lat="47.40606" lon="4.90811">
        <ele>484.60000610352</ele>
        <time>2015-09-12T08:09:40.000Z</time>
      </trkpt>
      <trkpt lat="47.40613" lon="4.90819">
        <ele>484.20001220703</ele>
        <time>2015-09-12T08:09:48.000Z</time>
      </trkpt>
      <trkpt lat="47.40616" lon="4.90823">
        <ele>483.39999389648</ele>
        <time>2015-09-12T08:09:52.000Z</time>
      </trkpt>
      <trkpt lat="47.4062" lon="4.90829">
        <ele>483.39999389648</ele>
        <time>2015-09-12T08:09:57.000Z</time>
      </trkpt>
      <trkpt lat="47.40625" lon="4.90837">
        <ele>483</ele>
        <time>2015-09-12T08:10:05.000Z</time>
      </trkpt>
      <trkpt lat="47.40633" lon="4.90849">
        <ele>483</ele>
        <time>2015-09-12T08:10:15.000Z</time>
      </trkpt>
      <trkpt lat="47.4064" lon="4.90861">
        <ele>483</ele>
        <time>2015-09-12T08:10:25.000Z</time>
      </trkpt>
      <trkpt lat="47.40647" lon="4.90871">
        <ele>482.39999389648</ele>
        <time>2015-09-12T08:10:34.000Z</time>
      </trkpt>
      <trkpt lat="47.40655" lon="4.90877">
        <ele>481.39999389648</ele>
        <time>2015-09-12T08:10:41.000Z</time>
      </trkpt>
      <trkpt lat="47.40656" lon="4.90878">
        <ele>481.39999389648</ele>
        <time>2015-09-12T08:10:42.000Z</time>
      </trkpt>
      <trkpt lat="47.40667" lon="4.90878">
        <ele>480.60000610352</ele>
        <time>2015-09-12T08:10:52.000Z</time>
      </trkpt>
      <trkpt lat="47.40671" lon="4.90878">
        <ele>480.39999389648</ele>
        <time>2015-09-12T08:10:55.000Z</time>
      </trkpt>
      <trkpt lat="47.40678" lon="4.90876">
        <ele>479.79998779297</ele>
        <time>2015-09-12T08:11:02.000Z</time>
      </trkpt>
      <trkpt lat="47.40682" lon="4.90878">
        <ele>480</ele>
        <time>2015-09-12T08:11:07.000Z</time>
      </trkpt>
      <trkpt lat="47.40683" lon="4.9088">
        <ele>480</ele>
        <time>2015-09-12T08:11:09.000Z</time>
      </trkpt>
      <trkpt lat="47.40684" lon="4.90886">
        <ele>480.39999389648</ele>
        <time>2015-09-12T08:11:13.000Z</time>
      </trkpt>
      <trkpt lat="47.40684" lon="4.90889">
        <ele>480.60000610352</ele>
        <time>2015-09-12T08:11:17.000Z</time>
      </trkpt>
      <trkpt lat="47.40684" lon="4.90893">
        <ele>481</ele>
        <time>2015-09-12T08:11:26.000Z</time>
      </trkpt>
      <trkpt lat="47.40684" lon="4.90907">
        <ele>481.39999389648</ele>
        <time>2015-09-12T08:11:32.000Z</time>
      </trkpt>
      <trkpt lat="47.40687" lon="4.90924">
        <ele>481.60000610352</ele>
        <time>2015-09-12T08:11:38.000Z</time>
      </trkpt>
      <trkpt lat="47.40695" lon="4.90935">
        <ele>482.20001220703</ele>
        <time>2015-09-12T08:11:44.000Z</time>
      </trkpt>
      <trkpt lat="47.40697" lon="4.90937">
        <ele>482.39999389648</ele>
        <time>2015-09-12T08:11:45.000Z</time>
      </trkpt>
      <trkpt lat="47.40704" lon="4.90951">
        <ele>483.20001220703</ele>
        <time>2015-09-12T08:11:51.000Z</time>
      </trkpt>
      <trkpt lat="47.40705" lon="4.90953">
        <ele>483.39999389648</ele>
        <time>2015-09-12T08:11:52.000Z</time>
      </trkpt>
      <trkpt lat="47.40712" lon="4.90971">
        <ele>484.20001220703</ele>
        <time>2015-09-12T08:11:58.000Z</time>
      </trkpt>
      <trkpt lat="47.40715" lon="4.90977">
        <ele>484.60000610352</ele>
        <time>2015-09-12T08:12:00.000Z</time>
      </trkpt>
      <trkpt lat="47.4072" lon="4.90994">
        <ele>484.20001220703</ele>
        <time>2015-09-12T08:12:06.000Z</time>
      </trkpt>
      <trkpt lat="47.40725" lon="4.91004">
        <ele>484.60000610352</ele>
        <time>2015-09-12T08:12:10.000Z</time>
      </trkpt>
      <trkpt lat="47.40727" lon="4.91006">
        <ele>484.60000610352</ele>
        <time>2015-09-12T08:12:11.000Z</time>
      </trkpt>
      <trkpt lat="47.40738" lon="4.91032">
        <ele>484.20001220703</ele>
        <time>2015-09-12T08:12:19.000Z</time>
      </trkpt>
      <trkpt lat="47.40747" lon="4.91056">
        <ele>485</ele>
        <time>2015-09-12T08:12:25.000Z</time>
      </trkpt>
      <trkpt lat="47.40755" lon="4.91087">
        <ele>485.20001220703</ele>
        <time>2015-09-12T08:12:33.000Z</time>
      </trkpt>
      <trkpt lat="47.40757" lon="4.91105">
        <ele>485</ele>
        <time>2015-09-12T08:12:38.000Z</time>
      </trkpt>
      <trkpt lat="47.4076" lon="4.91124">
        <ele>484.60000610352</ele>
        <time>2015-09-12T08:12:44.000Z</time>
      </trkpt>
      <trkpt lat="47.40763" lon="4.91145">
        <ele>484.39999389648</ele>
        <time>2015-09-12T08:12:50.000Z</time>
      </trkpt>
      <trkpt lat="47.4077" lon="4.91162">
        <ele>483.60000610352</ele>
        <time>2015-09-12T08:12:56.000Z</time>
      </trkpt>
      <trkpt lat="47.40771" lon="4.91164">
        <ele>483.20001220703</ele>
        <time>2015-09-12T08:12:57.000Z</time>
      </trkpt>
      <trkpt lat="47.40777" lon="4.91171">
        <ele>483.60000610352</ele>
        <time>2015-09-12T08:13:01.000Z</time>
      </trkpt>
      <trkpt lat="47.40789" lon="4.91182">
        <ele>484.20001220703</ele>
        <time>2015-09-12T08:13:06.000Z</time>
      </trkpt>
      <trkpt lat="47.40791" lon="4.91185">
        <ele>484.20001220703</ele>
        <time>2015-09-12T08:13:07.000Z</time>
      </trkpt>
      <trkpt lat="47.40798" lon="4.91204">
        <ele>484.79998779297</ele>
        <time>2015-09-12T08:13:13.000Z</time>
      </trkpt>
      <trkpt lat="47.40799" lon="4.91209">
        <ele>484.79998779297</ele>
        <time>2015-09-12T08:13:15.000Z</time>
      </trkpt>
      <trkpt lat="47.40802" lon="4.91214">
        <ele>484.79998779297</ele>
        <time>2015-09-12T08:13:18.000Z</time>
      </trkpt>
      <trkpt lat="47.40805" lon="4.91217">
        <ele>484.39999389648</ele>
        <time>2015-09-12T08:13:25.000Z</time>
      </trkpt>
      <trkpt lat="47.40806" lon="4.91216">
        <ele>484.39999389648</ele>
        <time>2015-09-12T08:13:31.000Z</time>
      </trkpt>
      <trkpt lat="47.40806" lon="4.91213">
        <ele>484.39999389648</ele>
        <time>2015-09-12T08:13:45.000Z</time>
      </trkpt>
      <trkpt lat="47.40806" lon="4.91212">
        <ele>484.60000610352</ele>
        <time>2015-09-12T08:13:51.000Z</time>
      </trkpt>
      <trkpt lat="47.40806" lon="4.91212">
        <ele>484.60000610352</ele>
        <time>2015-09-12T08:14:09.000Z</time>
      </trkpt>
      <trkpt lat="47.40804" lon="4.91208">
        <ele>485</ele>
        <time>2015-09-12T08:14:23.000Z</time>
      </trkpt>
      <trkpt lat="47.408" lon="4.91211">
        <ele>484.79998779297</ele>
        <time>2015-09-12T08:14:27.000Z</time>
      </trkpt>
      <trkpt lat="47.40804" lon="4.91219">
        <ele>484.79998779297</ele>
        <time>2015-09-12T08:14:32.000Z</time>
      </trkpt>
      <trkpt lat="47.40809" lon="4.91227">
        <ele>484.60000610352</ele>
        <time>2015-09-12T08:14:38.000Z</time>
      </trkpt>
      <trkpt lat="47.40814" lon="4.91238">
        <ele>484.39999389648</ele>
        <time>2015-09-12T08:14:45.000Z</time>
      </trkpt>
      <trkpt lat="47.40816" lon="4.91254">
        <ele>483.79998779297</ele>
        <time>2015-09-12T08:14:53.000Z</time>
      </trkpt>
      <trkpt lat="47.40817" lon="4.91257">
        <ele>483.60000610352</ele>
        <time>2015-09-12T08:14:54.000Z</time>
      </trkpt>
      <trkpt lat="47.40818" lon="4.91261">
        <ele>483</ele>
        <time>2015-09-12T08:14:56.000Z</time>
      </trkpt>
      <trkpt lat="47.40817" lon="4.91264">
        <ele>483</ele>
        <time>2015-09-12T08:14:58.000Z</time>
      </trkpt>
      <trkpt lat="47.40809" lon="4.91267">
        <ele>483.79998779297</ele>
        <time>2015-09-12T08:15:04.000Z</time>
      </trkpt>
      <trkpt lat="47.40805" lon="4.91265">
        <ele>484</ele>
        <time>2015-09-12T08:15:06.000Z</time>
      </trkpt>
      <trkpt lat="47.40802" lon="4.91264">
        <ele>484</ele>
        <time>2015-09-12T08:15:08.000Z</time>
      </trkpt>
      <trkpt lat="47.408" lon="4.91266">
        <ele>484.20001220703</ele>
        <time>2015-09-12T08:15:09.000Z</time>
      </trkpt>
      <trkpt lat="47.40796" lon="4.91272">
        <ele>483.79998779297</ele>
        <time>2015-09-12T08:15:13.000Z</time>
      </trkpt>
      <trkpt lat="47.40794" lon="4.91275">
        <ele>483.60000610352</ele>
        <time>2015-09-12T08:15:15.000Z</time>
      </trkpt>
      <trkpt lat="47.40792" lon="4.91279">
        <ele>483.60000610352</ele>
        <time>2015-09-12T08:15:22.000Z</time>
      </trkpt>
      <trkpt lat="47.40789" lon="4.9128">
        <ele>483.60000610352</ele>
        <time>2015-09-12T08:15:24.000Z</time>
      </trkpt>
      <trkpt lat="47.40784" lon="4.91283">
        <ele>484.39999389648</ele>
        <time>2015-09-12T08:15:28.000Z</time>
      </trkpt>
      <trkpt lat="47.4078" lon="4.91287">
        <ele>485</ele>
        <time>2015-09-12T08:15:34.000Z</time>
      </trkpt>
      <trkpt lat="47.4078" lon="4.91287">
        <ele>485.20001220703</ele>
        <time>2015-09-12T08:15:35.000Z</time>
      </trkpt>
      <trkpt lat="47.4078" lon="4.91288">
        <ele>485.60000610352</ele>
        <time>2015-09-12T08:15:44.000Z</time>
      </trkpt>
      <trkpt lat="47.40774" lon="4.91295">
        <ele>485.20001220703</ele>
        <time>2015-09-12T08:15:49.000Z</time>
      </trkpt>
      <trkpt lat="47.40765" lon="4.913">
        <ele>485</ele>
        <time>2015-09-12T08:15:56.000Z</time>
      </trkpt>
      <trkpt lat="47.40756" lon="4.91308">
        <ele>484.79998779297</ele>
        <time>2015-09-12T08:16:02.000Z</time>
      </trkpt>
      <trkpt lat="47.40749" lon="4.91313">
        <ele>485</ele>
        <time>2015-09-12T08:16:08.000Z</time>
      </trkpt>
      <trkpt lat="47.40744" lon="4.91321">
        <ele>485</ele>
        <time>2015-09-12T08:16:14.000Z</time>
      </trkpt>
      <trkpt lat="47.40737" lon="4.91333">
        <ele>485</ele>
        <time>2015-09-12T08:16:20.000Z</time>
      </trkpt>
      <trkpt lat="47.40734" lon="4.91338">
        <ele>485.20001220703</ele>
        <time>2015-09-12T08:16:25.000Z</time>
      </trkpt>
      <trkpt lat="47.40732" lon="4.9134">
        <ele>485.79998779297</ele>
        <time>2015-09-12T08:16:27.000Z</time>
      </trkpt>
      <trkpt lat="47.40728" lon="4.91343">
        <ele>485.79998779297</ele>
        <time>2015-09-12T08:16:30.000Z</time>
      </trkpt>
      <trkpt lat="47.40725" lon="4.91348">
        <ele>485.60000610352</ele>
        <time>2015-09-12T08:16:35.000Z</time>
      </trkpt>
      <trkpt lat="47.40718" lon="4.91358">
        <ele>485.39999389648</ele>
        <time>2015-09-12T08:16:44.000Z</time>
      </trkpt>
      <trkpt lat="47.40709" lon="4.91368">
        <ele>485.39999389648</ele>
        <time>2015-09-12T08:16:52.000Z</time>
      </trkpt>
      <trkpt lat="47.40699" lon="4.91378">
        <ele>486</ele>
        <time>2015-09-12T08:16:59.000Z</time>
      </trkpt>
      <trkpt lat="47.40693" lon="4.91385">
        <ele>485.39999389648</ele>
        <time>2015-09-12T08:17:06.000Z</time>
      </trkpt>
      <trkpt lat="47.40687" lon="4.91389">
        <ele>485.79998779297</ele>
        <time>2015-09-12T08:17:12.000Z</time>
      </trkpt>
      <trkpt lat="47.40686" lon="4.9139">
        <ele>486</ele>
        <time>2015-09-12T08:17:13.000Z</time>
      </trkpt>
      <trkpt lat="47.40681" lon="4.91395">
        <ele>485.60000610352</ele>
        <time>2015-09-12T08:17:17.000Z</time>
      </trkpt>
      <trkpt lat="47.40678" lon="4.91401">
        <ele>485.39999389648</ele>
        <time>2015-09-12T08:17:24.000Z</time>
      </trkpt>
      <trkpt lat="47.40673" lon="4.91411">
        <ele>484.79998779297</ele>
        <time>2015-09-12T08:17:34.000Z</time>
      </trkpt>
      <trkpt lat="47.40667" lon="4.9143">
        <ele>484.39999389648</ele>
        <time>2015-09-12T08:17:44.000Z</time>
      </trkpt>
      <trkpt lat="47.40667" lon="4.91433">
        <ele>484.20001220703</ele>
        <time>2015-09-12T08:17:46.000Z</time>
      </trkpt>
      <trkpt lat="47.40665" lon="4.91439">
        <ele>484.20001220703</ele>
        <time>2015-09-12T08:17:49.000Z</time>
      </trkpt>
      <trkpt lat="47.40666" lon="4.91446">
        <ele>484.60000610352</ele>
        <time>2015-09-12T08:17:52.000Z</time>
      </trkpt>
      <trkpt lat="47.4067" lon="4.91455">
        <ele>483.39999389648</ele>
        <time>2015-09-12T08:17:56.000Z</time>
      </trkpt>
      <trkpt lat="47.40671" lon="4.91457">
        <ele>483</ele>
        <time>2015-09-12T08:17:57.000Z</time>
      </trkpt>
      <trkpt lat="47.40673" lon="4.91472">
        <ele>483.20001220703</ele>
        <time>2015-09-12T08:18:03.000Z</time>
      </trkpt>
      <trkpt lat="47.40673" lon="4.91474">
        <ele>483.39999389648</ele>
        <time>2015-09-12T08:18:04.000Z</time>
      </trkpt>
      <trkpt lat="47.4067" lon="4.91479">
        <ele>484.20001220703</ele>
        <time>2015-09-12T08:18:07.000Z</time>
      </trkpt>
      <trkpt lat="47.40669" lon="4.91481">
        <ele>484.60000610352</ele>
        <time>2015-09-12T08:18:08.000Z</time>
      </trkpt>
      <trkpt lat="47.40668" lon="4.91482">
        <ele>484.79998779297</ele>
        <time>2015-09-12T08:18:09.000Z</time>
      </trkpt>
      <trkpt lat="47.40666" lon="4.91486">
        <ele>485.20001220703</ele>
        <time>2015-09-12T08:18:11.000Z</time>
      </trkpt>
      <trkpt lat="47.40665" lon="4.91489">
        <ele>485.60000610352</ele>
        <time>2015-09-12T08:18:13.000Z</time>
      </trkpt>
      <trkpt lat="47.40662" lon="4.915">
        <ele>486.20001220703</ele>
        <time>2015-09-12T08:18:19.000Z</time>
      </trkpt>
      <trkpt lat="47.40661" lon="4.91507">
        <ele>485.79998779297</ele>
        <time>2015-09-12T08:18:22.000Z</time>
      </trkpt>
      <trkpt lat="47.40659" lon="4.91512">
        <ele>485.39999389648</ele>
        <time>2015-09-12T08:18:25.000Z</time>
      </trkpt>
      <trkpt lat="47.40657" lon="4.9152">
        <ele>485.20001220703</ele>
        <time>2015-09-12T08:18:29.000Z</time>
      </trkpt>
      <trkpt lat="47.40657" lon="4.91525">
        <ele>485</ele>
        <time>2015-09-12T08:18:33.000Z</time>
      </trkpt>
      <trkpt lat="47.40658" lon="4.9153">
        <ele>484.20001220703</ele>
        <time>2015-09-12T08:18:36.000Z</time>
      </trkpt>
      <trkpt lat="47.40659" lon="4.91539">
        <ele>483</ele>
        <time>2015-09-12T08:18:42.000Z</time>
      </trkpt>
      <trkpt lat="47.40657" lon="4.91545">
        <ele>481.79998779297</ele>
        <time>2015-09-12T08:18:47.000Z</time>
      </trkpt>
      <trkpt lat="47.40654" lon="4.9155">
        <ele>480.39999389648</ele>
        <time>2015-09-12T08:18:50.000Z</time>
      </trkpt>
      <trkpt lat="47.40652" lon="4.91556">
        <ele>479.39999389648</ele>
        <time>2015-09-12T08:18:54.000Z</time>
      </trkpt>
      <trkpt lat="47.40652" lon="4.91559">
        <ele>478.60000610352</ele>
        <time>2015-09-12T08:18:55.000Z</time>
      </trkpt>
      <trkpt lat="47.40653" lon="4.91563">
        <ele>477.39999389648</ele>
        <time>2015-09-12T08:18:56.000Z</time>
      </trkpt>
      <trkpt lat="47.40652" lon="4.91568">
        <ele>476</ele>
        <time>2015-09-12T08:18:57.000Z</time>
      </trkpt>
      <trkpt lat="47.40652" lon="4.91575">
        <ele>474</ele>
        <time>2015-09-12T08:18:58.000Z</time>
      </trkpt>
      <trkpt lat="47.40651" lon="4.91581">
        <ele>473</ele>
        <time>2015-09-12T08:18:59.000Z</time>
      </trkpt>
      <trkpt lat="47.40652" lon="4.91585">
        <ele>473</ele>
        <time>2015-09-12T08:19:00.000Z</time>
      </trkpt>
      <trkpt lat="47.40651" lon="4.91593">
        <ele>473</ele>
        <time>2015-09-12T08:19:03.000Z</time>
      </trkpt>
      <trkpt lat="47.4065" lon="4.91596">
        <ele>473.20001220703</ele>
        <time>2015-09-12T08:19:09.000Z</time>
      </trkpt>
      <trkpt lat="47.40647" lon="4.91605">
        <ele>473.60000610352</ele>
        <time>2015-09-12T08:19:14.000Z</time>
      </trkpt>
      <trkpt lat="47.40639" lon="4.91619">
        <ele>472.39999389648</ele>
        <time>2015-09-12T08:19:19.000Z</time>
      </trkpt>
      <trkpt lat="47.40631" lon="4.91639">
        <ele>472.60000610352</ele>
        <time>2015-09-12T08:19:25.000Z</time>
      </trkpt>
      <trkpt lat="47.40631" lon="4.9164">
        <ele>472.39999389648</ele>
        <time>2015-09-12T08:19:26.000Z</time>
      </trkpt>
      <trkpt lat="47.40629" lon="4.91643">
        <ele>472.20001220703</ele>
        <time>2015-09-12T08:19:29.000Z</time>
      </trkpt>
      <trkpt lat="47.40623" lon="4.91661">
        <ele>472.39999389648</ele>
        <time>2015-09-12T08:19:35.000Z</time>
      </trkpt>
      <trkpt lat="47.40618" lon="4.91675">
        <ele>472.60000610352</ele>
        <time>2015-09-12T08:19:40.000Z</time>
      </trkpt>
      <trkpt lat="47.40614" lon="4.91686">
        <ele>473</ele>
        <time>2015-09-12T08:19:45.000Z</time>
      </trkpt>
      <trkpt lat="47.40611" lon="4.91696">
        <ele>473.60000610352</ele>
        <time>2015-09-12T08:19:49.000Z</time>
      </trkpt>
      <trkpt lat="47.40611" lon="4.91698">
        <ele>473.79998779297</ele>
        <time>2015-09-12T08:19:50.000Z</time>
      </trkpt>
      <trkpt lat="47.40609" lon="4.91701">
        <ele>474</ele>
        <time>2015-09-12T08:19:51.000Z</time>
      </trkpt>
      <trkpt lat="47.40607" lon="4.91704">
        <ele>474.20001220703</ele>
        <time>2015-09-12T08:19:53.000Z</time>
      </trkpt>
      <trkpt lat="47.40605" lon="4.91708">
        <ele>474.39999389648</ele>
        <time>2015-09-12T08:19:55.000Z</time>
      </trkpt>
      <trkpt lat="47.40604" lon="4.91714">
        <ele>475.20001220703</ele>
        <time>2015-09-12T08:19:58.000Z</time>
      </trkpt>
      <trkpt lat="47.40603" lon="4.91719">
        <ele>475.20001220703</ele>
        <time>2015-09-12T08:20:00.000Z</time>
      </trkpt>
      <trkpt lat="47.40602" lon="4.91729">
        <ele>476.20001220703</ele>
        <time>2015-09-12T08:20:03.000Z</time>
      </trkpt>
      <trkpt lat="47.406" lon="4.91738">
        <ele>476.79998779297</ele>
        <time>2015-09-12T08:20:06.000Z</time>
      </trkpt>
      <trkpt lat="47.40599" lon="4.91744">
        <ele>477.20001220703</ele>
        <time>2015-09-12T08:20:08.000Z</time>
      </trkpt>
      <trkpt lat="47.40598" lon="4.91756">
        <ele>477.60000610352</ele>
        <time>2015-09-12T08:20:12.000Z</time>
      </trkpt>
      <trkpt lat="47.40598" lon="4.91768">
        <ele>478.20001220703</ele>
        <time>2015-09-12T08:20:17.000Z</time>
      </trkpt>
      <trkpt lat="47.40598" lon="4.9177">
        <ele>478.20001220703</ele>
        <time>2015-09-12T08:20:18.000Z</time>
      </trkpt>
      <trkpt lat="47.40597" lon="4.91778">
        <ele>478.60000610352</ele>
        <time>2015-09-12T08:20:21.000Z</time>
      </trkpt>
      <trkpt lat="47.40597" lon="4.91783">
        <ele>478.20001220703</ele>
        <time>2015-09-12T08:20:23.000Z</time>
      </trkpt>
      <trkpt lat="47.40594" lon="4.918">
        <ele>478.39999389648</ele>
        <time>2015-09-12T08:20:29.000Z</time>
      </trkpt>
      <trkpt lat="47.40592" lon="4.91803">
        <ele>478.39999389648</ele>
        <time>2015-09-12T08:20:30.000Z</time>
      </trkpt>
      <trkpt lat="47.4059" lon="4.91814">
        <ele>479</ele>
        <time>2015-09-12T08:20:33.000Z</time>
      </trkpt>
      <trkpt lat="47.4059" lon="4.91821">
        <ele>479.20001220703</ele>
        <time>2015-09-12T08:20:35.000Z</time>
      </trkpt>
      <trkpt lat="47.40589" lon="4.91827">
        <ele>479.20001220703</ele>
        <time>2015-09-12T08:20:37.000Z</time>
      </trkpt>
      <trkpt lat="47.40589" lon="4.91831">
        <ele>479.39999389648</ele>
        <time>2015-09-12T08:20:38.000Z</time>
      </trkpt>
      <trkpt lat="47.40589" lon="4.91846">
        <ele>479.39999389648</ele>
        <time>2015-09-12T08:20:43.000Z</time>
      </trkpt>
      <trkpt lat="47.4059" lon="4.91856">
        <ele>480.39999389648</ele>
        <time>2015-09-12T08:20:46.000Z</time>
      </trkpt>
      <trkpt lat="47.40588" lon="4.91862">
        <ele>480.39999389648</ele>
        <time>2015-09-12T08:20:48.000Z</time>
      </trkpt>
      <trkpt lat="47.40588" lon="4.91869">
        <ele>480.79998779297</ele>
        <time>2015-09-12T08:20:50.000Z</time>
      </trkpt>
      <trkpt lat="47.40589" lon="4.91877">
        <ele>481.20001220703</ele>
        <time>2015-09-12T08:20:53.000Z</time>
      </trkpt>
      <trkpt lat="47.40589" lon="4.91881">
        <ele>481.39999389648</ele>
        <time>2015-09-12T08:20:54.000Z</time>
      </trkpt>
      <trkpt lat="47.40591" lon="4.91894">
        <ele>481.60000610352</ele>
        <time>2015-09-12T08:20:58.000Z</time>
      </trkpt>
      <trkpt lat="47.40594" lon="4.9191">
        <ele>482</ele>
        <time>2015-09-12T08:21:03.000Z</time>
      </trkpt>
      <trkpt lat="47.40593" lon="4.91913">
        <ele>482</ele>
        <time>2015-09-12T08:21:04.000Z</time>
      </trkpt>
      <trkpt lat="47.40593" lon="4.9192">
        <ele>482.39999389648</ele>
        <time>2015-09-12T08:21:06.000Z</time>
      </trkpt>
      <trkpt lat="47.40593" lon="4.91924">
        <ele>482.60000610352</ele>
        <time>2015-09-12T08:21:07.000Z</time>
      </trkpt>
      <trkpt lat="47.40594" lon="4.9193">
        <ele>482.60000610352</ele>
        <time>2015-09-12T08:21:09.000Z</time>
      </trkpt>
      <trkpt lat="47.40595" lon="4.91942">
        <ele>483.20001220703</ele>
        <time>2015-09-12T08:21:13.000Z</time>
      </trkpt>
      <trkpt lat="47.40595" lon="4.91951">
        <ele>483.39999389648</ele>
        <time>2015-09-12T08:21:16.000Z</time>
      </trkpt>
      <trkpt lat="47.40595" lon="4.91959">
        <ele>484</ele>
        <time>2015-09-12T08:21:19.000Z</time>
      </trkpt>
      <trkpt lat="47.40595" lon="4.9196">
        <ele>484.39999389648</ele>
        <time>2015-09-12T08:21:20.000Z</time>
      </trkpt>
      <trkpt lat="47.40595" lon="4.91962">
        <ele>485.20001220703</ele>
        <time>2015-09-12T08:21:23.000Z</time>
      </trkpt>
      <trkpt lat="47.40595" lon="4.91964">
        <ele>485.79998779297</ele>
        <time>2015-09-12T08:21:25.000Z</time>
      </trkpt>
      <trkpt lat="47.40594" lon="4.91971">
        <ele>487</ele>
        <time>2015-09-12T08:21:31.000Z</time>
      </trkpt>
      <trkpt lat="47.40594" lon="4.91971">
        <ele>487.20001220703</ele>
        <time>2015-09-12T08:21:32.000Z</time>
      </trkpt>
      <trkpt lat="47.40593" lon="4.91975">
        <ele>488</ele>
        <time>2015-09-12T08:21:37.000Z</time>
      </trkpt>
      <trkpt lat="47.40594" lon="4.91979">
        <ele>489</ele>
        <time>2015-09-12T08:21:41.000Z</time>
      </trkpt>
      <trkpt lat="47.40593" lon="4.91982">
        <ele>489.39999389648</ele>
        <time>2015-09-12T08:21:43.000Z</time>
      </trkpt>
      <trkpt lat="47.40592" lon="4.91985">
        <ele>490</ele>
        <time>2015-09-12T08:21:46.000Z</time>
      </trkpt>
      <trkpt lat="47.4059" lon="4.91989">
        <ele>491.20001220703</ele>
        <time>2015-09-12T08:21:51.000Z</time>
      </trkpt>
      <trkpt lat="47.4059" lon="4.9199">
        <ele>491.39999389648</ele>
        <time>2015-09-12T08:21:53.000Z</time>
      </trkpt>
      <trkpt lat="47.40589" lon="4.91993">
        <ele>492</ele>
        <time>2015-09-12T08:21:56.000Z</time>
      </trkpt>
      <trkpt lat="47.40587" lon="4.91997">
        <ele>493</ele>
        <time>2015-09-12T08:22:01.000Z</time>
      </trkpt>
      <trkpt lat="47.40586" lon="4.92002">
        <ele>493.60000610352</ele>
        <time>2015-09-12T08:22:05.000Z</time>
      </trkpt>
      <trkpt lat="47.40586" lon="4.92004">
        <ele>494</ele>
        <time>2015-09-12T08:22:07.000Z</time>
      </trkpt>
      <trkpt lat="47.40584" lon="4.9201">
        <ele>495.20001220703</ele>
        <time>2015-09-12T08:22:13.000Z</time>
      </trkpt>
      <trkpt lat="47.40581" lon="4.92015">
        <ele>495.60000610352</ele>
        <time>2015-09-12T08:22:17.000Z</time>
      </trkpt>
      <trkpt lat="47.40578" lon="4.92021">
        <ele>496.20001220703</ele>
        <time>2015-09-12T08:22:22.000Z</time>
      </trkpt>
      <trkpt lat="47.40574" lon="4.92027">
        <ele>497.20001220703</ele>
        <time>2015-09-12T08:22:27.000Z</time>
      </trkpt>
      <trkpt lat="47.40574" lon="4.92028">
        <ele>497.39999389648</ele>
        <time>2015-09-12T08:22:28.000Z</time>
      </trkpt>
      <trkpt lat="47.40574" lon="4.92031">
        <ele>497</ele>
        <time>2015-09-12T08:22:32.000Z</time>
      </trkpt>
      <trkpt lat="47.40575" lon="4.92031">
        <ele>497.20001220703</ele>
        <time>2015-09-12T08:22:46.000Z</time>
      </trkpt>
      <trkpt lat="47.40574" lon="4.92031">
        <ele>496.79998779297</ele>
        <time>2015-09-12T08:23:00.000Z</time>
      </trkpt>
      <trkpt lat="47.40574" lon="4.92031">
        <ele>497</ele>
        <time>2015-09-12T08:23:20.000Z</time>
      </trkpt>
      <trkpt lat="47.40574" lon="4.92031">
        <ele>496.79998779297</ele>
        <time>2015-09-12T08:23:39.000Z</time>
      </trkpt>
      <trkpt lat="47.40574" lon="4.92032">
        <ele>496</ele>
        <time>2015-09-12T08:23:56.000Z</time>
      </trkpt>
      <trkpt lat="47.40575" lon="4.92033">
        <ele>496.20001220703</ele>
        <time>2015-09-12T08:24:29.000Z</time>
      </trkpt>
      <trkpt lat="47.40574" lon="4.92033">
        <ele>496.39999389648</ele>
        <time>2015-09-12T08:24:59.000Z</time>
      </trkpt>
      <trkpt lat="47.40574" lon="4.92033">
        <ele>497</ele>
        <time>2015-09-12T08:25:16.000Z</time>
      </trkpt>
      <trkpt lat="47.4058" lon="4.92047">
        <ele>496</ele>
        <time>2015-09-12T08:26:19.000Z</time>
      </trkpt>
      <trkpt lat="47.40583" lon="4.92056">
        <ele>496.79998779297</ele>
        <time>2015-09-12T08:26:22.000Z</time>
      </trkpt>
      <trkpt lat="47.4059" lon="4.92071">
        <ele>496.79998779297</ele>
        <time>2015-09-12T08:26:26.000Z</time>
      </trkpt>
      <trkpt lat="47.40603" lon="4.92101">
        <ele>496</ele>
        <time>2015-09-12T08:26:33.000Z</time>
      </trkpt>
      <trkpt lat="47.40621" lon="4.9214">
        <ele>496.60000610352</ele>
        <time>2015-09-12T08:26:42.000Z</time>
      </trkpt>
      <trkpt lat="47.40639" lon="4.92179">
        <ele>497</ele>
        <time>2015-09-12T08:26:51.000Z</time>
      </trkpt>
      <trkpt lat="47.40643" lon="4.92199">
        <ele>496.79998779297</ele>
        <time>2015-09-12T08:26:56.000Z</time>
      </trkpt>
      <trkpt lat="47.40642" lon="4.92201">
        <ele>497</ele>
        <time>2015-09-12T08:26:57.000Z</time>
      </trkpt>
      <trkpt lat="47.40639" lon="4.92207">
        <ele>497.60000610352</ele>
        <time>2015-09-12T08:27:00.000Z</time>
      </trkpt>
      <trkpt lat="47.40638" lon="4.92208">
        <ele>497.79998779297</ele>
        <time>2015-09-12T08:27:01.000Z</time>
      </trkpt>
      <trkpt lat="47.40636" lon="4.9221">
        <ele>497.79998779297</ele>
        <time>2015-09-12T08:27:02.000Z</time>
      </trkpt>
      <trkpt lat="47.40629" lon="4.92224">
        <ele>498.20001220703</ele>
        <time>2015-09-12T08:27:09.000Z</time>
      </trkpt>
      <trkpt lat="47.40625" lon="4.9223">
        <ele>498.79998779297</ele>
        <time>2015-09-12T08:27:12.000Z</time>
      </trkpt>
      <trkpt lat="47.40618" lon="4.92241">
        <ele>499.20001220703</ele>
        <time>2015-09-12T08:27:17.000Z</time>
      </trkpt>
      <trkpt lat="47.40605" lon="4.92262">
        <ele>499.60000610352</ele>
        <time>2015-09-12T08:27:25.000Z</time>
      </trkpt>
      <trkpt lat="47.40604" lon="4.92264">
        <ele>499.79998779297</ele>
        <time>2015-09-12T08:27:26.000Z</time>
      </trkpt>
      <trkpt lat="47.40593" lon="4.92283">
        <ele>500.79998779297</ele>
        <time>2015-09-12T08:27:32.000Z</time>
      </trkpt>
      <trkpt lat="47.40589" lon="4.92289">
        <ele>501.20001220703</ele>
        <time>2015-09-12T08:27:34.000Z</time>
      </trkpt>
      <trkpt lat="47.40574" lon="4.92313">
        <ele>502.20001220703</ele>
        <time>2015-09-12T08:27:42.000Z</time>
      </trkpt>
      <trkpt lat="47.40572" lon="4.92316">
        <ele>502.60000610352</ele>
        <time>2015-09-12T08:27:43.000Z</time>
      </trkpt>
      <trkpt lat="47.40559" lon="4.92339">
        <ele>502.79998779297</ele>
        <time>2015-09-12T08:27:50.000Z</time>
      </trkpt>
      <trkpt lat="47.40545" lon="4.92363">
        <ele>503.39999389648</ele>
        <time>2015-09-12T08:27:57.000Z</time>
      </trkpt>
      <trkpt lat="47.4054" lon="4.92371">
        <ele>503.39999389648</ele>
        <time>2015-09-12T08:27:59.000Z</time>
      </trkpt>
      <trkpt lat="47.40515" lon="4.92409">
        <ele>504</ele>
        <time>2015-09-12T08:28:10.000Z</time>
      </trkpt>
      <trkpt lat="47.40505" lon="4.92424">
        <ele>504.39999389648</ele>
        <time>2015-09-12T08:28:15.000Z</time>
      </trkpt>
      <trkpt lat="47.40498" lon="4.92434">
        <ele>505.20001220703</ele>
        <time>2015-09-12T08:28:19.000Z</time>
      </trkpt>
      <trkpt lat="47.40495" lon="4.92439">
        <ele>505.60000610352</ele>
        <time>2015-09-12T08:28:21.000Z</time>
      </trkpt>
      <trkpt lat="47.40486" lon="4.92453">
        <ele>506</ele>
        <time>2015-09-12T08:28:27.000Z</time>
      </trkpt>
      <trkpt lat="47.40483" lon="4.92458">
        <ele>507</ele>
        <time>2015-09-12T08:28:29.000Z</time>
      </trkpt>
      <trkpt lat="47.40469" lon="4.92479">
        <ele>507.60000610352</ele>
        <time>2015-09-12T08:28:37.000Z</time>
      </trkpt>
      <trkpt lat="47.40462" lon="4.9249">
        <ele>508</ele>
        <time>2015-09-12T08:28:42.000Z</time>
      </trkpt>
      <trkpt lat="47.40458" lon="4.92496">
        <ele>508.20001220703</ele>
        <time>2015-09-12T08:28:45.000Z</time>
      </trkpt>
      <trkpt lat="47.40453" lon="4.92503">
        <ele>509</ele>
        <time>2015-09-12T08:28:48.000Z</time>
      </trkpt>
      <trkpt lat="47.40445" lon="4.92518">
        <ele>509.39999389648</ele>
        <time>2015-09-12T08:28:54.000Z</time>
      </trkpt>
      <trkpt lat="47.4044" lon="4.92524">
        <ele>510.79998779297</ele>
        <time>2015-09-12T08:28:57.000Z</time>
      </trkpt>
      <trkpt lat="47.40429" lon="4.92542">
        <ele>511.39999389648</ele>
        <time>2015-09-12T08:29:05.000Z</time>
      </trkpt>
      <trkpt lat="47.40422" lon="4.92554">
        <ele>512.20001220703</ele>
        <time>2015-09-12T08:29:10.000Z</time>
      </trkpt>
      <trkpt lat="47.40417" lon="4.92563">
        <ele>512.79998779297</ele>
        <time>2015-09-12T08:29:14.000Z</time>
      </trkpt>
      <trkpt lat="47.4041" lon="4.92575">
        <ele>513.20001220703</ele>
        <time>2015-09-12T08:29:20.000Z</time>
      </trkpt>
      <trkpt lat="47.40403" lon="4.92587">
        <ele>514.20001220703</ele>
        <time>2015-09-12T08:29:26.000Z</time>
      </trkpt>
      <trkpt lat="47.40397" lon="4.92594">
        <ele>515</ele>
        <time>2015-09-12T08:29:30.000Z</time>
      </trkpt>
      <trkpt lat="47.40391" lon="4.92604">
        <ele>515.40002441406</ele>
        <time>2015-09-12T08:29:35.000Z</time>
      </trkpt>
      <trkpt lat="47.40384" lon="4.92614">
        <ele>516.40002441406</ele>
        <time>2015-09-12T08:29:40.000Z</time>
      </trkpt>
      <trkpt lat="47.40373" lon="4.9263">
        <ele>517.59997558594</ele>
        <time>2015-09-12T08:29:49.000Z</time>
      </trkpt>
      <trkpt lat="47.4036" lon="4.92649">
        <ele>518.79998779297</ele>
        <time>2015-09-12T08:29:59.000Z</time>
      </trkpt>
      <trkpt lat="47.40356" lon="4.92655">
        <ele>519.40002441406</ele>
        <time>2015-09-12T08:30:02.000Z</time>
      </trkpt>
      <trkpt lat="47.40347" lon="4.92668">
        <ele>519.79998779297</ele>
        <time>2015-09-12T08:30:09.000Z</time>
      </trkpt>
      <trkpt lat="47.40343" lon="4.92676">
        <ele>520.79998779297</ele>
        <time>2015-09-12T08:30:13.000Z</time>
      </trkpt>
      <trkpt lat="47.4034" lon="4.92679">
        <ele>521</ele>
        <time>2015-09-12T08:30:15.000Z</time>
      </trkpt>
      <trkpt lat="47.40335" lon="4.92689">
        <ele>522.20001220703</ele>
        <time>2015-09-12T08:30:20.000Z</time>
      </trkpt>
      <trkpt lat="47.40332" lon="4.92693">
        <ele>522.59997558594</ele>
        <time>2015-09-12T08:30:22.000Z</time>
      </trkpt>
      <trkpt lat="47.40324" lon="4.92705">
        <ele>523.40002441406</ele>
        <time>2015-09-12T08:30:29.000Z</time>
      </trkpt>
      <trkpt lat="47.40322" lon="4.92709">
        <ele>523.79998779297</ele>
        <time>2015-09-12T08:30:31.000Z</time>
      </trkpt>
      <trkpt lat="47.40312" lon="4.92726">
        <ele>524.40002441406</ele>
        <time>2015-09-12T08:30:39.000Z</time>
      </trkpt>
      <trkpt lat="47.40306" lon="4.92735">
        <ele>524.59997558594</ele>
        <time>2015-09-12T08:30:43.000Z</time>
      </trkpt>
      <trkpt lat="47.40296" lon="4.92752">
        <ele>525.40002441406</ele>
        <time>2015-09-12T08:30:51.000Z</time>
      </trkpt>
      <trkpt lat="47.40294" lon="4.92754">
        <ele>525.79998779297</ele>
        <time>2015-09-12T08:30:52.000Z</time>
      </trkpt>
      <trkpt lat="47.40291" lon="4.92757">
        <ele>526.40002441406</ele>
        <time>2015-09-12T08:30:55.000Z</time>
      </trkpt>
      <trkpt lat="47.40287" lon="4.92757">
        <ele>526.59997558594</ele>
        <time>2015-09-12T08:30:58.000Z</time>
      </trkpt>
      <trkpt lat="47.40285" lon="4.92758">
        <ele>526.59997558594</ele>
        <time>2015-09-12T08:31:00.000Z</time>
      </trkpt>
      <trkpt lat="47.40287" lon="4.92762">
        <ele>526.40002441406</ele>
        <time>2015-09-12T08:31:02.000Z</time>
      </trkpt>
      <trkpt lat="47.40291" lon="4.92767">
        <ele>526.59997558594</ele>
        <time>2015-09-12T08:31:07.000Z</time>
      </trkpt>
      <trkpt lat="47.40293" lon="4.92766">
        <ele>526.79998779297</ele>
        <time>2015-09-12T08:31:12.000Z</time>
      </trkpt>
      <trkpt lat="47.40293" lon="4.92765">
        <ele>526.79998779297</ele>
        <time>2015-09-12T08:31:13.000Z</time>
      </trkpt>
      <trkpt lat="47.4029" lon="4.92762">
        <ele>526.79998779297</ele>
        <time>2015-09-12T08:31:19.000Z</time>
      </trkpt>
      <trkpt lat="47.40288" lon="4.92761">
        <ele>526.59997558594</ele>
        <time>2015-09-12T08:31:25.000Z</time>
      </trkpt>
      <trkpt lat="47.4029" lon="4.92765">
        <ele>526.59997558594</ele>
        <time>2015-09-12T08:31:32.000Z</time>
      </trkpt>
      <trkpt lat="47.4029" lon="4.92766">
        <ele>526.79998779297</ele>
        <time>2015-09-12T08:31:34.000Z</time>
      </trkpt>
      <trkpt lat="47.40285" lon="4.92759">
        <ele>526.59997558594</ele>
        <time>2015-09-12T08:32:08.000Z</time>
      </trkpt>
      <trkpt lat="47.40284" lon="4.92757">
        <ele>526.59997558594</ele>
        <time>2015-09-12T08:32:09.000Z</time>
      </trkpt>
      <trkpt lat="47.40277" lon="4.9275">
        <ele>526.59997558594</ele>
        <time>2015-09-12T08:32:12.000Z</time>
      </trkpt>
      <trkpt lat="47.40272" lon="4.92743">
        <ele>526.40002441406</ele>
        <time>2015-09-12T08:32:14.000Z</time>
      </trkpt>
      <trkpt lat="47.40265" lon="4.92736">
        <ele>526.20001220703</ele>
        <time>2015-09-12T08:32:17.000Z</time>
      </trkpt>
      <trkpt lat="47.40262" lon="4.92738">
        <ele>526.20001220703</ele>
        <time>2015-09-12T08:32:18.000Z</time>
      </trkpt>
      <trkpt lat="47.40254" lon="4.92753">
        <ele>526.59997558594</ele>
        <time>2015-09-12T08:32:23.000Z</time>
      </trkpt>
      <trkpt lat="47.40241" lon="4.92783">
        <ele>527.20001220703</ele>
        <time>2015-09-12T08:32:32.000Z</time>
      </trkpt>
      <trkpt lat="47.40237" lon="4.9279">
        <ele>527.59997558594</ele>
        <time>2015-09-12T08:32:34.000Z</time>
      </trkpt>
      <trkpt lat="47.40229" lon="4.92807">
        <ele>527.79998779297</ele>
        <time>2015-09-12T08:32:39.000Z</time>
      </trkpt>
      <trkpt lat="47.40218" lon="4.92828">
        <ele>528</ele>
        <time>2015-09-12T08:32:45.000Z</time>
      </trkpt>
      <trkpt lat="47.40214" lon="4.92835">
        <ele>528.20001220703</ele>
        <time>2015-09-12T08:32:47.000Z</time>
      </trkpt>
      <trkpt lat="47.402" lon="4.92862">
        <ele>528.59997558594</ele>
        <time>2015-09-12T08:32:54.000Z</time>
      </trkpt>
      <trkpt lat="47.40183" lon="4.9289">
        <ele>528.40002441406</ele>
        <time>2015-09-12T08:33:01.000Z</time>
      </trkpt>
      <trkpt lat="47.40181" lon="4.92894">
        <ele>528.79998779297</ele>
        <time>2015-09-12T08:33:02.000Z</time>
      </trkpt>
      <trkpt lat="47.40171" lon="4.92912">
        <ele>527.59997558594</ele>
        <time>2015-09-12T08:33:06.000Z</time>
      </trkpt>
      <trkpt lat="47.40163" lon="4.92926">
        <ele>527.59997558594</ele>
        <time>2015-09-12T08:33:09.000Z</time>
      </trkpt>
      <trkpt lat="47.4016" lon="4.92932">
        <ele>527.59997558594</ele>
        <time>2015-09-12T08:33:10.000Z</time>
      </trkpt>
      <trkpt lat="47.40153" lon="4.92948">
        <ele>527.40002441406</ele>
        <time>2015-09-12T08:33:13.000Z</time>
      </trkpt>
      <trkpt lat="47.40148" lon="4.92957">
        <ele>526.59997558594</ele>
        <time>2015-09-12T08:33:15.000Z</time>
      </trkpt>
      <trkpt lat="47.4012" lon="4.93005">
        <ele>527</ele>
        <time>2015-09-12T08:33:25.000Z</time>
      </trkpt>
      <trkpt lat="47.40099" lon="4.93039">
        <ele>526.59997558594</ele>
        <time>2015-09-12T08:33:33.000Z</time>
      </trkpt>
      <trkpt lat="47.40076" lon="4.93079">
        <ele>527.40002441406</ele>
        <time>2015-09-12T08:33:43.000Z</time>
      </trkpt>
      <trkpt lat="47.40071" lon="4.93086">
        <ele>527.59997558594</ele>
        <time>2015-09-12T08:33:45.000Z</time>
      </trkpt>
      <trkpt lat="47.40056" lon="4.9311">
        <ele>528</ele>
        <time>2015-09-12T08:33:52.000Z</time>
      </trkpt>
      <trkpt lat="47.40041" lon="4.93133">
        <ele>528.20001220703</ele>
        <time>2015-09-12T08:33:59.000Z</time>
      </trkpt>
      <trkpt lat="47.40028" lon="4.93157">
        <ele>528</ele>
        <time>2015-09-12T08:34:06.000Z</time>
      </trkpt>
      <trkpt lat="47.40022" lon="4.93171">
        <ele>528.79998779297</ele>
        <time>2015-09-12T08:34:10.000Z</time>
      </trkpt>
      <trkpt lat="47.40023" lon="4.93175">
        <ele>528.79998779297</ele>
        <time>2015-09-12T08:34:11.000Z</time>
      </trkpt>
      <trkpt lat="47.40027" lon="4.93184">
        <ele>527.79998779297</ele>
        <time>2015-09-12T08:34:13.000Z</time>
      </trkpt>
      <trkpt lat="47.40034" lon="4.93199">
        <ele>527.79998779297</ele>
        <time>2015-09-12T08:34:16.000Z</time>
      </trkpt>
      <trkpt lat="47.40047" lon="4.93227">
        <ele>526.79998779297</ele>
        <time>2015-09-12T08:34:21.000Z</time>
      </trkpt>
      <trkpt lat="47.40054" lon="4.93241">
        <ele>526.20001220703</ele>
        <time>2015-09-12T08:34:23.000Z</time>
      </trkpt>
      <trkpt lat="47.40057" lon="4.93249">
        <ele>525.40002441406</ele>
        <time>2015-09-12T08:34:24.000Z</time>
      </trkpt>
      <trkpt lat="47.40067" lon="4.93274">
        <ele>524.20001220703</ele>
        <time>2015-09-12T08:34:27.000Z</time>
      </trkpt>
      <trkpt lat="47.40073" lon="4.93291">
        <ele>524.20001220703</ele>
        <time>2015-09-12T08:34:29.000Z</time>
      </trkpt>
      <trkpt lat="47.40095" lon="4.93344">
        <ele>523.20001220703</ele>
        <time>2015-09-12T08:34:36.000Z</time>
      </trkpt>
      <trkpt lat="47.40098" lon="4.93351">
        <ele>523.20001220703</ele>
        <time>2015-09-12T08:34:37.000Z</time>
      </trkpt>
      <trkpt lat="47.40105" lon="4.93364">
        <ele>521.40002441406</ele>
        <time>2015-09-12T08:34:39.000Z</time>
      </trkpt>
      <trkpt lat="47.40118" lon="4.93392">
        <ele>521.59997558594</ele>
        <time>2015-09-12T08:34:43.000Z</time>
      </trkpt>
      <trkpt lat="47.40129" lon="4.93422">
        <ele>520</ele>
        <time>2015-09-12T08:34:47.000Z</time>
      </trkpt>
      <trkpt lat="47.40138" lon="4.93443">
        <ele>519</ele>
        <time>2015-09-12T08:34:50.000Z</time>
      </trkpt>
      <trkpt lat="47.40147" lon="4.93463">
        <ele>519</ele>
        <time>2015-09-12T08:34:53.000Z</time>
      </trkpt>
      <trkpt lat="47.4015" lon="4.9348">
        <ele>518.79998779297</ele>
        <time>2015-09-12T08:34:55.000Z</time>
      </trkpt>
      <trkpt lat="47.40154" lon="4.93504">
        <ele>518</ele>
        <time>2015-09-12T08:34:58.000Z</time>
      </trkpt>
      <trkpt lat="47.40155" lon="4.9351">
        <ele>517.20001220703</ele>
        <time>2015-09-12T08:34:59.000Z</time>
      </trkpt>
      <trkpt lat="47.40154" lon="4.93518">
        <ele>517</ele>
        <time>2015-09-12T08:35:00.000Z</time>
      </trkpt>
      <trkpt lat="47.40148" lon="4.93541">
        <ele>518.59997558594</ele>
        <time>2015-09-12T08:35:04.000Z</time>
      </trkpt>
      <trkpt lat="47.40145" lon="4.93545">
        <ele>518.59997558594</ele>
        <time>2015-09-12T08:35:05.000Z</time>
      </trkpt>
      <trkpt lat="47.40143" lon="4.9355">
        <ele>518.40002441406</ele>
        <time>2015-09-12T08:35:06.000Z</time>
      </trkpt>
      <trkpt lat="47.40124" lon="4.93587">
        <ele>517.59997558594</ele>
        <time>2015-09-12T08:35:14.000Z</time>
      </trkpt>
      <trkpt lat="47.40104" lon="4.93624">
        <ele>518.59997558594</ele>
        <time>2015-09-12T08:35:23.000Z</time>
      </trkpt>
      <trkpt lat="47.40093" lon="4.93638">
        <ele>517.79998779297</ele>
        <time>2015-09-12T08:35:28.000Z</time>
      </trkpt>
      <trkpt lat="47.40091" lon="4.93638">
        <ele>517.40002441406</ele>
        <time>2015-09-12T08:35:29.000Z</time>
      </trkpt>
      <trkpt lat="47.40079" lon="4.93629">
        <ele>518</ele>
        <time>2015-09-12T08:35:35.000Z</time>
      </trkpt>
      <trkpt lat="47.40077" lon="4.93627">
        <ele>518.59997558594</ele>
        <time>2015-09-12T08:35:36.000Z</time>
      </trkpt>
      <trkpt lat="47.40064" lon="4.93621">
        <ele>519.59997558594</ele>
        <time>2015-09-12T08:35:44.000Z</time>
      </trkpt>
      <trkpt lat="47.40051" lon="4.93617">
        <ele>520.59997558594</ele>
        <time>2015-09-12T08:35:51.000Z</time>
      </trkpt>
      <trkpt lat="47.40048" lon="4.93617">
        <ele>521.20001220703</ele>
        <time>2015-09-12T08:35:53.000Z</time>
      </trkpt>
      <trkpt lat="47.40044" lon="4.93615">
        <ele>521.79998779297</ele>
        <time>2015-09-12T08:35:56.000Z</time>
      </trkpt>
      <trkpt lat="47.40039" lon="4.93613">
        <ele>522.59997558594</ele>
        <time>2015-09-12T08:36:00.000Z</time>
      </trkpt>
      <trkpt lat="47.40038" lon="4.93612">
        <ele>523.20001220703</ele>
        <time>2015-09-12T08:36:01.000Z</time>
      </trkpt>
      <trkpt lat="47.40032" lon="4.93612">
        <ele>524.20001220703</ele>
        <time>2015-09-12T08:36:05.000Z</time>
      </trkpt>
      <trkpt lat="47.40027" lon="4.93612">
        <ele>525</ele>
        <time>2015-09-12T08:36:08.000Z</time>
      </trkpt>
      <trkpt lat="47.40024" lon="4.9361">
        <ele>525.20001220703</ele>
        <time>2015-09-12T08:36:11.000Z</time>
      </trkpt>
      <trkpt lat="47.40018" lon="4.93605">
        <ele>525.79998779297</ele>
        <time>2015-09-12T08:36:15.000Z</time>
      </trkpt>
      <trkpt lat="47.40012" lon="4.93602">
        <ele>526.59997558594</ele>
        <time>2015-09-12T08:36:19.000Z</time>
      </trkpt>
      <trkpt lat="47.40006" lon="4.93599">
        <ele>527.59997558594</ele>
        <time>2015-09-12T08:36:23.000Z</time>
      </trkpt>
      <trkpt lat="47.40004" lon="4.93599">
        <ele>527.79998779297</ele>
        <time>2015-09-12T08:36:24.000Z</time>
      </trkpt>
      <trkpt lat="47.39993" lon="4.93595">
        <ele>529</ele>
        <time>2015-09-12T08:36:31.000Z</time>
      </trkpt>
      <trkpt lat="47.39989" lon="4.93592">
        <ele>529.79998779297</ele>
        <time>2015-09-12T08:36:34.000Z</time>
      </trkpt>
      <trkpt lat="47.39981" lon="4.93587">
        <ele>530</ele>
        <time>2015-09-12T08:36:39.000Z</time>
      </trkpt>
      <trkpt lat="47.39974" lon="4.93585">
        <ele>530.59997558594</ele>
        <time>2015-09-12T08:36:43.000Z</time>
      </trkpt>
      <trkpt lat="47.39963" lon="4.93582">
        <ele>531.40002441406</ele>
        <time>2015-09-12T08:36:49.000Z</time>
      </trkpt>
      <trkpt lat="47.39959" lon="4.93581">
        <ele>531.59997558594</ele>
        <time>2015-09-12T08:36:51.000Z</time>
      </trkpt>
      <trkpt lat="47.39947" lon="4.93571">
        <ele>532.59997558594</ele>
        <time>2015-09-12T08:36:58.000Z</time>
      </trkpt>
      <trkpt lat="47.39937" lon="4.93559">
        <ele>533</ele>
        <time>2015-09-12T08:37:06.000Z</time>
      </trkpt>
      <trkpt lat="47.39929" lon="4.93548">
        <ele>533.59997558594</ele>
        <time>2015-09-12T08:37:14.000Z</time>
      </trkpt>
      <trkpt lat="47.39927" lon="4.93545">
        <ele>533.79998779297</ele>
        <time>2015-09-12T08:37:16.000Z</time>
      </trkpt>
      <trkpt lat="47.39923" lon="4.93539">
        <ele>534</ele>
        <time>2015-09-12T08:37:20.000Z</time>
      </trkpt>
      <trkpt lat="47.39921" lon="4.93538">
        <ele>534.20001220703</ele>
        <time>2015-09-12T08:37:22.000Z</time>
      </trkpt>
      <trkpt lat="47.39918" lon="4.93539">
        <ele>534.40002441406</ele>
        <time>2015-09-12T08:37:25.000Z</time>
      </trkpt>
      <trkpt lat="47.39914" lon="4.9354">
        <ele>534.20001220703</ele>
        <time>2015-09-12T08:37:28.000Z</time>
      </trkpt>
      <trkpt lat="47.39913" lon="4.93539">
        <ele>534.20001220703</ele>
        <time>2015-09-12T08:37:29.000Z</time>
      </trkpt>
      <trkpt lat="47.39911" lon="4.93539">
        <ele>534.40002441406</ele>
        <time>2015-09-12T08:37:31.000Z</time>
      </trkpt>
      <trkpt lat="47.3991" lon="4.93539">
        <ele>534.40002441406</ele>
        <time>2015-09-12T08:37:34.000Z</time>
      </trkpt>
      <trkpt lat="47.39904" lon="4.93543">
        <ele>534.20001220703</ele>
        <time>2015-09-12T08:37:42.000Z</time>
      </trkpt>
      <trkpt lat="47.39895" lon="4.93547">
        <ele>534.20001220703</ele>
        <time>2015-09-12T08:37:50.000Z</time>
      </trkpt>
      <trkpt lat="47.39879" lon="4.93554">
        <ele>534.20001220703</ele>
        <time>2015-09-12T08:37:56.000Z</time>
      </trkpt>
      <trkpt lat="47.39856" lon="4.93563">
        <ele>533.59997558594</ele>
        <time>2015-09-12T08:38:01.000Z</time>
      </trkpt>
      <trkpt lat="47.39835" lon="4.93575">
        <ele>532.40002441406</ele>
        <time>2015-09-12T08:38:05.000Z</time>
      </trkpt>
      <trkpt lat="47.39823" lon="4.93582">
        <ele>533.20001220703</ele>
        <time>2015-09-12T08:38:07.000Z</time>
      </trkpt>
      <trkpt lat="47.39789" lon="4.9361">
        <ele>531.40002441406</ele>
        <time>2015-09-12T08:38:14.000Z</time>
      </trkpt>
      <trkpt lat="47.39785" lon="4.93613">
        <ele>530.40002441406</ele>
        <time>2015-09-12T08:38:15.000Z</time>
      </trkpt>
      <trkpt lat="47.39779" lon="4.93614">
        <ele>530.20001220703</ele>
        <time>2015-09-12T08:38:16.000Z</time>
      </trkpt>
      <trkpt lat="47.39775" lon="4.93613">
        <ele>530.40002441406</ele>
        <time>2015-09-12T08:38:17.000Z</time>
      </trkpt>
      <trkpt lat="47.39762" lon="4.93601">
        <ele>529.20001220703</ele>
        <time>2015-09-12T08:38:20.000Z</time>
      </trkpt>
      <trkpt lat="47.39758" lon="4.93597">
        <ele>529.20001220703</ele>
        <time>2015-09-12T08:38:21.000Z</time>
      </trkpt>
      <trkpt lat="47.39733" lon="4.93595">
        <ele>528.40002441406</ele>
        <time>2015-09-12T08:38:25.000Z</time>
      </trkpt>
      <trkpt lat="47.39727" lon="4.93597">
        <ele>527.20001220703</ele>
        <time>2015-09-12T08:38:26.000Z</time>
      </trkpt>
      <trkpt lat="47.39696" lon="4.93605">
        <ele>525.79998779297</ele>
        <time>2015-09-12T08:38:31.000Z</time>
      </trkpt>
      <trkpt lat="47.39689" lon="4.93606">
        <ele>525.20001220703</ele>
        <time>2015-09-12T08:38:32.000Z</time>
      </trkpt>
      <trkpt lat="47.39671" lon="4.93613">
        <ele>526.59997558594</ele>
        <time>2015-09-12T08:38:35.000Z</time>
      </trkpt>
      <trkpt lat="47.3966" lon="4.93623">
        <ele>525.40002441406</ele>
        <time>2015-09-12T08:38:37.000Z</time>
      </trkpt>
      <trkpt lat="47.39654" lon="4.93628">
        <ele>524.59997558594</ele>
        <time>2015-09-12T08:38:38.000Z</time>
      </trkpt>
      <trkpt lat="47.39642" lon="4.93638">
        <ele>524</ele>
        <time>2015-09-12T08:38:40.000Z</time>
      </trkpt>
      <trkpt lat="47.39636" lon="4.93642">
        <ele>523.40002441406</ele>
        <time>2015-09-12T08:38:41.000Z</time>
      </trkpt>
      <trkpt lat="47.39618" lon="4.93652">
        <ele>524.59997558594</ele>
        <time>2015-09-12T08:38:44.000Z</time>
      </trkpt>
      <trkpt lat="47.3959" lon="4.93661">
        <ele>523.79998779297</ele>
        <time>2015-09-12T08:38:49.000Z</time>
      </trkpt>
      <trkpt lat="47.39585" lon="4.93663">
        <ele>523.79998779297</ele>
        <time>2015-09-12T08:38:50.000Z</time>
      </trkpt>
      <trkpt lat="47.39569" lon="4.93672">
        <ele>523.79998779297</ele>
        <time>2015-09-12T08:38:54.000Z</time>
      </trkpt>
      <trkpt lat="47.39562" lon="4.93678">
        <ele>523</ele>
        <time>2015-09-12T08:38:56.000Z</time>
      </trkpt>
      <trkpt lat="47.39548" lon="4.93695">
        <ele>522.79998779297</ele>
        <time>2015-09-12T08:39:00.000Z</time>
      </trkpt>
      <trkpt lat="47.39523" lon="4.93729">
        <ele>522</ele>
        <time>2015-09-12T08:39:06.000Z</time>
      </trkpt>
      <trkpt lat="47.39513" lon="4.9374">
        <ele>520.59997558594</ele>
        <time>2015-09-12T08:39:08.000Z</time>
      </trkpt>
      <trkpt lat="47.39486" lon="4.93766">
        <ele>520.20001220703</ele>
        <time>2015-09-12T08:39:13.000Z</time>
      </trkpt>
      <trkpt lat="47.39475" lon="4.93774">
        <ele>519</ele>
        <time>2015-09-12T08:39:15.000Z</time>
      </trkpt>
      <trkpt lat="47.39452" lon="4.93789">
        <ele>518.20001220703</ele>
        <time>2015-09-12T08:39:19.000Z</time>
      </trkpt>
      <trkpt lat="47.39443" lon="4.93796">
        <ele>516.79998779297</ele>
        <time>2015-09-12T08:39:21.000Z</time>
      </trkpt>
      <trkpt lat="47.39433" lon="4.93804">
        <ele>518</ele>
        <time>2015-09-12T08:39:23.000Z</time>
      </trkpt>
      <trkpt lat="47.39428" lon="4.93808">
        <ele>517.40002441406</ele>
        <time>2015-09-12T08:39:24.000Z</time>
      </trkpt>
      <trkpt lat="47.39423" lon="4.93812">
        <ele>516.40002441406</ele>
        <time>2015-09-12T08:39:25.000Z</time>
      </trkpt>
      <trkpt lat="47.39406" lon="4.93825">
        <ele>514.79998779297</ele>
        <time>2015-09-12T08:39:28.000Z</time>
      </trkpt>
      <trkpt lat="47.39394" lon="4.93835">
        <ele>514.59997558594</ele>
        <time>2015-09-12T08:39:30.000Z</time>
      </trkpt>
      <trkpt lat="47.39383" lon="4.93846">
        <ele>513.40002441406</ele>
        <time>2015-09-12T08:39:32.000Z</time>
      </trkpt>
      <trkpt lat="47.39377" lon="4.93851">
        <ele>512.20001220703</ele>
        <time>2015-09-12T08:39:33.000Z</time>
      </trkpt>
      <trkpt lat="47.3936" lon="4.93868">
        <ele>512</ele>
        <time>2015-09-12T08:39:36.000Z</time>
      </trkpt>
      <trkpt lat="47.39354" lon="4.93872">
        <ele>511.60000610352</ele>
        <time>2015-09-12T08:39:37.000Z</time>
      </trkpt>
      <trkpt lat="47.39348" lon="4.93875">
        <ele>510.20001220703</ele>
        <time>2015-09-12T08:39:38.000Z</time>
      </trkpt>
      <trkpt lat="47.39333" lon="4.93883">
        <ele>508.39999389648</ele>
        <time>2015-09-12T08:39:40.000Z</time>
      </trkpt>
      <trkpt lat="47.39326" lon="4.93887">
        <ele>508</ele>
        <time>2015-09-12T08:39:41.000Z</time>
      </trkpt>
      <trkpt lat="47.39303" lon="4.93905">
        <ele>506</ele>
        <time>2015-09-12T08:39:44.000Z</time>
      </trkpt>
      <trkpt lat="47.39295" lon="4.93912">
        <ele>504.60000610352</ele>
        <time>2015-09-12T08:39:45.000Z</time>
      </trkpt>
      <trkpt lat="47.39287" lon="4.9392">
        <ele>504</ele>
        <time>2015-09-12T08:39:46.000Z</time>
      </trkpt>
      <trkpt lat="47.3928" lon="4.93927">
        <ele>503.20001220703</ele>
        <time>2015-09-12T08:39:47.000Z</time>
      </trkpt>
      <trkpt lat="47.39249" lon="4.93954">
        <ele>501.60000610352</ele>
        <time>2015-09-12T08:39:51.000Z</time>
      </trkpt>
      <trkpt lat="47.39233" lon="4.93967">
        <ele>499.79998779297</ele>
        <time>2015-09-12T08:39:53.000Z</time>
      </trkpt>
      <trkpt lat="47.39225" lon="4.93974">
        <ele>499</ele>
        <time>2015-09-12T08:39:54.000Z</time>
      </trkpt>
      <trkpt lat="47.39217" lon="4.9398">
        <ele>498.39999389648</ele>
        <time>2015-09-12T08:39:55.000Z</time>
      </trkpt>
      <trkpt lat="47.39195" lon="4.93996">
        <ele>497.20001220703</ele>
        <time>2015-09-12T08:39:58.000Z</time>
      </trkpt>
      <trkpt lat="47.39183" lon="4.94004">
        <ele>496.20001220703</ele>
        <time>2015-09-12T08:40:00.000Z</time>
      </trkpt>
      <trkpt lat="47.39174" lon="4.94009">
        <ele>495</ele>
        <time>2015-09-12T08:40:02.000Z</time>
      </trkpt>
      <trkpt lat="47.39168" lon="4.94013">
        <ele>494.60000610352</ele>
        <time>2015-09-12T08:40:04.000Z</time>
      </trkpt>
      <trkpt lat="47.39163" lon="4.94022">
        <ele>494.20001220703</ele>
        <time>2015-09-12T08:40:08.000Z</time>
      </trkpt>
      <trkpt lat="47.39159" lon="4.94022">
        <ele>494.60000610352</ele>
        <time>2015-09-12T08:40:13.000Z</time>
      </trkpt>
      <trkpt lat="47.39158" lon="4.94022">
        <ele>494.39999389648</ele>
        <time>2015-09-12T08:40:26.000Z</time>
      </trkpt>
      <trkpt lat="47.39158" lon="4.94021">
        <ele>494.20001220703</ele>
        <time>2015-09-12T08:40:29.000Z</time>
      </trkpt>
      <trkpt lat="47.39158" lon="4.94021">
        <ele>494</ele>
        <time>2015-09-12T08:40:33.000Z</time>
      </trkpt>
      <trkpt lat="47.39157" lon="4.94021">
        <ele>494</ele>
        <time>2015-09-12T08:40:34.000Z</time>
      </trkpt>
      <trkpt lat="47.39147" lon="4.94018">
        <ele>494</ele>
        <time>2015-09-12T08:40:38.000Z</time>
      </trkpt>
      <trkpt lat="47.39144" lon="4.94017">
        <ele>494</ele>
        <time>2015-09-12T08:40:39.000Z</time>
      </trkpt>
      <trkpt lat="47.39136" lon="4.94016">
        <ele>493.60000610352</ele>
        <time>2015-09-12T08:40:41.000Z</time>
      </trkpt>
      <trkpt lat="47.39122" lon="4.94016">
        <ele>493.20001220703</ele>
        <time>2015-09-12T08:40:44.000Z</time>
      </trkpt>
      <trkpt lat="47.39118" lon="4.94016">
        <ele>493.20001220703</ele>
        <time>2015-09-12T08:40:45.000Z</time>
      </trkpt>
      <trkpt lat="47.39106" lon="4.94019">
        <ele>492.39999389648</ele>
        <time>2015-09-12T08:40:48.000Z</time>
      </trkpt>
      <trkpt lat="47.39104" lon="4.94023">
        <ele>492.20001220703</ele>
        <time>2015-09-12T08:40:49.000Z</time>
      </trkpt>
      <trkpt lat="47.39103" lon="4.94029">
        <ele>492</ele>
        <time>2015-09-12T08:40:50.000Z</time>
      </trkpt>
      <trkpt lat="47.39101" lon="4.94041">
        <ele>491.60000610352</ele>
        <time>2015-09-12T08:40:52.000Z</time>
      </trkpt>
      <trkpt lat="47.39099" lon="4.94046">
        <ele>491.39999389648</ele>
        <time>2015-09-12T08:40:53.000Z</time>
      </trkpt>
      <trkpt lat="47.39083" lon="4.94061">
        <ele>491.20001220703</ele>
        <time>2015-09-12T08:40:57.000Z</time>
      </trkpt>
      <trkpt lat="47.39074" lon="4.94066">
        <ele>491</ele>
        <time>2015-09-12T08:40:59.000Z</time>
      </trkpt>
      <trkpt lat="47.39064" lon="4.94071">
        <ele>490.79998779297</ele>
        <time>2015-09-12T08:41:01.000Z</time>
      </trkpt>
      <trkpt lat="47.39054" lon="4.94077">
        <ele>490.20001220703</ele>
        <time>2015-09-12T08:41:03.000Z</time>
      </trkpt>
      <trkpt lat="47.39043" lon="4.94083">
        <ele>489.79998779297</ele>
        <time>2015-09-12T08:41:05.000Z</time>
      </trkpt>
      <trkpt lat="47.39031" lon="4.94087">
        <ele>489.39999389648</ele>
        <time>2015-09-12T08:41:07.000Z</time>
      </trkpt>
      <trkpt lat="47.39026" lon="4.9409">
        <ele>489.20001220703</ele>
        <time>2015-09-12T08:41:08.000Z</time>
      </trkpt>
      <trkpt lat="47.39009" lon="4.94101">
        <ele>488.60000610352</ele>
        <time>2015-09-12T08:41:11.000Z</time>
      </trkpt>
      <trkpt lat="47.39002" lon="4.94115">
        <ele>487.79998779297</ele>
        <time>2015-09-12T08:41:13.000Z</time>
      </trkpt>
      <trkpt lat="47.38999" lon="4.94132">
        <ele>487.20001220703</ele>
        <time>2015-09-12T08:41:15.000Z</time>
      </trkpt>
      <trkpt lat="47.38994" lon="4.94149">
        <ele>486.60000610352</ele>
        <time>2015-09-12T08:41:17.000Z</time>
      </trkpt>
      <trkpt lat="47.38983" lon="4.94187">
        <ele>486.20001220703</ele>
        <time>2015-09-12T08:41:21.000Z</time>
      </trkpt>
      <trkpt lat="47.38979" lon="4.94195">
        <ele>486</ele>
        <time>2015-09-12T08:41:22.000Z</time>
      </trkpt>
      <trkpt lat="47.38958" lon="4.94222">
        <ele>485</ele>
        <time>2015-09-12T08:41:26.000Z</time>
      </trkpt>
      <trkpt lat="47.38944" lon="4.9423">
        <ele>484.20001220703</ele>
        <time>2015-09-12T08:41:28.000Z</time>
      </trkpt>
      <trkpt lat="47.3893" lon="4.94239">
        <ele>483.79998779297</ele>
        <time>2015-09-12T08:41:30.000Z</time>
      </trkpt>
      <trkpt lat="47.38924" lon="4.94244">
        <ele>483.60000610352</ele>
        <time>2015-09-12T08:41:31.000Z</time>
      </trkpt>
      <trkpt lat="47.38905" lon="4.94264">
        <ele>483.39999389648</ele>
        <time>2015-09-12T08:41:35.000Z</time>
      </trkpt>
      <trkpt lat="47.38895" lon="4.94273">
        <ele>482.79998779297</ele>
        <time>2015-09-12T08:41:37.000Z</time>
      </trkpt>
      <trkpt lat="47.38889" lon="4.94276">
        <ele>482.79998779297</ele>
        <time>2015-09-12T08:41:38.000Z</time>
      </trkpt>
      <trkpt lat="47.38884" lon="4.94277">
        <ele>482.60000610352</ele>
        <time>2015-09-12T08:41:39.000Z</time>
      </trkpt>
      <trkpt lat="47.38865" lon="4.94272">
        <ele>481.79998779297</ele>
        <time>2015-09-12T08:41:42.000Z</time>
      </trkpt>
      <trkpt lat="47.38859" lon="4.9427">
        <ele>481.60000610352</ele>
        <time>2015-09-12T08:41:43.000Z</time>
      </trkpt>
      <trkpt lat="47.38832" lon="4.94259">
        <ele>480.39999389648</ele>
        <time>2015-09-12T08:41:47.000Z</time>
      </trkpt>
      <trkpt lat="47.38811" lon="4.94251">
        <ele>479.20001220703</ele>
        <time>2015-09-12T08:41:50.000Z</time>
      </trkpt>
      <trkpt lat="47.38775" lon="4.94239">
        <ele>478</ele>
        <time>2015-09-12T08:41:55.000Z</time>
      </trkpt>
      <trkpt lat="47.38768" lon="4.94237">
        <ele>477.60000610352</ele>
        <time>2015-09-12T08:41:56.000Z</time>
      </trkpt>
      <trkpt lat="47.38762" lon="4.94237">
        <ele>477.39999389648</ele>
        <time>2015-09-12T08:41:57.000Z</time>
      </trkpt>
      <trkpt lat="47.3874" lon="4.94238">
        <ele>477</ele>
        <time>2015-09-12T08:42:00.000Z</time>
      </trkpt>
      <trkpt lat="47.38727" lon="4.9424">
        <ele>476.39999389648</ele>
        <time>2015-09-12T08:42:02.000Z</time>
      </trkpt>
      <trkpt lat="47.38706" lon="4.94243">
        <ele>476</ele>
        <time>2015-09-12T08:42:05.000Z</time>
      </trkpt>
      <trkpt lat="47.38685" lon="4.94244">
        <ele>474.79998779297</ele>
        <time>2015-09-12T08:42:08.000Z</time>
      </trkpt>
      <trkpt lat="47.38678" lon="4.94243">
        <ele>474.60000610352</ele>
        <time>2015-09-12T08:42:09.000Z</time>
      </trkpt>
      <trkpt lat="47.38659" lon="4.94233">
        <ele>474.39999389648</ele>
        <time>2015-09-12T08:42:12.000Z</time>
      </trkpt>
      <trkpt lat="47.38653" lon="4.94228">
        <ele>474.20001220703</ele>
        <time>2015-09-12T08:42:13.000Z</time>
      </trkpt>
      <trkpt lat="47.38641" lon="4.9422">
        <ele>473.60000610352</ele>
        <time>2015-09-12T08:42:15.000Z</time>
      </trkpt>
      <trkpt lat="47.38602" lon="4.94194">
        <ele>472.20001220703</ele>
        <time>2015-09-12T08:42:21.000Z</time>
      </trkpt>
      <trkpt lat="47.38571" lon="4.94173">
        <ele>471</ele>
        <time>2015-09-12T08:42:26.000Z</time>
      </trkpt>
      <trkpt lat="47.38567" lon="4.9417">
        <ele>470.60000610352</ele>
        <time>2015-09-12T08:42:27.000Z</time>
      </trkpt>
      <trkpt lat="47.38562" lon="4.9416">
        <ele>470</ele>
        <time>2015-09-12T08:42:30.000Z</time>
      </trkpt>
      <trkpt lat="47.38567" lon="4.9415">
        <ele>469.60000610352</ele>
        <time>2015-09-12T08:42:34.000Z</time>
      </trkpt>
      <trkpt lat="47.38572" lon="4.94147">
        <ele>469.79998779297</ele>
        <time>2015-09-12T08:42:36.000Z</time>
      </trkpt>
      <trkpt lat="47.38588" lon="4.94134">
        <ele>469.39999389648</ele>
        <time>2015-09-12T08:42:41.000Z</time>
      </trkpt>
      <trkpt lat="47.38596" lon="4.94127">
        <ele>469.39999389648</ele>
        <time>2015-09-12T08:42:43.000Z</time>
      </trkpt>
      <trkpt lat="47.38611" lon="4.94113">
        <ele>468.79998779297</ele>
        <time>2015-09-12T08:42:47.000Z</time>
      </trkpt>
      <trkpt lat="47.38615" lon="4.94107">
        <ele>468.79998779297</ele>
        <time>2015-09-12T08:42:48.000Z</time>
      </trkpt>
      <trkpt lat="47.38614" lon="4.94095">
        <ele>468.39999389648</ele>
        <time>2015-09-12T08:42:50.000Z</time>
      </trkpt>
      <trkpt lat="47.38605" lon="4.94084">
        <ele>467.79998779297</ele>
        <time>2015-09-12T08:42:53.000Z</time>
      </trkpt>
      <trkpt lat="47.38594" lon="4.94076">
        <ele>467.39999389648</ele>
        <time>2015-09-12T08:42:56.000Z</time>
      </trkpt>
      <trkpt lat="47.38586" lon="4.9407">
        <ele>466.79998779297</ele>
        <time>2015-09-12T08:42:58.000Z</time>
      </trkpt>
      <trkpt lat="47.38558" lon="4.94051">
        <ele>465.79998779297</ele>
        <time>2015-09-12T08:43:04.000Z</time>
      </trkpt>
      <trkpt lat="47.38553" lon="4.94048">
        <ele>465.60000610352</ele>
        <time>2015-09-12T08:43:05.000Z</time>
      </trkpt>
      <trkpt lat="47.38543" lon="4.9404">
        <ele>464.60000610352</ele>
        <time>2015-09-12T08:43:07.000Z</time>
      </trkpt>
      <trkpt lat="47.38514" lon="4.94022">
        <ele>463.39999389648</ele>
        <time>2015-09-12T08:43:12.000Z</time>
      </trkpt>
      <trkpt lat="47.38506" lon="4.94017">
        <ele>462.79998779297</ele>
        <time>2015-09-12T08:43:14.000Z</time>
      </trkpt>
      <trkpt lat="47.38502" lon="4.94015">
        <ele>462.39999389648</ele>
        <time>2015-09-12T08:43:15.000Z</time>
      </trkpt>
      <trkpt lat="47.38499" lon="4.94014">
        <ele>462.20001220703</ele>
        <time>2015-09-12T08:43:16.000Z</time>
      </trkpt>
      <trkpt lat="47.38493" lon="4.94007">
        <ele>462</ele>
        <time>2015-09-12T08:43:19.000Z</time>
      </trkpt>
      <trkpt lat="47.38492" lon="4.94005">
        <ele>461.79998779297</ele>
        <time>2015-09-12T08:43:20.000Z</time>
      </trkpt>
      <trkpt lat="47.38492" lon="4.93999">
        <ele>461.20001220703</ele>
        <time>2015-09-12T08:43:23.000Z</time>
      </trkpt>
      <trkpt lat="47.38492" lon="4.93996">
        <ele>460.79998779297</ele>
        <time>2015-09-12T08:43:24.000Z</time>
      </trkpt>
      <trkpt lat="47.38493" lon="4.93993">
        <ele>460.60000610352</ele>
        <time>2015-09-12T08:43:25.000Z</time>
      </trkpt>
      <trkpt lat="47.38496" lon="4.93986">
        <ele>460</ele>
        <time>2015-09-12T08:43:28.000Z</time>
      </trkpt>
      <trkpt lat="47.38496" lon="4.93985">
        <ele>459.39999389648</ele>
        <time>2015-09-12T08:43:30.000Z</time>
      </trkpt>
      <trkpt lat="47.38495" lon="4.93987">
        <ele>459</ele>
        <time>2015-09-12T08:43:38.000Z</time>
      </trkpt>
      <trkpt lat="47.38494" lon="4.93986">
        <ele>459.20001220703</ele>
        <time>2015-09-12T08:43:39.000Z</time>
      </trkpt>
      <trkpt lat="47.38491" lon="4.93981">
        <ele>458.79998779297</ele>
        <time>2015-09-12T08:43:41.000Z</time>
      </trkpt>
      <trkpt lat="47.38489" lon="4.93978">
        <ele>458.20001220703</ele>
        <time>2015-09-12T08:43:42.000Z</time>
      </trkpt>
      <trkpt lat="47.38486" lon="4.93973">
        <ele>457.79998779297</ele>
        <time>2015-09-12T08:43:44.000Z</time>
      </trkpt>
      <trkpt lat="47.38484" lon="4.93971">
        <ele>457.20001220703</ele>
        <time>2015-09-12T08:43:45.000Z</time>
      </trkpt>
      <trkpt lat="47.38479" lon="4.93967">
        <ele>456.79998779297</ele>
        <time>2015-09-12T08:43:47.000Z</time>
      </trkpt>
      <trkpt lat="47.3846" lon="4.93954">
        <ele>456.60000610352</ele>
        <time>2015-09-12T08:43:54.000Z</time>
      </trkpt>
      <trkpt lat="47.38457" lon="4.93952">
        <ele>456</ele>
        <time>2015-09-12T08:43:55.000Z</time>
      </trkpt>
      <trkpt lat="47.38445" lon="4.93951">
        <ele>455.20001220703</ele>
        <time>2015-09-12T08:43:58.000Z</time>
      </trkpt>
      <trkpt lat="47.38429" lon="4.93951">
        <ele>454.79998779297</ele>
        <time>2015-09-12T08:44:02.000Z</time>
      </trkpt>
      <trkpt lat="47.38426" lon="4.93951">
        <ele>455</ele>
        <time>2015-09-12T08:44:03.000Z</time>
      </trkpt>
      <trkpt lat="47.38413" lon="4.93944">
        <ele>454.79998779297</ele>
        <time>2015-09-12T08:44:07.000Z</time>
      </trkpt>
      <trkpt lat="47.38383" lon="4.93921">
        <ele>455.20001220703</ele>
        <time>2015-09-12T08:44:16.000Z</time>
      </trkpt>
      <trkpt lat="47.38356" lon="4.93908">
        <ele>455.79998779297</ele>
        <time>2015-09-12T08:44:23.000Z</time>
      </trkpt>
      <trkpt lat="47.38341" lon="4.93898">
        <ele>455.20001220703</ele>
        <time>2015-09-12T08:44:27.000Z</time>
      </trkpt>
      <trkpt lat="47.38337" lon="4.93893">
        <ele>455.39999389648</ele>
        <time>2015-09-12T08:44:28.000Z</time>
      </trkpt>
      <trkpt lat="47.3833" lon="4.93885">
        <ele>455.39999389648</ele>
        <time>2015-09-12T08:44:30.000Z</time>
      </trkpt>
      <trkpt lat="47.38317" lon="4.93877">
        <ele>454.79998779297</ele>
        <time>2015-09-12T08:44:33.000Z</time>
      </trkpt>
      <trkpt lat="47.38278" lon="4.9386">
        <ele>454.79998779297</ele>
        <time>2015-09-12T08:44:41.000Z</time>
      </trkpt>
      <trkpt lat="47.38267" lon="4.93854">
        <ele>454</ele>
        <time>2015-09-12T08:44:43.000Z</time>
      </trkpt>
      <trkpt lat="47.38233" lon="4.93838">
        <ele>453.79998779297</ele>
        <time>2015-09-12T08:44:50.000Z</time>
      </trkpt>
      <trkpt lat="47.38228" lon="4.93837">
        <ele>453.60000610352</ele>
        <time>2015-09-12T08:44:51.000Z</time>
      </trkpt>
      <trkpt lat="47.38218" lon="4.93832">
        <ele>452.79998779297</ele>
        <time>2015-09-12T08:44:53.000Z</time>
      </trkpt>
      <trkpt lat="47.38208" lon="4.93833">
        <ele>452.60000610352</ele>
        <time>2015-09-12T08:44:55.000Z</time>
      </trkpt>
      <trkpt lat="47.382" lon="4.93835">
        <ele>452</ele>
        <time>2015-09-12T08:44:57.000Z</time>
      </trkpt>
      <trkpt lat="47.38193" lon="4.93838">
        <ele>451.79998779297</ele>
        <time>2015-09-12T08:44:59.000Z</time>
      </trkpt>
      <trkpt lat="47.3819" lon="4.9384">
        <ele>451.20001220703</ele>
        <time>2015-09-12T08:45:00.000Z</time>
      </trkpt>
      <trkpt lat="47.38187" lon="4.93842">
        <ele>450.60000610352</ele>
        <time>2015-09-12T08:45:01.000Z</time>
      </trkpt>
      <trkpt lat="47.38174" lon="4.93846">
        <ele>448.39999389648</ele>
        <time>2015-09-12T08:45:05.000Z</time>
      </trkpt>
      <trkpt lat="47.3817" lon="4.93844">
        <ele>447.79998779297</ele>
        <time>2015-09-12T08:45:06.000Z</time>
      </trkpt>
      <trkpt lat="47.38164" lon="4.93835">
        <ele>448</ele>
        <time>2015-09-12T08:45:10.000Z</time>
      </trkpt>
      <trkpt lat="47.3816" lon="4.93821">
        <ele>448.39999389648</ele>
        <time>2015-09-12T08:45:15.000Z</time>
      </trkpt>
      <trkpt lat="47.38154" lon="4.93813">
        <ele>450</ele>
        <time>2015-09-12T08:45:19.000Z</time>
      </trkpt>
      <trkpt lat="47.38153" lon="4.93811">
        <ele>450.39999389648</ele>
        <time>2015-09-12T08:45:20.000Z</time>
      </trkpt>
      <trkpt lat="47.3815" lon="4.93806">
        <ele>451</ele>
        <time>2015-09-12T08:45:23.000Z</time>
      </trkpt>
      <trkpt lat="47.38148" lon="4.93796">
        <ele>451</ele>
        <time>2015-09-12T08:45:27.000Z</time>
      </trkpt>
      <trkpt lat="47.38142" lon="4.93781">
        <ele>450.20001220703</ele>
        <time>2015-09-12T08:45:33.000Z</time>
      </trkpt>
      <trkpt lat="47.38135" lon="4.93767">
        <ele>450</ele>
        <time>2015-09-12T08:45:38.000Z</time>
      </trkpt>
      <trkpt lat="47.3813" lon="4.93762">
        <ele>449.79998779297</ele>
        <time>2015-09-12T08:45:41.000Z</time>
      </trkpt>
      <trkpt lat="47.38122" lon="4.93757">
        <ele>449.79998779297</ele>
        <time>2015-09-12T08:45:45.000Z</time>
      </trkpt>
      <trkpt lat="47.38106" lon="4.93746">
        <ele>449.79998779297</ele>
        <time>2015-09-12T08:45:53.000Z</time>
      </trkpt>
      <trkpt lat="47.38087" lon="4.93735">
        <ele>449</ele>
        <time>2015-09-12T08:46:02.000Z</time>
      </trkpt>
      <trkpt lat="47.38078" lon="4.93727">
        <ele>448.60000610352</ele>
        <time>2015-09-12T08:46:07.000Z</time>
      </trkpt>
      <trkpt lat="47.38072" lon="4.93722">
        <ele>448.60000610352</ele>
        <time>2015-09-12T08:46:10.000Z</time>
      </trkpt>
      <trkpt lat="47.38053" lon="4.93707">
        <ele>447.39999389648</ele>
        <time>2015-09-12T08:46:19.000Z</time>
      </trkpt>
      <trkpt lat="47.38041" lon="4.937">
        <ele>446.79998779297</ele>
        <time>2015-09-12T08:46:25.000Z</time>
      </trkpt>
      <trkpt lat="47.38033" lon="4.93693">
        <ele>446.60000610352</ele>
        <time>2015-09-12T08:46:32.000Z</time>
      </trkpt>
      <trkpt lat="47.38032" lon="4.93692">
        <ele>446.39999389648</ele>
        <time>2015-09-12T08:46:33.000Z</time>
      </trkpt>
      <trkpt lat="47.38029" lon="4.93691">
        <ele>446.20001220703</ele>
        <time>2015-09-12T08:46:38.000Z</time>
      </trkpt>
      <trkpt lat="47.38026" lon="4.93688">
        <ele>445.79998779297</ele>
        <time>2015-09-12T08:46:46.000Z</time>
      </trkpt>
      <trkpt lat="47.38017" lon="4.93674">
        <ele>445.79998779297</ele>
        <time>2015-09-12T08:46:51.000Z</time>
      </trkpt>
      <trkpt lat="47.38014" lon="4.93671">
        <ele>445.60000610352</ele>
        <time>2015-09-12T08:46:52.000Z</time>
      </trkpt>
      <trkpt lat="47.38005" lon="4.93669">
        <ele>444.39999389648</ele>
        <time>2015-09-12T08:46:55.000Z</time>
      </trkpt>
      <trkpt lat="47.37989" lon="4.93663">
        <ele>444.20001220703</ele>
        <time>2015-09-12T08:47:00.000Z</time>
      </trkpt>
      <trkpt lat="47.37982" lon="4.93662">
        <ele>443</ele>
        <time>2015-09-12T08:47:02.000Z</time>
      </trkpt>
      <trkpt lat="47.37975" lon="4.93661">
        <ele>442.60000610352</ele>
        <time>2015-09-12T08:47:04.000Z</time>
      </trkpt>
      <trkpt lat="47.37973" lon="4.9366">
        <ele>441.79998779297</ele>
        <time>2015-09-12T08:47:05.000Z</time>
      </trkpt>
      <trkpt lat="47.37963" lon="4.93658">
        <ele>440.39999389648</ele>
        <time>2015-09-12T08:47:09.000Z</time>
      </trkpt>
      <trkpt lat="47.37961" lon="4.93659">
        <ele>440.20001220703</ele>
        <time>2015-09-12T08:47:10.000Z</time>
      </trkpt>
      <trkpt lat="47.37955" lon="4.93666">
        <ele>440.20001220703</ele>
        <time>2015-09-12T08:47:13.000Z</time>
      </trkpt>
      <trkpt lat="47.37943" lon="4.93677">
        <ele>441</ele>
        <time>2015-09-12T08:47:19.000Z</time>
      </trkpt>
      <trkpt lat="47.37932" lon="4.93676">
        <ele>441.20001220703</ele>
        <time>2015-09-12T08:47:25.000Z</time>
      </trkpt>
      <trkpt lat="47.37928" lon="4.93672">
        <ele>441.20001220703</ele>
        <time>2015-09-12T08:47:27.000Z</time>
      </trkpt>
      <trkpt lat="47.37925" lon="4.93669">
        <ele>440.39999389648</ele>
        <time>2015-09-12T08:47:29.000Z</time>
      </trkpt>
      <trkpt lat="47.37922" lon="4.93661">
        <ele>440.20001220703</ele>
        <time>2015-09-12T08:47:32.000Z</time>
      </trkpt>
      <trkpt lat="47.37921" lon="4.93655">
        <ele>439.20001220703</ele>
        <time>2015-09-12T08:47:34.000Z</time>
      </trkpt>
      <trkpt lat="47.37922" lon="4.93649">
        <ele>438</ele>
        <time>2015-09-12T08:47:36.000Z</time>
      </trkpt>
      <trkpt lat="47.37921" lon="4.93643">
        <ele>437</ele>
        <time>2015-09-12T08:47:38.000Z</time>
      </trkpt>
      <trkpt lat="47.3792" lon="4.9364">
        <ele>436.39999389648</ele>
        <time>2015-09-12T08:47:39.000Z</time>
      </trkpt>
      <trkpt lat="47.37917" lon="4.93634">
        <ele>436</ele>
        <time>2015-09-12T08:47:42.000Z</time>
      </trkpt>
      <trkpt lat="47.37916" lon="4.93632">
        <ele>435.20001220703</ele>
        <time>2015-09-12T08:47:44.000Z</time>
      </trkpt>
      <trkpt lat="47.37915" lon="4.93632">
        <ele>435.20001220703</ele>
        <time>2015-09-12T08:47:48.000Z</time>
      </trkpt>
      <trkpt lat="47.37915" lon="4.93632">
        <ele>435.20001220703</ele>
        <time>2015-09-12T08:47:52.000Z</time>
      </trkpt>
      <trkpt lat="47.37914" lon="4.93627">
        <ele>434.60000610352</ele>
        <time>2015-09-12T08:48:00.000Z</time>
      </trkpt>
      <trkpt lat="47.37914" lon="4.93625">
        <ele>434</ele>
        <time>2015-09-12T08:48:01.000Z</time>
      </trkpt>
      <trkpt lat="47.37914" lon="4.93621">
        <ele>432.39999389648</ele>
        <time>2015-09-12T08:48:03.000Z</time>
      </trkpt>
      <trkpt lat="47.37914" lon="4.93614">
        <ele>431.39999389648</ele>
        <time>2015-09-12T08:48:06.000Z</time>
      </trkpt>
      <trkpt lat="47.3791" lon="4.93607">
        <ele>429.79998779297</ele>
        <time>2015-09-12T08:48:08.000Z</time>
      </trkpt>
      <trkpt lat="47.37908" lon="4.93604">
        <ele>428.20001220703</ele>
        <time>2015-09-12T08:48:09.000Z</time>
      </trkpt>
      <trkpt lat="47.37905" lon="4.93603">
        <ele>427.20001220703</ele>
        <time>2015-09-12T08:48:10.000Z</time>
      </trkpt>
      <trkpt lat="47.37901" lon="4.93599">
        <ele>425.79998779297</ele>
        <time>2015-09-12T08:48:13.000Z</time>
      </trkpt>
      <trkpt lat="47.37901" lon="4.93599">
        <ele>425.60000610352</ele>
        <time>2015-09-12T08:48:14.000Z</time>
      </trkpt>
      <trkpt lat="47.37901" lon="4.93597">
        <ele>425.39999389648</ele>
        <time>2015-09-12T08:48:24.000Z</time>
      </trkpt>
      <trkpt lat="47.37901" lon="4.93597">
        <ele>425.60000610352</ele>
        <time>2015-09-12T08:48:35.000Z</time>
      </trkpt>
      <trkpt lat="47.37901" lon="4.93597">
        <ele>425.60000610352</ele>
        <time>2015-09-12T08:48:43.000Z</time>
      </trkpt>
      <trkpt lat="47.37901" lon="4.93596">
        <ele>425.60000610352</ele>
        <time>2015-09-12T08:48:51.000Z</time>
      </trkpt>
      <trkpt lat="47.37901" lon="4.93594">
        <ele>425.60000610352</ele>
        <time>2015-09-12T08:49:02.000Z</time>
      </trkpt>
      <trkpt lat="47.37899" lon="4.93593">
        <ele>425.20001220703</ele>
        <time>2015-09-12T08:49:12.000Z</time>
      </trkpt>
      <trkpt lat="47.37886" lon="4.93591">
        <ele>424.39999389648</ele>
        <time>2015-09-12T08:49:18.000Z</time>
      </trkpt>
      <trkpt lat="47.37873" lon="4.93595">
        <ele>423.39999389648</ele>
        <time>2015-09-12T08:49:22.000Z</time>
      </trkpt>
      <trkpt lat="47.37865" lon="4.93598">
        <ele>422.20001220703</ele>
        <time>2015-09-12T08:49:24.000Z</time>
      </trkpt>
      <trkpt lat="47.3786" lon="4.93598">
        <ele>422</ele>
        <time>2015-09-12T08:49:25.000Z</time>
      </trkpt>
      <trkpt lat="47.37852" lon="4.93596">
        <ele>421.79998779297</ele>
        <time>2015-09-12T08:49:27.000Z</time>
      </trkpt>
      <trkpt lat="47.37845" lon="4.93594">
        <ele>420.60000610352</ele>
        <time>2015-09-12T08:49:29.000Z</time>
      </trkpt>
      <trkpt lat="47.37841" lon="4.93591">
        <ele>420.20001220703</ele>
        <time>2015-09-12T08:49:30.000Z</time>
      </trkpt>
      <trkpt lat="47.37833" lon="4.93586">
        <ele>420</ele>
        <time>2015-09-12T08:49:32.000Z</time>
      </trkpt>
      <trkpt lat="47.37819" lon="4.93579">
        <ele>419.79998779297</ele>
        <time>2015-09-12T08:49:35.000Z</time>
      </trkpt>
      <trkpt lat="47.37814" lon="4.93576">
        <ele>419.20001220703</ele>
        <time>2015-09-12T08:49:36.000Z</time>
      </trkpt>
      <trkpt lat="47.37804" lon="4.93573">
        <ele>418.39999389648</ele>
        <time>2015-09-12T08:49:38.000Z</time>
      </trkpt>
      <trkpt lat="47.37797" lon="4.93569">
        <ele>418.20001220703</ele>
        <time>2015-09-12T08:49:40.000Z</time>
      </trkpt>
      <trkpt lat="47.37787" lon="4.93569">
        <ele>416.79998779297</ele>
        <time>2015-09-12T08:49:43.000Z</time>
      </trkpt>
      <trkpt lat="47.3778" lon="4.93565">
        <ele>415.60000610352</ele>
        <time>2015-09-12T08:49:45.000Z</time>
      </trkpt>
      <trkpt lat="47.37776" lon="4.93563">
        <ele>415.60000610352</ele>
        <time>2015-09-12T08:49:46.000Z</time>
      </trkpt>
      <trkpt lat="47.37769" lon="4.93559">
        <ele>414.39999389648</ele>
        <time>2015-09-12T08:49:48.000Z</time>
      </trkpt>
      <trkpt lat="47.37761" lon="4.93556">
        <ele>413.20001220703</ele>
        <time>2015-09-12T08:49:50.000Z</time>
      </trkpt>
      <trkpt lat="47.37749" lon="4.93554">
        <ele>411.39999389648</ele>
        <time>2015-09-12T08:49:54.000Z</time>
      </trkpt>
      <trkpt lat="47.37746" lon="4.93554">
        <ele>410.79998779297</ele>
        <time>2015-09-12T08:49:55.000Z</time>
      </trkpt>
      <trkpt lat="47.3774" lon="4.93555">
        <ele>410.39999389648</ele>
        <time>2015-09-12T08:49:58.000Z</time>
      </trkpt>
      <trkpt lat="47.37737" lon="4.93555">
        <ele>410</ele>
        <time>2015-09-12T08:49:59.000Z</time>
      </trkpt>
      <trkpt lat="47.3772" lon="4.93548">
        <ele>409.20001220703</ele>
        <time>2015-09-12T08:50:04.000Z</time>
      </trkpt>
      <trkpt lat="47.37718" lon="4.93547">
        <ele>408.79998779297</ele>
        <time>2015-09-12T08:50:05.000Z</time>
      </trkpt>
      <trkpt lat="47.37712" lon="4.93543">
        <ele>408</ele>
        <time>2015-09-12T08:50:08.000Z</time>
      </trkpt>
      <trkpt lat="47.37711" lon="4.93544">
        <ele>408</ele>
        <time>2015-09-12T08:50:09.000Z</time>
      </trkpt>
      <trkpt lat="47.37702" lon="4.93548">
        <ele>407</ele>
        <time>2015-09-12T08:50:13.000Z</time>
      </trkpt>
      <trkpt lat="47.37701" lon="4.93548">
        <ele>406.60000610352</ele>
        <time>2015-09-12T08:50:14.000Z</time>
      </trkpt>
      <trkpt lat="47.37698" lon="4.93552">
        <ele>406</ele>
        <time>2015-09-12T08:50:16.000Z</time>
      </trkpt>
      <trkpt lat="47.37697" lon="4.93553">
        <ele>405.60000610352</ele>
        <time>2015-09-12T08:50:17.000Z</time>
      </trkpt>
      <trkpt lat="47.37697" lon="4.93552">
        <ele>405.60000610352</ele>
        <time>2015-09-12T08:50:18.000Z</time>
      </trkpt>
      <trkpt lat="47.37694" lon="4.93553">
        <ele>405</ele>
        <time>2015-09-12T08:50:22.000Z</time>
      </trkpt>
      <trkpt lat="47.37691" lon="4.93555">
        <ele>404.39999389648</ele>
        <time>2015-09-12T08:50:25.000Z</time>
      </trkpt>
      <trkpt lat="47.37691" lon="4.93555">
        <ele>404</ele>
        <time>2015-09-12T08:50:30.000Z</time>
      </trkpt>
      <trkpt lat="47.37688" lon="4.93557">
        <ele>403.60000610352</ele>
        <time>2015-09-12T08:50:34.000Z</time>
      </trkpt>
      <trkpt lat="47.37685" lon="4.93559">
        <ele>403.39999389648</ele>
        <time>2015-09-12T08:50:36.000Z</time>
      </trkpt>
      <trkpt lat="47.37682" lon="4.93562">
        <ele>403</ele>
        <time>2015-09-12T08:50:39.000Z</time>
      </trkpt>
      <trkpt lat="47.37682" lon="4.93561">
        <ele>402.39999389648</ele>
        <time>2015-09-12T08:50:40.000Z</time>
      </trkpt>
      <trkpt lat="47.37681" lon="4.93562">
        <ele>401.79998779297</ele>
        <time>2015-09-12T08:50:46.000Z</time>
      </trkpt>
      <trkpt lat="47.3768" lon="4.93563">
        <ele>401.79998779297</ele>
        <time>2015-09-12T08:50:49.000Z</time>
      </trkpt>
      <trkpt lat="47.37677" lon="4.93564">
        <ele>400.79998779297</ele>
        <time>2015-09-12T08:50:56.000Z</time>
      </trkpt>
      <trkpt lat="47.37676" lon="4.93565">
        <ele>400.60000610352</ele>
        <time>2015-09-12T08:50:57.000Z</time>
      </trkpt>
      <trkpt lat="47.37673" lon="4.93567">
        <ele>399.60000610352</ele>
        <time>2015-09-12T08:51:02.000Z</time>
      </trkpt>
      <trkpt lat="47.37673" lon="4.93568">
        <ele>399.39999389648</ele>
        <time>2015-09-12T08:51:06.000Z</time>
      </trkpt>
      <trkpt lat="47.37669" lon="4.93572">
        <ele>399</ele>
        <time>2015-09-12T08:51:14.000Z</time>
      </trkpt>
      <trkpt lat="47.37669" lon="4.93575">
        <ele>399</ele>
        <time>2015-09-12T08:51:26.000Z</time>
      </trkpt>
      <trkpt lat="47.37667" lon="4.93581">
        <ele>398.79998779297</ele>
        <time>2015-09-12T08:51:31.000Z</time>
      </trkpt>
      <trkpt lat="47.37664" lon="4.93587">
        <ele>398.20001220703</ele>
        <time>2015-09-12T08:51:33.000Z</time>
      </trkpt>
      <trkpt lat="47.37663" lon="4.93589">
        <ele>397.60000610352</ele>
        <time>2015-09-12T08:51:34.000Z</time>
      </trkpt>
      <trkpt lat="47.37653" lon="4.93599">
        <ele>397.79998779297</ele>
        <time>2015-09-12T08:51:39.000Z</time>
      </trkpt>
      <trkpt lat="47.37639" lon="4.9361">
        <ele>396.39999389648</ele>
        <time>2015-09-12T08:51:43.000Z</time>
      </trkpt>
      <trkpt lat="47.37636" lon="4.93614">
        <ele>396.39999389648</ele>
        <time>2015-09-12T08:51:44.000Z</time>
      </trkpt>
      <trkpt lat="47.37625" lon="4.93626">
        <ele>395.20001220703</ele>
        <time>2015-09-12T08:51:47.000Z</time>
      </trkpt>
      <trkpt lat="47.37619" lon="4.93631">
        <ele>394.20001220703</ele>
        <time>2015-09-12T08:51:49.000Z</time>
      </trkpt>
      <trkpt lat="47.37611" lon="4.93633">
        <ele>393.20001220703</ele>
        <time>2015-09-12T08:51:51.000Z</time>
      </trkpt>
      <trkpt lat="47.37606" lon="4.93633">
        <ele>393</ele>
        <time>2015-09-12T08:51:52.000Z</time>
      </trkpt>
      <trkpt lat="47.37602" lon="4.93634">
        <ele>392.39999389648</ele>
        <time>2015-09-12T08:51:53.000Z</time>
      </trkpt>
      <trkpt lat="47.37598" lon="4.93635">
        <ele>392</ele>
        <time>2015-09-12T08:51:54.000Z</time>
      </trkpt>
      <trkpt lat="47.37584" lon="4.93635">
        <ele>391.60000610352</ele>
        <time>2015-09-12T08:51:58.000Z</time>
      </trkpt>
      <trkpt lat="47.37572" lon="4.9363">
        <ele>391.20001220703</ele>
        <time>2015-09-12T08:52:01.000Z</time>
      </trkpt>
      <trkpt lat="47.37558" lon="4.93631">
        <ele>390.60000610352</ele>
        <time>2015-09-12T08:52:04.000Z</time>
      </trkpt>
      <trkpt lat="47.37553" lon="4.9363">
        <ele>390</ele>
        <time>2015-09-12T08:52:05.000Z</time>
      </trkpt>
      <trkpt lat="47.37543" lon="4.93629">
        <ele>389.60000610352</ele>
        <time>2015-09-12T08:52:07.000Z</time>
      </trkpt>
      <trkpt lat="47.37537" lon="4.93626">
        <ele>389.39999389648</ele>
        <time>2015-09-12T08:52:08.000Z</time>
      </trkpt>
      <trkpt lat="47.37533" lon="4.93623">
        <ele>389</ele>
        <time>2015-09-12T08:52:09.000Z</time>
      </trkpt>
      <trkpt lat="47.37522" lon="4.93621">
        <ele>388</ele>
        <time>2015-09-12T08:52:11.000Z</time>
      </trkpt>
      <trkpt lat="47.3751" lon="4.93619">
        <ele>387.39999389648</ele>
        <time>2015-09-12T08:52:13.000Z</time>
      </trkpt>
      <trkpt lat="47.37492" lon="4.93617">
        <ele>387</ele>
        <time>2015-09-12T08:52:16.000Z</time>
      </trkpt>
      <trkpt lat="47.37481" lon="4.93616">
        <ele>386</ele>
        <time>2015-09-12T08:52:18.000Z</time>
      </trkpt>
      <trkpt lat="47.37477" lon="4.93617">
        <ele>385.79998779297</ele>
        <time>2015-09-12T08:52:19.000Z</time>
      </trkpt>
      <trkpt lat="47.37468" lon="4.93622">
        <ele>385.39999389648</ele>
        <time>2015-09-12T08:52:21.000Z</time>
      </trkpt>
      <trkpt lat="47.37461" lon="4.93625">
        <ele>385.20001220703</ele>
        <time>2015-09-12T08:52:22.000Z</time>
      </trkpt>
      <trkpt lat="47.37454" lon="4.93627">
        <ele>384.60000610352</ele>
        <time>2015-09-12T08:52:23.000Z</time>
      </trkpt>
      <trkpt lat="47.37447" lon="4.93628">
        <ele>383.79998779297</ele>
        <time>2015-09-12T08:52:24.000Z</time>
      </trkpt>
      <trkpt lat="47.37441" lon="4.93627">
        <ele>382.60000610352</ele>
        <time>2015-09-12T08:52:25.000Z</time>
      </trkpt>
      <trkpt lat="47.37423" lon="4.93623">
        <ele>381.79998779297</ele>
        <time>2015-09-12T08:52:29.000Z</time>
      </trkpt>
      <trkpt lat="47.37409" lon="4.93622">
        <ele>381</ele>
        <time>2015-09-12T08:52:32.000Z</time>
      </trkpt>
      <trkpt lat="47.37404" lon="4.93621">
        <ele>380.39999389648</ele>
        <time>2015-09-12T08:52:33.000Z</time>
      </trkpt>
      <trkpt lat="47.374" lon="4.93621">
        <ele>380.20001220703</ele>
        <time>2015-09-12T08:52:34.000Z</time>
      </trkpt>
      <trkpt lat="47.3738" lon="4.93613">
        <ele>380</ele>
        <time>2015-09-12T08:52:39.000Z</time>
      </trkpt>
      <trkpt lat="47.37375" lon="4.93611">
        <ele>379.79998779297</ele>
        <time>2015-09-12T08:52:40.000Z</time>
      </trkpt>
      <trkpt lat="47.37372" lon="4.93607">
        <ele>379.39999389648</ele>
        <time>2015-09-12T08:52:41.000Z</time>
      </trkpt>
      <trkpt lat="47.37361" lon="4.93592">
        <ele>378</ele>
        <time>2015-09-12T08:52:44.000Z</time>
      </trkpt>
      <trkpt lat="47.37345" lon="4.93571">
        <ele>378.20001220703</ele>
        <time>2015-09-12T08:52:49.000Z</time>
      </trkpt>
      <trkpt lat="47.37333" lon="4.93565">
        <ele>377.20001220703</ele>
        <time>2015-09-12T08:52:52.000Z</time>
      </trkpt>
      <trkpt lat="47.37329" lon="4.93562">
        <ele>376.79998779297</ele>
        <time>2015-09-12T08:52:53.000Z</time>
      </trkpt>
      <trkpt lat="47.37314" lon="4.93555">
        <ele>377</ele>
        <time>2015-09-12T08:52:57.000Z</time>
      </trkpt>
      <trkpt lat="47.373" lon="4.93544">
        <ele>375.60000610352</ele>
        <time>2015-09-12T08:53:01.000Z</time>
      </trkpt>
      <trkpt lat="47.37293" lon="4.93537">
        <ele>374.20001220703</ele>
        <time>2015-09-12T08:53:03.000Z</time>
      </trkpt>
      <trkpt lat="47.37288" lon="4.93534">
        <ele>374</ele>
        <time>2015-09-12T08:53:04.000Z</time>
      </trkpt>
      <trkpt lat="47.37278" lon="4.93529">
        <ele>373</ele>
        <time>2015-09-12T08:53:06.000Z</time>
      </trkpt>
      <trkpt lat="47.37261" lon="4.93517">
        <ele>372.60000610352</ele>
        <time>2015-09-12T08:53:10.000Z</time>
      </trkpt>
      <trkpt lat="47.37257" lon="4.93514">
        <ele>371.79998779297</ele>
        <time>2015-09-12T08:53:11.000Z</time>
      </trkpt>
      <trkpt lat="47.37252" lon="4.93511">
        <ele>371.39999389648</ele>
        <time>2015-09-12T08:53:12.000Z</time>
      </trkpt>
      <trkpt lat="47.37247" lon="4.93508">
        <ele>370.79998779297</ele>
        <time>2015-09-12T08:53:13.000Z</time>
      </trkpt>
      <trkpt lat="47.37238" lon="4.93501">
        <ele>370.79998779297</ele>
        <time>2015-09-12T08:53:15.000Z</time>
      </trkpt>
      <trkpt lat="47.37234" lon="4.93498">
        <ele>372</ele>
        <time>2015-09-12T08:53:16.000Z</time>
      </trkpt>
      <trkpt lat="47.37229" lon="4.93496">
        <ele>371.60000610352</ele>
        <time>2015-09-12T08:53:17.000Z</time>
      </trkpt>
      <trkpt lat="47.37225" lon="4.93494">
        <ele>370.79998779297</ele>
        <time>2015-09-12T08:53:18.000Z</time>
      </trkpt>
      <trkpt lat="47.37211" lon="4.93488">
        <ele>369.79998779297</ele>
        <time>2015-09-12T08:53:21.000Z</time>
      </trkpt>
      <trkpt lat="47.372" lon="4.93485">
        <ele>369</ele>
        <time>2015-09-12T08:53:23.000Z</time>
      </trkpt>
      <trkpt lat="47.37187" lon="4.93484">
        <ele>369.20001220703</ele>
        <time>2015-09-12T08:53:26.000Z</time>
      </trkpt>
      <trkpt lat="47.37178" lon="4.93481">
        <ele>368.79998779297</ele>
        <time>2015-09-12T08:53:28.000Z</time>
      </trkpt>
      <trkpt lat="47.37167" lon="4.93478">
        <ele>369.20001220703</ele>
        <time>2015-09-12T08:53:30.000Z</time>
      </trkpt>
      <trkpt lat="47.37157" lon="4.93474">
        <ele>368.60000610352</ele>
        <time>2015-09-12T08:53:32.000Z</time>
      </trkpt>
      <trkpt lat="47.37152" lon="4.93471">
        <ele>367.39999389648</ele>
        <time>2015-09-12T08:53:33.000Z</time>
      </trkpt>
      <trkpt lat="47.37148" lon="4.93468">
        <ele>367.20001220703</ele>
        <time>2015-09-12T08:53:34.000Z</time>
      </trkpt>
      <trkpt lat="47.37136" lon="4.93465">
        <ele>368</ele>
        <time>2015-09-12T08:53:36.000Z</time>
      </trkpt>
      <trkpt lat="47.37124" lon="4.9346">
        <ele>368.20001220703</ele>
        <time>2015-09-12T08:53:38.000Z</time>
      </trkpt>
      <trkpt lat="47.37115" lon="4.93454">
        <ele>367.60000610352</ele>
        <time>2015-09-12T08:53:40.000Z</time>
      </trkpt>
      <trkpt lat="47.37104" lon="4.93448">
        <ele>367.79998779297</ele>
        <time>2015-09-12T08:53:42.000Z</time>
      </trkpt>
      <trkpt lat="47.37092" lon="4.93443">
        <ele>367</ele>
        <time>2015-09-12T08:53:44.000Z</time>
      </trkpt>
      <trkpt lat="47.37086" lon="4.9344">
        <ele>366</ele>
        <time>2015-09-12T08:53:45.000Z</time>
      </trkpt>
      <trkpt lat="47.37079" lon="4.93435">
        <ele>365.39999389648</ele>
        <time>2015-09-12T08:53:46.000Z</time>
      </trkpt>
      <trkpt lat="47.37072" lon="4.93431">
        <ele>364.79998779297</ele>
        <time>2015-09-12T08:53:47.000Z</time>
      </trkpt>
      <trkpt lat="47.37053" lon="4.93423">
        <ele>364.39999389648</ele>
        <time>2015-09-12T08:53:50.000Z</time>
      </trkpt>
      <trkpt lat="47.37047" lon="4.9342">
        <ele>364.20001220703</ele>
        <time>2015-09-12T08:53:51.000Z</time>
      </trkpt>
      <trkpt lat="47.37034" lon="4.93416">
        <ele>363</ele>
        <time>2015-09-12T08:53:53.000Z</time>
      </trkpt>
      <trkpt lat="47.37012" lon="4.93413">
        <ele>363.60000610352</ele>
        <time>2015-09-12T08:53:56.000Z</time>
      </trkpt>
      <trkpt lat="47.36993" lon="4.9341">
        <ele>361.79998779297</ele>
        <time>2015-09-12T08:53:59.000Z</time>
      </trkpt>
      <trkpt lat="47.36987" lon="4.93407">
        <ele>361.39999389648</ele>
        <time>2015-09-12T08:54:00.000Z</time>
      </trkpt>
      <trkpt lat="47.3698" lon="4.93407">
        <ele>360.20001220703</ele>
        <time>2015-09-12T08:54:01.000Z</time>
      </trkpt>
      <trkpt lat="47.36951" lon="4.934">
        <ele>359.39999389648</ele>
        <time>2015-09-12T08:54:05.000Z</time>
      </trkpt>
      <trkpt lat="47.36943" lon="4.93398">
        <ele>359.20001220703</ele>
        <time>2015-09-12T08:54:06.000Z</time>
      </trkpt>
      <trkpt lat="47.36928" lon="4.93395">
        <ele>358.39999389648</ele>
        <time>2015-09-12T08:54:08.000Z</time>
      </trkpt>
      <trkpt lat="47.36921" lon="4.93393">
        <ele>357.79998779297</ele>
        <time>2015-09-12T08:54:09.000Z</time>
      </trkpt>
      <trkpt lat="47.36914" lon="4.9339">
        <ele>357.39999389648</ele>
        <time>2015-09-12T08:54:10.000Z</time>
      </trkpt>
      <trkpt lat="47.36903" lon="4.93381">
        <ele>357.20001220703</ele>
        <time>2015-09-12T08:54:12.000Z</time>
      </trkpt>
      <trkpt lat="47.36891" lon="4.93373">
        <ele>356.79998779297</ele>
        <time>2015-09-12T08:54:14.000Z</time>
      </trkpt>
      <trkpt lat="47.36885" lon="4.9337">
        <ele>356.39999389648</ele>
        <time>2015-09-12T08:54:15.000Z</time>
      </trkpt>
      <trkpt lat="47.36879" lon="4.93365">
        <ele>356.39999389648</ele>
        <time>2015-09-12T08:54:16.000Z</time>
      </trkpt>
      <trkpt lat="47.36867" lon="4.93355">
        <ele>356.20001220703</ele>
        <time>2015-09-12T08:54:18.000Z</time>
      </trkpt>
      <trkpt lat="47.36856" lon="4.93346">
        <ele>355.39999389648</ele>
        <time>2015-09-12T08:54:20.000Z</time>
      </trkpt>
      <trkpt lat="47.36848" lon="4.93343">
        <ele>355.20001220703</ele>
        <time>2015-09-12T08:54:21.000Z</time>
      </trkpt>
      <trkpt lat="47.36841" lon="4.93339">
        <ele>354.60000610352</ele>
        <time>2015-09-12T08:54:22.000Z</time>
      </trkpt>
      <trkpt lat="47.36834" lon="4.93336">
        <ele>354.20001220703</ele>
        <time>2015-09-12T08:54:23.000Z</time>
      </trkpt>
      <trkpt lat="47.36797" lon="4.93323">
        <ele>353</ele>
        <time>2015-09-12T08:54:28.000Z</time>
      </trkpt>
      <trkpt lat="47.3679" lon="4.93321">
        <ele>352.60000610352</ele>
        <time>2015-09-12T08:54:29.000Z</time>
      </trkpt>
      <trkpt lat="47.3677" lon="4.93312">
        <ele>352.39999389648</ele>
        <time>2015-09-12T08:54:32.000Z</time>
      </trkpt>
      <trkpt lat="47.36759" lon="4.93303">
        <ele>352.39999389648</ele>
        <time>2015-09-12T08:54:34.000Z</time>
      </trkpt>
      <trkpt lat="47.36754" lon="4.93299">
        <ele>352</ele>
        <time>2015-09-12T08:54:35.000Z</time>
      </trkpt>
      <trkpt lat="47.36742" lon="4.93288">
        <ele>351.39999389648</ele>
        <time>2015-09-12T08:54:37.000Z</time>
      </trkpt>
      <trkpt lat="47.36731" lon="4.93277">
        <ele>350.60000610352</ele>
        <time>2015-09-12T08:54:39.000Z</time>
      </trkpt>
      <trkpt lat="47.3672" lon="4.93267">
        <ele>349.79998779297</ele>
        <time>2015-09-12T08:54:41.000Z</time>
      </trkpt>
      <trkpt lat="47.36714" lon="4.93261">
        <ele>349.79998779297</ele>
        <time>2015-09-12T08:54:42.000Z</time>
      </trkpt>
      <trkpt lat="47.36697" lon="4.93246">
        <ele>348.60000610352</ele>
        <time>2015-09-12T08:54:45.000Z</time>
      </trkpt>
      <trkpt lat="47.3669" lon="4.93241">
        <ele>348.60000610352</ele>
        <time>2015-09-12T08:54:46.000Z</time>
      </trkpt>
      <trkpt lat="47.36677" lon="4.93235">
        <ele>347.79998779297</ele>
        <time>2015-09-12T08:54:48.000Z</time>
      </trkpt>
      <trkpt lat="47.36671" lon="4.93232">
        <ele>347.39999389648</ele>
        <time>2015-09-12T08:54:49.000Z</time>
      </trkpt>
      <trkpt lat="47.3664" lon="4.93213">
        <ele>347.20001220703</ele>
        <time>2015-09-12T08:54:54.000Z</time>
      </trkpt>
      <trkpt lat="47.36627" lon="4.93203">
        <ele>346.39999389648</ele>
        <time>2015-09-12T08:54:56.000Z</time>
      </trkpt>
      <trkpt lat="47.36608" lon="4.93189">
        <ele>345.79998779297</ele>
        <time>2015-09-12T08:54:59.000Z</time>
      </trkpt>
      <trkpt lat="47.36601" lon="4.93183">
        <ele>345.20001220703</ele>
        <time>2015-09-12T08:55:00.000Z</time>
      </trkpt>
      <trkpt lat="47.36589" lon="4.93172">
        <ele>345</ele>
        <time>2015-09-12T08:55:02.000Z</time>
      </trkpt>
      <trkpt lat="47.36584" lon="4.93168">
        <ele>344.39999389648</ele>
        <time>2015-09-12T08:55:03.000Z</time>
      </trkpt>
      <trkpt lat="47.36578" lon="4.93161">
        <ele>344</ele>
        <time>2015-09-12T08:55:04.000Z</time>
      </trkpt>
      <trkpt lat="47.36563" lon="4.9314">
        <ele>343</ele>
        <time>2015-09-12T08:55:07.000Z</time>
      </trkpt>
      <trkpt lat="47.36558" lon="4.93132">
        <ele>342.60000610352</ele>
        <time>2015-09-12T08:55:08.000Z</time>
      </trkpt>
      <trkpt lat="47.36544" lon="4.93108">
        <ele>342.60000610352</ele>
        <time>2015-09-12T08:55:11.000Z</time>
      </trkpt>
      <trkpt lat="47.36538" lon="4.931">
        <ele>342.39999389648</ele>
        <time>2015-09-12T08:55:12.000Z</time>
      </trkpt>
      <trkpt lat="47.36532" lon="4.93094">
        <ele>341.60000610352</ele>
        <time>2015-09-12T08:55:13.000Z</time>
      </trkpt>
      <trkpt lat="47.3652" lon="4.9308">
        <ele>340.39999389648</ele>
        <time>2015-09-12T08:55:15.000Z</time>
      </trkpt>
      <trkpt lat="47.36515" lon="4.93071">
        <ele>339.60000610352</ele>
        <time>2015-09-12T08:55:16.000Z</time>
      </trkpt>
      <trkpt lat="47.36511" lon="4.93062">
        <ele>339.20001220703</ele>
        <time>2015-09-12T08:55:17.000Z</time>
      </trkpt>
      <trkpt lat="47.36503" lon="4.93045">
        <ele>338.39999389648</ele>
        <time>2015-09-12T08:55:19.000Z</time>
      </trkpt>
      <trkpt lat="47.36499" lon="4.93036">
        <ele>337.79998779297</ele>
        <time>2015-09-12T08:55:20.000Z</time>
      </trkpt>
      <trkpt lat="47.3649" lon="4.9302">
        <ele>337.39999389648</ele>
        <time>2015-09-12T08:55:22.000Z</time>
      </trkpt>
      <trkpt lat="47.36485" lon="4.93014">
        <ele>337</ele>
        <time>2015-09-12T08:55:23.000Z</time>
      </trkpt>
      <trkpt lat="47.36478" lon="4.9301">
        <ele>336.79998779297</ele>
        <time>2015-09-12T08:55:24.000Z</time>
      </trkpt>
      <trkpt lat="47.36461" lon="4.93001">
        <ele>336</ele>
        <time>2015-09-12T08:55:27.000Z</time>
      </trkpt>
      <trkpt lat="47.36454" lon="4.92999">
        <ele>335.79998779297</ele>
        <time>2015-09-12T08:55:28.000Z</time>
      </trkpt>
      <trkpt lat="47.36434" lon="4.92994">
        <ele>335</ele>
        <time>2015-09-12T08:55:31.000Z</time>
      </trkpt>
      <trkpt lat="47.36428" lon="4.92991">
        <ele>334.60000610352</ele>
        <time>2015-09-12T08:55:32.000Z</time>
      </trkpt>
      <trkpt lat="47.36416" lon="4.92987">
        <ele>334</ele>
        <time>2015-09-12T08:55:34.000Z</time>
      </trkpt>
      <trkpt lat="47.36403" lon="4.92983">
        <ele>333.20001220703</ele>
        <time>2015-09-12T08:55:36.000Z</time>
      </trkpt>
      <trkpt lat="47.36378" lon="4.92976">
        <ele>333</ele>
        <time>2015-09-12T08:55:40.000Z</time>
      </trkpt>
      <trkpt lat="47.36357" lon="4.92961">
        <ele>332.20001220703</ele>
        <time>2015-09-12T08:55:44.000Z</time>
      </trkpt>
      <trkpt lat="47.36352" lon="4.92956">
        <ele>332</ele>
        <time>2015-09-12T08:55:45.000Z</time>
      </trkpt>
      <trkpt lat="47.36346" lon="4.92951">
        <ele>331.60000610352</ele>
        <time>2015-09-12T08:55:46.000Z</time>
      </trkpt>
      <trkpt lat="47.36329" lon="4.92931">
        <ele>330.79998779297</ele>
        <time>2015-09-12T08:55:50.000Z</time>
      </trkpt>
      <trkpt lat="47.36325" lon="4.92925">
        <ele>330.39999389648</ele>
        <time>2015-09-12T08:55:51.000Z</time>
      </trkpt>
      <trkpt lat="47.36318" lon="4.92914">
        <ele>329.79998779297</ele>
        <time>2015-09-12T08:55:53.000Z</time>
      </trkpt>
      <trkpt lat="47.36314" lon="4.92909">
        <ele>329.60000610352</ele>
        <time>2015-09-12T08:55:54.000Z</time>
      </trkpt>
      <trkpt lat="47.36309" lon="4.92905">
        <ele>329.39999389648</ele>
        <time>2015-09-12T08:55:55.000Z</time>
      </trkpt>
      <trkpt lat="47.36292" lon="4.92897">
        <ele>329.39999389648</ele>
        <time>2015-09-12T08:55:58.000Z</time>
      </trkpt>
      <trkpt lat="47.36286" lon="4.92897">
        <ele>329.20001220703</ele>
        <time>2015-09-12T08:55:59.000Z</time>
      </trkpt>
      <trkpt lat="47.36264" lon="4.92902">
        <ele>328.60000610352</ele>
        <time>2015-09-12T08:56:03.000Z</time>
      </trkpt>
      <trkpt lat="47.36259" lon="4.92903">
        <ele>328.39999389648</ele>
        <time>2015-09-12T08:56:04.000Z</time>
      </trkpt>
      <trkpt lat="47.36255" lon="4.92906">
        <ele>328.20001220703</ele>
        <time>2015-09-12T08:56:05.000Z</time>
      </trkpt>
      <trkpt lat="47.36246" lon="4.92912">
        <ele>327.79998779297</ele>
        <time>2015-09-12T08:56:07.000Z</time>
      </trkpt>
      <trkpt lat="47.36241" lon="4.92914">
        <ele>327.79998779297</ele>
        <time>2015-09-12T08:56:08.000Z</time>
      </trkpt>
      <trkpt lat="47.36224" lon="4.92912">
        <ele>327.60000610352</ele>
        <time>2015-09-12T08:56:11.000Z</time>
      </trkpt>
      <trkpt lat="47.36218" lon="4.9291">
        <ele>327</ele>
        <time>2015-09-12T08:56:12.000Z</time>
      </trkpt>
      <trkpt lat="47.36208" lon="4.92904">
        <ele>326.60000610352</ele>
        <time>2015-09-12T08:56:14.000Z</time>
      </trkpt>
      <trkpt lat="47.36203" lon="4.92902">
        <ele>326.60000610352</ele>
        <time>2015-09-12T08:56:15.000Z</time>
      </trkpt>
      <trkpt lat="47.36197" lon="4.929">
        <ele>326.39999389648</ele>
        <time>2015-09-12T08:56:16.000Z</time>
      </trkpt>
      <trkpt lat="47.36191" lon="4.929">
        <ele>325.60000610352</ele>
        <time>2015-09-12T08:56:17.000Z</time>
      </trkpt>
      <trkpt lat="47.36173" lon="4.92901">
        <ele>325.79998779297</ele>
        <time>2015-09-12T08:56:20.000Z</time>
      </trkpt>
      <trkpt lat="47.36167" lon="4.92902">
        <ele>325.60000610352</ele>
        <time>2015-09-12T08:56:21.000Z</time>
      </trkpt>
      <trkpt lat="47.36161" lon="4.92904">
        <ele>325</ele>
        <time>2015-09-12T08:56:22.000Z</time>
      </trkpt>
      <trkpt lat="47.36144" lon="4.92909">
        <ele>324.60000610352</ele>
        <time>2015-09-12T08:56:25.000Z</time>
      </trkpt>
      <trkpt lat="47.36127" lon="4.92914">
        <ele>324.20001220703</ele>
        <time>2015-09-12T08:56:28.000Z</time>
      </trkpt>
      <trkpt lat="47.36109" lon="4.92917">
        <ele>324.39999389648</ele>
        <time>2015-09-12T08:56:31.000Z</time>
      </trkpt>
      <trkpt lat="47.36087" lon="4.92921">
        <ele>323.39999389648</ele>
        <time>2015-09-12T08:56:35.000Z</time>
      </trkpt>
      <trkpt lat="47.36076" lon="4.92922">
        <ele>323</ele>
        <time>2015-09-12T08:56:37.000Z</time>
      </trkpt>
      <trkpt lat="47.36061" lon="4.92926">
        <ele>322.79998779297</ele>
        <time>2015-09-12T08:56:40.000Z</time>
      </trkpt>
      <trkpt lat="47.36051" lon="4.92931">
        <ele>322.20001220703</ele>
        <time>2015-09-12T08:56:42.000Z</time>
      </trkpt>
      <trkpt lat="47.36029" lon="4.9294">
        <ele>322.60000610352</ele>
        <time>2015-09-12T08:56:46.000Z</time>
      </trkpt>
      <trkpt lat="47.36017" lon="4.92945">
        <ele>322.20001220703</ele>
        <time>2015-09-12T08:56:48.000Z</time>
      </trkpt>
      <trkpt lat="47.35994" lon="4.92962">
        <ele>321.20001220703</ele>
        <time>2015-09-12T08:56:52.000Z</time>
      </trkpt>
      <trkpt lat="47.35985" lon="4.92968">
        <ele>321</ele>
        <time>2015-09-12T08:56:54.000Z</time>
      </trkpt>
      <trkpt lat="47.35974" lon="4.9298">
        <ele>320.60000610352</ele>
        <time>2015-09-12T08:56:58.000Z</time>
      </trkpt>
      <trkpt lat="47.35965" lon="4.92986">
        <ele>320.39999389648</ele>
        <time>2015-09-12T08:57:03.000Z</time>
      </trkpt>
      <trkpt lat="47.35959" lon="4.92989">
        <ele>320.20001220703</ele>
        <time>2015-09-12T08:57:08.000Z</time>
      </trkpt>
      <trkpt lat="47.35959" lon="4.92988">
        <ele>320</ele>
        <time>2015-09-12T08:57:11.000Z</time>
      </trkpt>
      <trkpt lat="47.35959" lon="4.92988">
        <ele>320.20001220703</ele>
        <time>2015-09-12T08:57:15.000Z</time>
      </trkpt>
      <trkpt lat="47.35955" lon="4.92992">
        <ele>320.20001220703</ele>
        <time>2015-09-12T08:57:24.000Z</time>
      </trkpt>
      <trkpt lat="47.35944" lon="4.93004">
        <ele>320</ele>
        <time>2015-09-12T08:57:29.000Z</time>
      </trkpt>
      <trkpt lat="47.35941" lon="4.93007">
        <ele>319.79998779297</ele>
        <time>2015-09-12T08:57:30.000Z</time>
      </trkpt>
      <trkpt lat="47.35933" lon="4.93018">
        <ele>320.20001220703</ele>
        <time>2015-09-12T08:57:33.000Z</time>
      </trkpt>
      <trkpt lat="47.35918" lon="4.93034">
        <ele>319</ele>
        <time>2015-09-12T08:57:37.000Z</time>
      </trkpt>
      <trkpt lat="47.35903" lon="4.93056">
        <ele>317.79998779297</ele>
        <time>2015-09-12T08:57:41.000Z</time>
      </trkpt>
      <trkpt lat="47.3589" lon="4.93077">
        <ele>318</ele>
        <time>2015-09-12T08:57:44.000Z</time>
      </trkpt>
      <trkpt lat="47.35881" lon="4.93093">
        <ele>317.60000610352</ele>
        <time>2015-09-12T08:57:46.000Z</time>
      </trkpt>
      <trkpt lat="47.35864" lon="4.93126">
        <ele>317.20001220703</ele>
        <time>2015-09-12T08:57:50.000Z</time>
      </trkpt>
      <trkpt lat="47.35855" lon="4.93141">
        <ele>315.79998779297</ele>
        <time>2015-09-12T08:57:52.000Z</time>
      </trkpt>
      <trkpt lat="47.35847" lon="4.93154">
        <ele>314.60000610352</ele>
        <time>2015-09-12T08:57:54.000Z</time>
      </trkpt>
      <trkpt lat="47.35838" lon="4.93166">
        <ele>313.20001220703</ele>
        <time>2015-09-12T08:57:56.000Z</time>
      </trkpt>
      <trkpt lat="47.35832" lon="4.93172">
        <ele>312.60000610352</ele>
        <time>2015-09-12T08:57:57.000Z</time>
      </trkpt>
      <trkpt lat="47.35814" lon="4.93189">
        <ele>312.20001220703</ele>
        <time>2015-09-12T08:58:00.000Z</time>
      </trkpt>
      <trkpt lat="47.35797" lon="4.93208">
        <ele>312.20001220703</ele>
        <time>2015-09-12T08:58:03.000Z</time>
      </trkpt>
      <trkpt lat="47.35779" lon="4.93234">
        <ele>311</ele>
        <time>2015-09-12T08:58:07.000Z</time>
      </trkpt>
      <trkpt lat="47.35774" lon="4.9324">
        <ele>311.20001220703</ele>
        <time>2015-09-12T08:58:08.000Z</time>
      </trkpt>
      <trkpt lat="47.35761" lon="4.93272">
        <ele>311.20001220703</ele>
        <time>2015-09-12T08:58:12.000Z</time>
      </trkpt>
      <trkpt lat="47.35757" lon="4.93281">
        <ele>310.20001220703</ele>
        <time>2015-09-12T08:58:13.000Z</time>
      </trkpt>
      <trkpt lat="47.35753" lon="4.93289">
        <ele>310</ele>
        <time>2015-09-12T08:58:14.000Z</time>
      </trkpt>
      <trkpt lat="47.35736" lon="4.93324">
        <ele>309.60000610352</ele>
        <time>2015-09-12T08:58:18.000Z</time>
      </trkpt>
      <trkpt lat="47.35727" lon="4.93341">
        <ele>308.60000610352</ele>
        <time>2015-09-12T08:58:20.000Z</time>
      </trkpt>
      <trkpt lat="47.3571" lon="4.93365">
        <ele>308</ele>
        <time>2015-09-12T08:58:23.000Z</time>
      </trkpt>
      <trkpt lat="47.35699" lon="4.93381">
        <ele>307.39999389648</ele>
        <time>2015-09-12T08:58:25.000Z</time>
      </trkpt>
      <trkpt lat="47.35688" lon="4.93395">
        <ele>307</ele>
        <time>2015-09-12T08:58:27.000Z</time>
      </trkpt>
      <trkpt lat="47.35673" lon="4.93418">
        <ele>306.39999389648</ele>
        <time>2015-09-12T08:58:30.000Z</time>
      </trkpt>
      <trkpt lat="47.35668" lon="4.93424">
        <ele>306</ele>
        <time>2015-09-12T08:58:31.000Z</time>
      </trkpt>
      <trkpt lat="47.35663" lon="4.93431">
        <ele>305.79998779297</ele>
        <time>2015-09-12T08:58:32.000Z</time>
      </trkpt>
      <trkpt lat="47.35646" lon="4.93449">
        <ele>305.60000610352</ele>
        <time>2015-09-12T08:58:35.000Z</time>
      </trkpt>
      <trkpt lat="47.35639" lon="4.93455">
        <ele>305.39999389648</ele>
        <time>2015-09-12T08:58:36.000Z</time>
      </trkpt>
      <trkpt lat="47.35632" lon="4.93459">
        <ele>304.60000610352</ele>
        <time>2015-09-12T08:58:37.000Z</time>
      </trkpt>
      <trkpt lat="47.35617" lon="4.93462">
        <ele>303.79998779297</ele>
        <time>2015-09-12T08:58:39.000Z</time>
      </trkpt>
      <trkpt lat="47.35606" lon="4.93459">
        <ele>303.39999389648</ele>
        <time>2015-09-12T08:58:41.000Z</time>
      </trkpt>
      <trkpt lat="47.35602" lon="4.93455">
        <ele>303.20001220703</ele>
        <time>2015-09-12T08:58:42.000Z</time>
      </trkpt>
      <trkpt lat="47.35595" lon="4.93448">
        <ele>302.79998779297</ele>
        <time>2015-09-12T08:58:44.000Z</time>
      </trkpt>
      <trkpt lat="47.35591" lon="4.93441">
        <ele>302.39999389648</ele>
        <time>2015-09-12T08:58:46.000Z</time>
      </trkpt>
      <trkpt lat="47.35589" lon="4.93439">
        <ele>302.39999389648</ele>
        <time>2015-09-12T08:58:47.000Z</time>
      </trkpt>
      <trkpt lat="47.35586" lon="4.93435">
        <ele>302.20001220703</ele>
        <time>2015-09-12T08:58:50.000Z</time>
      </trkpt>
      <trkpt lat="47.35577" lon="4.93421">
        <ele>302.20001220703</ele>
        <time>2015-09-12T08:58:54.000Z</time>
      </trkpt>
      <trkpt lat="47.35561" lon="4.93395">
        <ele>301.39999389648</ele>
        <time>2015-09-12T08:58:59.000Z</time>
      </trkpt>
      <trkpt lat="47.35548" lon="4.9338">
        <ele>300.79998779297</ele>
        <time>2015-09-12T08:59:02.000Z</time>
      </trkpt>
      <trkpt lat="47.35535" lon="4.93368">
        <ele>300.79998779297</ele>
        <time>2015-09-12T08:59:05.000Z</time>
      </trkpt>
      <trkpt lat="47.3552" lon="4.9336">
        <ele>300</ele>
        <time>2015-09-12T08:59:08.000Z</time>
      </trkpt>
      <trkpt lat="47.35509" lon="4.93356">
        <ele>299.39999389648</ele>
        <time>2015-09-12T08:59:10.000Z</time>
      </trkpt>
      <trkpt lat="47.35493" lon="4.93354">
        <ele>299.60000610352</ele>
        <time>2015-09-12T08:59:13.000Z</time>
      </trkpt>
      <trkpt lat="47.35481" lon="4.93354">
        <ele>299.39999389648</ele>
        <time>2015-09-12T08:59:15.000Z</time>
      </trkpt>
      <trkpt lat="47.35476" lon="4.93355">
        <ele>299</ele>
        <time>2015-09-12T08:59:16.000Z</time>
      </trkpt>
      <trkpt lat="47.3547" lon="4.93355">
        <ele>298.60000610352</ele>
        <time>2015-09-12T08:59:17.000Z</time>
      </trkpt>
      <trkpt lat="47.35447" lon="4.93354">
        <ele>298.20001220703</ele>
        <time>2015-09-12T08:59:21.000Z</time>
      </trkpt>
      <trkpt lat="47.35436" lon="4.93356">
        <ele>298.60000610352</ele>
        <time>2015-09-12T08:59:23.000Z</time>
      </trkpt>
      <trkpt lat="47.35419" lon="4.93364">
        <ele>298.20001220703</ele>
        <time>2015-09-12T08:59:26.000Z</time>
      </trkpt>
      <trkpt lat="47.35414" lon="4.93365">
        <ele>298</ele>
        <time>2015-09-12T08:59:27.000Z</time>
      </trkpt>
      <trkpt lat="47.35398" lon="4.93369">
        <ele>296.79998779297</ele>
        <time>2015-09-12T08:59:30.000Z</time>
      </trkpt>
      <trkpt lat="47.35381" lon="4.9337">
        <ele>296.60000610352</ele>
        <time>2015-09-12T08:59:33.000Z</time>
      </trkpt>
      <trkpt lat="47.35375" lon="4.93369">
        <ele>297</ele>
        <time>2015-09-12T08:59:34.000Z</time>
      </trkpt>
      <trkpt lat="47.35358" lon="4.93363">
        <ele>296.20001220703</ele>
        <time>2015-09-12T08:59:37.000Z</time>
      </trkpt>
      <trkpt lat="47.35324" lon="4.93353">
        <ele>295.60000610352</ele>
        <time>2015-09-12T08:59:43.000Z</time>
      </trkpt>
      <trkpt lat="47.35313" lon="4.9335">
        <ele>295.79998779297</ele>
        <time>2015-09-12T08:59:45.000Z</time>
      </trkpt>
      <trkpt lat="47.35278" lon="4.93345">
        <ele>295.20001220703</ele>
        <time>2015-09-12T08:59:51.000Z</time>
      </trkpt>
      <trkpt lat="47.35268" lon="4.93345">
        <ele>295</ele>
        <time>2015-09-12T08:59:53.000Z</time>
      </trkpt>
      <trkpt lat="47.35258" lon="4.93346">
        <ele>294.20001220703</ele>
        <time>2015-09-12T08:59:55.000Z</time>
      </trkpt>
      <trkpt lat="47.3525" lon="4.93346">
        <ele>294.20001220703</ele>
        <time>2015-09-12T08:59:57.000Z</time>
      </trkpt>
      <trkpt lat="47.35238" lon="4.93345">
        <ele>294.60000610352</ele>
        <time>2015-09-12T09:00:00.000Z</time>
      </trkpt>
      <trkpt lat="47.35229" lon="4.93344">
        <ele>294.39999389648</ele>
        <time>2015-09-12T09:00:02.000Z</time>
      </trkpt>
      <trkpt lat="47.35204" lon="4.93349">
        <ele>293.20001220703</ele>
        <time>2015-09-12T09:00:06.000Z</time>
      </trkpt>
      <trkpt lat="47.35175" lon="4.93354">
        <ele>293</ele>
        <time>2015-09-12T09:00:10.000Z</time>
      </trkpt>
      <trkpt lat="47.35169" lon="4.93355">
        <ele>293</ele>
        <time>2015-09-12T09:00:11.000Z</time>
      </trkpt>
      <trkpt lat="47.35148" lon="4.93357">
        <ele>291.79998779297</ele>
        <time>2015-09-12T09:00:14.000Z</time>
      </trkpt>
      <trkpt lat="47.35135" lon="4.93356">
        <ele>291.60000610352</ele>
        <time>2015-09-12T09:00:16.000Z</time>
      </trkpt>
      <trkpt lat="47.35105" lon="4.9335">
        <ele>292.39999389648</ele>
        <time>2015-09-12T09:00:21.000Z</time>
      </trkpt>
      <trkpt lat="47.35093" lon="4.93348">
        <ele>291.79998779297</ele>
        <time>2015-09-12T09:00:23.000Z</time>
      </trkpt>
      <trkpt lat="47.35073" lon="4.9335">
        <ele>291.60000610352</ele>
        <time>2015-09-12T09:00:26.000Z</time>
      </trkpt>
      <trkpt lat="47.35061" lon="4.93355">
        <ele>291.20001220703</ele>
        <time>2015-09-12T09:00:28.000Z</time>
      </trkpt>
      <trkpt lat="47.35056" lon="4.93359">
        <ele>291.20001220703</ele>
        <time>2015-09-12T09:00:29.000Z</time>
      </trkpt>
      <trkpt lat="47.35049" lon="4.93364">
        <ele>290.79998779297</ele>
        <time>2015-09-12T09:00:30.000Z</time>
      </trkpt>
      <trkpt lat="47.35044" lon="4.93368">
        <ele>290.60000610352</ele>
        <time>2015-09-12T09:00:31.000Z</time>
      </trkpt>
      <trkpt lat="47.35039" lon="4.93374">
        <ele>290.79998779297</ele>
        <time>2015-09-12T09:00:32.000Z</time>
      </trkpt>
      <trkpt lat="47.35027" lon="4.93395">
        <ele>290.60000610352</ele>
        <time>2015-09-12T09:00:35.000Z</time>
      </trkpt>
      <trkpt lat="47.35022" lon="4.93404">
        <ele>290.20001220703</ele>
        <time>2015-09-12T09:00:36.000Z</time>
      </trkpt>
      <trkpt lat="47.35008" lon="4.93426">
        <ele>290</ele>
        <time>2015-09-12T09:00:39.000Z</time>
      </trkpt>
      <trkpt lat="47.35003" lon="4.93432">
        <ele>289.79998779297</ele>
        <time>2015-09-12T09:00:40.000Z</time>
      </trkpt>
      <trkpt lat="47.34986" lon="4.93445">
        <ele>289.79998779297</ele>
        <time>2015-09-12T09:00:43.000Z</time>
      </trkpt>
      <trkpt lat="47.3498" lon="4.93448">
        <ele>289.60000610352</ele>
        <time>2015-09-12T09:00:44.000Z</time>
      </trkpt>
      <trkpt lat="47.34974" lon="4.9345">
        <ele>289.20001220703</ele>
        <time>2015-09-12T09:00:45.000Z</time>
      </trkpt>
      <trkpt lat="47.34948" lon="4.9346">
        <ele>288.79998779297</ele>
        <time>2015-09-12T09:00:49.000Z</time>
      </trkpt>
      <trkpt lat="47.34931" lon="4.93465">
        <ele>288.39999389648</ele>
        <time>2015-09-12T09:00:52.000Z</time>
      </trkpt>
      <trkpt lat="47.3492" lon="4.9347">
        <ele>288.79998779297</ele>
        <time>2015-09-12T09:00:54.000Z</time>
      </trkpt>
      <trkpt lat="47.34904" lon="4.9348">
        <ele>289.20001220703</ele>
        <time>2015-09-12T09:00:57.000Z</time>
      </trkpt>
      <trkpt lat="47.34896" lon="4.9349">
        <ele>289.60000610352</ele>
        <time>2015-09-12T09:00:59.000Z</time>
      </trkpt>
      <trkpt lat="47.34883" lon="4.9351">
        <ele>288.79998779297</ele>
        <time>2015-09-12T09:01:02.000Z</time>
      </trkpt>
      <trkpt lat="47.34876" lon="4.93526">
        <ele>288.39999389648</ele>
        <time>2015-09-12T09:01:04.000Z</time>
      </trkpt>
      <trkpt lat="47.34854" lon="4.9358">
        <ele>288.39999389648</ele>
        <time>2015-09-12T09:01:11.000Z</time>
      </trkpt>
      <trkpt lat="47.34847" lon="4.93608">
        <ele>288.60000610352</ele>
        <time>2015-09-12T09:01:15.000Z</time>
      </trkpt>
      <trkpt lat="47.34846" lon="4.93615">
        <ele>288.39999389648</ele>
        <time>2015-09-12T09:01:16.000Z</time>
      </trkpt>
      <trkpt lat="47.34842" lon="4.93635">
        <ele>288.60000610352</ele>
        <time>2015-09-12T09:01:19.000Z</time>
      </trkpt>
      <trkpt lat="47.3484" lon="4.93645">
        <ele>288.60000610352</ele>
        <time>2015-09-12T09:01:21.000Z</time>
      </trkpt>
      <trkpt lat="47.34837" lon="4.93654">
        <ele>288.60000610352</ele>
        <time>2015-09-12T09:01:23.000Z</time>
      </trkpt>
      <trkpt lat="47.34832" lon="4.93666">
        <ele>287.60000610352</ele>
        <time>2015-09-12T09:01:26.000Z</time>
      </trkpt>
      <trkpt lat="47.34822" lon="4.93683">
        <ele>287</ele>
        <time>2015-09-12T09:01:30.000Z</time>
      </trkpt>
      <trkpt lat="47.3481" lon="4.93697">
        <ele>285.79998779297</ele>
        <time>2015-09-12T09:01:34.000Z</time>
      </trkpt>
      <trkpt lat="47.348" lon="4.93704">
        <ele>285.20001220703</ele>
        <time>2015-09-12T09:01:38.000Z</time>
      </trkpt>
      <trkpt lat="47.348" lon="4.93707">
        <ele>285</ele>
        <time>2015-09-12T09:01:39.000Z</time>
      </trkpt>
      <trkpt lat="47.34803" lon="4.93713">
        <ele>285.39999389648</ele>
        <time>2015-09-12T09:01:43.000Z</time>
      </trkpt>
      <trkpt lat="47.34807" lon="4.93716">
        <ele>286.20001220703</ele>
        <time>2015-09-12T09:01:48.000Z</time>
      </trkpt>
      <trkpt lat="47.34808" lon="4.93716">
        <ele>286.20001220703</ele>
        <time>2015-09-12T09:01:49.000Z</time>
      </trkpt>
      <trkpt lat="47.34811" lon="4.93715">
        <ele>286.79998779297</ele>
        <time>2015-09-12T09:01:52.000Z</time>
      </trkpt>
      <trkpt lat="47.34814" lon="4.93714">
        <ele>287.20001220703</ele>
        <time>2015-09-12T09:01:54.000Z</time>
      </trkpt>
      <trkpt lat="47.34815" lon="4.93715">
        <ele>287.60000610352</ele>
        <time>2015-09-12T09:01:55.000Z</time>
      </trkpt>
      <trkpt lat="47.34817" lon="4.93716">
        <ele>287.79998779297</ele>
        <time>2015-09-12T09:01:56.000Z</time>
      </trkpt>
      <trkpt lat="47.34818" lon="4.93717">
        <ele>288.20001220703</ele>
        <time>2015-09-12T09:01:57.000Z</time>
      </trkpt>
      <trkpt lat="47.34822" lon="4.93716">
        <ele>289</ele>
        <time>2015-09-12T09:02:01.000Z</time>
      </trkpt>
      <trkpt lat="47.34828" lon="4.93712">
        <ele>289.39999389648</ele>
        <time>2015-09-12T09:02:06.000Z</time>
      </trkpt>
      <trkpt lat="47.34829" lon="4.93712">
        <ele>289.60000610352</ele>
        <time>2015-09-12T09:02:07.000Z</time>
      </trkpt>
      <trkpt lat="47.34831" lon="4.93712">
        <ele>290.20001220703</ele>
        <time>2015-09-12T09:02:09.000Z</time>
      </trkpt>
      <trkpt lat="47.34836" lon="4.93713">
        <ele>290.60000610352</ele>
        <time>2015-09-12T09:02:13.000Z</time>
      </trkpt>
      <trkpt lat="47.3484" lon="4.93712">
        <ele>291.79998779297</ele>
        <time>2015-09-12T09:02:16.000Z</time>
      </trkpt>
      <trkpt lat="47.34842" lon="4.93712">
        <ele>292.20001220703</ele>
        <time>2015-09-12T09:02:17.000Z</time>
      </trkpt>
      <trkpt lat="47.34844" lon="4.93711">
        <ele>292.39999389648</ele>
        <time>2015-09-12T09:02:19.000Z</time>
      </trkpt>
      <trkpt lat="47.34849" lon="4.93709">
        <ele>293</ele>
        <time>2015-09-12T09:02:23.000Z</time>
      </trkpt>
      <trkpt lat="47.34851" lon="4.93709">
        <ele>293.79998779297</ele>
        <time>2015-09-12T09:02:25.000Z</time>
      </trkpt>
      <trkpt lat="47.34852" lon="4.93708">
        <ele>294</ele>
        <time>2015-09-12T09:02:26.000Z</time>
      </trkpt>
      <trkpt lat="47.34857" lon="4.93703">
        <ele>294.20001220703</ele>
        <time>2015-09-12T09:02:30.000Z</time>
      </trkpt>
      <trkpt lat="47.34858" lon="4.93702">
        <ele>294.39999389648</ele>
        <time>2015-09-12T09:02:31.000Z</time>
      </trkpt>
      <trkpt lat="47.34864" lon="4.93699">
        <ele>295.39999389648</ele>
        <time>2015-09-12T09:02:36.000Z</time>
      </trkpt>
      <trkpt lat="47.34867" lon="4.93699">
        <ele>296</ele>
        <time>2015-09-12T09:02:38.000Z</time>
      </trkpt>
      <trkpt lat="47.3487" lon="4.93698">
        <ele>296.79998779297</ele>
        <time>2015-09-12T09:02:40.000Z</time>
      </trkpt>
      <trkpt lat="47.34876" lon="4.93695">
        <ele>297.20001220703</ele>
        <time>2015-09-12T09:02:44.000Z</time>
      </trkpt>
      <trkpt lat="47.3488" lon="4.93692">
        <ele>298</ele>
        <time>2015-09-12T09:02:47.000Z</time>
      </trkpt>
      <trkpt lat="47.34881" lon="4.93691">
        <ele>298.79998779297</ele>
        <time>2015-09-12T09:02:49.000Z</time>
      </trkpt>
      <trkpt lat="47.34882" lon="4.93689">
        <ele>298.79998779297</ele>
        <time>2015-09-12T09:02:50.000Z</time>
      </trkpt>
      <trkpt lat="47.34883" lon="4.93688">
        <ele>299.20001220703</ele>
        <time>2015-09-12T09:02:51.000Z</time>
      </trkpt>
      <trkpt lat="47.34888" lon="4.93691">
        <ele>300.20001220703</ele>
        <time>2015-09-12T09:02:55.000Z</time>
      </trkpt>
      <trkpt lat="47.3489" lon="4.93695">
        <ele>300.79998779297</ele>
        <time>2015-09-12T09:02:58.000Z</time>
      </trkpt>
      <trkpt lat="47.34891" lon="4.93701">
        <ele>301.20001220703</ele>
        <time>2015-09-12T09:03:02.000Z</time>
      </trkpt>
      <trkpt lat="47.34891" lon="4.93703">
        <ele>301.39999389648</ele>
        <time>2015-09-12T09:03:03.000Z</time>
      </trkpt>
      <trkpt lat="47.34892" lon="4.93704">
        <ele>301.79998779297</ele>
        <time>2015-09-12T09:03:04.000Z</time>
      </trkpt>
      <trkpt lat="47.34895" lon="4.93707">
        <ele>302.39999389648</ele>
        <time>2015-09-12T09:03:07.000Z</time>
      </trkpt>
      <trkpt lat="47.34895" lon="4.93708">
        <ele>303</ele>
        <time>2015-09-12T09:03:08.000Z</time>
      </trkpt>
      <trkpt lat="47.34895" lon="4.93708">
        <ele>303</ele>
        <time>2015-09-12T09:03:12.000Z</time>
      </trkpt>
      <trkpt lat="47.34897" lon="4.93709">
        <ele>304</ele>
        <time>2015-09-12T09:03:20.000Z</time>
      </trkpt>
      <trkpt lat="47.34901" lon="4.9371">
        <ele>305.20001220703</ele>
        <time>2015-09-12T09:03:30.000Z</time>
      </trkpt>
      <trkpt lat="47.34901" lon="4.9371">
        <ele>305.20001220703</ele>
        <time>2015-09-12T09:03:39.000Z</time>
      </trkpt>
      <trkpt lat="47.34902" lon="4.9371">
        <ele>305.20001220703</ele>
        <time>2015-09-12T09:03:57.000Z</time>
      </trkpt>
      <trkpt lat="47.34901" lon="4.9371">
        <ele>305</ele>
        <time>2015-09-12T09:04:17.000Z</time>
      </trkpt>
      <trkpt lat="47.34902" lon="4.9371">
        <ele>305.39999389648</ele>
        <time>2015-09-12T09:04:35.000Z</time>
      </trkpt>
      <trkpt lat="47.34901" lon="4.9371">
        <ele>305.39999389648</ele>
        <time>2015-09-12T09:04:46.000Z</time>
      </trkpt>
      <trkpt lat="47.34902" lon="4.9371">
        <ele>305.60000610352</ele>
        <time>2015-09-12T09:04:55.000Z</time>
      </trkpt>
      <trkpt lat="47.34902" lon="4.93711">
        <ele>305.39999389648</ele>
        <time>2015-09-12T09:05:05.000Z</time>
      </trkpt>
      <trkpt lat="47.34906" lon="4.93712">
        <ele>306</ele>
        <time>2015-09-12T09:05:10.000Z</time>
      </trkpt>
      <trkpt lat="47.34907" lon="4.93713">
        <ele>306.20001220703</ele>
        <time>2015-09-12T09:05:11.000Z</time>
      </trkpt>
      <trkpt lat="47.34908" lon="4.93716">
        <ele>306.39999389648</ele>
        <time>2015-09-12T09:05:13.000Z</time>
      </trkpt>
      <trkpt lat="47.34909" lon="4.93718">
        <ele>306.60000610352</ele>
        <time>2015-09-12T09:05:14.000Z</time>
      </trkpt>
      <trkpt lat="47.34909" lon="4.9372">
        <ele>306.79998779297</ele>
        <time>2015-09-12T09:05:15.000Z</time>
      </trkpt>
      <trkpt lat="47.3491" lon="4.93729">
        <ele>307.60000610352</ele>
        <time>2015-09-12T09:05:19.000Z</time>
      </trkpt>
      <trkpt lat="47.3491" lon="4.93734">
        <ele>308</ele>
        <time>2015-09-12T09:05:21.000Z</time>
      </trkpt>
      <trkpt lat="47.3491" lon="4.93738">
        <ele>308.60000610352</ele>
        <time>2015-09-12T09:05:23.000Z</time>
      </trkpt>
      <trkpt lat="47.34911" lon="4.93746">
        <ele>309</ele>
        <time>2015-09-12T09:05:27.000Z</time>
      </trkpt>
      <trkpt lat="47.34912" lon="4.93753">
        <ele>309.79998779297</ele>
        <time>2015-09-12T09:05:30.000Z</time>
      </trkpt>
      <trkpt lat="47.34913" lon="4.93758">
        <ele>310</ele>
        <time>2015-09-12T09:05:33.000Z</time>
      </trkpt>
      <trkpt lat="47.34914" lon="4.93765">
        <ele>310.79998779297</ele>
        <time>2015-09-12T09:05:36.000Z</time>
      </trkpt>
      <trkpt lat="47.34915" lon="4.93776">
        <ele>311.60000610352</ele>
        <time>2015-09-12T09:05:41.000Z</time>
      </trkpt>
      <trkpt lat="47.34915" lon="4.93778">
        <ele>311.79998779297</ele>
        <time>2015-09-12T09:05:42.000Z</time>
      </trkpt>
      <trkpt lat="47.34918" lon="4.93787">
        <ele>312.79998779297</ele>
        <time>2015-09-12T09:05:47.000Z</time>
      </trkpt>
      <trkpt lat="47.34918" lon="4.9379">
        <ele>313.60000610352</ele>
        <time>2015-09-12T09:05:49.000Z</time>
      </trkpt>
      <trkpt lat="47.34918" lon="4.93793">
        <ele>314.20001220703</ele>
        <time>2015-09-12T09:05:51.000Z</time>
      </trkpt>
      <trkpt lat="47.34917" lon="4.938">
        <ele>315.39999389648</ele>
        <time>2015-09-12T09:05:56.000Z</time>
      </trkpt>
      <trkpt lat="47.34915" lon="4.93804">
        <ele>315.60000610352</ele>
        <time>2015-09-12T09:06:02.000Z</time>
      </trkpt>
      <trkpt lat="47.34912" lon="4.93808">
        <ele>315.60000610352</ele>
        <time>2015-09-12T09:06:09.000Z</time>
      </trkpt>
      <trkpt lat="47.34912" lon="4.93809">
        <ele>315.79998779297</ele>
        <time>2015-09-12T09:06:17.000Z</time>
      </trkpt>
      <trkpt lat="47.34913" lon="4.93809">
        <ele>315.79998779297</ele>
        <time>2015-09-12T09:06:22.000Z</time>
      </trkpt>
      <trkpt lat="47.34912" lon="4.93809">
        <ele>315.79998779297</ele>
        <time>2015-09-12T09:06:27.000Z</time>
      </trkpt>
      <trkpt lat="47.34909" lon="4.9381">
        <ele>315.60000610352</ele>
        <time>2015-09-12T09:06:29.000Z</time>
      </trkpt>
      <trkpt lat="47.34904" lon="4.93813">
        <ele>315.79998779297</ele>
        <time>2015-09-12T09:06:35.000Z</time>
      </trkpt>
      <trkpt lat="47.349" lon="4.93817">
        <ele>315.60000610352</ele>
        <time>2015-09-12T09:06:38.000Z</time>
      </trkpt>
      <trkpt lat="47.349" lon="4.93821">
        <ele>315.79998779297</ele>
        <time>2015-09-12T09:06:40.000Z</time>
      </trkpt>
      <trkpt lat="47.34903" lon="4.93827">
        <ele>316.60000610352</ele>
        <time>2015-09-12T09:06:44.000Z</time>
      </trkpt>
      <trkpt lat="47.34904" lon="4.93831">
        <ele>317.60000610352</ele>
        <time>2015-09-12T09:06:47.000Z</time>
      </trkpt>
      <trkpt lat="47.34904" lon="4.93833">
        <ele>318</ele>
        <time>2015-09-12T09:06:48.000Z</time>
      </trkpt>
      <trkpt lat="47.34904" lon="4.93837">
        <ele>318.60000610352</ele>
        <time>2015-09-12T09:06:50.000Z</time>
      </trkpt>
      <trkpt lat="47.34905" lon="4.93842">
        <ele>319</ele>
        <time>2015-09-12T09:06:53.000Z</time>
      </trkpt>
      <trkpt lat="47.34905" lon="4.93844">
        <ele>319.39999389648</ele>
        <time>2015-09-12T09:06:54.000Z</time>
      </trkpt>
      <trkpt lat="47.34906" lon="4.93846">
        <ele>319.60000610352</ele>
        <time>2015-09-12T09:06:55.000Z</time>
      </trkpt>
      <trkpt lat="47.34906" lon="4.93851">
        <ele>320.39999389648</ele>
        <time>2015-09-12T09:06:58.000Z</time>
      </trkpt>
      <trkpt lat="47.34906" lon="4.93855">
        <ele>321.20001220703</ele>
        <time>2015-09-12T09:07:00.000Z</time>
      </trkpt>
      <trkpt lat="47.34906" lon="4.93857">
        <ele>321.39999389648</ele>
        <time>2015-09-12T09:07:01.000Z</time>
      </trkpt>
      <trkpt lat="47.34905" lon="4.93865">
        <ele>322.20001220703</ele>
        <time>2015-09-12T09:07:06.000Z</time>
      </trkpt>
      <trkpt lat="47.34905" lon="4.93867">
        <ele>322.20001220703</ele>
        <time>2015-09-12T09:07:07.000Z</time>
      </trkpt>
      <trkpt lat="47.34905" lon="4.93876">
        <ele>322.79998779297</ele>
        <time>2015-09-12T09:07:12.000Z</time>
      </trkpt>
      <trkpt lat="47.34905" lon="4.93877">
        <ele>323</ele>
        <time>2015-09-12T09:07:13.000Z</time>
      </trkpt>
      <trkpt lat="47.34905" lon="4.93886">
        <ele>324</ele>
        <time>2015-09-12T09:07:19.000Z</time>
      </trkpt>
      <trkpt lat="47.34905" lon="4.93888">
        <ele>324.20001220703</ele>
        <time>2015-09-12T09:07:20.000Z</time>
      </trkpt>
      <trkpt lat="47.34905" lon="4.93889">
        <ele>324.20001220703</ele>
        <time>2015-09-12T09:07:21.000Z</time>
      </trkpt>
      <trkpt lat="47.34903" lon="4.93899">
        <ele>325.20001220703</ele>
        <time>2015-09-12T09:07:29.000Z</time>
      </trkpt>
      <trkpt lat="47.34903" lon="4.939">
        <ele>325.20001220703</ele>
        <time>2015-09-12T09:07:30.000Z</time>
      </trkpt>
      <trkpt lat="47.34903" lon="4.93901">
        <ele>325.39999389648</ele>
        <time>2015-09-12T09:07:31.000Z</time>
      </trkpt>
      <trkpt lat="47.34902" lon="4.93906">
        <ele>326.20001220703</ele>
        <time>2015-09-12T09:07:35.000Z</time>
      </trkpt>
      <trkpt lat="47.34902" lon="4.93908">
        <ele>326.39999389648</ele>
        <time>2015-09-12T09:07:37.000Z</time>
      </trkpt>
      <trkpt lat="47.349" lon="4.93914">
        <ele>326.79998779297</ele>
        <time>2015-09-12T09:07:42.000Z</time>
      </trkpt>
      <trkpt lat="47.349" lon="4.93918">
        <ele>327.39999389648</ele>
        <time>2015-09-12T09:07:45.000Z</time>
      </trkpt>
      <trkpt lat="47.34898" lon="4.93923">
        <ele>328</ele>
        <time>2015-09-12T09:07:50.000Z</time>
      </trkpt>
      <trkpt lat="47.34896" lon="4.93927">
        <ele>328.20001220703</ele>
        <time>2015-09-12T09:07:53.000Z</time>
      </trkpt>
      <trkpt lat="47.34895" lon="4.93929">
        <ele>328.39999389648</ele>
        <time>2015-09-12T09:07:55.000Z</time>
      </trkpt>
      <trkpt lat="47.34893" lon="4.93931">
        <ele>328.60000610352</ele>
        <time>2015-09-12T09:07:57.000Z</time>
      </trkpt>
      <trkpt lat="47.3489" lon="4.93935">
        <ele>328.60000610352</ele>
        <time>2015-09-12T09:08:00.000Z</time>
      </trkpt>
      <trkpt lat="47.34887" lon="4.93939">
        <ele>329.60000610352</ele>
        <time>2015-09-12T09:08:04.000Z</time>
      </trkpt>
      <trkpt lat="47.34883" lon="4.93939">
        <ele>329.60000610352</ele>
        <time>2015-09-12T09:08:10.000Z</time>
      </trkpt>
      <trkpt lat="47.34877" lon="4.93944">
        <ele>330.60000610352</ele>
        <time>2015-09-12T09:08:19.000Z</time>
      </trkpt>
      <trkpt lat="47.34872" lon="4.93948">
        <ele>331.60000610352</ele>
        <time>2015-09-12T09:08:25.000Z</time>
      </trkpt>
      <trkpt lat="47.34871" lon="4.93951">
        <ele>331.79998779297</ele>
        <time>2015-09-12T09:08:28.000Z</time>
      </trkpt>
      <trkpt lat="47.34867" lon="4.93955">
        <ele>332.60000610352</ele>
        <time>2015-09-12T09:08:34.000Z</time>
      </trkpt>
      <trkpt lat="47.34866" lon="4.93956">
        <ele>333</ele>
        <time>2015-09-12T09:08:39.000Z</time>
      </trkpt>
      <trkpt lat="47.34866" lon="4.93956">
        <ele>332.60000610352</ele>
        <time>2015-09-12T09:08:47.000Z</time>
      </trkpt>
      <trkpt lat="47.34866" lon="4.93956">
        <ele>332.60000610352</ele>
        <time>2015-09-12T09:08:57.000Z</time>
      </trkpt>
      <trkpt lat="47.3486" lon="4.93963">
        <ele>333</ele>
        <time>2015-09-12T09:09:06.000Z</time>
      </trkpt>
      <trkpt lat="47.34855" lon="4.93976">
        <ele>333.20001220703</ele>
        <time>2015-09-12T09:09:13.000Z</time>
      </trkpt>
      <trkpt lat="47.34855" lon="4.9399">
        <ele>333.79998779297</ele>
        <time>2015-09-12T09:09:19.000Z</time>
      </trkpt>
      <trkpt lat="47.34863" lon="4.94011">
        <ele>334</ele>
        <time>2015-09-12T09:09:27.000Z</time>
      </trkpt>
      <trkpt lat="47.34877" lon="4.94027">
        <ele>333.79998779297</ele>
        <time>2015-09-12T09:09:34.000Z</time>
      </trkpt>
      <trkpt lat="47.34884" lon="4.94039">
        <ele>333.39999389648</ele>
        <time>2015-09-12T09:09:39.000Z</time>
      </trkpt>
      <trkpt lat="47.34892" lon="4.94051">
        <ele>333</ele>
        <time>2015-09-12T09:09:42.000Z</time>
      </trkpt>
      <trkpt lat="47.34895" lon="4.94056">
        <ele>333</ele>
        <time>2015-09-12T09:09:43.000Z</time>
      </trkpt>
      <trkpt lat="47.34899" lon="4.94061">
        <ele>332.79998779297</ele>
        <time>2015-09-12T09:09:44.000Z</time>
      </trkpt>
      <trkpt lat="47.34907" lon="4.94076">
        <ele>332</ele>
        <time>2015-09-12T09:09:46.000Z</time>
      </trkpt>
      <trkpt lat="47.34911" lon="4.94083">
        <ele>331.39999389648</ele>
        <time>2015-09-12T09:09:47.000Z</time>
      </trkpt>
      <trkpt lat="47.34917" lon="4.94092">
        <ele>330.60000610352</ele>
        <time>2015-09-12T09:09:48.000Z</time>
      </trkpt>
      <trkpt lat="47.34939" lon="4.94123">
        <ele>330.60000610352</ele>
        <time>2015-09-12T09:09:52.000Z</time>
      </trkpt>
      <trkpt lat="47.34958" lon="4.94161">
        <ele>330.39999389648</ele>
        <time>2015-09-12T09:09:57.000Z</time>
      </trkpt>
      <trkpt lat="47.34961" lon="4.9417">
        <ele>330.79998779297</ele>
        <time>2015-09-12T09:09:58.000Z</time>
      </trkpt>
      <trkpt lat="47.3497" lon="4.94198">
        <ele>330.60000610352</ele>
        <time>2015-09-12T09:10:01.000Z</time>
      </trkpt>
      <trkpt lat="47.34981" lon="4.94253">
        <ele>330.39999389648</ele>
        <time>2015-09-12T09:10:07.000Z</time>
      </trkpt>
      <trkpt lat="47.34984" lon="4.94262">
        <ele>330.20001220703</ele>
        <time>2015-09-12T09:10:08.000Z</time>
      </trkpt>
      <trkpt lat="47.34995" lon="4.94293">
        <ele>330.39999389648</ele>
        <time>2015-09-12T09:10:12.000Z</time>
      </trkpt>
      <trkpt lat="47.35009" lon="4.94334">
        <ele>330.20001220703</ele>
        <time>2015-09-12T09:10:18.000Z</time>
      </trkpt>
      <trkpt lat="47.35012" lon="4.9434">
        <ele>330.60000610352</ele>
        <time>2015-09-12T09:10:19.000Z</time>
      </trkpt>
      <trkpt lat="47.35022" lon="4.94368">
        <ele>331.39999389648</ele>
        <time>2015-09-12T09:10:24.000Z</time>
      </trkpt>
      <trkpt lat="47.35026" lon="4.94377">
        <ele>331.60000610352</ele>
        <time>2015-09-12T09:10:26.000Z</time>
      </trkpt>
      <trkpt lat="47.35036" lon="4.94392">
        <ele>332.60000610352</ele>
        <time>2015-09-12T09:10:30.000Z</time>
      </trkpt>
      <trkpt lat="47.35044" lon="4.94404">
        <ele>332.79998779297</ele>
        <time>2015-09-12T09:10:34.000Z</time>
      </trkpt>
      <trkpt lat="47.3505" lon="4.94409">
        <ele>333</ele>
        <time>2015-09-12T09:10:37.000Z</time>
      </trkpt>
      <trkpt lat="47.35054" lon="4.94414">
        <ele>333.79998779297</ele>
        <time>2015-09-12T09:10:40.000Z</time>
      </trkpt>
      <trkpt lat="47.3506" lon="4.94423">
        <ele>333.79998779297</ele>
        <time>2015-09-12T09:10:44.000Z</time>
      </trkpt>
      <trkpt lat="47.35074" lon="4.94445">
        <ele>334.79998779297</ele>
        <time>2015-09-12T09:10:53.000Z</time>
      </trkpt>
      <trkpt lat="47.35075" lon="4.94448">
        <ele>335</ele>
        <time>2015-09-12T09:10:54.000Z</time>
      </trkpt>
      <trkpt lat="47.35083" lon="4.94464">
        <ele>335.39999389648</ele>
        <time>2015-09-12T09:11:01.000Z</time>
      </trkpt>
      <trkpt lat="47.35089" lon="4.94477">
        <ele>336.20001220703</ele>
        <time>2015-09-12T09:11:06.000Z</time>
      </trkpt>
      <trkpt lat="47.35093" lon="4.94487">
        <ele>336.60000610352</ele>
        <time>2015-09-12T09:11:10.000Z</time>
      </trkpt>
      <trkpt lat="47.35098" lon="4.94496">
        <ele>337.39999389648</ele>
        <time>2015-09-12T09:11:14.000Z</time>
      </trkpt>
      <trkpt lat="47.35105" lon="4.94514">
        <ele>338</ele>
        <time>2015-09-12T09:11:21.000Z</time>
      </trkpt>
      <trkpt lat="47.35106" lon="4.94516">
        <ele>338.39999389648</ele>
        <time>2015-09-12T09:11:22.000Z</time>
      </trkpt>
      <trkpt lat="47.35115" lon="4.94542">
        <ele>338.79998779297</ele>
        <time>2015-09-12T09:11:31.000Z</time>
      </trkpt>
      <trkpt lat="47.35116" lon="4.94548">
        <ele>339.60000610352</ele>
        <time>2015-09-12T09:11:33.000Z</time>
      </trkpt>
      <trkpt lat="47.3512" lon="4.94561">
        <ele>340.79998779297</ele>
        <time>2015-09-12T09:11:38.000Z</time>
      </trkpt>
      <trkpt lat="47.35121" lon="4.94566">
        <ele>340.79998779297</ele>
        <time>2015-09-12T09:11:40.000Z</time>
      </trkpt>
      <trkpt lat="47.35128" lon="4.94585">
        <ele>342</ele>
        <time>2015-09-12T09:11:49.000Z</time>
      </trkpt>
      <trkpt lat="47.35129" lon="4.94587">
        <ele>342.20001220703</ele>
        <time>2015-09-12T09:11:50.000Z</time>
      </trkpt>
      <trkpt lat="47.35134" lon="4.94598">
        <ele>343.20001220703</ele>
        <time>2015-09-12T09:11:56.000Z</time>
      </trkpt>
      <trkpt lat="47.35134" lon="4.946">
        <ele>343.39999389648</ele>
        <time>2015-09-12T09:11:57.000Z</time>
      </trkpt>
      <trkpt lat="47.35137" lon="4.94614">
        <ele>344.39999389648</ele>
        <time>2015-09-12T09:12:04.000Z</time>
      </trkpt>
      <trkpt lat="47.35138" lon="4.94616">
        <ele>344.79998779297</ele>
        <time>2015-09-12T09:12:05.000Z</time>
      </trkpt>
      <trkpt lat="47.3514" lon="4.94621">
        <ele>345.39999389648</ele>
        <time>2015-09-12T09:12:08.000Z</time>
      </trkpt>
      <trkpt lat="47.35143" lon="4.94633">
        <ele>346</ele>
        <time>2015-09-12T09:12:14.000Z</time>
      </trkpt>
      <trkpt lat="47.35144" lon="4.94639">
        <ele>346.79998779297</ele>
        <time>2015-09-12T09:12:17.000Z</time>
      </trkpt>
      <trkpt lat="47.35145" lon="4.94643">
        <ele>347.20001220703</ele>
        <time>2015-09-12T09:12:19.000Z</time>
      </trkpt>
      <trkpt lat="47.35145" lon="4.94645">
        <ele>347.39999389648</ele>
        <time>2015-09-12T09:12:20.000Z</time>
      </trkpt>
      <trkpt lat="47.35147" lon="4.94651">
        <ele>348</ele>
        <time>2015-09-12T09:12:23.000Z</time>
      </trkpt>
      <trkpt lat="47.35148" lon="4.94658">
        <ele>348.20001220703</ele>
        <time>2015-09-12T09:12:26.000Z</time>
      </trkpt>
      <trkpt lat="47.35148" lon="4.94667">
        <ele>349.20001220703</ele>
        <time>2015-09-12T09:12:30.000Z</time>
      </trkpt>
      <trkpt lat="47.35149" lon="4.94673">
        <ele>350</ele>
        <time>2015-09-12T09:12:33.000Z</time>
      </trkpt>
      <trkpt lat="47.35149" lon="4.94675">
        <ele>350</ele>
        <time>2015-09-12T09:12:34.000Z</time>
      </trkpt>
      <trkpt lat="47.35151" lon="4.94681">
        <ele>350.39999389648</ele>
        <time>2015-09-12T09:12:37.000Z</time>
      </trkpt>
      <trkpt lat="47.35152" lon="4.94689">
        <ele>350.79998779297</ele>
        <time>2015-09-12T09:12:41.000Z</time>
      </trkpt>
      <trkpt lat="47.35153" lon="4.94695">
        <ele>351.60000610352</ele>
        <time>2015-09-12T09:12:44.000Z</time>
      </trkpt>
      <trkpt lat="47.35154" lon="4.94709">
        <ele>352.60000610352</ele>
        <time>2015-09-12T09:12:50.000Z</time>
      </trkpt>
      <trkpt lat="47.35155" lon="4.94724">
        <ele>353.20001220703</ele>
        <time>2015-09-12T09:12:57.000Z</time>
      </trkpt>
      <trkpt lat="47.35155" lon="4.94726">
        <ele>353.20001220703</ele>
        <time>2015-09-12T09:12:58.000Z</time>
      </trkpt>
      <trkpt lat="47.35156" lon="4.9473">
        <ele>353.79998779297</ele>
        <time>2015-09-12T09:13:00.000Z</time>
      </trkpt>
      <trkpt lat="47.35156" lon="4.94734">
        <ele>354.20001220703</ele>
        <time>2015-09-12T09:13:02.000Z</time>
      </trkpt>
      <trkpt lat="47.35157" lon="4.94744">
        <ele>354.60000610352</ele>
        <time>2015-09-12T09:13:07.000Z</time>
      </trkpt>
      <trkpt lat="47.35158" lon="4.94746">
        <ele>354.60000610352</ele>
        <time>2015-09-12T09:13:08.000Z</time>
      </trkpt>
      <trkpt lat="47.35158" lon="4.94748">
        <ele>355</ele>
        <time>2015-09-12T09:13:09.000Z</time>
      </trkpt>
      <trkpt lat="47.35161" lon="4.9476">
        <ele>356</ele>
        <time>2015-09-12T09:13:14.000Z</time>
      </trkpt>
      <trkpt lat="47.35161" lon="4.94765">
        <ele>356.60000610352</ele>
        <time>2015-09-12T09:13:16.000Z</time>
      </trkpt>
      <trkpt lat="47.35162" lon="4.94772">
        <ele>357</ele>
        <time>2015-09-12T09:13:19.000Z</time>
      </trkpt>
      <trkpt lat="47.35162" lon="4.94774">
        <ele>357</ele>
        <time>2015-09-12T09:13:20.000Z</time>
      </trkpt>
      <trkpt lat="47.35163" lon="4.94786">
        <ele>357.79998779297</ele>
        <time>2015-09-12T09:13:26.000Z</time>
      </trkpt>
      <trkpt lat="47.35163" lon="4.94789">
        <ele>358</ele>
        <time>2015-09-12T09:13:28.000Z</time>
      </trkpt>
      <trkpt lat="47.35163" lon="4.94791">
        <ele>358.20001220703</ele>
        <time>2015-09-12T09:13:29.000Z</time>
      </trkpt>
      <trkpt lat="47.35163" lon="4.94795">
        <ele>358.39999389648</ele>
        <time>2015-09-12T09:13:31.000Z</time>
      </trkpt>
      <trkpt lat="47.35163" lon="4.94804">
        <ele>359</ele>
        <time>2015-09-12T09:13:36.000Z</time>
      </trkpt>
      <trkpt lat="47.35163" lon="4.94807">
        <ele>359.39999389648</ele>
        <time>2015-09-12T09:13:38.000Z</time>
      </trkpt>
      <trkpt lat="47.35163" lon="4.94819">
        <ele>360.39999389648</ele>
        <time>2015-09-12T09:13:43.000Z</time>
      </trkpt>
      <trkpt lat="47.35163" lon="4.94829">
        <ele>361.79998779297</ele>
        <time>2015-09-12T09:13:48.000Z</time>
      </trkpt>
      <trkpt lat="47.35163" lon="4.94834">
        <ele>362.39999389648</ele>
        <time>2015-09-12T09:13:51.000Z</time>
      </trkpt>
      <trkpt lat="47.35162" lon="4.94842">
        <ele>362.79998779297</ele>
        <time>2015-09-12T09:13:56.000Z</time>
      </trkpt>
      <trkpt lat="47.35162" lon="4.94844">
        <ele>363.20001220703</ele>
        <time>2015-09-12T09:13:57.000Z</time>
      </trkpt>
      <trkpt lat="47.35161" lon="4.94848">
        <ele>364</ele>
        <time>2015-09-12T09:13:59.000Z</time>
      </trkpt>
      <trkpt lat="47.35159" lon="4.94855">
        <ele>364.39999389648</ele>
        <time>2015-09-12T09:14:03.000Z</time>
      </trkpt>
      <trkpt lat="47.35158" lon="4.94858">
        <ele>364.39999389648</ele>
        <time>2015-09-12T09:14:05.000Z</time>
      </trkpt>
      <trkpt lat="47.35157" lon="4.94861">
        <ele>365</ele>
        <time>2015-09-12T09:14:07.000Z</time>
      </trkpt>
      <trkpt lat="47.35155" lon="4.94867">
        <ele>365.60000610352</ele>
        <time>2015-09-12T09:14:10.000Z</time>
      </trkpt>
      <trkpt lat="47.35154" lon="4.94872">
        <ele>366.39999389648</ele>
        <time>2015-09-12T09:14:13.000Z</time>
      </trkpt>
      <trkpt lat="47.35151" lon="4.94879">
        <ele>367</ele>
        <time>2015-09-12T09:14:17.000Z</time>
      </trkpt>
      <trkpt lat="47.3515" lon="4.94883">
        <ele>367.39999389648</ele>
        <time>2015-09-12T09:14:19.000Z</time>
      </trkpt>
      <trkpt lat="47.35147" lon="4.94891">
        <ele>368.60000610352</ele>
        <time>2015-09-12T09:14:23.000Z</time>
      </trkpt>
      <trkpt lat="47.35147" lon="4.94893">
        <ele>368.79998779297</ele>
        <time>2015-09-12T09:14:24.000Z</time>
      </trkpt>
      <trkpt lat="47.35145" lon="4.949">
        <ele>369.20001220703</ele>
        <time>2015-09-12T09:14:28.000Z</time>
      </trkpt>
      <trkpt lat="47.35144" lon="4.94904">
        <ele>369.79998779297</ele>
        <time>2015-09-12T09:14:30.000Z</time>
      </trkpt>
      <trkpt lat="47.35143" lon="4.94905">
        <ele>370</ele>
        <time>2015-09-12T09:14:31.000Z</time>
      </trkpt>
      <trkpt lat="47.35142" lon="4.94912">
        <ele>370.79998779297</ele>
        <time>2015-09-12T09:14:35.000Z</time>
      </trkpt>
      <trkpt lat="47.35142" lon="4.94915">
        <ele>370.79998779297</ele>
        <time>2015-09-12T09:14:37.000Z</time>
      </trkpt>
      <trkpt lat="47.35142" lon="4.94919">
        <ele>371.79998779297</ele>
        <time>2015-09-12T09:14:42.000Z</time>
      </trkpt>
      <trkpt lat="47.35142" lon="4.94921">
        <ele>372</ele>
        <time>2015-09-12T09:14:44.000Z</time>
      </trkpt>
      <trkpt lat="47.35141" lon="4.94926">
        <ele>372.60000610352</ele>
        <time>2015-09-12T09:14:48.000Z</time>
      </trkpt>
      <trkpt lat="47.35142" lon="4.94927">
        <ele>372.60000610352</ele>
        <time>2015-09-12T09:14:55.000Z</time>
      </trkpt>
      <trkpt lat="47.35143" lon="4.9493">
        <ele>373</ele>
        <time>2015-09-12T09:15:04.000Z</time>
      </trkpt>
      <trkpt lat="47.35142" lon="4.94931">
        <ele>373</ele>
        <time>2015-09-12T09:15:05.000Z</time>
      </trkpt>
      <trkpt lat="47.35143" lon="4.94939">
        <ele>373.79998779297</ele>
        <time>2015-09-12T09:15:10.000Z</time>
      </trkpt>
      <trkpt lat="47.35143" lon="4.9494">
        <ele>374.20001220703</ele>
        <time>2015-09-12T09:15:12.000Z</time>
      </trkpt>
      <trkpt lat="47.35144" lon="4.94947">
        <ele>374.60000610352</ele>
        <time>2015-09-12T09:15:20.000Z</time>
      </trkpt>
      <trkpt lat="47.35144" lon="4.9495">
        <ele>375</ele>
        <time>2015-09-12T09:15:25.000Z</time>
      </trkpt>
      <trkpt lat="47.35144" lon="4.94956">
        <ele>375.20001220703</ele>
        <time>2015-09-12T09:15:27.000Z</time>
      </trkpt>
      <trkpt lat="47.35146" lon="4.94963">
        <ele>376</ele>
        <time>2015-09-12T09:15:30.000Z</time>
      </trkpt>
      <trkpt lat="47.35146" lon="4.94966">
        <ele>376.60000610352</ele>
        <time>2015-09-12T09:15:31.000Z</time>
      </trkpt>
      <trkpt lat="47.35146" lon="4.94975">
        <ele>377.60000610352</ele>
        <time>2015-09-12T09:15:35.000Z</time>
      </trkpt>
      <trkpt lat="47.35146" lon="4.94977">
        <ele>377.60000610352</ele>
        <time>2015-09-12T09:15:36.000Z</time>
      </trkpt>
      <trkpt lat="47.35146" lon="4.94995">
        <ele>378.39999389648</ele>
        <time>2015-09-12T09:15:45.000Z</time>
      </trkpt>
      <trkpt lat="47.35146" lon="4.94998">
        <ele>378.60000610352</ele>
        <time>2015-09-12T09:15:46.000Z</time>
      </trkpt>
      <trkpt lat="47.35145" lon="4.95012">
        <ele>379.60000610352</ele>
        <time>2015-09-12T09:15:53.000Z</time>
      </trkpt>
      <trkpt lat="47.35145" lon="4.95015">
        <ele>379.79998779297</ele>
        <time>2015-09-12T09:15:55.000Z</time>
      </trkpt>
      <trkpt lat="47.35143" lon="4.95026">
        <ele>380.39999389648</ele>
        <time>2015-09-12T09:16:01.000Z</time>
      </trkpt>
      <trkpt lat="47.35142" lon="4.95032">
        <ele>381</ele>
        <time>2015-09-12T09:16:04.000Z</time>
      </trkpt>
      <trkpt lat="47.35139" lon="4.95044">
        <ele>381.60000610352</ele>
        <time>2015-09-12T09:16:10.000Z</time>
      </trkpt>
      <trkpt lat="47.35138" lon="4.95053">
        <ele>382</ele>
        <time>2015-09-12T09:16:14.000Z</time>
      </trkpt>
      <trkpt lat="47.35137" lon="4.95063">
        <ele>382.60000610352</ele>
        <time>2015-09-12T09:16:19.000Z</time>
      </trkpt>
      <trkpt lat="47.35136" lon="4.9507">
        <ele>383.20001220703</ele>
        <time>2015-09-12T09:16:22.000Z</time>
      </trkpt>
      <trkpt lat="47.35137" lon="4.95088">
        <ele>384</ele>
        <time>2015-09-12T09:16:30.000Z</time>
      </trkpt>
      <trkpt lat="47.35138" lon="4.95094">
        <ele>384.20001220703</ele>
        <time>2015-09-12T09:16:35.000Z</time>
      </trkpt>
      <trkpt lat="47.35137" lon="4.95094">
        <ele>384</ele>
        <time>2015-09-12T09:16:37.000Z</time>
      </trkpt>
      <trkpt lat="47.35137" lon="4.95094">
        <ele>384.20001220703</ele>
        <time>2015-09-12T09:16:47.000Z</time>
      </trkpt>
      <trkpt lat="47.35137" lon="4.95094">
        <ele>383.79998779297</ele>
        <time>2015-09-12T09:17:01.000Z</time>
      </trkpt>
      <trkpt lat="47.35137" lon="4.95094">
        <ele>383.60000610352</ele>
        <time>2015-09-12T09:17:21.000Z</time>
      </trkpt>
      <trkpt lat="47.35137" lon="4.95094">
        <ele>383.60000610352</ele>
        <time>2015-09-12T09:17:37.000Z</time>
      </trkpt>
      <trkpt lat="47.35133" lon="4.9511">
        <ele>383.79998779297</ele>
        <time>2015-09-12T09:18:21.000Z</time>
      </trkpt>
      <trkpt lat="47.35129" lon="4.95131">
        <ele>384.39999389648</ele>
        <time>2015-09-12T09:18:29.000Z</time>
      </trkpt>
      <trkpt lat="47.35124" lon="4.95149">
        <ele>384.60000610352</ele>
        <time>2015-09-12T09:18:37.000Z</time>
      </trkpt>
      <trkpt lat="47.35117" lon="4.95172">
        <ele>384.79998779297</ele>
        <time>2015-09-12T09:18:46.000Z</time>
      </trkpt>
      <trkpt lat="47.35115" lon="4.9518">
        <ele>384.79998779297</ele>
        <time>2015-09-12T09:18:49.000Z</time>
      </trkpt>
      <trkpt lat="47.3511" lon="4.95192">
        <ele>384.79998779297</ele>
        <time>2015-09-12T09:18:53.000Z</time>
      </trkpt>
      <trkpt lat="47.351" lon="4.95219">
        <ele>384.79998779297</ele>
        <time>2015-09-12T09:19:01.000Z</time>
      </trkpt>
      <trkpt lat="47.35096" lon="4.9523">
        <ele>385.20001220703</ele>
        <time>2015-09-12T09:19:04.000Z</time>
      </trkpt>
      <trkpt lat="47.35089" lon="4.95251">
        <ele>384.60000610352</ele>
        <time>2015-09-12T09:19:09.000Z</time>
      </trkpt>
      <trkpt lat="47.35075" lon="4.95292">
        <ele>385</ele>
        <time>2015-09-12T09:19:18.000Z</time>
      </trkpt>
      <trkpt lat="47.35064" lon="4.95324">
        <ele>384.79998779297</ele>
        <time>2015-09-12T09:19:25.000Z</time>
      </trkpt>
      <trkpt lat="47.35054" lon="4.9536">
        <ele>384.79998779297</ele>
        <time>2015-09-12T09:19:33.000Z</time>
      </trkpt>
      <trkpt lat="47.35049" lon="4.95404">
        <ele>384.79998779297</ele>
        <time>2015-09-12T09:19:42.000Z</time>
      </trkpt>
      <trkpt lat="47.35048" lon="4.95425">
        <ele>384.20001220703</ele>
        <time>2015-09-12T09:19:46.000Z</time>
      </trkpt>
      <trkpt lat="47.35046" lon="4.95443">
        <ele>384.20001220703</ele>
        <time>2015-09-12T09:19:50.000Z</time>
      </trkpt>
      <trkpt lat="47.35046" lon="4.9547">
        <ele>383.60000610352</ele>
        <time>2015-09-12T09:19:56.000Z</time>
      </trkpt>
      <trkpt lat="47.35046" lon="4.95497">
        <ele>384.20001220703</ele>
        <time>2015-09-12T09:20:02.000Z</time>
      </trkpt>
      <trkpt lat="47.35036" lon="4.95522">
        <ele>383.60000610352</ele>
        <time>2015-09-12T09:20:08.000Z</time>
      </trkpt>
      <trkpt lat="47.35026" lon="4.95546">
        <ele>383.60000610352</ele>
        <time>2015-09-12T09:20:12.000Z</time>
      </trkpt>
      <trkpt lat="47.35011" lon="4.95588">
        <ele>383.39999389648</ele>
        <time>2015-09-12T09:20:17.000Z</time>
      </trkpt>
      <trkpt lat="47.35005" lon="4.95605">
        <ele>383.20001220703</ele>
        <time>2015-09-12T09:20:21.000Z</time>
      </trkpt>
      <trkpt lat="47.35004" lon="4.95608">
        <ele>383</ele>
        <time>2015-09-12T09:20:22.000Z</time>
      </trkpt>
      <trkpt lat="47.35" lon="4.9562">
        <ele>382.79998779297</ele>
        <time>2015-09-12T09:20:27.000Z</time>
      </trkpt>
      <trkpt lat="47.34992" lon="4.95643">
        <ele>383</ele>
        <time>2015-09-12T09:20:33.000Z</time>
      </trkpt>
      <trkpt lat="47.34974" lon="4.95686">
        <ele>383.20001220703</ele>
        <time>2015-09-12T09:20:42.000Z</time>
      </trkpt>
      <trkpt lat="47.34961" lon="4.95716">
        <ele>382</ele>
        <time>2015-09-12T09:20:48.000Z</time>
      </trkpt>
      <trkpt lat="47.34957" lon="4.95727">
        <ele>382</ele>
        <time>2015-09-12T09:20:50.000Z</time>
      </trkpt>
      <trkpt lat="47.34939" lon="4.9576">
        <ele>381.79998779297</ele>
        <time>2015-09-12T09:20:56.000Z</time>
      </trkpt>
      <trkpt lat="47.34931" lon="4.95771">
        <ele>379.79998779297</ele>
        <time>2015-09-12T09:20:58.000Z</time>
      </trkpt>
      <trkpt lat="47.34923" lon="4.95783">
        <ele>378.79998779297</ele>
        <time>2015-09-12T09:21:00.000Z</time>
      </trkpt>
      <trkpt lat="47.34917" lon="4.95795">
        <ele>378.60000610352</ele>
        <time>2015-09-12T09:21:02.000Z</time>
      </trkpt>
      <trkpt lat="47.34903" lon="4.95829">
        <ele>377.79998779297</ele>
        <time>2015-09-12T09:21:07.000Z</time>
      </trkpt>
      <trkpt lat="47.349" lon="4.95836">
        <ele>377.79998779297</ele>
        <time>2015-09-12T09:21:08.000Z</time>
      </trkpt>
      <trkpt lat="47.34898" lon="4.95843">
        <ele>377.79998779297</ele>
        <time>2015-09-12T09:21:09.000Z</time>
      </trkpt>
      <trkpt lat="47.34891" lon="4.95868">
        <ele>376.39999389648</ele>
        <time>2015-09-12T09:21:12.000Z</time>
      </trkpt>
      <trkpt lat="47.34888" lon="4.95876">
        <ele>375</ele>
        <time>2015-09-12T09:21:13.000Z</time>
      </trkpt>
      <trkpt lat="47.34875" lon="4.95908">
        <ele>373.39999389648</ele>
        <time>2015-09-12T09:21:17.000Z</time>
      </trkpt>
      <trkpt lat="47.34871" lon="4.95915">
        <ele>372</ele>
        <time>2015-09-12T09:21:18.000Z</time>
      </trkpt>
      <trkpt lat="47.34857" lon="4.95929">
        <ele>371.20001220703</ele>
        <time>2015-09-12T09:21:21.000Z</time>
      </trkpt>
      <trkpt lat="47.34851" lon="4.95933">
        <ele>370.79998779297</ele>
        <time>2015-09-12T09:21:22.000Z</time>
      </trkpt>
      <trkpt lat="47.34846" lon="4.95935">
        <ele>370.20001220703</ele>
        <time>2015-09-12T09:21:23.000Z</time>
      </trkpt>
      <trkpt lat="47.3484" lon="4.95937">
        <ele>369.39999389648</ele>
        <time>2015-09-12T09:21:24.000Z</time>
      </trkpt>
      <trkpt lat="47.34835" lon="4.95939">
        <ele>368.79998779297</ele>
        <time>2015-09-12T09:21:25.000Z</time>
      </trkpt>
      <trkpt lat="47.34829" lon="4.95941">
        <ele>368.20001220703</ele>
        <time>2015-09-12T09:21:26.000Z</time>
      </trkpt>
      <trkpt lat="47.34819" lon="4.9595">
        <ele>366.60000610352</ele>
        <time>2015-09-12T09:21:28.000Z</time>
      </trkpt>
      <trkpt lat="47.34811" lon="4.95961">
        <ele>365.60000610352</ele>
        <time>2015-09-12T09:21:30.000Z</time>
      </trkpt>
      <trkpt lat="47.34807" lon="4.95966">
        <ele>365</ele>
        <time>2015-09-12T09:21:31.000Z</time>
      </trkpt>
      <trkpt lat="47.34797" lon="4.95976">
        <ele>363.20001220703</ele>
        <time>2015-09-12T09:21:33.000Z</time>
      </trkpt>
      <trkpt lat="47.34792" lon="4.95982">
        <ele>362.60000610352</ele>
        <time>2015-09-12T09:21:34.000Z</time>
      </trkpt>
      <trkpt lat="47.3478" lon="4.95993">
        <ele>362</ele>
        <time>2015-09-12T09:21:36.000Z</time>
      </trkpt>
      <trkpt lat="47.34768" lon="4.96004">
        <ele>360.60000610352</ele>
        <time>2015-09-12T09:21:38.000Z</time>
      </trkpt>
      <trkpt lat="47.34756" lon="4.96016">
        <ele>359</ele>
        <time>2015-09-12T09:21:40.000Z</time>
      </trkpt>
      <trkpt lat="47.34745" lon="4.9603">
        <ele>357.60000610352</ele>
        <time>2015-09-12T09:21:42.000Z</time>
      </trkpt>
      <trkpt lat="47.34737" lon="4.96041">
        <ele>355.60000610352</ele>
        <time>2015-09-12T09:21:44.000Z</time>
      </trkpt>
      <trkpt lat="47.3473" lon="4.96051">
        <ele>354.39999389648</ele>
        <time>2015-09-12T09:21:46.000Z</time>
      </trkpt>
      <trkpt lat="47.34717" lon="4.96066">
        <ele>352.79998779297</ele>
        <time>2015-09-12T09:21:49.000Z</time>
      </trkpt>
      <trkpt lat="47.34702" lon="4.96078">
        <ele>351.60000610352</ele>
        <time>2015-09-12T09:21:52.000Z</time>
      </trkpt>
      <trkpt lat="47.34687" lon="4.96086">
        <ele>350</ele>
        <time>2015-09-12T09:21:55.000Z</time>
      </trkpt>
      <trkpt lat="47.34681" lon="4.9609">
        <ele>348.60000610352</ele>
        <time>2015-09-12T09:21:57.000Z</time>
      </trkpt>
      <trkpt lat="47.34673" lon="4.96094">
        <ele>348</ele>
        <time>2015-09-12T09:21:59.000Z</time>
      </trkpt>
      <trkpt lat="47.34663" lon="4.961">
        <ele>347.60000610352</ele>
        <time>2015-09-12T09:22:01.000Z</time>
      </trkpt>
      <trkpt lat="47.34651" lon="4.96109">
        <ele>346.20001220703</ele>
        <time>2015-09-12T09:22:03.000Z</time>
      </trkpt>
      <trkpt lat="47.34644" lon="4.96115">
        <ele>345</ele>
        <time>2015-09-12T09:22:04.000Z</time>
      </trkpt>
      <trkpt lat="47.34639" lon="4.96119">
        <ele>343.79998779297</ele>
        <time>2015-09-12T09:22:05.000Z</time>
      </trkpt>
      <trkpt lat="47.34631" lon="4.96126">
        <ele>342.79998779297</ele>
        <time>2015-09-12T09:22:07.000Z</time>
      </trkpt>
      <trkpt lat="47.34627" lon="4.9613">
        <ele>341.39999389648</ele>
        <time>2015-09-12T09:22:09.000Z</time>
      </trkpt>
      <trkpt lat="47.34625" lon="4.96131">
        <ele>340.39999389648</ele>
        <time>2015-09-12T09:22:11.000Z</time>
      </trkpt>
      <trkpt lat="47.34625" lon="4.96132">
        <ele>340.39999389648</ele>
        <time>2015-09-12T09:22:12.000Z</time>
      </trkpt>
      <trkpt lat="47.34625" lon="4.96133">
        <ele>339.79998779297</ele>
        <time>2015-09-12T09:22:19.000Z</time>
      </trkpt>
      <trkpt lat="47.34624" lon="4.96133">
        <ele>339.60000610352</ele>
        <time>2015-09-12T09:22:28.000Z</time>
      </trkpt>
      <trkpt lat="47.34624" lon="4.96133">
        <ele>339.79998779297</ele>
        <time>2015-09-12T09:22:40.000Z</time>
      </trkpt>
      <trkpt lat="47.34624" lon="4.96134">
        <ele>339.60000610352</ele>
        <time>2015-09-12T09:22:53.000Z</time>
      </trkpt>
      <trkpt lat="47.34624" lon="4.96134">
        <ele>339.39999389648</ele>
        <time>2015-09-12T09:22:54.000Z</time>
      </trkpt>
      <trkpt lat="47.34624" lon="4.96134">
        <ele>339.20001220703</ele>
        <time>2015-09-12T09:22:55.000Z</time>
      </trkpt>
      <trkpt lat="47.34624" lon="4.96134">
        <ele>339.39999389648</ele>
        <time>2015-09-12T09:22:59.000Z</time>
      </trkpt>
      <trkpt lat="47.34617" lon="4.9614">
        <ele>339</ele>
        <time>2015-09-12T09:23:02.000Z</time>
      </trkpt>
      <trkpt lat="47.34614" lon="4.96143">
        <ele>337.79998779297</ele>
        <time>2015-09-12T09:23:03.000Z</time>
      </trkpt>
      <trkpt lat="47.34607" lon="4.96148">
        <ele>336.20001220703</ele>
        <time>2015-09-12T09:23:05.000Z</time>
      </trkpt>
      <trkpt lat="47.34599" lon="4.96154">
        <ele>335.60000610352</ele>
        <time>2015-09-12T09:23:07.000Z</time>
      </trkpt>
      <trkpt lat="47.34592" lon="4.96158">
        <ele>335.20001220703</ele>
        <time>2015-09-12T09:23:09.000Z</time>
      </trkpt>
      <trkpt lat="47.34588" lon="4.96161">
        <ele>333.39999389648</ele>
        <time>2015-09-12T09:23:10.000Z</time>
      </trkpt>
      <trkpt lat="47.3458" lon="4.96165">
        <ele>333.79998779297</ele>
        <time>2015-09-12T09:23:12.000Z</time>
      </trkpt>
      <trkpt lat="47.34571" lon="4.96168">
        <ele>331.79998779297</ele>
        <time>2015-09-12T09:23:14.000Z</time>
      </trkpt>
      <trkpt lat="47.34564" lon="4.96171">
        <ele>330.60000610352</ele>
        <time>2015-09-12T09:23:16.000Z</time>
      </trkpt>
      <trkpt lat="47.34562" lon="4.96173">
        <ele>329</ele>
        <time>2015-09-12T09:23:17.000Z</time>
      </trkpt>
      <trkpt lat="47.34561" lon="4.96174">
        <ele>328.60000610352</ele>
        <time>2015-09-12T09:23:18.000Z</time>
      </trkpt>
      <trkpt lat="47.3456" lon="4.96174">
        <ele>328.60000610352</ele>
        <time>2015-09-12T09:23:23.000Z</time>
      </trkpt>
      <trkpt lat="47.34559" lon="4.96174">
        <ele>328.20001220703</ele>
        <time>2015-09-12T09:23:28.000Z</time>
      </trkpt>
      <trkpt lat="47.34554" lon="4.96177">
        <ele>327.79998779297</ele>
        <time>2015-09-12T09:23:30.000Z</time>
      </trkpt>
      <trkpt lat="47.34543" lon="4.96182">
        <ele>326.39999389648</ele>
        <time>2015-09-12T09:23:33.000Z</time>
      </trkpt>
      <trkpt lat="47.34536" lon="4.96187">
        <ele>326.20001220703</ele>
        <time>2015-09-12T09:23:35.000Z</time>
      </trkpt>
      <trkpt lat="47.3453" lon="4.96191">
        <ele>324.79998779297</ele>
        <time>2015-09-12T09:23:37.000Z</time>
      </trkpt>
      <trkpt lat="47.34526" lon="4.96193">
        <ele>323.39999389648</ele>
        <time>2015-09-12T09:23:38.000Z</time>
      </trkpt>
      <trkpt lat="47.34519" lon="4.96199">
        <ele>322</ele>
        <time>2015-09-12T09:23:40.000Z</time>
      </trkpt>
      <trkpt lat="47.34515" lon="4.96201">
        <ele>320.79998779297</ele>
        <time>2015-09-12T09:23:41.000Z</time>
      </trkpt>
      <trkpt lat="47.34507" lon="4.96208">
        <ele>319.20001220703</ele>
        <time>2015-09-12T09:23:43.000Z</time>
      </trkpt>
      <trkpt lat="47.34499" lon="4.96215">
        <ele>316.79998779297</ele>
        <time>2015-09-12T09:23:45.000Z</time>
      </trkpt>
      <trkpt lat="47.34495" lon="4.96218">
        <ele>316</ele>
        <time>2015-09-12T09:23:46.000Z</time>
      </trkpt>
      <trkpt lat="47.34492" lon="4.96221">
        <ele>315</ele>
        <time>2015-09-12T09:23:47.000Z</time>
      </trkpt>
      <trkpt lat="47.34489" lon="4.96225">
        <ele>313.20001220703</ele>
        <time>2015-09-12T09:23:48.000Z</time>
      </trkpt>
      <trkpt lat="47.34486" lon="4.96227">
        <ele>311</ele>
        <time>2015-09-12T09:23:49.000Z</time>
      </trkpt>
      <trkpt lat="47.34475" lon="4.96238">
        <ele>311.20001220703</ele>
        <time>2015-09-12T09:23:53.000Z</time>
      </trkpt>
      <trkpt lat="47.34471" lon="4.96244">
        <ele>309.60000610352</ele>
        <time>2015-09-12T09:23:55.000Z</time>
      </trkpt>
      <trkpt lat="47.34468" lon="4.96246">
        <ele>308.39999389648</ele>
        <time>2015-09-12T09:23:56.000Z</time>
      </trkpt>
      <trkpt lat="47.34466" lon="4.96248">
        <ele>307.20001220703</ele>
        <time>2015-09-12T09:23:57.000Z</time>
      </trkpt>
      <trkpt lat="47.34462" lon="4.96253">
        <ele>308</ele>
        <time>2015-09-12T09:23:59.000Z</time>
      </trkpt>
      <trkpt lat="47.34454" lon="4.96261">
        <ele>305.60000610352</ele>
        <time>2015-09-12T09:24:02.000Z</time>
      </trkpt>
      <trkpt lat="47.3445" lon="4.96267">
        <ele>304.79998779297</ele>
        <time>2015-09-12T09:24:04.000Z</time>
      </trkpt>
      <trkpt lat="47.34448" lon="4.96269">
        <ele>304</ele>
        <time>2015-09-12T09:24:05.000Z</time>
      </trkpt>
      <trkpt lat="47.34439" lon="4.96278">
        <ele>302.60000610352</ele>
        <time>2015-09-12T09:24:09.000Z</time>
      </trkpt>
      <trkpt lat="47.34434" lon="4.96283">
        <ele>301</ele>
        <time>2015-09-12T09:24:11.000Z</time>
      </trkpt>
      <trkpt lat="47.34429" lon="4.96287">
        <ele>299.20001220703</ele>
        <time>2015-09-12T09:24:13.000Z</time>
      </trkpt>
      <trkpt lat="47.34421" lon="4.96296">
        <ele>297.39999389648</ele>
        <time>2015-09-12T09:24:17.000Z</time>
      </trkpt>
      <trkpt lat="47.34419" lon="4.96299">
        <ele>297</ele>
        <time>2015-09-12T09:24:18.000Z</time>
      </trkpt>
      <trkpt lat="47.34416" lon="4.96304">
        <ele>295.79998779297</ele>
        <time>2015-09-12T09:24:21.000Z</time>
      </trkpt>
      <trkpt lat="47.34416" lon="4.96304">
        <ele>295.60000610352</ele>
        <time>2015-09-12T09:24:22.000Z</time>
      </trkpt>
      <trkpt lat="47.34416" lon="4.96304">
        <ele>295.39999389648</ele>
        <time>2015-09-12T09:24:38.000Z</time>
      </trkpt>
      <trkpt lat="47.34413" lon="4.96308">
        <ele>295</ele>
        <time>2015-09-12T09:24:45.000Z</time>
      </trkpt>
      <trkpt lat="47.34412" lon="4.96309">
        <ele>294.60000610352</ele>
        <time>2015-09-12T09:24:46.000Z</time>
      </trkpt>
      <trkpt lat="47.34412" lon="4.96309">
        <ele>294.60000610352</ele>
        <time>2015-09-12T09:24:52.000Z</time>
      </trkpt>
      <trkpt lat="47.3441" lon="4.96311">
        <ele>294.60000610352</ele>
        <time>2015-09-12T09:25:09.000Z</time>
      </trkpt>
      <trkpt lat="47.34399" lon="4.96322">
        <ele>293.60000610352</ele>
        <time>2015-09-12T09:25:13.000Z</time>
      </trkpt>
      <trkpt lat="47.34395" lon="4.96324">
        <ele>292.60000610352</ele>
        <time>2015-09-12T09:25:14.000Z</time>
      </trkpt>
      <trkpt lat="47.34392" lon="4.96327">
        <ele>291.39999389648</ele>
        <time>2015-09-12T09:25:15.000Z</time>
      </trkpt>
      <trkpt lat="47.34381" lon="4.96343">
        <ele>289.60000610352</ele>
        <time>2015-09-12T09:25:19.000Z</time>
      </trkpt>
      <trkpt lat="47.34378" lon="4.96347">
        <ele>289.20001220703</ele>
        <time>2015-09-12T09:25:20.000Z</time>
      </trkpt>
      <trkpt lat="47.34375" lon="4.9635">
        <ele>288.20001220703</ele>
        <time>2015-09-12T09:25:21.000Z</time>
      </trkpt>
      <trkpt lat="47.34368" lon="4.96358">
        <ele>287</ele>
        <time>2015-09-12T09:25:23.000Z</time>
      </trkpt>
      <trkpt lat="47.34365" lon="4.96364">
        <ele>286.60000610352</ele>
        <time>2015-09-12T09:25:24.000Z</time>
      </trkpt>
      <trkpt lat="47.3436" lon="4.96375">
        <ele>285.39999389648</ele>
        <time>2015-09-12T09:25:26.000Z</time>
      </trkpt>
      <trkpt lat="47.34358" lon="4.9638">
        <ele>284.20001220703</ele>
        <time>2015-09-12T09:25:27.000Z</time>
      </trkpt>
      <trkpt lat="47.34353" lon="4.96389">
        <ele>282.60000610352</ele>
        <time>2015-09-12T09:25:29.000Z</time>
      </trkpt>
      <trkpt lat="47.34351" lon="4.96394">
        <ele>282</ele>
        <time>2015-09-12T09:25:30.000Z</time>
      </trkpt>
      <trkpt lat="47.34347" lon="4.96398">
        <ele>281.20001220703</ele>
        <time>2015-09-12T09:25:31.000Z</time>
      </trkpt>
      <trkpt lat="47.34345" lon="4.96402">
        <ele>280</ele>
        <time>2015-09-12T09:25:32.000Z</time>
      </trkpt>
      <trkpt lat="47.34339" lon="4.96416">
        <ele>279.79998779297</ele>
        <time>2015-09-12T09:25:35.000Z</time>
      </trkpt>
      <trkpt lat="47.34333" lon="4.96425">
        <ele>278.20001220703</ele>
        <time>2015-09-12T09:25:37.000Z</time>
      </trkpt>
      <trkpt lat="47.34326" lon="4.96434">
        <ele>276.60000610352</ele>
        <time>2015-09-12T09:25:39.000Z</time>
      </trkpt>
      <trkpt lat="47.34323" lon="4.9644">
        <ele>276.20001220703</ele>
        <time>2015-09-12T09:25:40.000Z</time>
      </trkpt>
      <trkpt lat="47.34321" lon="4.96444">
        <ele>275.39999389648</ele>
        <time>2015-09-12T09:25:41.000Z</time>
      </trkpt>
      <trkpt lat="47.34315" lon="4.96455">
        <ele>273.60000610352</ele>
        <time>2015-09-12T09:25:43.000Z</time>
      </trkpt>
      <trkpt lat="47.34312" lon="4.9646">
        <ele>272.39999389648</ele>
        <time>2015-09-12T09:25:44.000Z</time>
      </trkpt>
      <trkpt lat="47.34309" lon="4.96465">
        <ele>272.79998779297</ele>
        <time>2015-09-12T09:25:45.000Z</time>
      </trkpt>
      <trkpt lat="47.34306" lon="4.96469">
        <ele>272.79998779297</ele>
        <time>2015-09-12T09:25:46.000Z</time>
      </trkpt>
      <trkpt lat="47.34303" lon="4.96472">
        <ele>271.39999389648</ele>
        <time>2015-09-12T09:25:47.000Z</time>
      </trkpt>
      <trkpt lat="47.34297" lon="4.96477">
        <ele>270.20001220703</ele>
        <time>2015-09-12T09:25:49.000Z</time>
      </trkpt>
      <trkpt lat="47.34294" lon="4.9648">
        <ele>269.20001220703</ele>
        <time>2015-09-12T09:25:50.000Z</time>
      </trkpt>
      <trkpt lat="47.34291" lon="4.96482">
        <ele>268.79998779297</ele>
        <time>2015-09-12T09:25:51.000Z</time>
      </trkpt>
      <trkpt lat="47.34282" lon="4.96491">
        <ele>267.79998779297</ele>
        <time>2015-09-12T09:25:54.000Z</time>
      </trkpt>
      <trkpt lat="47.34279" lon="4.96495">
        <ele>267.60000610352</ele>
        <time>2015-09-12T09:25:55.000Z</time>
      </trkpt>
      <trkpt lat="47.34274" lon="4.96501">
        <ele>266.20001220703</ele>
        <time>2015-09-12T09:25:57.000Z</time>
      </trkpt>
      <trkpt lat="47.34272" lon="4.96506">
        <ele>265.60000610352</ele>
        <time>2015-09-12T09:25:59.000Z</time>
      </trkpt>
      <trkpt lat="47.34269" lon="4.96509">
        <ele>265</ele>
        <time>2015-09-12T09:26:01.000Z</time>
      </trkpt>
      <trkpt lat="47.34269" lon="4.9651">
        <ele>264.60000610352</ele>
        <time>2015-09-12T09:26:02.000Z</time>
      </trkpt>
      <trkpt lat="47.34269" lon="4.9651">
        <ele>264.39999389648</ele>
        <time>2015-09-12T09:26:04.000Z</time>
      </trkpt>
      <trkpt lat="47.34269" lon="4.96511">
        <ele>264.20001220703</ele>
        <time>2015-09-12T09:26:14.000Z</time>
      </trkpt>
      <trkpt lat="47.34269" lon="4.96511">
        <ele>264.39999389648</ele>
        <time>2015-09-12T09:26:41.000Z</time>
      </trkpt>
      <trkpt lat="47.34269" lon="4.96513">
        <ele>264.20001220703</ele>
        <time>2015-09-12T09:26:50.000Z</time>
      </trkpt>
      <trkpt lat="47.34268" lon="4.96516">
        <ele>264</ele>
        <time>2015-09-12T09:26:51.000Z</time>
      </trkpt>
      <trkpt lat="47.34269" lon="4.9653">
        <ele>263.60000610352</ele>
        <time>2015-09-12T09:26:54.000Z</time>
      </trkpt>
      <trkpt lat="47.3427" lon="4.96537">
        <ele>263.20001220703</ele>
        <time>2015-09-12T09:26:55.000Z</time>
      </trkpt>
      <trkpt lat="47.34272" lon="4.96546">
        <ele>262.39999389648</ele>
        <time>2015-09-12T09:26:56.000Z</time>
      </trkpt>
      <trkpt lat="47.34276" lon="4.96564">
        <ele>260.79998779297</ele>
        <time>2015-09-12T09:26:58.000Z</time>
      </trkpt>
      <trkpt lat="47.34276" lon="4.96572">
        <ele>260</ele>
        <time>2015-09-12T09:26:59.000Z</time>
      </trkpt>
      <trkpt lat="47.34277" lon="4.96581">
        <ele>259.39999389648</ele>
        <time>2015-09-12T09:27:00.000Z</time>
      </trkpt>
      <trkpt lat="47.34278" lon="4.96597">
        <ele>257.79998779297</ele>
        <time>2015-09-12T09:27:02.000Z</time>
      </trkpt>
      <trkpt lat="47.34276" lon="4.96605">
        <ele>257</ele>
        <time>2015-09-12T09:27:04.000Z</time>
      </trkpt>
      <trkpt lat="47.34275" lon="4.96606">
        <ele>256.60000610352</ele>
        <time>2015-09-12T09:27:05.000Z</time>
      </trkpt>
      <trkpt lat="47.34266" lon="4.96608">
        <ele>256</ele>
        <time>2015-09-12T09:27:08.000Z</time>
      </trkpt>
      <trkpt lat="47.34255" lon="4.96606">
        <ele>255.80000305176</ele>
        <time>2015-09-12T09:27:11.000Z</time>
      </trkpt>
      <trkpt lat="47.34251" lon="4.96605">
        <ele>255.60000610352</ele>
        <time>2015-09-12T09:27:12.000Z</time>
      </trkpt>
      <trkpt lat="47.34241" lon="4.96602">
        <ele>255.60000610352</ele>
        <time>2015-09-12T09:27:14.000Z</time>
      </trkpt>
      <trkpt lat="47.34231" lon="4.966">
        <ele>255.39999389648</ele>
        <time>2015-09-12T09:27:16.000Z</time>
      </trkpt>
      <trkpt lat="47.34215" lon="4.96595">
        <ele>255</ele>
        <time>2015-09-12T09:27:19.000Z</time>
      </trkpt>
      <trkpt lat="47.34209" lon="4.96593">
        <ele>254.80000305176</ele>
        <time>2015-09-12T09:27:20.000Z</time>
      </trkpt>
      <trkpt lat="47.34203" lon="4.96592">
        <ele>254.39999389648</ele>
        <time>2015-09-12T09:27:21.000Z</time>
      </trkpt>
      <trkpt lat="47.34185" lon="4.96586">
        <ele>253.60000610352</ele>
        <time>2015-09-12T09:27:24.000Z</time>
      </trkpt>
      <trkpt lat="47.34181" lon="4.96584">
        <ele>253</ele>
        <time>2015-09-12T09:27:25.000Z</time>
      </trkpt>
      <trkpt lat="47.34176" lon="4.96584">
        <ele>252.60000610352</ele>
        <time>2015-09-12T09:27:27.000Z</time>
      </trkpt>
      <trkpt lat="47.34174" lon="4.96585">
        <ele>252.60000610352</ele>
        <time>2015-09-12T09:27:28.000Z</time>
      </trkpt>
      <trkpt lat="47.34169" lon="4.96596">
        <ele>252.39999389648</ele>
        <time>2015-09-12T09:27:31.000Z</time>
      </trkpt>
      <trkpt lat="47.34166" lon="4.96608">
        <ele>252.19999694824</ele>
        <time>2015-09-12T09:27:33.000Z</time>
      </trkpt>
      <trkpt lat="47.34163" lon="4.96626">
        <ele>252.19999694824</ele>
        <time>2015-09-12T09:27:36.000Z</time>
      </trkpt>
      <trkpt lat="47.3416" lon="4.96638">
        <ele>252.39999389648</ele>
        <time>2015-09-12T09:27:38.000Z</time>
      </trkpt>
      <trkpt lat="47.34149" lon="4.96698">
        <ele>252.19999694824</ele>
        <time>2015-09-12T09:27:47.000Z</time>
      </trkpt>
      <trkpt lat="47.34138" lon="4.96752">
        <ele>251.19999694824</ele>
        <time>2015-09-12T09:27:54.000Z</time>
      </trkpt>
      <trkpt lat="47.34135" lon="4.96765">
        <ele>251</ele>
        <time>2015-09-12T09:27:56.000Z</time>
      </trkpt>
      <trkpt lat="47.34128" lon="4.968">
        <ele>250.39999389648</ele>
        <time>2015-09-12T09:28:02.000Z</time>
      </trkpt>
      <trkpt lat="47.34123" lon="4.96828">
        <ele>250.19999694824</ele>
        <time>2015-09-12T09:28:06.000Z</time>
      </trkpt>
      <trkpt lat="47.3412" lon="4.96844">
        <ele>250</ele>
        <time>2015-09-12T09:28:08.000Z</time>
      </trkpt>
      <trkpt lat="47.34116" lon="4.9686">
        <ele>249.80000305176</ele>
        <time>2015-09-12T09:28:10.000Z</time>
      </trkpt>
      <trkpt lat="47.34106" lon="4.9689">
        <ele>249.60000610352</ele>
        <time>2015-09-12T09:28:14.000Z</time>
      </trkpt>
      <trkpt lat="47.34091" lon="4.96936">
        <ele>250.80000305176</ele>
        <time>2015-09-12T09:28:21.000Z</time>
      </trkpt>
      <trkpt lat="47.34087" lon="4.96953">
        <ele>251.19999694824</ele>
        <time>2015-09-12T09:28:24.000Z</time>
      </trkpt>
      <trkpt lat="47.34082" lon="4.96973">
        <ele>251.60000610352</ele>
        <time>2015-09-12T09:28:28.000Z</time>
      </trkpt>
      <trkpt lat="47.34076" lon="4.96998">
        <ele>252.39999389648</ele>
        <time>2015-09-12T09:28:34.000Z</time>
      </trkpt>
      <trkpt lat="47.34074" lon="4.97004">
        <ele>252.80000305176</ele>
        <time>2015-09-12T09:28:36.000Z</time>
      </trkpt>
      <trkpt lat="47.34075" lon="4.97024">
        <ele>253.19999694824</ele>
        <time>2015-09-12T09:28:42.000Z</time>
      </trkpt>
      <trkpt lat="47.3408" lon="4.97022">
        <ele>253.19999694824</ele>
        <time>2015-09-12T09:28:45.000Z</time>
      </trkpt>
      <trkpt lat="47.34079" lon="4.97013">
        <ele>253.39999389648</ele>
        <time>2015-09-12T09:28:48.000Z</time>
      </trkpt>
      <trkpt lat="47.34078" lon="4.9701">
        <ele>253.19999694824</ele>
        <time>2015-09-12T09:28:49.000Z</time>
      </trkpt>
      <trkpt lat="47.34081" lon="4.96991">
        <ele>252.80000305176</ele>
        <time>2015-09-12T09:28:54.000Z</time>
      </trkpt>
      <trkpt lat="47.34087" lon="4.96967">
        <ele>252.19999694824</ele>
        <time>2015-09-12T09:28:58.000Z</time>
      </trkpt>
      <trkpt lat="47.34091" lon="4.96954">
        <ele>252</ele>
        <time>2015-09-12T09:29:00.000Z</time>
      </trkpt>
      <trkpt lat="47.34099" lon="4.96926">
        <ele>250.80000305176</ele>
        <time>2015-09-12T09:29:04.000Z</time>
      </trkpt>
      <trkpt lat="47.34105" lon="4.96905">
        <ele>250.60000610352</ele>
        <time>2015-09-12T09:29:07.000Z</time>
      </trkpt>
      <trkpt lat="47.34114" lon="4.96876">
        <ele>250.39999389648</ele>
        <time>2015-09-12T09:29:11.000Z</time>
      </trkpt>
      <trkpt lat="47.34121" lon="4.9685">
        <ele>250</ele>
        <time>2015-09-12T09:29:15.000Z</time>
      </trkpt>
      <trkpt lat="47.34126" lon="4.96816">
        <ele>250.19999694824</ele>
        <time>2015-09-12T09:29:21.000Z</time>
      </trkpt>
      <trkpt lat="47.34126" lon="4.96802">
        <ele>250.39999389648</ele>
        <time>2015-09-12T09:29:26.000Z</time>
      </trkpt>
      <trkpt lat="47.34126" lon="4.968">
        <ele>250.39999389648</ele>
        <time>2015-09-12T09:29:31.000Z</time>
      </trkpt>
      <trkpt lat="47.34126" lon="4.968">
        <ele>250.39999389648</ele>
        <time>2015-09-12T09:29:33.000Z</time>
      </trkpt>
    </trkseg>
  </trk>
</gpx>